<?xml version="1.0" encoding="UTF-8" standalone="no" ?>
<gpx xmlns="http://www.topografix.com/GPX/1/1" xmlns:xsi="http://www.w3.org/2001/XMLSchema-instance" xsi:schemaLocation="http://www.topografix.com/GPX/1/1 http://www.topografix.com/GPX/1/1/gpx.xsd" version="1.1" creator="VisuGPX - https://www.visugpx.com">
  <metadata>
    <name>Pointe de Marcelly</name>
    <desc><![CDATA[AlpineQuest Track 5/4/24 10:04:59]]></desc>
  </metadata>
  <trk>
    <name><![CDATA[Pointe de Marcelly]]></name>
    <trkseg>
      <trkpt lat="46.14003" lon="6.58525">
        <ele>1456.784</ele>
        <time>2024-05-04T08:04:59Z</time>
      </trkpt>
      <trkpt lat="46.14015" lon="6.58518">
        <ele>1477.255</ele>
        <time>2024-05-04T08:05:04Z</time>
      </trkpt>
      <trkpt lat="46.14024" lon="6.58514">
        <ele>1483.416</ele>
        <time>2024-05-04T08:05:09Z</time>
      </trkpt>
      <trkpt lat="46.14022" lon="6.58514">
        <ele>1484.063</ele>
        <time>2024-05-04T08:05:14Z</time>
      </trkpt>
      <trkpt lat="46.14015" lon="6.5852">
        <ele>1487.77</ele>
        <time>2024-05-04T08:05:19Z</time>
      </trkpt>
      <trkpt lat="46.1401" lon="6.58518">
        <ele>1488.222</ele>
        <time>2024-05-04T08:05:24Z</time>
      </trkpt>
      <trkpt lat="46.1401" lon="6.58518">
        <ele>1489.288</ele>
        <time>2024-05-04T08:05:29Z</time>
      </trkpt>
      <trkpt lat="46.1401" lon="6.58518">
        <ele>1493.835</ele>
        <time>2024-05-04T08:05:34Z</time>
      </trkpt>
      <trkpt lat="46.1401" lon="6.58518">
        <ele>1492.662</ele>
        <time>2024-05-04T08:05:39Z</time>
      </trkpt>
      <trkpt lat="46.1401" lon="6.58518">
        <ele>1494.881</ele>
        <time>2024-05-04T08:05:44Z</time>
      </trkpt>
      <trkpt lat="46.1401" lon="6.58518">
        <ele>1492.479</ele>
        <time>2024-05-04T08:05:49Z</time>
      </trkpt>
      <trkpt lat="46.1401" lon="6.58518">
        <ele>1494.352</ele>
        <time>2024-05-04T08:05:54Z</time>
      </trkpt>
      <trkpt lat="46.14009" lon="6.58519">
        <ele>1500.86</ele>
        <time>2024-05-04T08:05:59Z</time>
      </trkpt>
      <trkpt lat="46.14008" lon="6.5852">
        <ele>1503.111</ele>
        <time>2024-05-04T08:06:04Z</time>
      </trkpt>
      <trkpt lat="46.14006" lon="6.58521">
        <ele>1514.165</ele>
        <time>2024-05-04T08:06:09Z</time>
      </trkpt>
      <trkpt lat="46.14004" lon="6.58521">
        <ele>1516.484</ele>
        <time>2024-05-04T08:06:14Z</time>
      </trkpt>
      <trkpt lat="46.14003" lon="6.58522">
        <ele>1518.267</ele>
        <time>2024-05-04T08:06:19Z</time>
      </trkpt>
      <trkpt lat="46.14003" lon="6.58522">
        <ele>1518.52</ele>
        <time>2024-05-04T08:06:24Z</time>
      </trkpt>
      <trkpt lat="46.14003" lon="6.58522">
        <ele>1518.718</ele>
        <time>2024-05-04T08:06:29Z</time>
      </trkpt>
      <trkpt lat="46.14" lon="6.58523">
        <ele>1523.592</ele>
        <time>2024-05-04T08:06:34Z</time>
      </trkpt>
      <trkpt lat="46.13999" lon="6.58523">
        <ele>1523.562</ele>
        <time>2024-05-04T08:06:39Z</time>
      </trkpt>
      <trkpt lat="46.13998" lon="6.58522">
        <ele>1522.459</ele>
        <time>2024-05-04T08:06:44Z</time>
      </trkpt>
      <trkpt lat="46.13998" lon="6.58522">
        <ele>1522.431</ele>
        <time>2024-05-04T08:06:49Z</time>
      </trkpt>
      <trkpt lat="46.13998" lon="6.58522">
        <ele>1522.58</ele>
        <time>2024-05-04T08:06:54Z</time>
      </trkpt>
      <trkpt lat="46.13998" lon="6.58522">
        <ele>1522.264</ele>
        <time>2024-05-04T08:06:59Z</time>
      </trkpt>
      <trkpt lat="46.13998" lon="6.58522">
        <ele>1522.239</ele>
        <time>2024-05-04T08:07:04Z</time>
      </trkpt>
      <trkpt lat="46.13998" lon="6.58522">
        <ele>1520.671</ele>
        <time>2024-05-04T08:07:09Z</time>
      </trkpt>
      <trkpt lat="46.13998" lon="6.58522">
        <ele>1519.502</ele>
        <time>2024-05-04T08:07:14Z</time>
      </trkpt>
      <trkpt lat="46.13998" lon="6.58522">
        <ele>1519.035</ele>
        <time>2024-05-04T08:07:19Z</time>
      </trkpt>
      <trkpt lat="46.13998" lon="6.58522">
        <ele>1519.635</ele>
        <time>2024-05-04T08:07:24Z</time>
      </trkpt>
      <trkpt lat="46.13998" lon="6.58522">
        <ele>1519.518</ele>
        <time>2024-05-04T08:07:29Z</time>
      </trkpt>
      <trkpt lat="46.13998" lon="6.58522">
        <ele>1519.189</ele>
        <time>2024-05-04T08:07:34Z</time>
      </trkpt>
      <trkpt lat="46.13998" lon="6.58522">
        <ele>1518.182</ele>
        <time>2024-05-04T08:07:39Z</time>
      </trkpt>
      <trkpt lat="46.13998" lon="6.58522">
        <ele>1518.177</ele>
        <time>2024-05-04T08:07:44Z</time>
      </trkpt>
      <trkpt lat="46.13998" lon="6.58522">
        <ele>1517.752</ele>
        <time>2024-05-04T08:07:49Z</time>
      </trkpt>
      <trkpt lat="46.13998" lon="6.58522">
        <ele>1517.882</ele>
        <time>2024-05-04T08:07:54Z</time>
      </trkpt>
      <trkpt lat="46.13998" lon="6.58522">
        <ele>1517.885</ele>
        <time>2024-05-04T08:07:59Z</time>
      </trkpt>
      <trkpt lat="46.13998" lon="6.58522">
        <ele>1517.88</ele>
        <time>2024-05-04T08:08:04Z</time>
      </trkpt>
      <trkpt lat="46.13998" lon="6.58522">
        <ele>1517.556</ele>
        <time>2024-05-04T08:08:09Z</time>
      </trkpt>
      <trkpt lat="46.13998" lon="6.58522">
        <ele>1517.023</ele>
        <time>2024-05-04T08:08:14Z</time>
      </trkpt>
      <trkpt lat="46.13998" lon="6.58522">
        <ele>1516.542</ele>
        <time>2024-05-04T08:08:19Z</time>
      </trkpt>
      <trkpt lat="46.13998" lon="6.58522">
        <ele>1516.233</ele>
        <time>2024-05-04T08:08:24Z</time>
      </trkpt>
      <trkpt lat="46.13998" lon="6.58522">
        <ele>1516.217</ele>
        <time>2024-05-04T08:08:29Z</time>
      </trkpt>
      <trkpt lat="46.13998" lon="6.58522">
        <ele>1515.878</ele>
        <time>2024-05-04T08:08:34Z</time>
      </trkpt>
      <trkpt lat="46.13998" lon="6.58522">
        <ele>1514.257</ele>
        <time>2024-05-04T08:08:39Z</time>
      </trkpt>
      <trkpt lat="46.13998" lon="6.58522">
        <ele>1514.251</ele>
        <time>2024-05-04T08:08:44Z</time>
      </trkpt>
      <trkpt lat="46.13998" lon="6.58522">
        <ele>1513.963</ele>
        <time>2024-05-04T08:08:49Z</time>
      </trkpt>
      <trkpt lat="46.13998" lon="6.58522">
        <ele>1512.225</ele>
        <time>2024-05-04T08:08:54Z</time>
      </trkpt>
      <trkpt lat="46.13998" lon="6.58522">
        <ele>1512.07</ele>
        <time>2024-05-04T08:08:59Z</time>
      </trkpt>
      <trkpt lat="46.13998" lon="6.58522">
        <ele>1511.423</ele>
        <time>2024-05-04T08:09:04Z</time>
      </trkpt>
      <trkpt lat="46.13998" lon="6.58522">
        <ele>1509.529</ele>
        <time>2024-05-04T08:09:09Z</time>
      </trkpt>
      <trkpt lat="46.13998" lon="6.58522">
        <ele>1509.521</ele>
        <time>2024-05-04T08:09:14Z</time>
      </trkpt>
      <trkpt lat="46.13998" lon="6.58522">
        <ele>1509.307</ele>
        <time>2024-05-04T08:09:19Z</time>
      </trkpt>
      <trkpt lat="46.13998" lon="6.58522">
        <ele>1507.764</ele>
        <time>2024-05-04T08:09:24Z</time>
      </trkpt>
      <trkpt lat="46.13998" lon="6.58522">
        <ele>1507.747</ele>
        <time>2024-05-04T08:09:29Z</time>
      </trkpt>
      <trkpt lat="46.13998" lon="6.58522">
        <ele>1507.709</ele>
        <time>2024-05-04T08:09:34Z</time>
      </trkpt>
      <trkpt lat="46.13998" lon="6.58522">
        <ele>1507.694</ele>
        <time>2024-05-04T08:09:39Z</time>
      </trkpt>
      <trkpt lat="46.13998" lon="6.58522">
        <ele>1507.657</ele>
        <time>2024-05-04T08:09:44Z</time>
      </trkpt>
      <trkpt lat="46.13998" lon="6.58522">
        <ele>1507.627</ele>
        <time>2024-05-04T08:09:49Z</time>
      </trkpt>
      <trkpt lat="46.13998" lon="6.58522">
        <ele>1507.593</ele>
        <time>2024-05-04T08:09:54Z</time>
      </trkpt>
      <trkpt lat="46.13998" lon="6.58522">
        <ele>1507.566</ele>
        <time>2024-05-04T08:09:59Z</time>
      </trkpt>
      <trkpt lat="46.13998" lon="6.58522">
        <ele>1507.536</ele>
        <time>2024-05-04T08:10:04Z</time>
      </trkpt>
      <trkpt lat="46.13998" lon="6.58522">
        <ele>1507.501</ele>
        <time>2024-05-04T08:10:09Z</time>
      </trkpt>
      <trkpt lat="46.13998" lon="6.58522">
        <ele>1507.46</ele>
        <time>2024-05-04T08:10:14Z</time>
      </trkpt>
      <trkpt lat="46.13998" lon="6.58522">
        <ele>1507.433</ele>
        <time>2024-05-04T08:10:19Z</time>
      </trkpt>
      <trkpt lat="46.13998" lon="6.58522">
        <ele>1507.401</ele>
        <time>2024-05-04T08:10:24Z</time>
      </trkpt>
      <trkpt lat="46.13998" lon="6.58522">
        <ele>1505.65</ele>
        <time>2024-05-04T08:10:29Z</time>
      </trkpt>
      <trkpt lat="46.13998" lon="6.58522">
        <ele>1505.634</ele>
        <time>2024-05-04T08:10:34Z</time>
      </trkpt>
      <trkpt lat="46.13998" lon="6.58522">
        <ele>1505.6</ele>
        <time>2024-05-04T08:10:39Z</time>
      </trkpt>
      <trkpt lat="46.13998" lon="6.58522">
        <ele>1505.569</ele>
        <time>2024-05-04T08:10:44Z</time>
      </trkpt>
      <trkpt lat="46.13998" lon="6.58522">
        <ele>1505.539</ele>
        <time>2024-05-04T08:10:49Z</time>
      </trkpt>
      <trkpt lat="46.13998" lon="6.58522">
        <ele>1504.434</ele>
        <time>2024-05-04T08:10:54Z</time>
      </trkpt>
      <trkpt lat="46.13998" lon="6.58522">
        <ele>1504.466</ele>
        <time>2024-05-04T08:10:59Z</time>
      </trkpt>
      <trkpt lat="46.13998" lon="6.58522">
        <ele>1504.316</ele>
        <time>2024-05-04T08:11:04Z</time>
      </trkpt>
      <trkpt lat="46.13998" lon="6.58522">
        <ele>1504.316</ele>
        <time>2024-05-04T08:11:09Z</time>
      </trkpt>
      <trkpt lat="46.13998" lon="6.58522">
        <ele>1503.768</ele>
        <time>2024-05-04T08:11:14Z</time>
      </trkpt>
      <trkpt lat="46.13998" lon="6.58522">
        <ele>1503.062</ele>
        <time>2024-05-04T08:11:19Z</time>
      </trkpt>
      <trkpt lat="46.13998" lon="6.58522">
        <ele>1503.062</ele>
        <time>2024-05-04T08:11:24Z</time>
      </trkpt>
      <trkpt lat="46.13998" lon="6.58522">
        <ele>1503.068</ele>
        <time>2024-05-04T08:11:29Z</time>
      </trkpt>
      <trkpt lat="46.13998" lon="6.58522">
        <ele>1503.074</ele>
        <time>2024-05-04T08:11:34Z</time>
      </trkpt>
      <trkpt lat="46.13998" lon="6.58522">
        <ele>1503.083</ele>
        <time>2024-05-04T08:11:39Z</time>
      </trkpt>
      <trkpt lat="46.13998" lon="6.58522">
        <ele>1503.09</ele>
        <time>2024-05-04T08:11:44Z</time>
      </trkpt>
      <trkpt lat="46.13998" lon="6.58522">
        <ele>1502.691</ele>
        <time>2024-05-04T08:11:49Z</time>
      </trkpt>
      <trkpt lat="46.13998" lon="6.58522">
        <ele>1502.453</ele>
        <time>2024-05-04T08:11:54Z</time>
      </trkpt>
      <trkpt lat="46.13998" lon="6.58522">
        <ele>1502.44</ele>
        <time>2024-05-04T08:11:59Z</time>
      </trkpt>
      <trkpt lat="46.13998" lon="6.58522">
        <ele>1502.393</ele>
        <time>2024-05-04T08:12:04Z</time>
      </trkpt>
      <trkpt lat="46.13998" lon="6.58522">
        <ele>1502.308</ele>
        <time>2024-05-04T08:12:09Z</time>
      </trkpt>
      <trkpt lat="46.13998" lon="6.58522">
        <ele>1502.304</ele>
        <time>2024-05-04T08:12:14Z</time>
      </trkpt>
      <trkpt lat="46.13998" lon="6.58522">
        <ele>1502.304</ele>
        <time>2024-05-04T08:12:19Z</time>
      </trkpt>
      <trkpt lat="46.13998" lon="6.58522">
        <ele>1502.699</ele>
        <time>2024-05-04T08:12:24Z</time>
      </trkpt>
      <trkpt lat="46.13998" lon="6.58522">
        <ele>1502.713</ele>
        <time>2024-05-04T08:12:29Z</time>
      </trkpt>
      <trkpt lat="46.13998" lon="6.58522">
        <ele>1502.72</ele>
        <time>2024-05-04T08:12:34Z</time>
      </trkpt>
      <trkpt lat="46.13998" lon="6.58522">
        <ele>1502.726</ele>
        <time>2024-05-04T08:12:39Z</time>
      </trkpt>
      <trkpt lat="46.13998" lon="6.58522">
        <ele>1502.733</ele>
        <time>2024-05-04T08:12:44Z</time>
      </trkpt>
      <trkpt lat="46.13998" lon="6.58522">
        <ele>1502.501</ele>
        <time>2024-05-04T08:12:49Z</time>
      </trkpt>
      <trkpt lat="46.13998" lon="6.58522">
        <ele>1502.937</ele>
        <time>2024-05-04T08:12:54Z</time>
      </trkpt>
      <trkpt lat="46.13998" lon="6.58522">
        <ele>1502.713</ele>
        <time>2024-05-04T08:12:59Z</time>
      </trkpt>
      <trkpt lat="46.13998" lon="6.58522">
        <ele>1502.726</ele>
        <time>2024-05-04T08:13:04Z</time>
      </trkpt>
      <trkpt lat="46.13998" lon="6.58522">
        <ele>1502.735</ele>
        <time>2024-05-04T08:13:09Z</time>
      </trkpt>
      <trkpt lat="46.13998" lon="6.58522">
        <ele>1503.175</ele>
        <time>2024-05-04T08:13:14Z</time>
      </trkpt>
      <trkpt lat="46.13998" lon="6.58522">
        <ele>1502.984</ele>
        <time>2024-05-04T08:13:19Z</time>
      </trkpt>
      <trkpt lat="46.13998" lon="6.58522">
        <ele>1503.232</ele>
        <time>2024-05-04T08:13:24Z</time>
      </trkpt>
      <trkpt lat="46.13998" lon="6.58522">
        <ele>1503.232</ele>
        <time>2024-05-04T08:13:29Z</time>
      </trkpt>
      <trkpt lat="46.13998" lon="6.58522">
        <ele>1503.395</ele>
        <time>2024-05-04T08:13:34Z</time>
      </trkpt>
      <trkpt lat="46.13998" lon="6.58522">
        <ele>1503.387</ele>
        <time>2024-05-04T08:13:39Z</time>
      </trkpt>
      <trkpt lat="46.13998" lon="6.58522">
        <ele>1505.022</ele>
        <time>2024-05-04T08:13:44Z</time>
      </trkpt>
      <trkpt lat="46.13998" lon="6.58522">
        <ele>1505.003</ele>
        <time>2024-05-04T08:13:49Z</time>
      </trkpt>
      <trkpt lat="46.13998" lon="6.58522">
        <ele>1504.998</ele>
        <time>2024-05-04T08:13:54Z</time>
      </trkpt>
      <trkpt lat="46.13998" lon="6.58522">
        <ele>1504.997</ele>
        <time>2024-05-04T08:13:59Z</time>
      </trkpt>
      <trkpt lat="46.13998" lon="6.58522">
        <ele>1504.995</ele>
        <time>2024-05-04T08:14:04Z</time>
      </trkpt>
      <trkpt lat="46.13998" lon="6.58522">
        <ele>1504.993</ele>
        <time>2024-05-04T08:14:09Z</time>
      </trkpt>
      <trkpt lat="46.13998" lon="6.58522">
        <ele>1504.993</ele>
        <time>2024-05-04T08:14:14Z</time>
      </trkpt>
      <trkpt lat="46.13986" lon="6.58518">
        <ele>1504.994</ele>
        <time>2024-05-04T08:14:19Z</time>
      </trkpt>
      <trkpt lat="46.13986" lon="6.58518">
        <ele>1504.997</ele>
        <time>2024-05-04T08:14:24Z</time>
      </trkpt>
      <trkpt lat="46.13985" lon="6.58518">
        <ele>1505.015</ele>
        <time>2024-05-04T08:14:29Z</time>
      </trkpt>
      <trkpt lat="46.13986" lon="6.58518">
        <ele>1505.044</ele>
        <time>2024-05-04T08:14:34Z</time>
      </trkpt>
      <trkpt lat="46.13986" lon="6.58518">
        <ele>1505.042</ele>
        <time>2024-05-04T08:14:39Z</time>
      </trkpt>
      <trkpt lat="46.13985" lon="6.58518">
        <ele>1505.052</ele>
        <time>2024-05-04T08:14:44Z</time>
      </trkpt>
      <trkpt lat="46.13985" lon="6.58518">
        <ele>1505.042</ele>
        <time>2024-05-04T08:14:49Z</time>
      </trkpt>
      <trkpt lat="46.13985" lon="6.58518">
        <ele>1505.031</ele>
        <time>2024-05-04T08:14:54Z</time>
      </trkpt>
      <trkpt lat="46.13985" lon="6.58518">
        <ele>1505.02</ele>
        <time>2024-05-04T08:14:59Z</time>
      </trkpt>
      <trkpt lat="46.13985" lon="6.58518">
        <ele>1505.024</ele>
        <time>2024-05-04T08:15:04Z</time>
      </trkpt>
      <trkpt lat="46.13985" lon="6.58518">
        <ele>1505.032</ele>
        <time>2024-05-04T08:15:09Z</time>
      </trkpt>
      <trkpt lat="46.13985" lon="6.58518">
        <ele>1505.036</ele>
        <time>2024-05-04T08:15:14Z</time>
      </trkpt>
      <trkpt lat="46.13985" lon="6.58518">
        <ele>1505.045</ele>
        <time>2024-05-04T08:15:19Z</time>
      </trkpt>
      <trkpt lat="46.13985" lon="6.58518">
        <ele>1505.052</ele>
        <time>2024-05-04T08:15:24Z</time>
      </trkpt>
      <trkpt lat="46.13985" lon="6.58518">
        <ele>1505.056</ele>
        <time>2024-05-04T08:15:29Z</time>
      </trkpt>
      <trkpt lat="46.13985" lon="6.58518">
        <ele>1505.061</ele>
        <time>2024-05-04T08:15:34Z</time>
      </trkpt>
      <trkpt lat="46.13985" lon="6.58518">
        <ele>1505.07</ele>
        <time>2024-05-04T08:15:39Z</time>
      </trkpt>
      <trkpt lat="46.13985" lon="6.58518">
        <ele>1505.068</ele>
        <time>2024-05-04T08:15:44Z</time>
      </trkpt>
      <trkpt lat="46.13985" lon="6.58518">
        <ele>1505.074</ele>
        <time>2024-05-04T08:15:49Z</time>
      </trkpt>
      <trkpt lat="46.13985" lon="6.58518">
        <ele>1505.085</ele>
        <time>2024-05-04T08:15:54Z</time>
      </trkpt>
      <trkpt lat="46.13985" lon="6.58518">
        <ele>1505.104</ele>
        <time>2024-05-04T08:15:59Z</time>
      </trkpt>
      <trkpt lat="46.13985" lon="6.58518">
        <ele>1505.104</ele>
        <time>2024-05-04T08:16:04Z</time>
      </trkpt>
      <trkpt lat="46.13985" lon="6.58517">
        <ele>1505.532</ele>
        <time>2024-05-04T08:16:09Z</time>
      </trkpt>
      <trkpt lat="46.13985" lon="6.58517">
        <ele>1505.531</ele>
        <time>2024-05-04T08:16:14Z</time>
      </trkpt>
      <trkpt lat="46.13985" lon="6.58517">
        <ele>1505.54</ele>
        <time>2024-05-04T08:16:19Z</time>
      </trkpt>
      <trkpt lat="46.13985" lon="6.58517">
        <ele>1505.529</ele>
        <time>2024-05-04T08:16:24Z</time>
      </trkpt>
      <trkpt lat="46.13985" lon="6.58516">
        <ele>1505.809</ele>
        <time>2024-05-04T08:16:29Z</time>
      </trkpt>
      <trkpt lat="46.13985" lon="6.58516">
        <ele>1505.866</ele>
        <time>2024-05-04T08:16:34Z</time>
      </trkpt>
      <trkpt lat="46.13985" lon="6.58516">
        <ele>1505.873</ele>
        <time>2024-05-04T08:16:39Z</time>
      </trkpt>
      <trkpt lat="46.13985" lon="6.58516">
        <ele>1505.872</ele>
        <time>2024-05-04T08:16:44Z</time>
      </trkpt>
      <trkpt lat="46.13985" lon="6.58516">
        <ele>1505.877</ele>
        <time>2024-05-04T08:16:49Z</time>
      </trkpt>
      <trkpt lat="46.13985" lon="6.58516">
        <ele>1506.082</ele>
        <time>2024-05-04T08:16:54Z</time>
      </trkpt>
      <trkpt lat="46.13985" lon="6.58516">
        <ele>1505.735</ele>
        <time>2024-05-04T08:16:59Z</time>
      </trkpt>
      <trkpt lat="46.13985" lon="6.58516">
        <ele>1506.024</ele>
        <time>2024-05-04T08:17:04Z</time>
      </trkpt>
      <trkpt lat="46.13985" lon="6.58516">
        <ele>1505.93</ele>
        <time>2024-05-04T08:17:09Z</time>
      </trkpt>
      <trkpt lat="46.13985" lon="6.58516">
        <ele>1505.926</ele>
        <time>2024-05-04T08:17:14Z</time>
      </trkpt>
      <trkpt lat="46.13985" lon="6.58516">
        <ele>1506.103</ele>
        <time>2024-05-04T08:17:19Z</time>
      </trkpt>
      <trkpt lat="46.13985" lon="6.58516">
        <ele>1507.591</ele>
        <time>2024-05-04T08:17:24Z</time>
      </trkpt>
      <trkpt lat="46.13985" lon="6.58516">
        <ele>1507.983</ele>
        <time>2024-05-04T08:17:29Z</time>
      </trkpt>
      <trkpt lat="46.13985" lon="6.58516">
        <ele>1508.033</ele>
        <time>2024-05-04T08:17:34Z</time>
      </trkpt>
      <trkpt lat="46.13985" lon="6.58516">
        <ele>1508.478</ele>
        <time>2024-05-04T08:17:39Z</time>
      </trkpt>
      <trkpt lat="46.13985" lon="6.58516">
        <ele>1508.448</ele>
        <time>2024-05-04T08:17:44Z</time>
      </trkpt>
      <trkpt lat="46.13985" lon="6.58516">
        <ele>1508.375</ele>
        <time>2024-05-04T08:17:49Z</time>
      </trkpt>
      <trkpt lat="46.13985" lon="6.58516">
        <ele>1509.54</ele>
        <time>2024-05-04T08:17:54Z</time>
      </trkpt>
      <trkpt lat="46.13985" lon="6.58516">
        <ele>1510.274</ele>
        <time>2024-05-04T08:17:59Z</time>
      </trkpt>
      <trkpt lat="46.13985" lon="6.58516">
        <ele>1510.28</ele>
        <time>2024-05-04T08:18:04Z</time>
      </trkpt>
      <trkpt lat="46.13985" lon="6.58516">
        <ele>1510.285</ele>
        <time>2024-05-04T08:18:09Z</time>
      </trkpt>
      <trkpt lat="46.13985" lon="6.58516">
        <ele>1509.064</ele>
        <time>2024-05-04T08:18:14Z</time>
      </trkpt>
      <trkpt lat="46.13985" lon="6.58516">
        <ele>1506.347</ele>
        <time>2024-05-04T08:18:19Z</time>
      </trkpt>
      <trkpt lat="46.13985" lon="6.58516">
        <ele>1505.904</ele>
        <time>2024-05-04T08:18:24Z</time>
      </trkpt>
      <trkpt lat="46.13985" lon="6.58516">
        <ele>1505.686</ele>
        <time>2024-05-04T08:18:29Z</time>
      </trkpt>
      <trkpt lat="46.13985" lon="6.58516">
        <ele>1505.695</ele>
        <time>2024-05-04T08:18:34Z</time>
      </trkpt>
      <trkpt lat="46.13985" lon="6.58516">
        <ele>1506.184</ele>
        <time>2024-05-04T08:18:39Z</time>
      </trkpt>
      <trkpt lat="46.13985" lon="6.58516">
        <ele>1507.722</ele>
        <time>2024-05-04T08:18:44Z</time>
      </trkpt>
      <trkpt lat="46.13985" lon="6.58516">
        <ele>1507.756</ele>
        <time>2024-05-04T08:18:49Z</time>
      </trkpt>
      <trkpt lat="46.13985" lon="6.58516">
        <ele>1507.755</ele>
        <time>2024-05-04T08:18:54Z</time>
      </trkpt>
      <trkpt lat="46.13985" lon="6.58516">
        <ele>1507.747</ele>
        <time>2024-05-04T08:18:59Z</time>
      </trkpt>
      <trkpt lat="46.13985" lon="6.58516">
        <ele>1507.739</ele>
        <time>2024-05-04T08:19:04Z</time>
      </trkpt>
      <trkpt lat="46.13985" lon="6.58516">
        <ele>1507.734</ele>
        <time>2024-05-04T08:19:09Z</time>
      </trkpt>
      <trkpt lat="46.13985" lon="6.58516">
        <ele>1507.963</ele>
        <time>2024-05-04T08:19:14Z</time>
      </trkpt>
      <trkpt lat="46.13985" lon="6.58516">
        <ele>1508.445</ele>
        <time>2024-05-04T08:19:19Z</time>
      </trkpt>
      <trkpt lat="46.13985" lon="6.58516">
        <ele>1508.448</ele>
        <time>2024-05-04T08:19:24Z</time>
      </trkpt>
      <trkpt lat="46.13985" lon="6.58516">
        <ele>1508.444</ele>
        <time>2024-05-04T08:19:29Z</time>
      </trkpt>
      <trkpt lat="46.13985" lon="6.58516">
        <ele>1508.466</ele>
        <time>2024-05-04T08:19:34Z</time>
      </trkpt>
      <trkpt lat="46.13985" lon="6.58516">
        <ele>1508.471</ele>
        <time>2024-05-04T08:19:39Z</time>
      </trkpt>
      <trkpt lat="46.13985" lon="6.58516">
        <ele>1508.482</ele>
        <time>2024-05-04T08:19:44Z</time>
      </trkpt>
      <trkpt lat="46.13985" lon="6.58516">
        <ele>1508.709</ele>
        <time>2024-05-04T08:19:49Z</time>
      </trkpt>
      <trkpt lat="46.13985" lon="6.58516">
        <ele>1508.165</ele>
        <time>2024-05-04T08:19:54Z</time>
      </trkpt>
      <trkpt lat="46.13985" lon="6.58516">
        <ele>1508.157</ele>
        <time>2024-05-04T08:19:59Z</time>
      </trkpt>
      <trkpt lat="46.13985" lon="6.58517">
        <ele>1508.274</ele>
        <time>2024-05-04T08:20:04Z</time>
      </trkpt>
      <trkpt lat="46.13984" lon="6.58517">
        <ele>1509.294</ele>
        <time>2024-05-04T08:20:09Z</time>
      </trkpt>
      <trkpt lat="46.13981" lon="6.58516">
        <ele>1510.52</ele>
        <time>2024-05-04T08:20:14Z</time>
      </trkpt>
      <trkpt lat="46.13977" lon="6.58517">
        <ele>1509.384</ele>
        <time>2024-05-04T08:20:19Z</time>
      </trkpt>
      <trkpt lat="46.13974" lon="6.58516">
        <ele>1510.369</ele>
        <time>2024-05-04T08:20:24Z</time>
      </trkpt>
      <trkpt lat="46.13971" lon="6.58514">
        <ele>1509.945</ele>
        <time>2024-05-04T08:20:29Z</time>
      </trkpt>
      <trkpt lat="46.13967" lon="6.58514">
        <ele>1511.47</ele>
        <time>2024-05-04T08:20:34Z</time>
      </trkpt>
      <trkpt lat="46.13964" lon="6.58514">
        <ele>1512.724</ele>
        <time>2024-05-04T08:20:39Z</time>
      </trkpt>
      <trkpt lat="46.1396" lon="6.58513">
        <ele>1512.729</ele>
        <time>2024-05-04T08:20:44Z</time>
      </trkpt>
      <trkpt lat="46.13956" lon="6.58512">
        <ele>1513.993</ele>
        <time>2024-05-04T08:20:49Z</time>
      </trkpt>
      <trkpt lat="46.13952" lon="6.58511">
        <ele>1513.322</ele>
        <time>2024-05-04T08:20:54Z</time>
      </trkpt>
      <trkpt lat="46.13947" lon="6.5851">
        <ele>1513.216</ele>
        <time>2024-05-04T08:20:59Z</time>
      </trkpt>
      <trkpt lat="46.13943" lon="6.58508">
        <ele>1514.325</ele>
        <time>2024-05-04T08:21:04Z</time>
      </trkpt>
      <trkpt lat="46.13939" lon="6.58507">
        <ele>1515.067</ele>
        <time>2024-05-04T08:21:09Z</time>
      </trkpt>
      <trkpt lat="46.13935" lon="6.58506">
        <ele>1515.058</ele>
        <time>2024-05-04T08:21:14Z</time>
      </trkpt>
      <trkpt lat="46.13932" lon="6.58505">
        <ele>1515.399</ele>
        <time>2024-05-04T08:21:19Z</time>
      </trkpt>
      <trkpt lat="46.1393" lon="6.58506">
        <ele>1515.739</ele>
        <time>2024-05-04T08:21:24Z</time>
      </trkpt>
      <trkpt lat="46.13928" lon="6.58507">
        <ele>1515.343</ele>
        <time>2024-05-04T08:21:29Z</time>
      </trkpt>
      <trkpt lat="46.13925" lon="6.58507">
        <ele>1516.438</ele>
        <time>2024-05-04T08:21:34Z</time>
      </trkpt>
      <trkpt lat="46.13923" lon="6.58507">
        <ele>1517.161</ele>
        <time>2024-05-04T08:21:39Z</time>
      </trkpt>
      <trkpt lat="46.1392" lon="6.58508">
        <ele>1517.83</ele>
        <time>2024-05-04T08:21:44Z</time>
      </trkpt>
      <trkpt lat="46.13917" lon="6.58507">
        <ele>1518.489</ele>
        <time>2024-05-04T08:21:49Z</time>
      </trkpt>
      <trkpt lat="46.13915" lon="6.58507">
        <ele>1519.385</ele>
        <time>2024-05-04T08:21:54Z</time>
      </trkpt>
      <trkpt lat="46.13912" lon="6.58507">
        <ele>1520.227</ele>
        <time>2024-05-04T08:21:59Z</time>
      </trkpt>
      <trkpt lat="46.13909" lon="6.58507">
        <ele>1520.363</ele>
        <time>2024-05-04T08:22:04Z</time>
      </trkpt>
      <trkpt lat="46.13905" lon="6.58506">
        <ele>1520.433</ele>
        <time>2024-05-04T08:22:09Z</time>
      </trkpt>
      <trkpt lat="46.13901" lon="6.58506">
        <ele>1520.091</ele>
        <time>2024-05-04T08:22:14Z</time>
      </trkpt>
      <trkpt lat="46.13898" lon="6.58506">
        <ele>1521.396</ele>
        <time>2024-05-04T08:22:19Z</time>
      </trkpt>
      <trkpt lat="46.13895" lon="6.58506">
        <ele>1521.562</ele>
        <time>2024-05-04T08:22:24Z</time>
      </trkpt>
      <trkpt lat="46.13891" lon="6.58505">
        <ele>1522.142</ele>
        <time>2024-05-04T08:22:29Z</time>
      </trkpt>
      <trkpt lat="46.13887" lon="6.58504">
        <ele>1522.266</ele>
        <time>2024-05-04T08:22:34Z</time>
      </trkpt>
      <trkpt lat="46.13883" lon="6.58504">
        <ele>1522.411</ele>
        <time>2024-05-04T08:22:39Z</time>
      </trkpt>
      <trkpt lat="46.1388" lon="6.58503">
        <ele>1523.462</ele>
        <time>2024-05-04T08:22:44Z</time>
      </trkpt>
      <trkpt lat="46.13877" lon="6.58504">
        <ele>1524.299</ele>
        <time>2024-05-04T08:22:49Z</time>
      </trkpt>
      <trkpt lat="46.13873" lon="6.58503">
        <ele>1524.114</ele>
        <time>2024-05-04T08:22:54Z</time>
      </trkpt>
      <trkpt lat="46.1387" lon="6.58503">
        <ele>1524.369</ele>
        <time>2024-05-04T08:22:59Z</time>
      </trkpt>
      <trkpt lat="46.13867" lon="6.58503">
        <ele>1523.514</ele>
        <time>2024-05-04T08:23:04Z</time>
      </trkpt>
      <trkpt lat="46.13863" lon="6.58501">
        <ele>1523.835</ele>
        <time>2024-05-04T08:23:09Z</time>
      </trkpt>
      <trkpt lat="46.1386" lon="6.585">
        <ele>1525.377</ele>
        <time>2024-05-04T08:23:14Z</time>
      </trkpt>
      <trkpt lat="46.13857" lon="6.585">
        <ele>1526.185</ele>
        <time>2024-05-04T08:23:19Z</time>
      </trkpt>
      <trkpt lat="46.13854" lon="6.585">
        <ele>1526.96</ele>
        <time>2024-05-04T08:23:24Z</time>
      </trkpt>
      <trkpt lat="46.1385" lon="6.58498">
        <ele>1526.847</ele>
        <time>2024-05-04T08:23:29Z</time>
      </trkpt>
      <trkpt lat="46.13846" lon="6.58497">
        <ele>1526.948</ele>
        <time>2024-05-04T08:23:34Z</time>
      </trkpt>
      <trkpt lat="46.13842" lon="6.58496">
        <ele>1527.106</ele>
        <time>2024-05-04T08:23:39Z</time>
      </trkpt>
      <trkpt lat="46.13839" lon="6.58495">
        <ele>1527.634</ele>
        <time>2024-05-04T08:23:44Z</time>
      </trkpt>
      <trkpt lat="46.13835" lon="6.58495">
        <ele>1527.988</ele>
        <time>2024-05-04T08:23:49Z</time>
      </trkpt>
      <trkpt lat="46.1383" lon="6.58495">
        <ele>1527.813</ele>
        <time>2024-05-04T08:23:54Z</time>
      </trkpt>
      <trkpt lat="46.13826" lon="6.58496">
        <ele>1526.11</ele>
        <time>2024-05-04T08:23:59Z</time>
      </trkpt>
      <trkpt lat="46.13823" lon="6.585">
        <ele>1527.836</ele>
        <time>2024-05-04T08:24:04Z</time>
      </trkpt>
      <trkpt lat="46.1382" lon="6.58501">
        <ele>1528.609</ele>
        <time>2024-05-04T08:24:09Z</time>
      </trkpt>
      <trkpt lat="46.13818" lon="6.58503">
        <ele>1528.904</ele>
        <time>2024-05-04T08:24:14Z</time>
      </trkpt>
      <trkpt lat="46.13814" lon="6.58507">
        <ele>1528.086</ele>
        <time>2024-05-04T08:24:19Z</time>
      </trkpt>
      <trkpt lat="46.13811" lon="6.5851">
        <ele>1529.038</ele>
        <time>2024-05-04T08:24:24Z</time>
      </trkpt>
      <trkpt lat="46.13808" lon="6.58513">
        <ele>1528.502</ele>
        <time>2024-05-04T08:24:29Z</time>
      </trkpt>
      <trkpt lat="46.13804" lon="6.58515">
        <ele>1527.61</ele>
        <time>2024-05-04T08:24:34Z</time>
      </trkpt>
      <trkpt lat="46.13801" lon="6.58517">
        <ele>1528.361</ele>
        <time>2024-05-04T08:24:39Z</time>
      </trkpt>
      <trkpt lat="46.13799" lon="6.58519">
        <ele>1530.363</ele>
        <time>2024-05-04T08:24:44Z</time>
      </trkpt>
      <trkpt lat="46.13796" lon="6.58521">
        <ele>1530.981</ele>
        <time>2024-05-04T08:24:49Z</time>
      </trkpt>
      <trkpt lat="46.13793" lon="6.58522">
        <ele>1532.033</ele>
        <time>2024-05-04T08:24:54Z</time>
      </trkpt>
      <trkpt lat="46.13789" lon="6.58525">
        <ele>1532.112</ele>
        <time>2024-05-04T08:24:59Z</time>
      </trkpt>
      <trkpt lat="46.13786" lon="6.58527">
        <ele>1532.134</ele>
        <time>2024-05-04T08:25:04Z</time>
      </trkpt>
      <trkpt lat="46.13783" lon="6.58528">
        <ele>1532.841</ele>
        <time>2024-05-04T08:25:09Z</time>
      </trkpt>
      <trkpt lat="46.1378" lon="6.58529">
        <ele>1533.52</ele>
        <time>2024-05-04T08:25:14Z</time>
      </trkpt>
      <trkpt lat="46.13777" lon="6.58531">
        <ele>1534.449</ele>
        <time>2024-05-04T08:25:19Z</time>
      </trkpt>
      <trkpt lat="46.13774" lon="6.58531">
        <ele>1534.646</ele>
        <time>2024-05-04T08:25:24Z</time>
      </trkpt>
      <trkpt lat="46.13771" lon="6.58532">
        <ele>1535.806</ele>
        <time>2024-05-04T08:25:29Z</time>
      </trkpt>
      <trkpt lat="46.13768" lon="6.58532">
        <ele>1534.759</ele>
        <time>2024-05-04T08:25:34Z</time>
      </trkpt>
      <trkpt lat="46.13764" lon="6.58532">
        <ele>1535.984</ele>
        <time>2024-05-04T08:25:39Z</time>
      </trkpt>
      <trkpt lat="46.13763" lon="6.5853">
        <ele>1537.093</ele>
        <time>2024-05-04T08:25:44Z</time>
      </trkpt>
      <trkpt lat="46.13762" lon="6.58528">
        <ele>1537.588</ele>
        <time>2024-05-04T08:25:49Z</time>
      </trkpt>
      <trkpt lat="46.1376" lon="6.58525">
        <ele>1538.759</ele>
        <time>2024-05-04T08:25:54Z</time>
      </trkpt>
      <trkpt lat="46.13758" lon="6.58523">
        <ele>1539.143</ele>
        <time>2024-05-04T08:25:59Z</time>
      </trkpt>
      <trkpt lat="46.13756" lon="6.58519">
        <ele>1538.337</ele>
        <time>2024-05-04T08:26:04Z</time>
      </trkpt>
      <trkpt lat="46.13754" lon="6.58515">
        <ele>1537.718</ele>
        <time>2024-05-04T08:26:09Z</time>
      </trkpt>
      <trkpt lat="46.13753" lon="6.58511">
        <ele>1538.037</ele>
        <time>2024-05-04T08:26:14Z</time>
      </trkpt>
      <trkpt lat="46.13753" lon="6.58506">
        <ele>1537.984</ele>
        <time>2024-05-04T08:26:19Z</time>
      </trkpt>
      <trkpt lat="46.13752" lon="6.58502">
        <ele>1538.723</ele>
        <time>2024-05-04T08:26:24Z</time>
      </trkpt>
      <trkpt lat="46.13752" lon="6.58498">
        <ele>1539.532</ele>
        <time>2024-05-04T08:26:29Z</time>
      </trkpt>
      <trkpt lat="46.13751" lon="6.58494">
        <ele>1539.765</ele>
        <time>2024-05-04T08:26:34Z</time>
      </trkpt>
      <trkpt lat="46.13749" lon="6.58491">
        <ele>1540.343</ele>
        <time>2024-05-04T08:26:39Z</time>
      </trkpt>
      <trkpt lat="46.13747" lon="6.58488">
        <ele>1540.562</ele>
        <time>2024-05-04T08:26:44Z</time>
      </trkpt>
      <trkpt lat="46.13746" lon="6.58485">
        <ele>1541.74</ele>
        <time>2024-05-04T08:26:49Z</time>
      </trkpt>
      <trkpt lat="46.13744" lon="6.58482">
        <ele>1542.74</ele>
        <time>2024-05-04T08:26:54Z</time>
      </trkpt>
      <trkpt lat="46.13742" lon="6.58478">
        <ele>1542.305</ele>
        <time>2024-05-04T08:26:59Z</time>
      </trkpt>
      <trkpt lat="46.13739" lon="6.58474">
        <ele>1542.512</ele>
        <time>2024-05-04T08:27:04Z</time>
      </trkpt>
      <trkpt lat="46.13737" lon="6.5847">
        <ele>1541.372</ele>
        <time>2024-05-04T08:27:09Z</time>
      </trkpt>
      <trkpt lat="46.13734" lon="6.58467">
        <ele>1541.899</ele>
        <time>2024-05-04T08:27:14Z</time>
      </trkpt>
      <trkpt lat="46.13731" lon="6.58466">
        <ele>1542.898</ele>
        <time>2024-05-04T08:27:19Z</time>
      </trkpt>
      <trkpt lat="46.13727" lon="6.58464">
        <ele>1541.965</ele>
        <time>2024-05-04T08:27:24Z</time>
      </trkpt>
      <trkpt lat="46.13724" lon="6.58462">
        <ele>1542.622</ele>
        <time>2024-05-04T08:27:29Z</time>
      </trkpt>
      <trkpt lat="46.1372" lon="6.5846">
        <ele>1543.692</ele>
        <time>2024-05-04T08:27:34Z</time>
      </trkpt>
      <trkpt lat="46.13717" lon="6.58457">
        <ele>1544.297</ele>
        <time>2024-05-04T08:27:39Z</time>
      </trkpt>
      <trkpt lat="46.13714" lon="6.58454">
        <ele>1545.327</ele>
        <time>2024-05-04T08:27:44Z</time>
      </trkpt>
      <trkpt lat="46.13711" lon="6.58451">
        <ele>1545.281</ele>
        <time>2024-05-04T08:27:49Z</time>
      </trkpt>
      <trkpt lat="46.13708" lon="6.58449">
        <ele>1544.447</ele>
        <time>2024-05-04T08:27:54Z</time>
      </trkpt>
      <trkpt lat="46.13706" lon="6.58444">
        <ele>1544.019</ele>
        <time>2024-05-04T08:27:59Z</time>
      </trkpt>
      <trkpt lat="46.13703" lon="6.58439">
        <ele>1545.312</ele>
        <time>2024-05-04T08:28:04Z</time>
      </trkpt>
      <trkpt lat="46.137" lon="6.58434">
        <ele>1545.819</ele>
        <time>2024-05-04T08:28:09Z</time>
      </trkpt>
      <trkpt lat="46.13697" lon="6.58429">
        <ele>1545.48</ele>
        <time>2024-05-04T08:28:14Z</time>
      </trkpt>
      <trkpt lat="46.13696" lon="6.58422">
        <ele>1544.893</ele>
        <time>2024-05-04T08:28:19Z</time>
      </trkpt>
      <trkpt lat="46.13694" lon="6.58416">
        <ele>1545.549</ele>
        <time>2024-05-04T08:28:24Z</time>
      </trkpt>
      <trkpt lat="46.13692" lon="6.58411">
        <ele>1545.608</ele>
        <time>2024-05-04T08:28:29Z</time>
      </trkpt>
      <trkpt lat="46.13692" lon="6.58406">
        <ele>1545.455</ele>
        <time>2024-05-04T08:28:34Z</time>
      </trkpt>
      <trkpt lat="46.13692" lon="6.584">
        <ele>1543.871</ele>
        <time>2024-05-04T08:28:39Z</time>
      </trkpt>
      <trkpt lat="46.13692" lon="6.58394">
        <ele>1545.081</ele>
        <time>2024-05-04T08:28:44Z</time>
      </trkpt>
      <trkpt lat="46.13692" lon="6.58389">
        <ele>1544.938</ele>
        <time>2024-05-04T08:28:49Z</time>
      </trkpt>
      <trkpt lat="46.13691" lon="6.58383">
        <ele>1543.628</ele>
        <time>2024-05-04T08:28:54Z</time>
      </trkpt>
      <trkpt lat="46.1369" lon="6.58378">
        <ele>1544.658</ele>
        <time>2024-05-04T08:28:59Z</time>
      </trkpt>
      <trkpt lat="46.13689" lon="6.58372">
        <ele>1545.167</ele>
        <time>2024-05-04T08:29:04Z</time>
      </trkpt>
      <trkpt lat="46.13688" lon="6.58366">
        <ele>1544.881</ele>
        <time>2024-05-04T08:29:09Z</time>
      </trkpt>
      <trkpt lat="46.13687" lon="6.5836">
        <ele>1545.018</ele>
        <time>2024-05-04T08:29:14Z</time>
      </trkpt>
      <trkpt lat="46.13687" lon="6.58354">
        <ele>1545.073</ele>
        <time>2024-05-04T08:29:19Z</time>
      </trkpt>
      <trkpt lat="46.13686" lon="6.58349">
        <ele>1545.117</ele>
        <time>2024-05-04T08:29:24Z</time>
      </trkpt>
      <trkpt lat="46.13685" lon="6.58344">
        <ele>1546.345</ele>
        <time>2024-05-04T08:29:29Z</time>
      </trkpt>
      <trkpt lat="46.13683" lon="6.58341">
        <ele>1546.278</ele>
        <time>2024-05-04T08:29:34Z</time>
      </trkpt>
      <trkpt lat="46.1368" lon="6.58337">
        <ele>1545.9</ele>
        <time>2024-05-04T08:29:39Z</time>
      </trkpt>
      <trkpt lat="46.13678" lon="6.58333">
        <ele>1545.284</ele>
        <time>2024-05-04T08:29:44Z</time>
      </trkpt>
      <trkpt lat="46.13675" lon="6.58331">
        <ele>1546.696</ele>
        <time>2024-05-04T08:29:49Z</time>
      </trkpt>
      <trkpt lat="46.13672" lon="6.58326">
        <ele>1546.084</ele>
        <time>2024-05-04T08:29:54Z</time>
      </trkpt>
      <trkpt lat="46.1367" lon="6.58321">
        <ele>1546.339</ele>
        <time>2024-05-04T08:29:59Z</time>
      </trkpt>
      <trkpt lat="46.13667" lon="6.58319">
        <ele>1545.872</ele>
        <time>2024-05-04T08:30:04Z</time>
      </trkpt>
      <trkpt lat="46.13664" lon="6.58318">
        <ele>1544.895</ele>
        <time>2024-05-04T08:30:09Z</time>
      </trkpt>
      <trkpt lat="46.13659" lon="6.58321">
        <ele>1543.847</ele>
        <time>2024-05-04T08:30:14Z</time>
      </trkpt>
      <trkpt lat="46.13655" lon="6.58323">
        <ele>1542.859</ele>
        <time>2024-05-04T08:30:19Z</time>
      </trkpt>
      <trkpt lat="46.13651" lon="6.58325">
        <ele>1542.248</ele>
        <time>2024-05-04T08:30:24Z</time>
      </trkpt>
      <trkpt lat="46.13647" lon="6.58323">
        <ele>1543.837</ele>
        <time>2024-05-04T08:30:29Z</time>
      </trkpt>
      <trkpt lat="46.13644" lon="6.58323">
        <ele>1543.68</ele>
        <time>2024-05-04T08:30:34Z</time>
      </trkpt>
      <trkpt lat="46.1364" lon="6.58323">
        <ele>1543.335</ele>
        <time>2024-05-04T08:30:39Z</time>
      </trkpt>
      <trkpt lat="46.13636" lon="6.58322">
        <ele>1543.875</ele>
        <time>2024-05-04T08:30:44Z</time>
      </trkpt>
      <trkpt lat="46.13632" lon="6.58321">
        <ele>1544.26</ele>
        <time>2024-05-04T08:30:49Z</time>
      </trkpt>
      <trkpt lat="46.13628" lon="6.58319">
        <ele>1544.351</ele>
        <time>2024-05-04T08:30:54Z</time>
      </trkpt>
      <trkpt lat="46.13626" lon="6.58316">
        <ele>1545.513</ele>
        <time>2024-05-04T08:30:59Z</time>
      </trkpt>
      <trkpt lat="46.13623" lon="6.58313">
        <ele>1545.787</ele>
        <time>2024-05-04T08:31:04Z</time>
      </trkpt>
      <trkpt lat="46.13621" lon="6.5831">
        <ele>1547.457</ele>
        <time>2024-05-04T08:31:09Z</time>
      </trkpt>
      <trkpt lat="46.13618" lon="6.58306">
        <ele>1547.244</ele>
        <time>2024-05-04T08:31:14Z</time>
      </trkpt>
      <trkpt lat="46.13616" lon="6.58302">
        <ele>1547.654</ele>
        <time>2024-05-04T08:31:19Z</time>
      </trkpt>
      <trkpt lat="46.13614" lon="6.58299">
        <ele>1547.654</ele>
        <time>2024-05-04T08:31:24Z</time>
      </trkpt>
      <trkpt lat="46.13611" lon="6.58296">
        <ele>1547.64</ele>
        <time>2024-05-04T08:31:29Z</time>
      </trkpt>
      <trkpt lat="46.1361" lon="6.58294">
        <ele>1548.042</ele>
        <time>2024-05-04T08:31:34Z</time>
      </trkpt>
      <trkpt lat="46.13607" lon="6.58293">
        <ele>1549.054</ele>
        <time>2024-05-04T08:31:39Z</time>
      </trkpt>
      <trkpt lat="46.13604" lon="6.58292">
        <ele>1548.73</ele>
        <time>2024-05-04T08:31:44Z</time>
      </trkpt>
      <trkpt lat="46.13603" lon="6.58288">
        <ele>1549.499</ele>
        <time>2024-05-04T08:31:49Z</time>
      </trkpt>
      <trkpt lat="46.13601" lon="6.58284">
        <ele>1549.52</ele>
        <time>2024-05-04T08:31:54Z</time>
      </trkpt>
      <trkpt lat="46.136" lon="6.5828">
        <ele>1551.036</ele>
        <time>2024-05-04T08:31:59Z</time>
      </trkpt>
      <trkpt lat="46.13598" lon="6.58276">
        <ele>1552.209</ele>
        <time>2024-05-04T08:32:04Z</time>
      </trkpt>
      <trkpt lat="46.13595" lon="6.58272">
        <ele>1551.35</ele>
        <time>2024-05-04T08:32:09Z</time>
      </trkpt>
      <trkpt lat="46.13594" lon="6.58268">
        <ele>1552.059</ele>
        <time>2024-05-04T08:32:14Z</time>
      </trkpt>
      <trkpt lat="46.13594" lon="6.58264">
        <ele>1553.046</ele>
        <time>2024-05-04T08:32:19Z</time>
      </trkpt>
      <trkpt lat="46.13593" lon="6.58262">
        <ele>1552.979</ele>
        <time>2024-05-04T08:32:24Z</time>
      </trkpt>
      <trkpt lat="46.13593" lon="6.58262">
        <ele>1552.971</ele>
        <time>2024-05-04T08:32:29Z</time>
      </trkpt>
      <trkpt lat="46.13593" lon="6.58262">
        <ele>1552.964</ele>
        <time>2024-05-04T08:32:34Z</time>
      </trkpt>
      <trkpt lat="46.13593" lon="6.58259">
        <ele>1553.223</ele>
        <time>2024-05-04T08:32:39Z</time>
      </trkpt>
      <trkpt lat="46.13595" lon="6.58254">
        <ele>1553.798</ele>
        <time>2024-05-04T08:32:44Z</time>
      </trkpt>
      <trkpt lat="46.13597" lon="6.58248">
        <ele>1554.052</ele>
        <time>2024-05-04T08:32:49Z</time>
      </trkpt>
      <trkpt lat="46.13598" lon="6.58242">
        <ele>1554.424</ele>
        <time>2024-05-04T08:32:54Z</time>
      </trkpt>
      <trkpt lat="46.136" lon="6.58237">
        <ele>1555.362</ele>
        <time>2024-05-04T08:32:59Z</time>
      </trkpt>
      <trkpt lat="46.13601" lon="6.58232">
        <ele>1556.183</ele>
        <time>2024-05-04T08:33:04Z</time>
      </trkpt>
      <trkpt lat="46.13602" lon="6.58225">
        <ele>1556.252</ele>
        <time>2024-05-04T08:33:09Z</time>
      </trkpt>
      <trkpt lat="46.136" lon="6.5822">
        <ele>1556.01</ele>
        <time>2024-05-04T08:33:14Z</time>
      </trkpt>
      <trkpt lat="46.13597" lon="6.58216">
        <ele>1555.063</ele>
        <time>2024-05-04T08:33:19Z</time>
      </trkpt>
      <trkpt lat="46.13598" lon="6.58211">
        <ele>1556.044</ele>
        <time>2024-05-04T08:33:24Z</time>
      </trkpt>
      <trkpt lat="46.13596" lon="6.58207">
        <ele>1557.124</ele>
        <time>2024-05-04T08:33:29Z</time>
      </trkpt>
      <trkpt lat="46.13595" lon="6.58202">
        <ele>1556.959</ele>
        <time>2024-05-04T08:33:34Z</time>
      </trkpt>
      <trkpt lat="46.13593" lon="6.58197">
        <ele>1557.172</ele>
        <time>2024-05-04T08:33:39Z</time>
      </trkpt>
      <trkpt lat="46.13593" lon="6.58193">
        <ele>1557.883</ele>
        <time>2024-05-04T08:33:44Z</time>
      </trkpt>
      <trkpt lat="46.13593" lon="6.58193">
        <ele>1557.933</ele>
        <time>2024-05-04T08:33:49Z</time>
      </trkpt>
      <trkpt lat="46.13593" lon="6.58193">
        <ele>1557.93</ele>
        <time>2024-05-04T08:33:54Z</time>
      </trkpt>
      <trkpt lat="46.13593" lon="6.58193">
        <ele>1558.177</ele>
        <time>2024-05-04T08:33:59Z</time>
      </trkpt>
      <trkpt lat="46.13593" lon="6.58193">
        <ele>1557.613</ele>
        <time>2024-05-04T08:34:04Z</time>
      </trkpt>
      <trkpt lat="46.13593" lon="6.58193">
        <ele>1557.616</ele>
        <time>2024-05-04T08:34:09Z</time>
      </trkpt>
      <trkpt lat="46.13593" lon="6.58193">
        <ele>1557.617</ele>
        <time>2024-05-04T08:34:14Z</time>
      </trkpt>
      <trkpt lat="46.13593" lon="6.58193">
        <ele>1557.621</ele>
        <time>2024-05-04T08:34:19Z</time>
      </trkpt>
      <trkpt lat="46.13593" lon="6.58193">
        <ele>1557.609</ele>
        <time>2024-05-04T08:34:24Z</time>
      </trkpt>
      <trkpt lat="46.13593" lon="6.58193">
        <ele>1556.899</ele>
        <time>2024-05-04T08:34:29Z</time>
      </trkpt>
      <trkpt lat="46.13593" lon="6.58193">
        <ele>1556.724</ele>
        <time>2024-05-04T08:34:34Z</time>
      </trkpt>
      <trkpt lat="46.13593" lon="6.58193">
        <ele>1556.941</ele>
        <time>2024-05-04T08:34:39Z</time>
      </trkpt>
      <trkpt lat="46.13593" lon="6.58193">
        <ele>1557.361</ele>
        <time>2024-05-04T08:34:44Z</time>
      </trkpt>
      <trkpt lat="46.13593" lon="6.58193">
        <ele>1557.832</ele>
        <time>2024-05-04T08:34:49Z</time>
      </trkpt>
      <trkpt lat="46.13593" lon="6.58193">
        <ele>1557.872</ele>
        <time>2024-05-04T08:34:54Z</time>
      </trkpt>
      <trkpt lat="46.13593" lon="6.58193">
        <ele>1558.113</ele>
        <time>2024-05-04T08:34:59Z</time>
      </trkpt>
      <trkpt lat="46.13593" lon="6.58193">
        <ele>1558.111</ele>
        <time>2024-05-04T08:35:04Z</time>
      </trkpt>
      <trkpt lat="46.13593" lon="6.58193">
        <ele>1558.007</ele>
        <time>2024-05-04T08:35:09Z</time>
      </trkpt>
      <trkpt lat="46.13593" lon="6.58193">
        <ele>1558.142</ele>
        <time>2024-05-04T08:35:14Z</time>
      </trkpt>
      <trkpt lat="46.13593" lon="6.58193">
        <ele>1558.155</ele>
        <time>2024-05-04T08:35:19Z</time>
      </trkpt>
      <trkpt lat="46.13593" lon="6.58193">
        <ele>1558.156</ele>
        <time>2024-05-04T08:35:24Z</time>
      </trkpt>
      <trkpt lat="46.13593" lon="6.58193">
        <ele>1558.16</ele>
        <time>2024-05-04T08:35:29Z</time>
      </trkpt>
      <trkpt lat="46.13593" lon="6.58193">
        <ele>1558.155</ele>
        <time>2024-05-04T08:35:34Z</time>
      </trkpt>
      <trkpt lat="46.13593" lon="6.58193">
        <ele>1558.162</ele>
        <time>2024-05-04T08:35:39Z</time>
      </trkpt>
      <trkpt lat="46.13593" lon="6.58193">
        <ele>1558.154</ele>
        <time>2024-05-04T08:35:44Z</time>
      </trkpt>
      <trkpt lat="46.13593" lon="6.58193">
        <ele>1558.152</ele>
        <time>2024-05-04T08:35:49Z</time>
      </trkpt>
      <trkpt lat="46.13593" lon="6.58193">
        <ele>1558.156</ele>
        <time>2024-05-04T08:35:54Z</time>
      </trkpt>
      <trkpt lat="46.13593" lon="6.58193">
        <ele>1558.161</ele>
        <time>2024-05-04T08:35:59Z</time>
      </trkpt>
      <trkpt lat="46.13593" lon="6.58193">
        <ele>1558.158</ele>
        <time>2024-05-04T08:36:04Z</time>
      </trkpt>
      <trkpt lat="46.13593" lon="6.58193">
        <ele>1558.18</ele>
        <time>2024-05-04T08:36:09Z</time>
      </trkpt>
      <trkpt lat="46.13593" lon="6.58193">
        <ele>1558.182</ele>
        <time>2024-05-04T08:36:14Z</time>
      </trkpt>
      <trkpt lat="46.13593" lon="6.58193">
        <ele>1558.192</ele>
        <time>2024-05-04T08:36:19Z</time>
      </trkpt>
      <trkpt lat="46.13593" lon="6.58193">
        <ele>1558.194</ele>
        <time>2024-05-04T08:36:24Z</time>
      </trkpt>
      <trkpt lat="46.13593" lon="6.58193">
        <ele>1558.206</ele>
        <time>2024-05-04T08:36:29Z</time>
      </trkpt>
      <trkpt lat="46.13593" lon="6.58193">
        <ele>1558.213</ele>
        <time>2024-05-04T08:36:34Z</time>
      </trkpt>
      <trkpt lat="46.13593" lon="6.58193">
        <ele>1558.196</ele>
        <time>2024-05-04T08:36:39Z</time>
      </trkpt>
      <trkpt lat="46.13593" lon="6.58193">
        <ele>1558.199</ele>
        <time>2024-05-04T08:36:44Z</time>
      </trkpt>
      <trkpt lat="46.13593" lon="6.58193">
        <ele>1558.208</ele>
        <time>2024-05-04T08:36:49Z</time>
      </trkpt>
      <trkpt lat="46.13593" lon="6.58193">
        <ele>1558.213</ele>
        <time>2024-05-04T08:36:54Z</time>
      </trkpt>
      <trkpt lat="46.13593" lon="6.58193">
        <ele>1558.212</ele>
        <time>2024-05-04T08:36:59Z</time>
      </trkpt>
      <trkpt lat="46.13593" lon="6.58193">
        <ele>1558.21</ele>
        <time>2024-05-04T08:37:04Z</time>
      </trkpt>
      <trkpt lat="46.13593" lon="6.58193">
        <ele>1558.212</ele>
        <time>2024-05-04T08:37:09Z</time>
      </trkpt>
      <trkpt lat="46.13593" lon="6.58193">
        <ele>1558.208</ele>
        <time>2024-05-04T08:37:14Z</time>
      </trkpt>
      <trkpt lat="46.13593" lon="6.58193">
        <ele>1558.209</ele>
        <time>2024-05-04T08:37:19Z</time>
      </trkpt>
      <trkpt lat="46.13593" lon="6.58193">
        <ele>1558.212</ele>
        <time>2024-05-04T08:37:24Z</time>
      </trkpt>
      <trkpt lat="46.13593" lon="6.58193">
        <ele>1558.221</ele>
        <time>2024-05-04T08:37:29Z</time>
      </trkpt>
      <trkpt lat="46.13593" lon="6.58193">
        <ele>1558.217</ele>
        <time>2024-05-04T08:37:34Z</time>
      </trkpt>
      <trkpt lat="46.13593" lon="6.58193">
        <ele>1558.211</ele>
        <time>2024-05-04T08:37:39Z</time>
      </trkpt>
      <trkpt lat="46.13593" lon="6.58193">
        <ele>1558.204</ele>
        <time>2024-05-04T08:37:44Z</time>
      </trkpt>
      <trkpt lat="46.13593" lon="6.58193">
        <ele>1558.206</ele>
        <time>2024-05-04T08:37:49Z</time>
      </trkpt>
      <trkpt lat="46.13593" lon="6.58193">
        <ele>1558.205</ele>
        <time>2024-05-04T08:37:54Z</time>
      </trkpt>
      <trkpt lat="46.13593" lon="6.58193">
        <ele>1558.21</ele>
        <time>2024-05-04T08:37:59Z</time>
      </trkpt>
      <trkpt lat="46.13593" lon="6.58193">
        <ele>1558.211</ele>
        <time>2024-05-04T08:38:04Z</time>
      </trkpt>
      <trkpt lat="46.13593" lon="6.58193">
        <ele>1558.227</ele>
        <time>2024-05-04T08:38:09Z</time>
      </trkpt>
      <trkpt lat="46.13593" lon="6.58193">
        <ele>1558.24</ele>
        <time>2024-05-04T08:38:14Z</time>
      </trkpt>
      <trkpt lat="46.13593" lon="6.58193">
        <ele>1558.245</ele>
        <time>2024-05-04T08:38:19Z</time>
      </trkpt>
      <trkpt lat="46.13586" lon="6.58185">
        <ele>1558.137</ele>
        <time>2024-05-04T08:38:24Z</time>
      </trkpt>
      <trkpt lat="46.13585" lon="6.58182">
        <ele>1559.01</ele>
        <time>2024-05-04T08:38:29Z</time>
      </trkpt>
      <trkpt lat="46.13584" lon="6.58178">
        <ele>1559.588</ele>
        <time>2024-05-04T08:38:34Z</time>
      </trkpt>
      <trkpt lat="46.13583" lon="6.58174">
        <ele>1560.128</ele>
        <time>2024-05-04T08:38:39Z</time>
      </trkpt>
      <trkpt lat="46.13581" lon="6.5817">
        <ele>1560.65</ele>
        <time>2024-05-04T08:38:44Z</time>
      </trkpt>
      <trkpt lat="46.1358" lon="6.58167">
        <ele>1560.835</ele>
        <time>2024-05-04T08:38:49Z</time>
      </trkpt>
      <trkpt lat="46.13579" lon="6.58163">
        <ele>1561.669</ele>
        <time>2024-05-04T08:38:54Z</time>
      </trkpt>
      <trkpt lat="46.13579" lon="6.58159">
        <ele>1561.98</ele>
        <time>2024-05-04T08:38:59Z</time>
      </trkpt>
      <trkpt lat="46.13577" lon="6.58155">
        <ele>1562.274</ele>
        <time>2024-05-04T08:39:04Z</time>
      </trkpt>
      <trkpt lat="46.13575" lon="6.58152">
        <ele>1562.709</ele>
        <time>2024-05-04T08:39:09Z</time>
      </trkpt>
      <trkpt lat="46.13573" lon="6.58149">
        <ele>1562.768</ele>
        <time>2024-05-04T08:39:14Z</time>
      </trkpt>
      <trkpt lat="46.13571" lon="6.58145">
        <ele>1561.75</ele>
        <time>2024-05-04T08:39:19Z</time>
      </trkpt>
      <trkpt lat="46.13569" lon="6.58143">
        <ele>1561.858</ele>
        <time>2024-05-04T08:39:24Z</time>
      </trkpt>
      <trkpt lat="46.13568" lon="6.5814">
        <ele>1561.551</ele>
        <time>2024-05-04T08:39:29Z</time>
      </trkpt>
      <trkpt lat="46.13565" lon="6.58136">
        <ele>1561.889</ele>
        <time>2024-05-04T08:39:34Z</time>
      </trkpt>
      <trkpt lat="46.13563" lon="6.58132">
        <ele>1562.489</ele>
        <time>2024-05-04T08:39:39Z</time>
      </trkpt>
      <trkpt lat="46.13561" lon="6.5813">
        <ele>1561.948</ele>
        <time>2024-05-04T08:39:44Z</time>
      </trkpt>
      <trkpt lat="46.13559" lon="6.58127">
        <ele>1562.294</ele>
        <time>2024-05-04T08:39:49Z</time>
      </trkpt>
      <trkpt lat="46.13557" lon="6.58124">
        <ele>1563.49</ele>
        <time>2024-05-04T08:39:54Z</time>
      </trkpt>
      <trkpt lat="46.13556" lon="6.58122">
        <ele>1563.821</ele>
        <time>2024-05-04T08:39:59Z</time>
      </trkpt>
      <trkpt lat="46.13554" lon="6.5812">
        <ele>1566.158</ele>
        <time>2024-05-04T08:40:04Z</time>
      </trkpt>
      <trkpt lat="46.13552" lon="6.58118">
        <ele>1567.351</ele>
        <time>2024-05-04T08:40:09Z</time>
      </trkpt>
      <trkpt lat="46.1355" lon="6.58116">
        <ele>1567.541</ele>
        <time>2024-05-04T08:40:14Z</time>
      </trkpt>
      <trkpt lat="46.1355" lon="6.58116">
        <ele>1568.2</ele>
        <time>2024-05-04T08:40:19Z</time>
      </trkpt>
      <trkpt lat="46.13549" lon="6.58113">
        <ele>1566.448</ele>
        <time>2024-05-04T08:40:24Z</time>
      </trkpt>
      <trkpt lat="46.13547" lon="6.5811">
        <ele>1566.609</ele>
        <time>2024-05-04T08:40:29Z</time>
      </trkpt>
      <trkpt lat="46.13546" lon="6.58105">
        <ele>1567.63</ele>
        <time>2024-05-04T08:40:34Z</time>
      </trkpt>
      <trkpt lat="46.13544" lon="6.58103">
        <ele>1567.606</ele>
        <time>2024-05-04T08:40:39Z</time>
      </trkpt>
      <trkpt lat="46.13542" lon="6.58099">
        <ele>1567.67</ele>
        <time>2024-05-04T08:40:44Z</time>
      </trkpt>
      <trkpt lat="46.1354" lon="6.58095">
        <ele>1567.407</ele>
        <time>2024-05-04T08:40:49Z</time>
      </trkpt>
      <trkpt lat="46.13539" lon="6.58092">
        <ele>1567.667</ele>
        <time>2024-05-04T08:40:54Z</time>
      </trkpt>
      <trkpt lat="46.13539" lon="6.58092">
        <ele>1567.54</ele>
        <time>2024-05-04T08:40:59Z</time>
      </trkpt>
      <trkpt lat="46.13539" lon="6.58092">
        <ele>1567.649</ele>
        <time>2024-05-04T08:41:04Z</time>
      </trkpt>
      <trkpt lat="46.13539" lon="6.58092">
        <ele>1566.973</ele>
        <time>2024-05-04T08:41:09Z</time>
      </trkpt>
      <trkpt lat="46.13539" lon="6.58092">
        <ele>1566.973</ele>
        <time>2024-05-04T08:41:14Z</time>
      </trkpt>
      <trkpt lat="46.13539" lon="6.58092">
        <ele>1566.982</ele>
        <time>2024-05-04T08:41:19Z</time>
      </trkpt>
      <trkpt lat="46.13538" lon="6.58091">
        <ele>1566.71</ele>
        <time>2024-05-04T08:41:24Z</time>
      </trkpt>
      <trkpt lat="46.13537" lon="6.58084">
        <ele>1566.468</ele>
        <time>2024-05-04T08:41:29Z</time>
      </trkpt>
      <trkpt lat="46.13536" lon="6.58077">
        <ele>1566.947</ele>
        <time>2024-05-04T08:41:34Z</time>
      </trkpt>
      <trkpt lat="46.13536" lon="6.5807">
        <ele>1567.339</ele>
        <time>2024-05-04T08:41:39Z</time>
      </trkpt>
      <trkpt lat="46.13535" lon="6.58064">
        <ele>1567.812</ele>
        <time>2024-05-04T08:41:44Z</time>
      </trkpt>
      <trkpt lat="46.13534" lon="6.58057">
        <ele>1567.75</ele>
        <time>2024-05-04T08:41:49Z</time>
      </trkpt>
      <trkpt lat="46.13533" lon="6.5805">
        <ele>1568.982</ele>
        <time>2024-05-04T08:41:54Z</time>
      </trkpt>
      <trkpt lat="46.13533" lon="6.5805">
        <ele>1568.983</ele>
        <time>2024-05-04T08:41:59Z</time>
      </trkpt>
      <trkpt lat="46.13533" lon="6.5805">
        <ele>1569.113</ele>
        <time>2024-05-04T08:42:04Z</time>
      </trkpt>
      <trkpt lat="46.13533" lon="6.5805">
        <ele>1569.12</ele>
        <time>2024-05-04T08:42:09Z</time>
      </trkpt>
      <trkpt lat="46.13533" lon="6.5805">
        <ele>1569.123</ele>
        <time>2024-05-04T08:42:14Z</time>
      </trkpt>
      <trkpt lat="46.13533" lon="6.5805">
        <ele>1569.122</ele>
        <time>2024-05-04T08:42:19Z</time>
      </trkpt>
      <trkpt lat="46.13533" lon="6.5805">
        <ele>1569.124</ele>
        <time>2024-05-04T08:42:24Z</time>
      </trkpt>
      <trkpt lat="46.13533" lon="6.5805">
        <ele>1569.121</ele>
        <time>2024-05-04T08:42:29Z</time>
      </trkpt>
      <trkpt lat="46.13533" lon="6.5805">
        <ele>1569.11</ele>
        <time>2024-05-04T08:42:34Z</time>
      </trkpt>
      <trkpt lat="46.13531" lon="6.58047">
        <ele>1568.597</ele>
        <time>2024-05-04T08:42:39Z</time>
      </trkpt>
      <trkpt lat="46.13529" lon="6.5804">
        <ele>1568.842</ele>
        <time>2024-05-04T08:42:44Z</time>
      </trkpt>
      <trkpt lat="46.13528" lon="6.58032">
        <ele>1567.846</ele>
        <time>2024-05-04T08:42:49Z</time>
      </trkpt>
      <trkpt lat="46.13526" lon="6.58026">
        <ele>1568.984</ele>
        <time>2024-05-04T08:42:54Z</time>
      </trkpt>
      <trkpt lat="46.13525" lon="6.5802">
        <ele>1569.977</ele>
        <time>2024-05-04T08:42:59Z</time>
      </trkpt>
      <trkpt lat="46.13524" lon="6.58015">
        <ele>1570.308</ele>
        <time>2024-05-04T08:43:04Z</time>
      </trkpt>
      <trkpt lat="46.13522" lon="6.5801">
        <ele>1571.104</ele>
        <time>2024-05-04T08:43:09Z</time>
      </trkpt>
      <trkpt lat="46.1352" lon="6.58006">
        <ele>1570.74</ele>
        <time>2024-05-04T08:43:14Z</time>
      </trkpt>
      <trkpt lat="46.13518" lon="6.58002">
        <ele>1571.562</ele>
        <time>2024-05-04T08:43:19Z</time>
      </trkpt>
      <trkpt lat="46.13515" lon="6.57999">
        <ele>1570.783</ele>
        <time>2024-05-04T08:43:24Z</time>
      </trkpt>
      <trkpt lat="46.13512" lon="6.57996">
        <ele>1569.297</ele>
        <time>2024-05-04T08:43:29Z</time>
      </trkpt>
      <trkpt lat="46.1351" lon="6.57992">
        <ele>1569.998</ele>
        <time>2024-05-04T08:43:34Z</time>
      </trkpt>
      <trkpt lat="46.13508" lon="6.57989">
        <ele>1570.274</ele>
        <time>2024-05-04T08:43:39Z</time>
      </trkpt>
      <trkpt lat="46.13508" lon="6.57984">
        <ele>1572.141</ele>
        <time>2024-05-04T08:43:44Z</time>
      </trkpt>
      <trkpt lat="46.13505" lon="6.5798">
        <ele>1571.633</ele>
        <time>2024-05-04T08:43:49Z</time>
      </trkpt>
      <trkpt lat="46.13506" lon="6.57974">
        <ele>1573.753</ele>
        <time>2024-05-04T08:43:54Z</time>
      </trkpt>
      <trkpt lat="46.13506" lon="6.57974">
        <ele>1573.158</ele>
        <time>2024-05-04T08:43:59Z</time>
      </trkpt>
      <trkpt lat="46.13506" lon="6.57974">
        <ele>1573.153</ele>
        <time>2024-05-04T08:44:04Z</time>
      </trkpt>
      <trkpt lat="46.13506" lon="6.57974">
        <ele>1575.36</ele>
        <time>2024-05-04T08:44:09Z</time>
      </trkpt>
      <trkpt lat="46.13506" lon="6.57974">
        <ele>1575.366</ele>
        <time>2024-05-04T08:44:14Z</time>
      </trkpt>
      <trkpt lat="46.13506" lon="6.57974">
        <ele>1575.392</ele>
        <time>2024-05-04T08:44:19Z</time>
      </trkpt>
      <trkpt lat="46.13506" lon="6.57974">
        <ele>1575.4</ele>
        <time>2024-05-04T08:44:24Z</time>
      </trkpt>
      <trkpt lat="46.13506" lon="6.57974">
        <ele>1574.902</ele>
        <time>2024-05-04T08:44:29Z</time>
      </trkpt>
      <trkpt lat="46.13506" lon="6.57974">
        <ele>1574.804</ele>
        <time>2024-05-04T08:44:34Z</time>
      </trkpt>
      <trkpt lat="46.13506" lon="6.57974">
        <ele>1575.017</ele>
        <time>2024-05-04T08:44:39Z</time>
      </trkpt>
      <trkpt lat="46.13506" lon="6.57974">
        <ele>1575.599</ele>
        <time>2024-05-04T08:44:44Z</time>
      </trkpt>
      <trkpt lat="46.13505" lon="6.57973">
        <ele>1576.113</ele>
        <time>2024-05-04T08:44:49Z</time>
      </trkpt>
      <trkpt lat="46.13503" lon="6.5797">
        <ele>1578.371</ele>
        <time>2024-05-04T08:44:54Z</time>
      </trkpt>
      <trkpt lat="46.13501" lon="6.57967">
        <ele>1579.745</ele>
        <time>2024-05-04T08:44:59Z</time>
      </trkpt>
      <trkpt lat="46.13499" lon="6.57965">
        <ele>1580.463</ele>
        <time>2024-05-04T08:45:04Z</time>
      </trkpt>
      <trkpt lat="46.13497" lon="6.57963">
        <ele>1582.016</ele>
        <time>2024-05-04T08:45:09Z</time>
      </trkpt>
      <trkpt lat="46.13495" lon="6.57961">
        <ele>1583.935</ele>
        <time>2024-05-04T08:45:14Z</time>
      </trkpt>
      <trkpt lat="46.13493" lon="6.57958">
        <ele>1583.881</ele>
        <time>2024-05-04T08:45:19Z</time>
      </trkpt>
      <trkpt lat="46.13492" lon="6.57956">
        <ele>1585.097</ele>
        <time>2024-05-04T08:45:24Z</time>
      </trkpt>
      <trkpt lat="46.13491" lon="6.57952">
        <ele>1585.346</ele>
        <time>2024-05-04T08:45:29Z</time>
      </trkpt>
      <trkpt lat="46.13491" lon="6.57949">
        <ele>1586.168</ele>
        <time>2024-05-04T08:45:34Z</time>
      </trkpt>
      <trkpt lat="46.13491" lon="6.57944">
        <ele>1587.737</ele>
        <time>2024-05-04T08:45:39Z</time>
      </trkpt>
      <trkpt lat="46.1349" lon="6.57941">
        <ele>1588.158</ele>
        <time>2024-05-04T08:45:44Z</time>
      </trkpt>
      <trkpt lat="46.13489" lon="6.57937">
        <ele>1588.342</ele>
        <time>2024-05-04T08:45:49Z</time>
      </trkpt>
      <trkpt lat="46.13488" lon="6.57933">
        <ele>1588.574</ele>
        <time>2024-05-04T08:45:54Z</time>
      </trkpt>
      <trkpt lat="46.13487" lon="6.5793">
        <ele>1589.598</ele>
        <time>2024-05-04T08:45:59Z</time>
      </trkpt>
      <trkpt lat="46.13485" lon="6.57926">
        <ele>1589.166</ele>
        <time>2024-05-04T08:46:04Z</time>
      </trkpt>
      <trkpt lat="46.13484" lon="6.57921">
        <ele>1588.702</ele>
        <time>2024-05-04T08:46:09Z</time>
      </trkpt>
      <trkpt lat="46.13483" lon="6.57918">
        <ele>1589.823</ele>
        <time>2024-05-04T08:46:14Z</time>
      </trkpt>
      <trkpt lat="46.13483" lon="6.57915">
        <ele>1591.404</ele>
        <time>2024-05-04T08:46:19Z</time>
      </trkpt>
      <trkpt lat="46.13483" lon="6.57915">
        <ele>1591.691</ele>
        <time>2024-05-04T08:46:24Z</time>
      </trkpt>
      <trkpt lat="46.13483" lon="6.57915">
        <ele>1590.316</ele>
        <time>2024-05-04T08:46:29Z</time>
      </trkpt>
      <trkpt lat="46.13482" lon="6.57912">
        <ele>1588.667</ele>
        <time>2024-05-04T08:46:34Z</time>
      </trkpt>
      <trkpt lat="46.13482" lon="6.57906">
        <ele>1587.486</ele>
        <time>2024-05-04T08:46:39Z</time>
      </trkpt>
      <trkpt lat="46.13481" lon="6.57904">
        <ele>1585.706</ele>
        <time>2024-05-04T08:46:44Z</time>
      </trkpt>
      <trkpt lat="46.1348" lon="6.57901">
        <ele>1583.296</ele>
        <time>2024-05-04T08:46:49Z</time>
      </trkpt>
      <trkpt lat="46.13479" lon="6.57898">
        <ele>1582.171</ele>
        <time>2024-05-04T08:46:54Z</time>
      </trkpt>
      <trkpt lat="46.13475" lon="6.57895">
        <ele>1581.424</ele>
        <time>2024-05-04T08:46:59Z</time>
      </trkpt>
      <trkpt lat="46.13475" lon="6.5789">
        <ele>1582.182</ele>
        <time>2024-05-04T08:47:04Z</time>
      </trkpt>
      <trkpt lat="46.13475" lon="6.57886">
        <ele>1581.58</ele>
        <time>2024-05-04T08:47:09Z</time>
      </trkpt>
      <trkpt lat="46.13475" lon="6.57882">
        <ele>1582.037</ele>
        <time>2024-05-04T08:47:14Z</time>
      </trkpt>
      <trkpt lat="46.13474" lon="6.57878">
        <ele>1582.271</ele>
        <time>2024-05-04T08:47:19Z</time>
      </trkpt>
      <trkpt lat="46.13472" lon="6.57875">
        <ele>1583.115</ele>
        <time>2024-05-04T08:47:24Z</time>
      </trkpt>
      <trkpt lat="46.13469" lon="6.57872">
        <ele>1583.048</ele>
        <time>2024-05-04T08:47:29Z</time>
      </trkpt>
      <trkpt lat="46.13467" lon="6.57869">
        <ele>1583.301</ele>
        <time>2024-05-04T08:47:34Z</time>
      </trkpt>
      <trkpt lat="46.13465" lon="6.57866">
        <ele>1585.828</ele>
        <time>2024-05-04T08:47:39Z</time>
      </trkpt>
      <trkpt lat="46.13463" lon="6.57864">
        <ele>1584.742</ele>
        <time>2024-05-04T08:47:44Z</time>
      </trkpt>
      <trkpt lat="46.13461" lon="6.5786">
        <ele>1584.466</ele>
        <time>2024-05-04T08:47:49Z</time>
      </trkpt>
      <trkpt lat="46.1346" lon="6.57856">
        <ele>1584.919</ele>
        <time>2024-05-04T08:47:54Z</time>
      </trkpt>
      <trkpt lat="46.13458" lon="6.57853">
        <ele>1583.71</ele>
        <time>2024-05-04T08:47:59Z</time>
      </trkpt>
      <trkpt lat="46.13457" lon="6.57849">
        <ele>1586.708</ele>
        <time>2024-05-04T08:48:04Z</time>
      </trkpt>
      <trkpt lat="46.13456" lon="6.57845">
        <ele>1585.985</ele>
        <time>2024-05-04T08:48:09Z</time>
      </trkpt>
      <trkpt lat="46.13453" lon="6.57842">
        <ele>1584.79</ele>
        <time>2024-05-04T08:48:14Z</time>
      </trkpt>
      <trkpt lat="46.13451" lon="6.57838">
        <ele>1584.496</ele>
        <time>2024-05-04T08:48:19Z</time>
      </trkpt>
      <trkpt lat="46.1345" lon="6.57836">
        <ele>1585.228</ele>
        <time>2024-05-04T08:48:24Z</time>
      </trkpt>
      <trkpt lat="46.13448" lon="6.57833">
        <ele>1584.397</ele>
        <time>2024-05-04T08:48:29Z</time>
      </trkpt>
      <trkpt lat="46.13446" lon="6.5783">
        <ele>1582.667</ele>
        <time>2024-05-04T08:48:34Z</time>
      </trkpt>
      <trkpt lat="46.13444" lon="6.57826">
        <ele>1583.714</ele>
        <time>2024-05-04T08:48:39Z</time>
      </trkpt>
      <trkpt lat="46.13444" lon="6.57822">
        <ele>1585.394</ele>
        <time>2024-05-04T08:48:44Z</time>
      </trkpt>
      <trkpt lat="46.13443" lon="6.5782">
        <ele>1586.164</ele>
        <time>2024-05-04T08:48:49Z</time>
      </trkpt>
      <trkpt lat="46.13442" lon="6.57816">
        <ele>1588.747</ele>
        <time>2024-05-04T08:48:54Z</time>
      </trkpt>
      <trkpt lat="46.1344" lon="6.57816">
        <ele>1589.339</ele>
        <time>2024-05-04T08:48:59Z</time>
      </trkpt>
      <trkpt lat="46.13439" lon="6.57815">
        <ele>1588.877</ele>
        <time>2024-05-04T08:49:04Z</time>
      </trkpt>
      <trkpt lat="46.13438" lon="6.57813">
        <ele>1591.692</ele>
        <time>2024-05-04T08:49:09Z</time>
      </trkpt>
      <trkpt lat="46.13437" lon="6.5781">
        <ele>1594.56</ele>
        <time>2024-05-04T08:49:14Z</time>
      </trkpt>
      <trkpt lat="46.13436" lon="6.57807">
        <ele>1595.56</ele>
        <time>2024-05-04T08:49:19Z</time>
      </trkpt>
      <trkpt lat="46.13436" lon="6.57805">
        <ele>1597.925</ele>
        <time>2024-05-04T08:49:24Z</time>
      </trkpt>
      <trkpt lat="46.13436" lon="6.57803">
        <ele>1600.368</ele>
        <time>2024-05-04T08:49:29Z</time>
      </trkpt>
      <trkpt lat="46.13435" lon="6.57799">
        <ele>1600.386</ele>
        <time>2024-05-04T08:49:34Z</time>
      </trkpt>
      <trkpt lat="46.13434" lon="6.57798">
        <ele>1602.027</ele>
        <time>2024-05-04T08:49:39Z</time>
      </trkpt>
      <trkpt lat="46.13434" lon="6.57795">
        <ele>1602.509</ele>
        <time>2024-05-04T08:49:44Z</time>
      </trkpt>
      <trkpt lat="46.13432" lon="6.57791">
        <ele>1602.195</ele>
        <time>2024-05-04T08:49:49Z</time>
      </trkpt>
      <trkpt lat="46.13429" lon="6.57788">
        <ele>1601.455</ele>
        <time>2024-05-04T08:49:54Z</time>
      </trkpt>
      <trkpt lat="46.13429" lon="6.57785">
        <ele>1603.431</ele>
        <time>2024-05-04T08:49:59Z</time>
      </trkpt>
      <trkpt lat="46.13429" lon="6.57784">
        <ele>1604.935</ele>
        <time>2024-05-04T08:50:04Z</time>
      </trkpt>
      <trkpt lat="46.13429" lon="6.57781">
        <ele>1606.611</ele>
        <time>2024-05-04T08:50:09Z</time>
      </trkpt>
      <trkpt lat="46.13428" lon="6.5778">
        <ele>1607.065</ele>
        <time>2024-05-04T08:50:14Z</time>
      </trkpt>
      <trkpt lat="46.13428" lon="6.57775">
        <ele>1605.49</ele>
        <time>2024-05-04T08:50:19Z</time>
      </trkpt>
      <trkpt lat="46.13426" lon="6.57771">
        <ele>1604.749</ele>
        <time>2024-05-04T08:50:24Z</time>
      </trkpt>
      <trkpt lat="46.13423" lon="6.57765">
        <ele>1603.986</ele>
        <time>2024-05-04T08:50:29Z</time>
      </trkpt>
      <trkpt lat="46.1342" lon="6.57765">
        <ele>1605.591</ele>
        <time>2024-05-04T08:50:34Z</time>
      </trkpt>
      <trkpt lat="46.1342" lon="6.57764">
        <ele>1608.816</ele>
        <time>2024-05-04T08:50:39Z</time>
      </trkpt>
      <trkpt lat="46.1342" lon="6.57763">
        <ele>1608.423</ele>
        <time>2024-05-04T08:50:44Z</time>
      </trkpt>
      <trkpt lat="46.13419" lon="6.57761">
        <ele>1607.365</ele>
        <time>2024-05-04T08:50:49Z</time>
      </trkpt>
      <trkpt lat="46.13418" lon="6.57757">
        <ele>1610.852</ele>
        <time>2024-05-04T08:50:54Z</time>
      </trkpt>
      <trkpt lat="46.13416" lon="6.57755">
        <ele>1612.435</ele>
        <time>2024-05-04T08:50:59Z</time>
      </trkpt>
      <trkpt lat="46.13415" lon="6.57756">
        <ele>1611.966</ele>
        <time>2024-05-04T08:51:04Z</time>
      </trkpt>
      <trkpt lat="46.13413" lon="6.57753">
        <ele>1612.076</ele>
        <time>2024-05-04T08:51:09Z</time>
      </trkpt>
      <trkpt lat="46.13412" lon="6.5775">
        <ele>1611.456</ele>
        <time>2024-05-04T08:51:14Z</time>
      </trkpt>
      <trkpt lat="46.1341" lon="6.57747">
        <ele>1612.549</ele>
        <time>2024-05-04T08:51:19Z</time>
      </trkpt>
      <trkpt lat="46.13408" lon="6.57744">
        <ele>1613.111</ele>
        <time>2024-05-04T08:51:24Z</time>
      </trkpt>
      <trkpt lat="46.13407" lon="6.5774">
        <ele>1614.696</ele>
        <time>2024-05-04T08:51:29Z</time>
      </trkpt>
      <trkpt lat="46.13405" lon="6.57736">
        <ele>1613.807</ele>
        <time>2024-05-04T08:51:34Z</time>
      </trkpt>
      <trkpt lat="46.13402" lon="6.57734">
        <ele>1612.806</ele>
        <time>2024-05-04T08:51:39Z</time>
      </trkpt>
      <trkpt lat="46.13399" lon="6.57732">
        <ele>1613.277</ele>
        <time>2024-05-04T08:51:44Z</time>
      </trkpt>
      <trkpt lat="46.13397" lon="6.5773">
        <ele>1615.173</ele>
        <time>2024-05-04T08:51:49Z</time>
      </trkpt>
      <trkpt lat="46.13397" lon="6.57729">
        <ele>1616.527</ele>
        <time>2024-05-04T08:51:54Z</time>
      </trkpt>
      <trkpt lat="46.13396" lon="6.57728">
        <ele>1618.476</ele>
        <time>2024-05-04T08:51:59Z</time>
      </trkpt>
      <trkpt lat="46.13394" lon="6.57725">
        <ele>1618.45</ele>
        <time>2024-05-04T08:52:04Z</time>
      </trkpt>
      <trkpt lat="46.1339" lon="6.57722">
        <ele>1616.761</ele>
        <time>2024-05-04T08:52:09Z</time>
      </trkpt>
      <trkpt lat="46.13389" lon="6.57719">
        <ele>1617.509</ele>
        <time>2024-05-04T08:52:14Z</time>
      </trkpt>
      <trkpt lat="46.13388" lon="6.57718">
        <ele>1616.551</ele>
        <time>2024-05-04T08:52:19Z</time>
      </trkpt>
      <trkpt lat="46.13387" lon="6.57719">
        <ele>1616.481</ele>
        <time>2024-05-04T08:52:24Z</time>
      </trkpt>
      <trkpt lat="46.13385" lon="6.57715">
        <ele>1617.529</ele>
        <time>2024-05-04T08:52:29Z</time>
      </trkpt>
      <trkpt lat="46.13382" lon="6.57714">
        <ele>1619.08</ele>
        <time>2024-05-04T08:52:34Z</time>
      </trkpt>
      <trkpt lat="46.1338" lon="6.57715">
        <ele>1621.359</ele>
        <time>2024-05-04T08:52:39Z</time>
      </trkpt>
      <trkpt lat="46.13378" lon="6.57716">
        <ele>1622.256</ele>
        <time>2024-05-04T08:52:44Z</time>
      </trkpt>
      <trkpt lat="46.13378" lon="6.57721">
        <ele>1623.511</ele>
        <time>2024-05-04T08:52:49Z</time>
      </trkpt>
      <trkpt lat="46.13377" lon="6.57724">
        <ele>1625.349</ele>
        <time>2024-05-04T08:52:54Z</time>
      </trkpt>
      <trkpt lat="46.13375" lon="6.57724">
        <ele>1625.716</ele>
        <time>2024-05-04T08:52:59Z</time>
      </trkpt>
      <trkpt lat="46.13373" lon="6.57725">
        <ele>1625.526</ele>
        <time>2024-05-04T08:53:04Z</time>
      </trkpt>
      <trkpt lat="46.13372" lon="6.57726">
        <ele>1627.424</ele>
        <time>2024-05-04T08:53:09Z</time>
      </trkpt>
      <trkpt lat="46.1337" lon="6.57728">
        <ele>1629.34</ele>
        <time>2024-05-04T08:53:14Z</time>
      </trkpt>
      <trkpt lat="46.13369" lon="6.57731">
        <ele>1632.519</ele>
        <time>2024-05-04T08:53:19Z</time>
      </trkpt>
      <trkpt lat="46.13366" lon="6.57732">
        <ele>1633.897</ele>
        <time>2024-05-04T08:53:24Z</time>
      </trkpt>
      <trkpt lat="46.13364" lon="6.57729">
        <ele>1634.722</ele>
        <time>2024-05-04T08:53:29Z</time>
      </trkpt>
      <trkpt lat="46.13362" lon="6.57727">
        <ele>1634.599</ele>
        <time>2024-05-04T08:53:34Z</time>
      </trkpt>
      <trkpt lat="46.13359" lon="6.57725">
        <ele>1633.584</ele>
        <time>2024-05-04T08:53:39Z</time>
      </trkpt>
      <trkpt lat="46.13356" lon="6.57724">
        <ele>1633.344</ele>
        <time>2024-05-04T08:53:44Z</time>
      </trkpt>
      <trkpt lat="46.13353" lon="6.57725">
        <ele>1634.156</ele>
        <time>2024-05-04T08:53:49Z</time>
      </trkpt>
      <trkpt lat="46.13353" lon="6.57725">
        <ele>1634.105</ele>
        <time>2024-05-04T08:53:54Z</time>
      </trkpt>
      <trkpt lat="46.13353" lon="6.57725">
        <ele>1634.114</ele>
        <time>2024-05-04T08:53:59Z</time>
      </trkpt>
      <trkpt lat="46.13353" lon="6.57725">
        <ele>1634.116</ele>
        <time>2024-05-04T08:54:04Z</time>
      </trkpt>
      <trkpt lat="46.13353" lon="6.57725">
        <ele>1634.117</ele>
        <time>2024-05-04T08:54:09Z</time>
      </trkpt>
      <trkpt lat="46.13353" lon="6.57725">
        <ele>1634.302</ele>
        <time>2024-05-04T08:54:14Z</time>
      </trkpt>
      <trkpt lat="46.13353" lon="6.57725">
        <ele>1634.294</ele>
        <time>2024-05-04T08:54:19Z</time>
      </trkpt>
      <trkpt lat="46.13353" lon="6.57725">
        <ele>1634.293</ele>
        <time>2024-05-04T08:54:24Z</time>
      </trkpt>
      <trkpt lat="46.13352" lon="6.57726">
        <ele>1634.981</ele>
        <time>2024-05-04T08:54:29Z</time>
      </trkpt>
      <trkpt lat="46.13349" lon="6.57727">
        <ele>1636.464</ele>
        <time>2024-05-04T08:54:34Z</time>
      </trkpt>
      <trkpt lat="46.13346" lon="6.5773">
        <ele>1640.416</ele>
        <time>2024-05-04T08:54:39Z</time>
      </trkpt>
      <trkpt lat="46.13346" lon="6.57735">
        <ele>1639.702</ele>
        <time>2024-05-04T08:54:44Z</time>
      </trkpt>
      <trkpt lat="46.13344" lon="6.57736">
        <ele>1640.498</ele>
        <time>2024-05-04T08:54:49Z</time>
      </trkpt>
      <trkpt lat="46.13342" lon="6.57735">
        <ele>1640.558</ele>
        <time>2024-05-04T08:54:54Z</time>
      </trkpt>
      <trkpt lat="46.1334" lon="6.57733">
        <ele>1641.457</ele>
        <time>2024-05-04T08:54:59Z</time>
      </trkpt>
      <trkpt lat="46.13338" lon="6.57734">
        <ele>1641.079</ele>
        <time>2024-05-04T08:55:04Z</time>
      </trkpt>
      <trkpt lat="46.13336" lon="6.57732">
        <ele>1640.886</ele>
        <time>2024-05-04T08:55:09Z</time>
      </trkpt>
      <trkpt lat="46.13333" lon="6.57731">
        <ele>1643.264</ele>
        <time>2024-05-04T08:55:14Z</time>
      </trkpt>
      <trkpt lat="46.1333" lon="6.57733">
        <ele>1643.582</ele>
        <time>2024-05-04T08:55:19Z</time>
      </trkpt>
      <trkpt lat="46.13327" lon="6.57731">
        <ele>1641.441</ele>
        <time>2024-05-04T08:55:24Z</time>
      </trkpt>
      <trkpt lat="46.13324" lon="6.57734">
        <ele>1641.888</ele>
        <time>2024-05-04T08:55:29Z</time>
      </trkpt>
      <trkpt lat="46.13324" lon="6.57736">
        <ele>1643.902</ele>
        <time>2024-05-04T08:55:34Z</time>
      </trkpt>
      <trkpt lat="46.13322" lon="6.57738">
        <ele>1643.481</ele>
        <time>2024-05-04T08:55:39Z</time>
      </trkpt>
      <trkpt lat="46.1332" lon="6.57737">
        <ele>1643.295</ele>
        <time>2024-05-04T08:55:44Z</time>
      </trkpt>
      <trkpt lat="46.13319" lon="6.57741">
        <ele>1645.157</ele>
        <time>2024-05-04T08:55:49Z</time>
      </trkpt>
      <trkpt lat="46.1332" lon="6.57747">
        <ele>1646.829</ele>
        <time>2024-05-04T08:55:54Z</time>
      </trkpt>
      <trkpt lat="46.13321" lon="6.5775">
        <ele>1648.168</ele>
        <time>2024-05-04T08:55:59Z</time>
      </trkpt>
      <trkpt lat="46.1332" lon="6.57754">
        <ele>1651.942</ele>
        <time>2024-05-04T08:56:04Z</time>
      </trkpt>
      <trkpt lat="46.1332" lon="6.57756">
        <ele>1652.518</ele>
        <time>2024-05-04T08:56:09Z</time>
      </trkpt>
      <trkpt lat="46.13319" lon="6.57764">
        <ele>1652.437</ele>
        <time>2024-05-04T08:56:15Z</time>
      </trkpt>
      <trkpt lat="46.13317" lon="6.57767">
        <ele>1654.924</ele>
        <time>2024-05-04T08:56:20Z</time>
      </trkpt>
      <trkpt lat="46.13314" lon="6.57769">
        <ele>1656.262</ele>
        <time>2024-05-04T08:56:25Z</time>
      </trkpt>
      <trkpt lat="46.13311" lon="6.57772">
        <ele>1656.541</ele>
        <time>2024-05-04T08:56:30Z</time>
      </trkpt>
      <trkpt lat="46.1331" lon="6.57775">
        <ele>1657.853</ele>
        <time>2024-05-04T08:56:35Z</time>
      </trkpt>
      <trkpt lat="46.13309" lon="6.57779">
        <ele>1658.691</ele>
        <time>2024-05-04T08:56:40Z</time>
      </trkpt>
      <trkpt lat="46.13307" lon="6.57781">
        <ele>1655.381</ele>
        <time>2024-05-04T08:56:45Z</time>
      </trkpt>
      <trkpt lat="46.13306" lon="6.57781">
        <ele>1653.892</ele>
        <time>2024-05-04T08:56:50Z</time>
      </trkpt>
      <trkpt lat="46.13301" lon="6.57782">
        <ele>1656.005</ele>
        <time>2024-05-04T08:56:55Z</time>
      </trkpt>
      <trkpt lat="46.13298" lon="6.57783">
        <ele>1656.343</ele>
        <time>2024-05-04T08:57:00Z</time>
      </trkpt>
      <trkpt lat="46.13296" lon="6.57784">
        <ele>1656.061</ele>
        <time>2024-05-04T08:57:05Z</time>
      </trkpt>
      <trkpt lat="46.13293" lon="6.57786">
        <ele>1655.406</ele>
        <time>2024-05-04T08:57:10Z</time>
      </trkpt>
      <trkpt lat="46.13292" lon="6.57789">
        <ele>1656.453</ele>
        <time>2024-05-04T08:57:15Z</time>
      </trkpt>
      <trkpt lat="46.1329" lon="6.57791">
        <ele>1657.023</ele>
        <time>2024-05-04T08:57:20Z</time>
      </trkpt>
      <trkpt lat="46.13288" lon="6.57792">
        <ele>1656.861</ele>
        <time>2024-05-04T08:57:25Z</time>
      </trkpt>
      <trkpt lat="46.13285" lon="6.57792">
        <ele>1657.183</ele>
        <time>2024-05-04T08:57:30Z</time>
      </trkpt>
      <trkpt lat="46.13283" lon="6.57791">
        <ele>1655.292</ele>
        <time>2024-05-04T08:57:35Z</time>
      </trkpt>
      <trkpt lat="46.1328" lon="6.57793">
        <ele>1656.309</ele>
        <time>2024-05-04T08:57:40Z</time>
      </trkpt>
      <trkpt lat="46.13279" lon="6.57796">
        <ele>1656.681</ele>
        <time>2024-05-04T08:57:45Z</time>
      </trkpt>
      <trkpt lat="46.13278" lon="6.57799">
        <ele>1659.124</ele>
        <time>2024-05-04T08:57:50Z</time>
      </trkpt>
      <trkpt lat="46.13276" lon="6.57801">
        <ele>1660.084</ele>
        <time>2024-05-04T08:57:55Z</time>
      </trkpt>
      <trkpt lat="46.13275" lon="6.57803">
        <ele>1660.414</ele>
        <time>2024-05-04T08:58:00Z</time>
      </trkpt>
      <trkpt lat="46.13273" lon="6.57806">
        <ele>1662.381</ele>
        <time>2024-05-04T08:58:05Z</time>
      </trkpt>
      <trkpt lat="46.13271" lon="6.57808">
        <ele>1663.282</ele>
        <time>2024-05-04T08:58:10Z</time>
      </trkpt>
      <trkpt lat="46.1327" lon="6.57809">
        <ele>1661.398</ele>
        <time>2024-05-04T08:58:15Z</time>
      </trkpt>
      <trkpt lat="46.13269" lon="6.57811">
        <ele>1662.518</ele>
        <time>2024-05-04T08:58:20Z</time>
      </trkpt>
      <trkpt lat="46.13269" lon="6.57814">
        <ele>1661.431</ele>
        <time>2024-05-04T08:58:25Z</time>
      </trkpt>
      <trkpt lat="46.13268" lon="6.57816">
        <ele>1663.42</ele>
        <time>2024-05-04T08:58:30Z</time>
      </trkpt>
      <trkpt lat="46.13267" lon="6.57819">
        <ele>1666.828</ele>
        <time>2024-05-04T08:58:35Z</time>
      </trkpt>
      <trkpt lat="46.13266" lon="6.57824">
        <ele>1666.316</ele>
        <time>2024-05-04T08:58:40Z</time>
      </trkpt>
      <trkpt lat="46.13266" lon="6.57828">
        <ele>1666.622</ele>
        <time>2024-05-04T08:58:45Z</time>
      </trkpt>
      <trkpt lat="46.13264" lon="6.57831">
        <ele>1665.943</ele>
        <time>2024-05-04T08:58:50Z</time>
      </trkpt>
      <trkpt lat="46.13264" lon="6.57835">
        <ele>1667.381</ele>
        <time>2024-05-04T08:58:55Z</time>
      </trkpt>
      <trkpt lat="46.13263" lon="6.57838">
        <ele>1667.708</ele>
        <time>2024-05-04T08:59:00Z</time>
      </trkpt>
      <trkpt lat="46.13262" lon="6.57839">
        <ele>1665.184</ele>
        <time>2024-05-04T08:59:05Z</time>
      </trkpt>
      <trkpt lat="46.13262" lon="6.57841">
        <ele>1666.7</ele>
        <time>2024-05-04T08:59:10Z</time>
      </trkpt>
      <trkpt lat="46.13262" lon="6.57841">
        <ele>1666.864</ele>
        <time>2024-05-04T08:59:15Z</time>
      </trkpt>
      <trkpt lat="46.13264" lon="6.57843">
        <ele>1667.761</ele>
        <time>2024-05-04T08:59:20Z</time>
      </trkpt>
      <trkpt lat="46.13263" lon="6.57847">
        <ele>1667.93</ele>
        <time>2024-05-04T08:59:25Z</time>
      </trkpt>
      <trkpt lat="46.13263" lon="6.57851">
        <ele>1669.892</ele>
        <time>2024-05-04T08:59:30Z</time>
      </trkpt>
      <trkpt lat="46.13263" lon="6.57855">
        <ele>1671.768</ele>
        <time>2024-05-04T08:59:35Z</time>
      </trkpt>
      <trkpt lat="46.13264" lon="6.57859">
        <ele>1671.74</ele>
        <time>2024-05-04T08:59:40Z</time>
      </trkpt>
      <trkpt lat="46.13262" lon="6.57861">
        <ele>1671.359</ele>
        <time>2024-05-04T08:59:45Z</time>
      </trkpt>
      <trkpt lat="46.1326" lon="6.57863">
        <ele>1672.892</ele>
        <time>2024-05-04T08:59:50Z</time>
      </trkpt>
      <trkpt lat="46.13259" lon="6.57864">
        <ele>1672.841</ele>
        <time>2024-05-04T08:59:55Z</time>
      </trkpt>
      <trkpt lat="46.13258" lon="6.57864">
        <ele>1673.554</ele>
        <time>2024-05-04T09:00:00Z</time>
      </trkpt>
      <trkpt lat="46.13258" lon="6.57864">
        <ele>1673.635</ele>
        <time>2024-05-04T09:00:05Z</time>
      </trkpt>
      <trkpt lat="46.13255" lon="6.57862">
        <ele>1673.639</ele>
        <time>2024-05-04T09:00:10Z</time>
      </trkpt>
      <trkpt lat="46.13253" lon="6.57861">
        <ele>1673.149</ele>
        <time>2024-05-04T09:00:15Z</time>
      </trkpt>
      <trkpt lat="46.13252" lon="6.57857">
        <ele>1674.951</ele>
        <time>2024-05-04T09:00:20Z</time>
      </trkpt>
      <trkpt lat="46.13249" lon="6.57854">
        <ele>1675.426</ele>
        <time>2024-05-04T09:00:25Z</time>
      </trkpt>
      <trkpt lat="46.13248" lon="6.57854">
        <ele>1676.09</ele>
        <time>2024-05-04T09:00:30Z</time>
      </trkpt>
      <trkpt lat="46.13246" lon="6.57852">
        <ele>1675.519</ele>
        <time>2024-05-04T09:00:35Z</time>
      </trkpt>
      <trkpt lat="46.13245" lon="6.57851">
        <ele>1677.331</ele>
        <time>2024-05-04T09:00:40Z</time>
      </trkpt>
      <trkpt lat="46.13244" lon="6.57848">
        <ele>1679.556</ele>
        <time>2024-05-04T09:00:45Z</time>
      </trkpt>
      <trkpt lat="46.13241" lon="6.57846">
        <ele>1677.434</ele>
        <time>2024-05-04T09:00:50Z</time>
      </trkpt>
      <trkpt lat="46.13241" lon="6.57846">
        <ele>1677.391</ele>
        <time>2024-05-04T09:00:55Z</time>
      </trkpt>
      <trkpt lat="46.13241" lon="6.57846">
        <ele>1677.633</ele>
        <time>2024-05-04T09:01:00Z</time>
      </trkpt>
      <trkpt lat="46.13241" lon="6.57846">
        <ele>1677.638</ele>
        <time>2024-05-04T09:01:05Z</time>
      </trkpt>
      <trkpt lat="46.13241" lon="6.57846">
        <ele>1677.634</ele>
        <time>2024-05-04T09:01:10Z</time>
      </trkpt>
      <trkpt lat="46.13241" lon="6.57846">
        <ele>1677.634</ele>
        <time>2024-05-04T09:01:15Z</time>
      </trkpt>
      <trkpt lat="46.13241" lon="6.57846">
        <ele>1677.629</ele>
        <time>2024-05-04T09:01:20Z</time>
      </trkpt>
      <trkpt lat="46.13241" lon="6.57846">
        <ele>1677.636</ele>
        <time>2024-05-04T09:01:25Z</time>
      </trkpt>
      <trkpt lat="46.13241" lon="6.57846">
        <ele>1677.635</ele>
        <time>2024-05-04T09:01:30Z</time>
      </trkpt>
      <trkpt lat="46.13241" lon="6.57846">
        <ele>1676.542</ele>
        <time>2024-05-04T09:01:35Z</time>
      </trkpt>
      <trkpt lat="46.13241" lon="6.57846">
        <ele>1676.559</ele>
        <time>2024-05-04T09:01:40Z</time>
      </trkpt>
      <trkpt lat="46.13241" lon="6.57846">
        <ele>1676.572</ele>
        <time>2024-05-04T09:01:45Z</time>
      </trkpt>
      <trkpt lat="46.13241" lon="6.57846">
        <ele>1676.571</ele>
        <time>2024-05-04T09:01:50Z</time>
      </trkpt>
      <trkpt lat="46.13241" lon="6.57846">
        <ele>1675.84</ele>
        <time>2024-05-04T09:01:55Z</time>
      </trkpt>
      <trkpt lat="46.13241" lon="6.57846">
        <ele>1678.409</ele>
        <time>2024-05-04T09:02:00Z</time>
      </trkpt>
      <trkpt lat="46.13241" lon="6.57846">
        <ele>1678.207</ele>
        <time>2024-05-04T09:02:05Z</time>
      </trkpt>
      <trkpt lat="46.13241" lon="6.57846">
        <ele>1677.466</ele>
        <time>2024-05-04T09:02:10Z</time>
      </trkpt>
      <trkpt lat="46.13241" lon="6.57846">
        <ele>1676.711</ele>
        <time>2024-05-04T09:02:15Z</time>
      </trkpt>
      <trkpt lat="46.13241" lon="6.57846">
        <ele>1676.646</ele>
        <time>2024-05-04T09:02:20Z</time>
      </trkpt>
      <trkpt lat="46.13241" lon="6.57846">
        <ele>1676.635</ele>
        <time>2024-05-04T09:02:25Z</time>
      </trkpt>
      <trkpt lat="46.13241" lon="6.57846">
        <ele>1676.629</ele>
        <time>2024-05-04T09:02:30Z</time>
      </trkpt>
      <trkpt lat="46.13241" lon="6.57846">
        <ele>1676.616</ele>
        <time>2024-05-04T09:02:35Z</time>
      </trkpt>
      <trkpt lat="46.13241" lon="6.57846">
        <ele>1676.606</ele>
        <time>2024-05-04T09:02:40Z</time>
      </trkpt>
      <trkpt lat="46.13241" lon="6.57846">
        <ele>1676.584</ele>
        <time>2024-05-04T09:02:45Z</time>
      </trkpt>
      <trkpt lat="46.13241" lon="6.57846">
        <ele>1676.59</ele>
        <time>2024-05-04T09:02:50Z</time>
      </trkpt>
      <trkpt lat="46.13241" lon="6.57846">
        <ele>1676.598</ele>
        <time>2024-05-04T09:02:55Z</time>
      </trkpt>
      <trkpt lat="46.13241" lon="6.57846">
        <ele>1676.607</ele>
        <time>2024-05-04T09:03:00Z</time>
      </trkpt>
      <trkpt lat="46.13241" lon="6.57846">
        <ele>1676.602</ele>
        <time>2024-05-04T09:03:05Z</time>
      </trkpt>
      <trkpt lat="46.13241" lon="6.57846">
        <ele>1676.603</ele>
        <time>2024-05-04T09:03:10Z</time>
      </trkpt>
      <trkpt lat="46.13241" lon="6.57846">
        <ele>1676.603</ele>
        <time>2024-05-04T09:03:15Z</time>
      </trkpt>
      <trkpt lat="46.13241" lon="6.57846">
        <ele>1676.607</ele>
        <time>2024-05-04T09:03:20Z</time>
      </trkpt>
      <trkpt lat="46.13241" lon="6.57846">
        <ele>1676.008</ele>
        <time>2024-05-04T09:03:25Z</time>
      </trkpt>
      <trkpt lat="46.13241" lon="6.57846">
        <ele>1676.027</ele>
        <time>2024-05-04T09:03:30Z</time>
      </trkpt>
      <trkpt lat="46.13241" lon="6.57846">
        <ele>1676.045</ele>
        <time>2024-05-04T09:03:35Z</time>
      </trkpt>
      <trkpt lat="46.13241" lon="6.57846">
        <ele>1676.072</ele>
        <time>2024-05-04T09:03:40Z</time>
      </trkpt>
      <trkpt lat="46.13241" lon="6.57846">
        <ele>1676.093</ele>
        <time>2024-05-04T09:03:45Z</time>
      </trkpt>
      <trkpt lat="46.13241" lon="6.57846">
        <ele>1676.103</ele>
        <time>2024-05-04T09:03:50Z</time>
      </trkpt>
      <trkpt lat="46.13241" lon="6.57846">
        <ele>1676.103</ele>
        <time>2024-05-04T09:03:55Z</time>
      </trkpt>
      <trkpt lat="46.13241" lon="6.57846">
        <ele>1676.111</ele>
        <time>2024-05-04T09:04:00Z</time>
      </trkpt>
      <trkpt lat="46.13241" lon="6.57846">
        <ele>1676.119</ele>
        <time>2024-05-04T09:04:05Z</time>
      </trkpt>
      <trkpt lat="46.13241" lon="6.57846">
        <ele>1676.132</ele>
        <time>2024-05-04T09:04:10Z</time>
      </trkpt>
      <trkpt lat="46.13241" lon="6.57846">
        <ele>1676.143</ele>
        <time>2024-05-04T09:04:15Z</time>
      </trkpt>
      <trkpt lat="46.13241" lon="6.57846">
        <ele>1676.146</ele>
        <time>2024-05-04T09:04:20Z</time>
      </trkpt>
      <trkpt lat="46.13241" lon="6.57846">
        <ele>1676.145</ele>
        <time>2024-05-04T09:04:25Z</time>
      </trkpt>
      <trkpt lat="46.13241" lon="6.57846">
        <ele>1676.143</ele>
        <time>2024-05-04T09:04:30Z</time>
      </trkpt>
      <trkpt lat="46.13241" lon="6.57846">
        <ele>1676.138</ele>
        <time>2024-05-04T09:04:35Z</time>
      </trkpt>
      <trkpt lat="46.13241" lon="6.57846">
        <ele>1676.144</ele>
        <time>2024-05-04T09:04:40Z</time>
      </trkpt>
      <trkpt lat="46.13241" lon="6.57846">
        <ele>1676.145</ele>
        <time>2024-05-04T09:04:45Z</time>
      </trkpt>
      <trkpt lat="46.13241" lon="6.57846">
        <ele>1676.14</ele>
        <time>2024-05-04T09:04:50Z</time>
      </trkpt>
      <trkpt lat="46.13241" lon="6.57846">
        <ele>1677.111</ele>
        <time>2024-05-04T09:04:55Z</time>
      </trkpt>
      <trkpt lat="46.13241" lon="6.57846">
        <ele>1677.109</ele>
        <time>2024-05-04T09:05:00Z</time>
      </trkpt>
      <trkpt lat="46.13241" lon="6.57846">
        <ele>1677.088</ele>
        <time>2024-05-04T09:05:05Z</time>
      </trkpt>
      <trkpt lat="46.13241" lon="6.57846">
        <ele>1677.08</ele>
        <time>2024-05-04T09:05:10Z</time>
      </trkpt>
      <trkpt lat="46.13235" lon="6.5784">
        <ele>1677.081</ele>
        <time>2024-05-04T09:05:15Z</time>
      </trkpt>
      <trkpt lat="46.13235" lon="6.5784">
        <ele>1677.088</ele>
        <time>2024-05-04T09:05:20Z</time>
      </trkpt>
      <trkpt lat="46.13235" lon="6.5784">
        <ele>1677.073</ele>
        <time>2024-05-04T09:05:25Z</time>
      </trkpt>
      <trkpt lat="46.13235" lon="6.5784">
        <ele>1677.078</ele>
        <time>2024-05-04T09:05:30Z</time>
      </trkpt>
      <trkpt lat="46.13235" lon="6.5784">
        <ele>1677.057</ele>
        <time>2024-05-04T09:05:35Z</time>
      </trkpt>
      <trkpt lat="46.13235" lon="6.5784">
        <ele>1677.029</ele>
        <time>2024-05-04T09:05:40Z</time>
      </trkpt>
      <trkpt lat="46.13235" lon="6.5784">
        <ele>1677.031</ele>
        <time>2024-05-04T09:05:45Z</time>
      </trkpt>
      <trkpt lat="46.13235" lon="6.5784">
        <ele>1677.025</ele>
        <time>2024-05-04T09:05:50Z</time>
      </trkpt>
      <trkpt lat="46.13235" lon="6.5784">
        <ele>1677.007</ele>
        <time>2024-05-04T09:05:55Z</time>
      </trkpt>
      <trkpt lat="46.13235" lon="6.5784">
        <ele>1676.995</ele>
        <time>2024-05-04T09:06:00Z</time>
      </trkpt>
      <trkpt lat="46.13235" lon="6.5784">
        <ele>1676.981</ele>
        <time>2024-05-04T09:06:05Z</time>
      </trkpt>
      <trkpt lat="46.13235" lon="6.5784">
        <ele>1676.961</ele>
        <time>2024-05-04T09:06:10Z</time>
      </trkpt>
      <trkpt lat="46.13235" lon="6.5784">
        <ele>1676.939</ele>
        <time>2024-05-04T09:06:15Z</time>
      </trkpt>
      <trkpt lat="46.13235" lon="6.5784">
        <ele>1676.917</ele>
        <time>2024-05-04T09:06:20Z</time>
      </trkpt>
      <trkpt lat="46.13235" lon="6.5784">
        <ele>1676.877</ele>
        <time>2024-05-04T09:06:25Z</time>
      </trkpt>
      <trkpt lat="46.13235" lon="6.5784">
        <ele>1676.825</ele>
        <time>2024-05-04T09:06:30Z</time>
      </trkpt>
      <trkpt lat="46.13235" lon="6.5784">
        <ele>1676.789</ele>
        <time>2024-05-04T09:06:35Z</time>
      </trkpt>
      <trkpt lat="46.13233" lon="6.57839">
        <ele>1674.997</ele>
        <time>2024-05-04T09:06:40Z</time>
      </trkpt>
      <trkpt lat="46.1323" lon="6.57842">
        <ele>1674.729</ele>
        <time>2024-05-04T09:06:45Z</time>
      </trkpt>
      <trkpt lat="46.13228" lon="6.57843">
        <ele>1676.783</ele>
        <time>2024-05-04T09:06:50Z</time>
      </trkpt>
      <trkpt lat="46.13225" lon="6.57843">
        <ele>1673.71</ele>
        <time>2024-05-04T09:06:55Z</time>
      </trkpt>
      <trkpt lat="46.13222" lon="6.57846">
        <ele>1671.061</ele>
        <time>2024-05-04T09:07:00Z</time>
      </trkpt>
      <trkpt lat="46.13219" lon="6.57846">
        <ele>1669.121</ele>
        <time>2024-05-04T09:07:05Z</time>
      </trkpt>
      <trkpt lat="46.13217" lon="6.57846">
        <ele>1669.286</ele>
        <time>2024-05-04T09:07:10Z</time>
      </trkpt>
      <trkpt lat="46.13216" lon="6.57847">
        <ele>1669.803</ele>
        <time>2024-05-04T09:07:15Z</time>
      </trkpt>
      <trkpt lat="46.13214" lon="6.57848">
        <ele>1670.073</ele>
        <time>2024-05-04T09:07:20Z</time>
      </trkpt>
      <trkpt lat="46.13211" lon="6.5785">
        <ele>1670.862</ele>
        <time>2024-05-04T09:07:25Z</time>
      </trkpt>
      <trkpt lat="46.1321" lon="6.57853">
        <ele>1670.28</ele>
        <time>2024-05-04T09:07:30Z</time>
      </trkpt>
      <trkpt lat="46.1321" lon="6.57853">
        <ele>1670.7</ele>
        <time>2024-05-04T09:07:35Z</time>
      </trkpt>
      <trkpt lat="46.1321" lon="6.57853">
        <ele>1670.704</ele>
        <time>2024-05-04T09:07:40Z</time>
      </trkpt>
      <trkpt lat="46.1321" lon="6.57853">
        <ele>1670.543</ele>
        <time>2024-05-04T09:07:45Z</time>
      </trkpt>
      <trkpt lat="46.1321" lon="6.57853">
        <ele>1671.969</ele>
        <time>2024-05-04T09:07:50Z</time>
      </trkpt>
      <trkpt lat="46.1321" lon="6.57853">
        <ele>1672.542</ele>
        <time>2024-05-04T09:07:55Z</time>
      </trkpt>
      <trkpt lat="46.1321" lon="6.57853">
        <ele>1672.463</ele>
        <time>2024-05-04T09:08:00Z</time>
      </trkpt>
      <trkpt lat="46.1321" lon="6.57853">
        <ele>1672.48</ele>
        <time>2024-05-04T09:08:05Z</time>
      </trkpt>
      <trkpt lat="46.1321" lon="6.57853">
        <ele>1672.508</ele>
        <time>2024-05-04T09:08:10Z</time>
      </trkpt>
      <trkpt lat="46.1321" lon="6.57853">
        <ele>1672.518</ele>
        <time>2024-05-04T09:08:15Z</time>
      </trkpt>
      <trkpt lat="46.1321" lon="6.57853">
        <ele>1672.526</ele>
        <time>2024-05-04T09:08:20Z</time>
      </trkpt>
      <trkpt lat="46.1321" lon="6.57853">
        <ele>1672.533</ele>
        <time>2024-05-04T09:08:25Z</time>
      </trkpt>
      <trkpt lat="46.1321" lon="6.57853">
        <ele>1671.932</ele>
        <time>2024-05-04T09:08:30Z</time>
      </trkpt>
      <trkpt lat="46.1321" lon="6.57853">
        <ele>1671.648</ele>
        <time>2024-05-04T09:08:35Z</time>
      </trkpt>
      <trkpt lat="46.1321" lon="6.57853">
        <ele>1671.666</ele>
        <time>2024-05-04T09:08:40Z</time>
      </trkpt>
      <trkpt lat="46.13204" lon="6.57857">
        <ele>1671.903</ele>
        <time>2024-05-04T09:08:45Z</time>
      </trkpt>
      <trkpt lat="46.13202" lon="6.5786">
        <ele>1672.707</ele>
        <time>2024-05-04T09:08:50Z</time>
      </trkpt>
      <trkpt lat="46.13197" lon="6.57877">
        <ele>1673.159</ele>
        <time>2024-05-04T09:08:55Z</time>
      </trkpt>
      <trkpt lat="46.13197" lon="6.57897">
        <ele>1684.366</ele>
        <time>2024-05-04T09:09:00Z</time>
      </trkpt>
      <trkpt lat="46.13198" lon="6.57897">
        <ele>1683.245</ele>
        <time>2024-05-04T09:09:05Z</time>
      </trkpt>
      <trkpt lat="46.13199" lon="6.57898">
        <ele>1683.118</ele>
        <time>2024-05-04T09:09:10Z</time>
      </trkpt>
      <trkpt lat="46.132" lon="6.57898">
        <ele>1681.178</ele>
        <time>2024-05-04T09:09:15Z</time>
      </trkpt>
      <trkpt lat="46.132" lon="6.57897">
        <ele>1680.803</ele>
        <time>2024-05-04T09:09:20Z</time>
      </trkpt>
      <trkpt lat="46.132" lon="6.57897">
        <ele>1680.102</ele>
        <time>2024-05-04T09:09:25Z</time>
      </trkpt>
      <trkpt lat="46.132" lon="6.57897">
        <ele>1679.768</ele>
        <time>2024-05-04T09:09:30Z</time>
      </trkpt>
      <trkpt lat="46.132" lon="6.57898">
        <ele>1680.328</ele>
        <time>2024-05-04T09:09:35Z</time>
      </trkpt>
      <trkpt lat="46.13201" lon="6.57903">
        <ele>1678.57</ele>
        <time>2024-05-04T09:09:40Z</time>
      </trkpt>
      <trkpt lat="46.13201" lon="6.57904">
        <ele>1677.105</ele>
        <time>2024-05-04T09:09:45Z</time>
      </trkpt>
      <trkpt lat="46.13192" lon="6.57916">
        <ele>1672.8</ele>
        <time>2024-05-04T09:09:50Z</time>
      </trkpt>
      <trkpt lat="46.13181" lon="6.57929">
        <ele>1677.96</ele>
        <time>2024-05-04T09:09:55Z</time>
      </trkpt>
      <trkpt lat="46.13176" lon="6.57939">
        <ele>1675.68</ele>
        <time>2024-05-04T09:10:00Z</time>
      </trkpt>
      <trkpt lat="46.13175" lon="6.57946">
        <ele>1674.049</ele>
        <time>2024-05-04T09:10:05Z</time>
      </trkpt>
      <trkpt lat="46.13174" lon="6.57951">
        <ele>1674.046</ele>
        <time>2024-05-04T09:10:10Z</time>
      </trkpt>
      <trkpt lat="46.13171" lon="6.57954">
        <ele>1673.754</ele>
        <time>2024-05-04T09:10:15Z</time>
      </trkpt>
      <trkpt lat="46.13171" lon="6.57954">
        <ele>1672.662</ele>
        <time>2024-05-04T09:10:20Z</time>
      </trkpt>
      <trkpt lat="46.13171" lon="6.57954">
        <ele>1672.658</ele>
        <time>2024-05-04T09:10:25Z</time>
      </trkpt>
      <trkpt lat="46.1317" lon="6.57956">
        <ele>1673.163</ele>
        <time>2024-05-04T09:10:30Z</time>
      </trkpt>
      <trkpt lat="46.13169" lon="6.57958">
        <ele>1669.899</ele>
        <time>2024-05-04T09:10:35Z</time>
      </trkpt>
      <trkpt lat="46.13167" lon="6.57962">
        <ele>1670.895</ele>
        <time>2024-05-04T09:10:40Z</time>
      </trkpt>
      <trkpt lat="46.13164" lon="6.57963">
        <ele>1674.205</ele>
        <time>2024-05-04T09:10:45Z</time>
      </trkpt>
      <trkpt lat="46.13161" lon="6.57965">
        <ele>1677.755</ele>
        <time>2024-05-04T09:10:50Z</time>
      </trkpt>
      <trkpt lat="46.13159" lon="6.57967">
        <ele>1677.191</ele>
        <time>2024-05-04T09:10:55Z</time>
      </trkpt>
      <trkpt lat="46.13156" lon="6.57969">
        <ele>1680.003</ele>
        <time>2024-05-04T09:11:00Z</time>
      </trkpt>
      <trkpt lat="46.13153" lon="6.57969">
        <ele>1679.782</ele>
        <time>2024-05-04T09:11:05Z</time>
      </trkpt>
      <trkpt lat="46.1315" lon="6.5797">
        <ele>1677.601</ele>
        <time>2024-05-04T09:11:10Z</time>
      </trkpt>
      <trkpt lat="46.13148" lon="6.57971">
        <ele>1677.833</ele>
        <time>2024-05-04T09:11:15Z</time>
      </trkpt>
      <trkpt lat="46.13145" lon="6.57971">
        <ele>1679.618</ele>
        <time>2024-05-04T09:11:20Z</time>
      </trkpt>
      <trkpt lat="46.13141" lon="6.57971">
        <ele>1679.5</ele>
        <time>2024-05-04T09:11:25Z</time>
      </trkpt>
      <trkpt lat="46.13137" lon="6.57971">
        <ele>1681.483</ele>
        <time>2024-05-04T09:11:30Z</time>
      </trkpt>
      <trkpt lat="46.13138" lon="6.57972">
        <ele>1682.061</ele>
        <time>2024-05-04T09:11:35Z</time>
      </trkpt>
      <trkpt lat="46.13137" lon="6.57972">
        <ele>1681.068</ele>
        <time>2024-05-04T09:11:40Z</time>
      </trkpt>
      <trkpt lat="46.13136" lon="6.57977">
        <ele>1679.301</ele>
        <time>2024-05-04T09:11:45Z</time>
      </trkpt>
      <trkpt lat="46.13132" lon="6.57979">
        <ele>1682.001</ele>
        <time>2024-05-04T09:11:50Z</time>
      </trkpt>
      <trkpt lat="46.13131" lon="6.5798">
        <ele>1685.152</ele>
        <time>2024-05-04T09:11:55Z</time>
      </trkpt>
      <trkpt lat="46.13128" lon="6.57983">
        <ele>1686.239</ele>
        <time>2024-05-04T09:12:00Z</time>
      </trkpt>
      <trkpt lat="46.13127" lon="6.57985">
        <ele>1686.942</ele>
        <time>2024-05-04T09:12:05Z</time>
      </trkpt>
      <trkpt lat="46.13127" lon="6.5799">
        <ele>1687.133</ele>
        <time>2024-05-04T09:12:10Z</time>
      </trkpt>
      <trkpt lat="46.13127" lon="6.57993">
        <ele>1688.092</ele>
        <time>2024-05-04T09:12:15Z</time>
      </trkpt>
      <trkpt lat="46.13126" lon="6.5799">
        <ele>1689.703</ele>
        <time>2024-05-04T09:12:20Z</time>
      </trkpt>
      <trkpt lat="46.13123" lon="6.57985">
        <ele>1692.184</ele>
        <time>2024-05-04T09:12:25Z</time>
      </trkpt>
      <trkpt lat="46.13122" lon="6.57982">
        <ele>1694.691</ele>
        <time>2024-05-04T09:12:30Z</time>
      </trkpt>
      <trkpt lat="46.13121" lon="6.5798">
        <ele>1696.172</ele>
        <time>2024-05-04T09:12:35Z</time>
      </trkpt>
      <trkpt lat="46.1312" lon="6.57976">
        <ele>1695.552</ele>
        <time>2024-05-04T09:12:40Z</time>
      </trkpt>
      <trkpt lat="46.13119" lon="6.57975">
        <ele>1693.824</ele>
        <time>2024-05-04T09:12:45Z</time>
      </trkpt>
      <trkpt lat="46.13119" lon="6.57975">
        <ele>1693.818</ele>
        <time>2024-05-04T09:12:50Z</time>
      </trkpt>
      <trkpt lat="46.13119" lon="6.57975">
        <ele>1693.62</ele>
        <time>2024-05-04T09:12:55Z</time>
      </trkpt>
      <trkpt lat="46.13119" lon="6.57975">
        <ele>1695.077</ele>
        <time>2024-05-04T09:13:00Z</time>
      </trkpt>
      <trkpt lat="46.13119" lon="6.57975">
        <ele>1695.157</ele>
        <time>2024-05-04T09:13:05Z</time>
      </trkpt>
      <trkpt lat="46.13119" lon="6.57975">
        <ele>1696.388</ele>
        <time>2024-05-04T09:13:10Z</time>
      </trkpt>
      <trkpt lat="46.13116" lon="6.57964">
        <ele>1698.336</ele>
        <time>2024-05-04T09:13:15Z</time>
      </trkpt>
      <trkpt lat="46.13115" lon="6.57961">
        <ele>1699.833</ele>
        <time>2024-05-04T09:13:20Z</time>
      </trkpt>
      <trkpt lat="46.13116" lon="6.57958">
        <ele>1702.015</ele>
        <time>2024-05-04T09:13:25Z</time>
      </trkpt>
      <trkpt lat="46.13115" lon="6.57956">
        <ele>1702.58</ele>
        <time>2024-05-04T09:13:30Z</time>
      </trkpt>
      <trkpt lat="46.13113" lon="6.57955">
        <ele>1705.826</ele>
        <time>2024-05-04T09:13:35Z</time>
      </trkpt>
      <trkpt lat="46.13114" lon="6.57954">
        <ele>1705.517</ele>
        <time>2024-05-04T09:13:40Z</time>
      </trkpt>
      <trkpt lat="46.13114" lon="6.57951">
        <ele>1704.838</ele>
        <time>2024-05-04T09:13:45Z</time>
      </trkpt>
      <trkpt lat="46.13114" lon="6.5795">
        <ele>1707.067</ele>
        <time>2024-05-04T09:13:50Z</time>
      </trkpt>
      <trkpt lat="46.13113" lon="6.57948">
        <ele>1710.582</ele>
        <time>2024-05-04T09:13:55Z</time>
      </trkpt>
      <trkpt lat="46.13112" lon="6.57946">
        <ele>1709.04</ele>
        <time>2024-05-04T09:14:00Z</time>
      </trkpt>
      <trkpt lat="46.1311" lon="6.57947">
        <ele>1706.727</ele>
        <time>2024-05-04T09:14:05Z</time>
      </trkpt>
      <trkpt lat="46.13109" lon="6.57953">
        <ele>1706.69</ele>
        <time>2024-05-04T09:14:10Z</time>
      </trkpt>
      <trkpt lat="46.13106" lon="6.57956">
        <ele>1707.371</ele>
        <time>2024-05-04T09:14:15Z</time>
      </trkpt>
      <trkpt lat="46.13105" lon="6.57958">
        <ele>1708.521</ele>
        <time>2024-05-04T09:14:20Z</time>
      </trkpt>
      <trkpt lat="46.13104" lon="6.57959">
        <ele>1708.747</ele>
        <time>2024-05-04T09:14:25Z</time>
      </trkpt>
      <trkpt lat="46.13104" lon="6.57961">
        <ele>1710.223</ele>
        <time>2024-05-04T09:14:30Z</time>
      </trkpt>
      <trkpt lat="46.13104" lon="6.57963">
        <ele>1711.469</ele>
        <time>2024-05-04T09:14:35Z</time>
      </trkpt>
      <trkpt lat="46.13103" lon="6.57966">
        <ele>1713.316</ele>
        <time>2024-05-04T09:14:40Z</time>
      </trkpt>
      <trkpt lat="46.13101" lon="6.57968">
        <ele>1714.714</ele>
        <time>2024-05-04T09:14:45Z</time>
      </trkpt>
      <trkpt lat="46.131" lon="6.5797">
        <ele>1714.605</ele>
        <time>2024-05-04T09:14:50Z</time>
      </trkpt>
      <trkpt lat="46.13098" lon="6.57976">
        <ele>1715.17</ele>
        <time>2024-05-04T09:14:55Z</time>
      </trkpt>
      <trkpt lat="46.13097" lon="6.57977">
        <ele>1716.128</ele>
        <time>2024-05-04T09:15:00Z</time>
      </trkpt>
      <trkpt lat="46.13099" lon="6.57979">
        <ele>1715.47</ele>
        <time>2024-05-04T09:15:05Z</time>
      </trkpt>
      <trkpt lat="46.13099" lon="6.5798">
        <ele>1714.587</ele>
        <time>2024-05-04T09:15:10Z</time>
      </trkpt>
      <trkpt lat="46.13095" lon="6.57984">
        <ele>1714.758</ele>
        <time>2024-05-04T09:15:15Z</time>
      </trkpt>
      <trkpt lat="46.13093" lon="6.57986">
        <ele>1716.17</ele>
        <time>2024-05-04T09:15:20Z</time>
      </trkpt>
      <trkpt lat="46.13091" lon="6.57988">
        <ele>1717.655</ele>
        <time>2024-05-04T09:15:25Z</time>
      </trkpt>
      <trkpt lat="46.13091" lon="6.57992">
        <ele>1720.525</ele>
        <time>2024-05-04T09:15:30Z</time>
      </trkpt>
      <trkpt lat="46.13092" lon="6.57992">
        <ele>1720.815</ele>
        <time>2024-05-04T09:15:35Z</time>
      </trkpt>
      <trkpt lat="46.13092" lon="6.57995">
        <ele>1721.72</ele>
        <time>2024-05-04T09:15:40Z</time>
      </trkpt>
      <trkpt lat="46.13094" lon="6.57998">
        <ele>1721.927</ele>
        <time>2024-05-04T09:15:45Z</time>
      </trkpt>
      <trkpt lat="46.13093" lon="6.58003">
        <ele>1722.768</ele>
        <time>2024-05-04T09:15:50Z</time>
      </trkpt>
      <trkpt lat="46.13092" lon="6.58004">
        <ele>1723.762</ele>
        <time>2024-05-04T09:15:55Z</time>
      </trkpt>
      <trkpt lat="46.1309" lon="6.58009">
        <ele>1726.013</ele>
        <time>2024-05-04T09:16:00Z</time>
      </trkpt>
      <trkpt lat="46.13088" lon="6.58006">
        <ele>1726.209</ele>
        <time>2024-05-04T09:16:05Z</time>
      </trkpt>
      <trkpt lat="46.13086" lon="6.58007">
        <ele>1727.204</ele>
        <time>2024-05-04T09:16:10Z</time>
      </trkpt>
      <trkpt lat="46.13085" lon="6.58007">
        <ele>1728.023</ele>
        <time>2024-05-04T09:16:15Z</time>
      </trkpt>
      <trkpt lat="46.13083" lon="6.58008">
        <ele>1727.304</ele>
        <time>2024-05-04T09:16:20Z</time>
      </trkpt>
      <trkpt lat="46.1308" lon="6.58009">
        <ele>1729.566</ele>
        <time>2024-05-04T09:16:25Z</time>
      </trkpt>
      <trkpt lat="46.13078" lon="6.5801">
        <ele>1729.797</ele>
        <time>2024-05-04T09:16:30Z</time>
      </trkpt>
      <trkpt lat="46.13077" lon="6.58011">
        <ele>1731.01</ele>
        <time>2024-05-04T09:16:35Z</time>
      </trkpt>
      <trkpt lat="46.13076" lon="6.58016">
        <ele>1731.745</ele>
        <time>2024-05-04T09:16:40Z</time>
      </trkpt>
      <trkpt lat="46.13073" lon="6.58016">
        <ele>1731.235</ele>
        <time>2024-05-04T09:16:45Z</time>
      </trkpt>
      <trkpt lat="46.13071" lon="6.58017">
        <ele>1730.165</ele>
        <time>2024-05-04T09:16:50Z</time>
      </trkpt>
      <trkpt lat="46.1307" lon="6.5802">
        <ele>1731.359</ele>
        <time>2024-05-04T09:16:55Z</time>
      </trkpt>
      <trkpt lat="46.13068" lon="6.58022">
        <ele>1730.558</ele>
        <time>2024-05-04T09:17:00Z</time>
      </trkpt>
      <trkpt lat="46.13067" lon="6.58022">
        <ele>1731.958</ele>
        <time>2024-05-04T09:17:05Z</time>
      </trkpt>
      <trkpt lat="46.13065" lon="6.58025">
        <ele>1734.979</ele>
        <time>2024-05-04T09:17:10Z</time>
      </trkpt>
      <trkpt lat="46.13065" lon="6.58027">
        <ele>1734.937</ele>
        <time>2024-05-04T09:17:15Z</time>
      </trkpt>
      <trkpt lat="46.13065" lon="6.58027">
        <ele>1734.841</ele>
        <time>2024-05-04T09:17:20Z</time>
      </trkpt>
      <trkpt lat="46.13065" lon="6.58027">
        <ele>1734.845</ele>
        <time>2024-05-04T09:17:25Z</time>
      </trkpt>
      <trkpt lat="46.13065" lon="6.58027">
        <ele>1734.864</ele>
        <time>2024-05-04T09:17:30Z</time>
      </trkpt>
      <trkpt lat="46.13065" lon="6.58027">
        <ele>1734.857</ele>
        <time>2024-05-04T09:17:35Z</time>
      </trkpt>
      <trkpt lat="46.13065" lon="6.58027">
        <ele>1735.297</ele>
        <time>2024-05-04T09:17:40Z</time>
      </trkpt>
      <trkpt lat="46.13065" lon="6.58027">
        <ele>1735.221</ele>
        <time>2024-05-04T09:17:45Z</time>
      </trkpt>
      <trkpt lat="46.13065" lon="6.58027">
        <ele>1735.659</ele>
        <time>2024-05-04T09:17:50Z</time>
      </trkpt>
      <trkpt lat="46.13065" lon="6.58027">
        <ele>1737.559</ele>
        <time>2024-05-04T09:17:55Z</time>
      </trkpt>
      <trkpt lat="46.13065" lon="6.58027">
        <ele>1738.482</ele>
        <time>2024-05-04T09:18:00Z</time>
      </trkpt>
      <trkpt lat="46.13065" lon="6.58027">
        <ele>1739.159</ele>
        <time>2024-05-04T09:18:05Z</time>
      </trkpt>
      <trkpt lat="46.13065" lon="6.58027">
        <ele>1739.507</ele>
        <time>2024-05-04T09:18:10Z</time>
      </trkpt>
      <trkpt lat="46.13065" lon="6.58027">
        <ele>1739.227</ele>
        <time>2024-05-04T09:18:15Z</time>
      </trkpt>
      <trkpt lat="46.13065" lon="6.58027">
        <ele>1741.412</ele>
        <time>2024-05-04T09:18:20Z</time>
      </trkpt>
      <trkpt lat="46.13065" lon="6.58027">
        <ele>1743.749</ele>
        <time>2024-05-04T09:18:25Z</time>
      </trkpt>
      <trkpt lat="46.13058" lon="6.58019">
        <ele>1745.092</ele>
        <time>2024-05-04T09:18:30Z</time>
      </trkpt>
      <trkpt lat="46.13059" lon="6.58016">
        <ele>1745.834</ele>
        <time>2024-05-04T09:18:35Z</time>
      </trkpt>
      <trkpt lat="46.13058" lon="6.58013">
        <ele>1745.725</ele>
        <time>2024-05-04T09:18:40Z</time>
      </trkpt>
      <trkpt lat="46.13058" lon="6.58009">
        <ele>1746.074</ele>
        <time>2024-05-04T09:18:45Z</time>
      </trkpt>
      <trkpt lat="46.13058" lon="6.58007">
        <ele>1746.183</ele>
        <time>2024-05-04T09:18:50Z</time>
      </trkpt>
      <trkpt lat="46.13058" lon="6.58004">
        <ele>1748.51</ele>
        <time>2024-05-04T09:18:55Z</time>
      </trkpt>
      <trkpt lat="46.13059" lon="6.58002">
        <ele>1748.768</ele>
        <time>2024-05-04T09:19:00Z</time>
      </trkpt>
      <trkpt lat="46.1306" lon="6.58">
        <ele>1749.546</ele>
        <time>2024-05-04T09:19:05Z</time>
      </trkpt>
      <trkpt lat="46.13061" lon="6.57999">
        <ele>1750.617</ele>
        <time>2024-05-04T09:19:10Z</time>
      </trkpt>
      <trkpt lat="46.13061" lon="6.57997">
        <ele>1752.118</ele>
        <time>2024-05-04T09:19:15Z</time>
      </trkpt>
      <trkpt lat="46.13061" lon="6.57995">
        <ele>1752.303</ele>
        <time>2024-05-04T09:19:20Z</time>
      </trkpt>
      <trkpt lat="46.13061" lon="6.57993">
        <ele>1754.159</ele>
        <time>2024-05-04T09:19:25Z</time>
      </trkpt>
      <trkpt lat="46.13061" lon="6.57992">
        <ele>1754.692</ele>
        <time>2024-05-04T09:19:30Z</time>
      </trkpt>
      <trkpt lat="46.13061" lon="6.5799">
        <ele>1756.99</ele>
        <time>2024-05-04T09:19:35Z</time>
      </trkpt>
      <trkpt lat="46.13061" lon="6.57987">
        <ele>1757.468</ele>
        <time>2024-05-04T09:19:40Z</time>
      </trkpt>
      <trkpt lat="46.1306" lon="6.57983">
        <ele>1759.36</ele>
        <time>2024-05-04T09:19:45Z</time>
      </trkpt>
      <trkpt lat="46.13061" lon="6.57982">
        <ele>1759.486</ele>
        <time>2024-05-04T09:19:50Z</time>
      </trkpt>
      <trkpt lat="46.1306" lon="6.57981">
        <ele>1759.501</ele>
        <time>2024-05-04T09:19:55Z</time>
      </trkpt>
      <trkpt lat="46.13057" lon="6.57983">
        <ele>1759.703</ele>
        <time>2024-05-04T09:20:00Z</time>
      </trkpt>
      <trkpt lat="46.13056" lon="6.57986">
        <ele>1760.308</ele>
        <time>2024-05-04T09:20:05Z</time>
      </trkpt>
      <trkpt lat="46.13056" lon="6.57986">
        <ele>1760.602</ele>
        <time>2024-05-04T09:20:10Z</time>
      </trkpt>
      <trkpt lat="46.13056" lon="6.57986">
        <ele>1759.186</ele>
        <time>2024-05-04T09:20:15Z</time>
      </trkpt>
      <trkpt lat="46.13056" lon="6.57986">
        <ele>1760.33</ele>
        <time>2024-05-04T09:20:20Z</time>
      </trkpt>
      <trkpt lat="46.13055" lon="6.57988">
        <ele>1758.03</ele>
        <time>2024-05-04T09:20:25Z</time>
      </trkpt>
      <trkpt lat="46.13052" lon="6.57987">
        <ele>1760.622</ele>
        <time>2024-05-04T09:20:30Z</time>
      </trkpt>
      <trkpt lat="46.13052" lon="6.57986">
        <ele>1759.617</ele>
        <time>2024-05-04T09:20:35Z</time>
      </trkpt>
      <trkpt lat="46.13049" lon="6.57986">
        <ele>1760.693</ele>
        <time>2024-05-04T09:20:40Z</time>
      </trkpt>
      <trkpt lat="46.13047" lon="6.57986">
        <ele>1761.287</ele>
        <time>2024-05-04T09:20:45Z</time>
      </trkpt>
      <trkpt lat="46.13045" lon="6.57988">
        <ele>1763.135</ele>
        <time>2024-05-04T09:20:50Z</time>
      </trkpt>
      <trkpt lat="46.13044" lon="6.57989">
        <ele>1763.729</ele>
        <time>2024-05-04T09:20:55Z</time>
      </trkpt>
      <trkpt lat="46.13042" lon="6.57989">
        <ele>1763.23</ele>
        <time>2024-05-04T09:21:00Z</time>
      </trkpt>
      <trkpt lat="46.13041" lon="6.57989">
        <ele>1762.63</ele>
        <time>2024-05-04T09:21:05Z</time>
      </trkpt>
      <trkpt lat="46.1304" lon="6.57991">
        <ele>1762.688</ele>
        <time>2024-05-04T09:21:10Z</time>
      </trkpt>
      <trkpt lat="46.1304" lon="6.57991">
        <ele>1764.196</ele>
        <time>2024-05-04T09:21:15Z</time>
      </trkpt>
      <trkpt lat="46.1304" lon="6.57991">
        <ele>1764.349</ele>
        <time>2024-05-04T09:21:20Z</time>
      </trkpt>
      <trkpt lat="46.13039" lon="6.57988">
        <ele>1764.848</ele>
        <time>2024-05-04T09:21:25Z</time>
      </trkpt>
      <trkpt lat="46.1304" lon="6.57983">
        <ele>1765.052</ele>
        <time>2024-05-04T09:21:30Z</time>
      </trkpt>
      <trkpt lat="46.1304" lon="6.57979">
        <ele>1765.892</ele>
        <time>2024-05-04T09:21:35Z</time>
      </trkpt>
      <trkpt lat="46.13041" lon="6.57977">
        <ele>1765.692</ele>
        <time>2024-05-04T09:21:40Z</time>
      </trkpt>
      <trkpt lat="46.13042" lon="6.57974">
        <ele>1767.443</ele>
        <time>2024-05-04T09:21:45Z</time>
      </trkpt>
      <trkpt lat="46.13041" lon="6.57972">
        <ele>1768.169</ele>
        <time>2024-05-04T09:21:50Z</time>
      </trkpt>
      <trkpt lat="46.13042" lon="6.57968">
        <ele>1768.057</ele>
        <time>2024-05-04T09:21:55Z</time>
      </trkpt>
      <trkpt lat="46.13043" lon="6.57964">
        <ele>1768.603</ele>
        <time>2024-05-04T09:22:00Z</time>
      </trkpt>
      <trkpt lat="46.13042" lon="6.57962">
        <ele>1770.219</ele>
        <time>2024-05-04T09:22:05Z</time>
      </trkpt>
      <trkpt lat="46.13042" lon="6.57962">
        <ele>1769.906</ele>
        <time>2024-05-04T09:22:10Z</time>
      </trkpt>
      <trkpt lat="46.13041" lon="6.57962">
        <ele>1770.343</ele>
        <time>2024-05-04T09:22:15Z</time>
      </trkpt>
      <trkpt lat="46.13041" lon="6.57963">
        <ele>1770.257</ele>
        <time>2024-05-04T09:22:20Z</time>
      </trkpt>
      <trkpt lat="46.13038" lon="6.57963">
        <ele>1771.289</ele>
        <time>2024-05-04T09:22:25Z</time>
      </trkpt>
      <trkpt lat="46.13035" lon="6.57963">
        <ele>1771.851</ele>
        <time>2024-05-04T09:22:30Z</time>
      </trkpt>
      <trkpt lat="46.13032" lon="6.57965">
        <ele>1773.633</ele>
        <time>2024-05-04T09:22:35Z</time>
      </trkpt>
      <trkpt lat="46.13032" lon="6.57967">
        <ele>1773.124</ele>
        <time>2024-05-04T09:22:40Z</time>
      </trkpt>
      <trkpt lat="46.1303" lon="6.57968">
        <ele>1773.533</ele>
        <time>2024-05-04T09:22:45Z</time>
      </trkpt>
      <trkpt lat="46.13028" lon="6.57968">
        <ele>1774.31</ele>
        <time>2024-05-04T09:22:50Z</time>
      </trkpt>
      <trkpt lat="46.13027" lon="6.5797">
        <ele>1774.863</ele>
        <time>2024-05-04T09:22:55Z</time>
      </trkpt>
      <trkpt lat="46.13026" lon="6.5797">
        <ele>1776.178</ele>
        <time>2024-05-04T09:23:00Z</time>
      </trkpt>
      <trkpt lat="46.13026" lon="6.57968">
        <ele>1775.976</ele>
        <time>2024-05-04T09:23:05Z</time>
      </trkpt>
      <trkpt lat="46.13026" lon="6.57965">
        <ele>1776.94</ele>
        <time>2024-05-04T09:23:10Z</time>
      </trkpt>
      <trkpt lat="46.13027" lon="6.57962">
        <ele>1778.444</ele>
        <time>2024-05-04T09:23:15Z</time>
      </trkpt>
      <trkpt lat="46.13027" lon="6.5796">
        <ele>1779.275</ele>
        <time>2024-05-04T09:23:20Z</time>
      </trkpt>
      <trkpt lat="46.13027" lon="6.57958">
        <ele>1779.916</ele>
        <time>2024-05-04T09:23:25Z</time>
      </trkpt>
      <trkpt lat="46.13028" lon="6.57955">
        <ele>1780.891</ele>
        <time>2024-05-04T09:23:30Z</time>
      </trkpt>
      <trkpt lat="46.13029" lon="6.57952">
        <ele>1781.546</ele>
        <time>2024-05-04T09:23:35Z</time>
      </trkpt>
      <trkpt lat="46.13028" lon="6.57949">
        <ele>1780.984</ele>
        <time>2024-05-04T09:23:40Z</time>
      </trkpt>
      <trkpt lat="46.13028" lon="6.57947">
        <ele>1782.704</ele>
        <time>2024-05-04T09:23:45Z</time>
      </trkpt>
      <trkpt lat="46.13029" lon="6.57944">
        <ele>1783.291</ele>
        <time>2024-05-04T09:23:50Z</time>
      </trkpt>
      <trkpt lat="46.13028" lon="6.57942">
        <ele>1785.054</ele>
        <time>2024-05-04T09:23:55Z</time>
      </trkpt>
      <trkpt lat="46.13027" lon="6.5794">
        <ele>1785.943</ele>
        <time>2024-05-04T09:24:00Z</time>
      </trkpt>
      <trkpt lat="46.13026" lon="6.57938">
        <ele>1785.37</ele>
        <time>2024-05-04T09:24:05Z</time>
      </trkpt>
      <trkpt lat="46.13025" lon="6.57936">
        <ele>1785.765</ele>
        <time>2024-05-04T09:24:10Z</time>
      </trkpt>
      <trkpt lat="46.13021" lon="6.57937">
        <ele>1787.641</ele>
        <time>2024-05-04T09:24:15Z</time>
      </trkpt>
      <trkpt lat="46.1302" lon="6.57938">
        <ele>1786.913</ele>
        <time>2024-05-04T09:24:20Z</time>
      </trkpt>
      <trkpt lat="46.13019" lon="6.5794">
        <ele>1787.254</ele>
        <time>2024-05-04T09:24:25Z</time>
      </trkpt>
      <trkpt lat="46.13017" lon="6.57942">
        <ele>1788.678</ele>
        <time>2024-05-04T09:24:30Z</time>
      </trkpt>
      <trkpt lat="46.13015" lon="6.57944">
        <ele>1789.033</ele>
        <time>2024-05-04T09:24:35Z</time>
      </trkpt>
      <trkpt lat="46.13013" lon="6.57944">
        <ele>1789.746</ele>
        <time>2024-05-04T09:24:40Z</time>
      </trkpt>
      <trkpt lat="46.13011" lon="6.57948">
        <ele>1790.124</ele>
        <time>2024-05-04T09:24:45Z</time>
      </trkpt>
      <trkpt lat="46.13008" lon="6.5795">
        <ele>1791.691</ele>
        <time>2024-05-04T09:24:50Z</time>
      </trkpt>
      <trkpt lat="46.13008" lon="6.57952">
        <ele>1791.986</ele>
        <time>2024-05-04T09:24:55Z</time>
      </trkpt>
      <trkpt lat="46.13008" lon="6.57955">
        <ele>1791.967</ele>
        <time>2024-05-04T09:25:00Z</time>
      </trkpt>
      <trkpt lat="46.13007" lon="6.57957">
        <ele>1792.31</ele>
        <time>2024-05-04T09:25:05Z</time>
      </trkpt>
      <trkpt lat="46.13007" lon="6.57958">
        <ele>1791.975</ele>
        <time>2024-05-04T09:25:10Z</time>
      </trkpt>
      <trkpt lat="46.13006" lon="6.5796">
        <ele>1791.838</ele>
        <time>2024-05-04T09:25:15Z</time>
      </trkpt>
      <trkpt lat="46.13005" lon="6.57962">
        <ele>1793.275</ele>
        <time>2024-05-04T09:25:20Z</time>
      </trkpt>
      <trkpt lat="46.13002" lon="6.57964">
        <ele>1793.37</ele>
        <time>2024-05-04T09:25:25Z</time>
      </trkpt>
      <trkpt lat="46.13001" lon="6.57967">
        <ele>1796.56</ele>
        <time>2024-05-04T09:25:30Z</time>
      </trkpt>
      <trkpt lat="46.12999" lon="6.57972">
        <ele>1797.225</ele>
        <time>2024-05-04T09:25:35Z</time>
      </trkpt>
      <trkpt lat="46.12999" lon="6.57971">
        <ele>1798.412</ele>
        <time>2024-05-04T09:25:40Z</time>
      </trkpt>
      <trkpt lat="46.13001" lon="6.57969">
        <ele>1798.631</ele>
        <time>2024-05-04T09:25:45Z</time>
      </trkpt>
      <trkpt lat="46.13001" lon="6.57967">
        <ele>1797.958</ele>
        <time>2024-05-04T09:25:50Z</time>
      </trkpt>
      <trkpt lat="46.13001" lon="6.57965">
        <ele>1797.951</ele>
        <time>2024-05-04T09:25:55Z</time>
      </trkpt>
      <trkpt lat="46.12999" lon="6.57961">
        <ele>1799.469</ele>
        <time>2024-05-04T09:26:00Z</time>
      </trkpt>
      <trkpt lat="46.12999" lon="6.57959">
        <ele>1800.066</ele>
        <time>2024-05-04T09:26:05Z</time>
      </trkpt>
      <trkpt lat="46.12999" lon="6.57957">
        <ele>1801.212</ele>
        <time>2024-05-04T09:26:10Z</time>
      </trkpt>
      <trkpt lat="46.12998" lon="6.57955">
        <ele>1800.993</ele>
        <time>2024-05-04T09:26:15Z</time>
      </trkpt>
      <trkpt lat="46.12997" lon="6.57952">
        <ele>1801.219</ele>
        <time>2024-05-04T09:26:20Z</time>
      </trkpt>
      <trkpt lat="46.12996" lon="6.57949">
        <ele>1801.189</ele>
        <time>2024-05-04T09:26:25Z</time>
      </trkpt>
      <trkpt lat="46.12995" lon="6.57947">
        <ele>1802.518</ele>
        <time>2024-05-04T09:26:30Z</time>
      </trkpt>
      <trkpt lat="46.12995" lon="6.57945">
        <ele>1803.646</ele>
        <time>2024-05-04T09:26:35Z</time>
      </trkpt>
      <trkpt lat="46.12994" lon="6.57943">
        <ele>1805.026</ele>
        <time>2024-05-04T09:26:40Z</time>
      </trkpt>
      <trkpt lat="46.12993" lon="6.5794">
        <ele>1805.638</ele>
        <time>2024-05-04T09:26:45Z</time>
      </trkpt>
      <trkpt lat="46.12993" lon="6.57937">
        <ele>1805.892</ele>
        <time>2024-05-04T09:26:50Z</time>
      </trkpt>
      <trkpt lat="46.12992" lon="6.57935">
        <ele>1807.057</ele>
        <time>2024-05-04T09:26:55Z</time>
      </trkpt>
      <trkpt lat="46.12993" lon="6.57933">
        <ele>1807.028</ele>
        <time>2024-05-04T09:27:00Z</time>
      </trkpt>
      <trkpt lat="46.12993" lon="6.57933">
        <ele>1806.924</ele>
        <time>2024-05-04T09:27:05Z</time>
      </trkpt>
      <trkpt lat="46.12993" lon="6.57933">
        <ele>1806.658</ele>
        <time>2024-05-04T09:27:10Z</time>
      </trkpt>
      <trkpt lat="46.12993" lon="6.57933">
        <ele>1806.19</ele>
        <time>2024-05-04T09:27:15Z</time>
      </trkpt>
      <trkpt lat="46.12993" lon="6.57933">
        <ele>1804.836</ele>
        <time>2024-05-04T09:27:20Z</time>
      </trkpt>
      <trkpt lat="46.1299" lon="6.57941">
        <ele>1803.905</ele>
        <time>2024-05-04T09:27:25Z</time>
      </trkpt>
      <trkpt lat="46.12989" lon="6.57944">
        <ele>1803.843</ele>
        <time>2024-05-04T09:27:30Z</time>
      </trkpt>
      <trkpt lat="46.12987" lon="6.57946">
        <ele>1805.589</ele>
        <time>2024-05-04T09:27:35Z</time>
      </trkpt>
      <trkpt lat="46.12987" lon="6.57947">
        <ele>1806.057</ele>
        <time>2024-05-04T09:27:40Z</time>
      </trkpt>
      <trkpt lat="46.12986" lon="6.57949">
        <ele>1806.134</ele>
        <time>2024-05-04T09:27:45Z</time>
      </trkpt>
      <trkpt lat="46.12985" lon="6.57952">
        <ele>1807.408</ele>
        <time>2024-05-04T09:27:50Z</time>
      </trkpt>
      <trkpt lat="46.12984" lon="6.57954">
        <ele>1808.317</ele>
        <time>2024-05-04T09:27:55Z</time>
      </trkpt>
      <trkpt lat="46.12981" lon="6.57958">
        <ele>1809.595</ele>
        <time>2024-05-04T09:28:00Z</time>
      </trkpt>
      <trkpt lat="46.1298" lon="6.57959">
        <ele>1810.573</ele>
        <time>2024-05-04T09:28:05Z</time>
      </trkpt>
      <trkpt lat="46.12979" lon="6.57961">
        <ele>1810.861</ele>
        <time>2024-05-04T09:28:10Z</time>
      </trkpt>
      <trkpt lat="46.12977" lon="6.57964">
        <ele>1812.251</ele>
        <time>2024-05-04T09:28:15Z</time>
      </trkpt>
      <trkpt lat="46.12976" lon="6.57966">
        <ele>1813.487</ele>
        <time>2024-05-04T09:28:20Z</time>
      </trkpt>
      <trkpt lat="46.12976" lon="6.57966">
        <ele>1813.694</ele>
        <time>2024-05-04T09:28:25Z</time>
      </trkpt>
      <trkpt lat="46.12975" lon="6.57967">
        <ele>1813.422</ele>
        <time>2024-05-04T09:28:30Z</time>
      </trkpt>
      <trkpt lat="46.12975" lon="6.57973">
        <ele>1815.277</ele>
        <time>2024-05-04T09:28:35Z</time>
      </trkpt>
      <trkpt lat="46.12974" lon="6.57976">
        <ele>1815.548</ele>
        <time>2024-05-04T09:28:40Z</time>
      </trkpt>
      <trkpt lat="46.12973" lon="6.57978">
        <ele>1814.606</ele>
        <time>2024-05-04T09:28:45Z</time>
      </trkpt>
      <trkpt lat="46.12972" lon="6.5798">
        <ele>1816.082</ele>
        <time>2024-05-04T09:28:50Z</time>
      </trkpt>
      <trkpt lat="46.12969" lon="6.57983">
        <ele>1816.113</ele>
        <time>2024-05-04T09:28:55Z</time>
      </trkpt>
      <trkpt lat="46.12966" lon="6.57984">
        <ele>1816.336</ele>
        <time>2024-05-04T09:29:00Z</time>
      </trkpt>
      <trkpt lat="46.12965" lon="6.57985">
        <ele>1818.439</ele>
        <time>2024-05-04T09:29:05Z</time>
      </trkpt>
      <trkpt lat="46.12965" lon="6.57987">
        <ele>1818.467</ele>
        <time>2024-05-04T09:29:10Z</time>
      </trkpt>
      <trkpt lat="46.12965" lon="6.57991">
        <ele>1819.115</ele>
        <time>2024-05-04T09:29:15Z</time>
      </trkpt>
      <trkpt lat="46.12965" lon="6.57991">
        <ele>1819.398</ele>
        <time>2024-05-04T09:29:20Z</time>
      </trkpt>
      <trkpt lat="46.12964" lon="6.57993">
        <ele>1818.602</ele>
        <time>2024-05-04T09:29:25Z</time>
      </trkpt>
      <trkpt lat="46.12963" lon="6.57994">
        <ele>1820.101</ele>
        <time>2024-05-04T09:29:30Z</time>
      </trkpt>
      <trkpt lat="46.12962" lon="6.57996">
        <ele>1822.204</ele>
        <time>2024-05-04T09:29:35Z</time>
      </trkpt>
      <trkpt lat="46.1296" lon="6.57999">
        <ele>1823.124</ele>
        <time>2024-05-04T09:29:40Z</time>
      </trkpt>
      <trkpt lat="46.12958" lon="6.58001">
        <ele>1824.562</ele>
        <time>2024-05-04T09:29:45Z</time>
      </trkpt>
      <trkpt lat="46.12955" lon="6.58004">
        <ele>1825.566</ele>
        <time>2024-05-04T09:29:50Z</time>
      </trkpt>
      <trkpt lat="46.12953" lon="6.58004">
        <ele>1825.092</ele>
        <time>2024-05-04T09:29:55Z</time>
      </trkpt>
      <trkpt lat="46.12952" lon="6.58007">
        <ele>1825.525</ele>
        <time>2024-05-04T09:30:00Z</time>
      </trkpt>
      <trkpt lat="46.12952" lon="6.58009">
        <ele>1826.39</ele>
        <time>2024-05-04T09:30:05Z</time>
      </trkpt>
      <trkpt lat="46.12952" lon="6.58009">
        <ele>1826.175</ele>
        <time>2024-05-04T09:30:10Z</time>
      </trkpt>
      <trkpt lat="46.12952" lon="6.58009">
        <ele>1826.177</ele>
        <time>2024-05-04T09:30:15Z</time>
      </trkpt>
      <trkpt lat="46.12952" lon="6.58009">
        <ele>1827.437</ele>
        <time>2024-05-04T09:30:20Z</time>
      </trkpt>
      <trkpt lat="46.12952" lon="6.58009">
        <ele>1828.385</ele>
        <time>2024-05-04T09:30:25Z</time>
      </trkpt>
      <trkpt lat="46.12952" lon="6.58009">
        <ele>1830.243</ele>
        <time>2024-05-04T09:30:30Z</time>
      </trkpt>
      <trkpt lat="46.12952" lon="6.58009">
        <ele>1830.171</ele>
        <time>2024-05-04T09:30:35Z</time>
      </trkpt>
      <trkpt lat="46.12952" lon="6.58009">
        <ele>1830.183</ele>
        <time>2024-05-04T09:30:40Z</time>
      </trkpt>
      <trkpt lat="46.12952" lon="6.58009">
        <ele>1830.195</ele>
        <time>2024-05-04T09:30:45Z</time>
      </trkpt>
      <trkpt lat="46.12952" lon="6.58009">
        <ele>1830.197</ele>
        <time>2024-05-04T09:30:50Z</time>
      </trkpt>
      <trkpt lat="46.12952" lon="6.58009">
        <ele>1830.203</ele>
        <time>2024-05-04T09:30:55Z</time>
      </trkpt>
      <trkpt lat="46.12952" lon="6.58009">
        <ele>1830.207</ele>
        <time>2024-05-04T09:31:00Z</time>
      </trkpt>
      <trkpt lat="46.12952" lon="6.58009">
        <ele>1830.213</ele>
        <time>2024-05-04T09:31:05Z</time>
      </trkpt>
      <trkpt lat="46.12952" lon="6.58009">
        <ele>1830.226</ele>
        <time>2024-05-04T09:31:10Z</time>
      </trkpt>
      <trkpt lat="46.12952" lon="6.58009">
        <ele>1830.239</ele>
        <time>2024-05-04T09:31:15Z</time>
      </trkpt>
      <trkpt lat="46.12952" lon="6.58009">
        <ele>1830.234</ele>
        <time>2024-05-04T09:31:20Z</time>
      </trkpt>
      <trkpt lat="46.12952" lon="6.58009">
        <ele>1830.234</ele>
        <time>2024-05-04T09:31:25Z</time>
      </trkpt>
      <trkpt lat="46.12952" lon="6.58009">
        <ele>1830.246</ele>
        <time>2024-05-04T09:31:30Z</time>
      </trkpt>
      <trkpt lat="46.12952" lon="6.58009">
        <ele>1830.255</ele>
        <time>2024-05-04T09:31:35Z</time>
      </trkpt>
      <trkpt lat="46.12952" lon="6.58009">
        <ele>1830.257</ele>
        <time>2024-05-04T09:31:40Z</time>
      </trkpt>
      <trkpt lat="46.12952" lon="6.58009">
        <ele>1830.269</ele>
        <time>2024-05-04T09:31:45Z</time>
      </trkpt>
      <trkpt lat="46.12952" lon="6.58009">
        <ele>1830.314</ele>
        <time>2024-05-04T09:31:50Z</time>
      </trkpt>
      <trkpt lat="46.12945" lon="6.58008">
        <ele>1830.35</ele>
        <time>2024-05-04T09:31:55Z</time>
      </trkpt>
      <trkpt lat="46.12943" lon="6.58008">
        <ele>1831.35</ele>
        <time>2024-05-04T09:32:00Z</time>
      </trkpt>
      <trkpt lat="46.12939" lon="6.58009">
        <ele>1833.03</ele>
        <time>2024-05-04T09:32:05Z</time>
      </trkpt>
      <trkpt lat="46.12936" lon="6.5801">
        <ele>1835.099</ele>
        <time>2024-05-04T09:32:10Z</time>
      </trkpt>
      <trkpt lat="46.12936" lon="6.5801">
        <ele>1834.935</ele>
        <time>2024-05-04T09:32:15Z</time>
      </trkpt>
      <trkpt lat="46.12936" lon="6.5801">
        <ele>1835.946</ele>
        <time>2024-05-04T09:32:20Z</time>
      </trkpt>
      <trkpt lat="46.12936" lon="6.5801">
        <ele>1836.065</ele>
        <time>2024-05-04T09:32:25Z</time>
      </trkpt>
      <trkpt lat="46.12936" lon="6.5801">
        <ele>1836.07</ele>
        <time>2024-05-04T09:32:30Z</time>
      </trkpt>
      <trkpt lat="46.12936" lon="6.5801">
        <ele>1836.074</ele>
        <time>2024-05-04T09:32:35Z</time>
      </trkpt>
      <trkpt lat="46.12938" lon="6.58004">
        <ele>1836.08</ele>
        <time>2024-05-04T09:32:40Z</time>
      </trkpt>
      <trkpt lat="46.12938" lon="6.58002">
        <ele>1836.405</ele>
        <time>2024-05-04T09:32:45Z</time>
      </trkpt>
      <trkpt lat="46.12938" lon="6.57997">
        <ele>1837.017</ele>
        <time>2024-05-04T09:32:50Z</time>
      </trkpt>
      <trkpt lat="46.12939" lon="6.57994">
        <ele>1839.927</ele>
        <time>2024-05-04T09:32:55Z</time>
      </trkpt>
      <trkpt lat="46.12941" lon="6.57991">
        <ele>1841.045</ele>
        <time>2024-05-04T09:33:00Z</time>
      </trkpt>
      <trkpt lat="46.12941" lon="6.5799">
        <ele>1841.903</ele>
        <time>2024-05-04T09:33:05Z</time>
      </trkpt>
      <trkpt lat="46.12941" lon="6.5799">
        <ele>1841.901</ele>
        <time>2024-05-04T09:33:10Z</time>
      </trkpt>
      <trkpt lat="46.12941" lon="6.5799">
        <ele>1841.9</ele>
        <time>2024-05-04T09:33:15Z</time>
      </trkpt>
      <trkpt lat="46.12941" lon="6.5799">
        <ele>1841.897</ele>
        <time>2024-05-04T09:33:20Z</time>
      </trkpt>
      <trkpt lat="46.12941" lon="6.5799">
        <ele>1842.163</ele>
        <time>2024-05-04T09:33:25Z</time>
      </trkpt>
      <trkpt lat="46.12941" lon="6.57988">
        <ele>1841.737</ele>
        <time>2024-05-04T09:33:30Z</time>
      </trkpt>
      <trkpt lat="46.12939" lon="6.57988">
        <ele>1842.539</ele>
        <time>2024-05-04T09:33:35Z</time>
      </trkpt>
      <trkpt lat="46.12936" lon="6.57987">
        <ele>1841.802</ele>
        <time>2024-05-04T09:33:40Z</time>
      </trkpt>
      <trkpt lat="46.12935" lon="6.57985">
        <ele>1842.791</ele>
        <time>2024-05-04T09:33:45Z</time>
      </trkpt>
      <trkpt lat="46.12935" lon="6.57985">
        <ele>1843.613</ele>
        <time>2024-05-04T09:33:50Z</time>
      </trkpt>
      <trkpt lat="46.12935" lon="6.57983">
        <ele>1844.493</ele>
        <time>2024-05-04T09:33:55Z</time>
      </trkpt>
      <trkpt lat="46.12936" lon="6.57981">
        <ele>1845.789</ele>
        <time>2024-05-04T09:34:00Z</time>
      </trkpt>
      <trkpt lat="46.12937" lon="6.57979">
        <ele>1846.704</ele>
        <time>2024-05-04T09:34:05Z</time>
      </trkpt>
      <trkpt lat="46.12937" lon="6.57977">
        <ele>1847.302</ele>
        <time>2024-05-04T09:34:10Z</time>
      </trkpt>
      <trkpt lat="46.12936" lon="6.57975">
        <ele>1848.472</ele>
        <time>2024-05-04T09:34:15Z</time>
      </trkpt>
      <trkpt lat="46.12933" lon="6.57975">
        <ele>1849.503</ele>
        <time>2024-05-04T09:34:20Z</time>
      </trkpt>
      <trkpt lat="46.12932" lon="6.57974">
        <ele>1849.598</ele>
        <time>2024-05-04T09:34:25Z</time>
      </trkpt>
      <trkpt lat="46.12932" lon="6.57972">
        <ele>1848.757</ele>
        <time>2024-05-04T09:34:30Z</time>
      </trkpt>
      <trkpt lat="46.12932" lon="6.57972">
        <ele>1849.151</ele>
        <time>2024-05-04T09:34:35Z</time>
      </trkpt>
      <trkpt lat="46.12932" lon="6.57972">
        <ele>1849.095</ele>
        <time>2024-05-04T09:34:40Z</time>
      </trkpt>
      <trkpt lat="46.12932" lon="6.57972">
        <ele>1849.557</ele>
        <time>2024-05-04T09:34:45Z</time>
      </trkpt>
      <trkpt lat="46.12932" lon="6.57972">
        <ele>1850.736</ele>
        <time>2024-05-04T09:34:50Z</time>
      </trkpt>
      <trkpt lat="46.12932" lon="6.57972">
        <ele>1851.495</ele>
        <time>2024-05-04T09:34:55Z</time>
      </trkpt>
      <trkpt lat="46.12932" lon="6.57972">
        <ele>1852.19</ele>
        <time>2024-05-04T09:35:00Z</time>
      </trkpt>
      <trkpt lat="46.12932" lon="6.57972">
        <ele>1852.947</ele>
        <time>2024-05-04T09:35:05Z</time>
      </trkpt>
      <trkpt lat="46.12932" lon="6.57972">
        <ele>1853.803</ele>
        <time>2024-05-04T09:35:10Z</time>
      </trkpt>
      <trkpt lat="46.12932" lon="6.57972">
        <ele>1853.854</ele>
        <time>2024-05-04T09:35:15Z</time>
      </trkpt>
      <trkpt lat="46.12932" lon="6.57972">
        <ele>1853.807</ele>
        <time>2024-05-04T09:35:20Z</time>
      </trkpt>
      <trkpt lat="46.12932" lon="6.57972">
        <ele>1853.988</ele>
        <time>2024-05-04T09:35:25Z</time>
      </trkpt>
      <trkpt lat="46.12932" lon="6.57972">
        <ele>1854.083</ele>
        <time>2024-05-04T09:35:30Z</time>
      </trkpt>
      <trkpt lat="46.12932" lon="6.57972">
        <ele>1855.149</ele>
        <time>2024-05-04T09:35:35Z</time>
      </trkpt>
      <trkpt lat="46.12934" lon="6.57956">
        <ele>1855.087</ele>
        <time>2024-05-04T09:35:40Z</time>
      </trkpt>
      <trkpt lat="46.12933" lon="6.57955">
        <ele>1855.236</ele>
        <time>2024-05-04T09:35:45Z</time>
      </trkpt>
      <trkpt lat="46.12933" lon="6.57952">
        <ele>1854.664</ele>
        <time>2024-05-04T09:35:50Z</time>
      </trkpt>
      <trkpt lat="46.12933" lon="6.57947">
        <ele>1854.518</ele>
        <time>2024-05-04T09:35:55Z</time>
      </trkpt>
      <trkpt lat="46.12933" lon="6.57947">
        <ele>1854.776</ele>
        <time>2024-05-04T09:36:00Z</time>
      </trkpt>
      <trkpt lat="46.12933" lon="6.57947">
        <ele>1855.418</ele>
        <time>2024-05-04T09:36:05Z</time>
      </trkpt>
      <trkpt lat="46.12933" lon="6.57946">
        <ele>1855.435</ele>
        <time>2024-05-04T09:36:10Z</time>
      </trkpt>
      <trkpt lat="46.12933" lon="6.57946">
        <ele>1855.225</ele>
        <time>2024-05-04T09:36:15Z</time>
      </trkpt>
      <trkpt lat="46.12931" lon="6.57941">
        <ele>1855.765</ele>
        <time>2024-05-04T09:36:20Z</time>
      </trkpt>
      <trkpt lat="46.12931" lon="6.57937">
        <ele>1857.195</ele>
        <time>2024-05-04T09:36:25Z</time>
      </trkpt>
      <trkpt lat="46.12932" lon="6.57934">
        <ele>1857.382</ele>
        <time>2024-05-04T09:36:30Z</time>
      </trkpt>
      <trkpt lat="46.12931" lon="6.57929">
        <ele>1857.345</ele>
        <time>2024-05-04T09:36:35Z</time>
      </trkpt>
      <trkpt lat="46.1293" lon="6.57925">
        <ele>1857.139</ele>
        <time>2024-05-04T09:36:40Z</time>
      </trkpt>
      <trkpt lat="46.1293" lon="6.57921">
        <ele>1857.695</ele>
        <time>2024-05-04T09:36:45Z</time>
      </trkpt>
      <trkpt lat="46.12932" lon="6.57919">
        <ele>1858.253</ele>
        <time>2024-05-04T09:36:50Z</time>
      </trkpt>
      <trkpt lat="46.12933" lon="6.57918">
        <ele>1858.754</ele>
        <time>2024-05-04T09:36:55Z</time>
      </trkpt>
      <trkpt lat="46.12932" lon="6.57917">
        <ele>1859.414</ele>
        <time>2024-05-04T09:37:00Z</time>
      </trkpt>
      <trkpt lat="46.12932" lon="6.57916">
        <ele>1859.332</ele>
        <time>2024-05-04T09:37:05Z</time>
      </trkpt>
      <trkpt lat="46.12933" lon="6.57914">
        <ele>1860.668</ele>
        <time>2024-05-04T09:37:10Z</time>
      </trkpt>
      <trkpt lat="46.12933" lon="6.57913">
        <ele>1861.21</ele>
        <time>2024-05-04T09:37:15Z</time>
      </trkpt>
      <trkpt lat="46.12934" lon="6.57911">
        <ele>1862.675</ele>
        <time>2024-05-04T09:37:20Z</time>
      </trkpt>
      <trkpt lat="46.12933" lon="6.57908">
        <ele>1862.812</ele>
        <time>2024-05-04T09:37:25Z</time>
      </trkpt>
      <trkpt lat="46.12932" lon="6.57905">
        <ele>1864.364</ele>
        <time>2024-05-04T09:37:30Z</time>
      </trkpt>
      <trkpt lat="46.12932" lon="6.57901">
        <ele>1864.742</ele>
        <time>2024-05-04T09:37:35Z</time>
      </trkpt>
      <trkpt lat="46.12933" lon="6.57899">
        <ele>1865.503</ele>
        <time>2024-05-04T09:37:40Z</time>
      </trkpt>
      <trkpt lat="46.12933" lon="6.57896">
        <ele>1865.682</ele>
        <time>2024-05-04T09:37:45Z</time>
      </trkpt>
      <trkpt lat="46.12933" lon="6.57896">
        <ele>1865.611</ele>
        <time>2024-05-04T09:37:50Z</time>
      </trkpt>
      <trkpt lat="46.12932" lon="6.57896">
        <ele>1866.617</ele>
        <time>2024-05-04T09:37:55Z</time>
      </trkpt>
      <trkpt lat="46.12928" lon="6.57898">
        <ele>1866.32</ele>
        <time>2024-05-04T09:38:00Z</time>
      </trkpt>
      <trkpt lat="46.12926" lon="6.579">
        <ele>1865.436</ele>
        <time>2024-05-04T09:38:05Z</time>
      </trkpt>
      <trkpt lat="46.12926" lon="6.57899">
        <ele>1868.139</ele>
        <time>2024-05-04T09:38:10Z</time>
      </trkpt>
      <trkpt lat="46.12926" lon="6.57895">
        <ele>1868.778</ele>
        <time>2024-05-04T09:38:15Z</time>
      </trkpt>
      <trkpt lat="46.12927" lon="6.57892">
        <ele>1868.766</ele>
        <time>2024-05-04T09:38:20Z</time>
      </trkpt>
      <trkpt lat="46.12927" lon="6.5789">
        <ele>1870.476</ele>
        <time>2024-05-04T09:38:25Z</time>
      </trkpt>
      <trkpt lat="46.12928" lon="6.57888">
        <ele>1871.235</ele>
        <time>2024-05-04T09:38:30Z</time>
      </trkpt>
      <trkpt lat="46.12928" lon="6.57886">
        <ele>1872.459</ele>
        <time>2024-05-04T09:38:35Z</time>
      </trkpt>
      <trkpt lat="46.12928" lon="6.57883">
        <ele>1873.26</ele>
        <time>2024-05-04T09:38:40Z</time>
      </trkpt>
      <trkpt lat="46.12927" lon="6.57881">
        <ele>1873.924</ele>
        <time>2024-05-04T09:38:45Z</time>
      </trkpt>
      <trkpt lat="46.12926" lon="6.57879">
        <ele>1874.098</ele>
        <time>2024-05-04T09:38:50Z</time>
      </trkpt>
      <trkpt lat="46.12925" lon="6.57876">
        <ele>1874.686</ele>
        <time>2024-05-04T09:38:55Z</time>
      </trkpt>
      <trkpt lat="46.12924" lon="6.57874">
        <ele>1874.595</ele>
        <time>2024-05-04T09:39:00Z</time>
      </trkpt>
      <trkpt lat="46.12924" lon="6.57872">
        <ele>1874.794</ele>
        <time>2024-05-04T09:39:05Z</time>
      </trkpt>
      <trkpt lat="46.12924" lon="6.5787">
        <ele>1875.931</ele>
        <time>2024-05-04T09:39:10Z</time>
      </trkpt>
      <trkpt lat="46.12924" lon="6.57869">
        <ele>1877.026</ele>
        <time>2024-05-04T09:39:15Z</time>
      </trkpt>
      <trkpt lat="46.12923" lon="6.57868">
        <ele>1877.735</ele>
        <time>2024-05-04T09:39:20Z</time>
      </trkpt>
      <trkpt lat="46.12923" lon="6.57867">
        <ele>1877.812</ele>
        <time>2024-05-04T09:39:25Z</time>
      </trkpt>
      <trkpt lat="46.12922" lon="6.57866">
        <ele>1877.203</ele>
        <time>2024-05-04T09:39:30Z</time>
      </trkpt>
      <trkpt lat="46.12922" lon="6.57865">
        <ele>1877.636</ele>
        <time>2024-05-04T09:39:35Z</time>
      </trkpt>
      <trkpt lat="46.12922" lon="6.57865">
        <ele>1877.992</ele>
        <time>2024-05-04T09:39:40Z</time>
      </trkpt>
      <trkpt lat="46.12922" lon="6.57864">
        <ele>1877.724</ele>
        <time>2024-05-04T09:39:45Z</time>
      </trkpt>
      <trkpt lat="46.12922" lon="6.57863">
        <ele>1877.322</ele>
        <time>2024-05-04T09:39:50Z</time>
      </trkpt>
      <trkpt lat="46.12922" lon="6.57863">
        <ele>1877.022</ele>
        <time>2024-05-04T09:39:55Z</time>
      </trkpt>
      <trkpt lat="46.12922" lon="6.57863">
        <ele>1876.98</ele>
        <time>2024-05-04T09:40:00Z</time>
      </trkpt>
      <trkpt lat="46.12922" lon="6.57863">
        <ele>1876.844</ele>
        <time>2024-05-04T09:40:05Z</time>
      </trkpt>
      <trkpt lat="46.12922" lon="6.57863">
        <ele>1876.339</ele>
        <time>2024-05-04T09:40:10Z</time>
      </trkpt>
      <trkpt lat="46.12922" lon="6.57863">
        <ele>1875.806</ele>
        <time>2024-05-04T09:40:15Z</time>
      </trkpt>
      <trkpt lat="46.12922" lon="6.57863">
        <ele>1876.764</ele>
        <time>2024-05-04T09:40:20Z</time>
      </trkpt>
      <trkpt lat="46.12921" lon="6.5786">
        <ele>1877.055</ele>
        <time>2024-05-04T09:40:25Z</time>
      </trkpt>
      <trkpt lat="46.1292" lon="6.57858">
        <ele>1876.88</ele>
        <time>2024-05-04T09:40:30Z</time>
      </trkpt>
      <trkpt lat="46.12919" lon="6.57857">
        <ele>1877.025</ele>
        <time>2024-05-04T09:40:35Z</time>
      </trkpt>
      <trkpt lat="46.12919" lon="6.57856">
        <ele>1877.007</ele>
        <time>2024-05-04T09:40:40Z</time>
      </trkpt>
      <trkpt lat="46.12918" lon="6.57854">
        <ele>1876.649</ele>
        <time>2024-05-04T09:40:45Z</time>
      </trkpt>
      <trkpt lat="46.12918" lon="6.57853">
        <ele>1877.191</ele>
        <time>2024-05-04T09:40:50Z</time>
      </trkpt>
      <trkpt lat="46.12917" lon="6.5785">
        <ele>1877.224</ele>
        <time>2024-05-04T09:40:55Z</time>
      </trkpt>
      <trkpt lat="46.12917" lon="6.57846">
        <ele>1877.889</ele>
        <time>2024-05-04T09:41:00Z</time>
      </trkpt>
      <trkpt lat="46.12916" lon="6.57843">
        <ele>1880.525</ele>
        <time>2024-05-04T09:41:05Z</time>
      </trkpt>
      <trkpt lat="46.12916" lon="6.5784">
        <ele>1880.45</ele>
        <time>2024-05-04T09:41:10Z</time>
      </trkpt>
      <trkpt lat="46.12914" lon="6.57837">
        <ele>1880.434</ele>
        <time>2024-05-04T09:41:15Z</time>
      </trkpt>
      <trkpt lat="46.12913" lon="6.57834">
        <ele>1881.027</ele>
        <time>2024-05-04T09:41:20Z</time>
      </trkpt>
      <trkpt lat="46.12913" lon="6.57831">
        <ele>1882.696</ele>
        <time>2024-05-04T09:41:25Z</time>
      </trkpt>
      <trkpt lat="46.12913" lon="6.57831">
        <ele>1883.442</ele>
        <time>2024-05-04T09:41:30Z</time>
      </trkpt>
      <trkpt lat="46.12913" lon="6.57831">
        <ele>1882.454</ele>
        <time>2024-05-04T09:41:35Z</time>
      </trkpt>
      <trkpt lat="46.12913" lon="6.57831">
        <ele>1882.088</ele>
        <time>2024-05-04T09:41:40Z</time>
      </trkpt>
      <trkpt lat="46.12913" lon="6.57831">
        <ele>1882.925</ele>
        <time>2024-05-04T09:41:45Z</time>
      </trkpt>
      <trkpt lat="46.12913" lon="6.57831">
        <ele>1882.866</ele>
        <time>2024-05-04T09:41:50Z</time>
      </trkpt>
      <trkpt lat="46.12913" lon="6.57831">
        <ele>1883.771</ele>
        <time>2024-05-04T09:41:55Z</time>
      </trkpt>
      <trkpt lat="46.12913" lon="6.57831">
        <ele>1884.634</ele>
        <time>2024-05-04T09:42:00Z</time>
      </trkpt>
      <trkpt lat="46.12913" lon="6.57831">
        <ele>1886.089</ele>
        <time>2024-05-04T09:42:05Z</time>
      </trkpt>
      <trkpt lat="46.12913" lon="6.57831">
        <ele>1886.546</ele>
        <time>2024-05-04T09:42:10Z</time>
      </trkpt>
      <trkpt lat="46.12913" lon="6.57831">
        <ele>1886.544</ele>
        <time>2024-05-04T09:42:15Z</time>
      </trkpt>
      <trkpt lat="46.12913" lon="6.57831">
        <ele>1886.548</ele>
        <time>2024-05-04T09:42:20Z</time>
      </trkpt>
      <trkpt lat="46.12913" lon="6.57831">
        <ele>1886.552</ele>
        <time>2024-05-04T09:42:25Z</time>
      </trkpt>
      <trkpt lat="46.12904" lon="6.57832">
        <ele>1886.559</ele>
        <time>2024-05-04T09:42:30Z</time>
      </trkpt>
      <trkpt lat="46.12903" lon="6.57829">
        <ele>1887.853</ele>
        <time>2024-05-04T09:42:35Z</time>
      </trkpt>
      <trkpt lat="46.12902" lon="6.57825">
        <ele>1889.13</ele>
        <time>2024-05-04T09:42:40Z</time>
      </trkpt>
      <trkpt lat="46.12901" lon="6.57821">
        <ele>1890.498</ele>
        <time>2024-05-04T09:42:45Z</time>
      </trkpt>
      <trkpt lat="46.129" lon="6.57818">
        <ele>1891.448</ele>
        <time>2024-05-04T09:42:50Z</time>
      </trkpt>
      <trkpt lat="46.129" lon="6.57814">
        <ele>1890.778</ele>
        <time>2024-05-04T09:42:55Z</time>
      </trkpt>
      <trkpt lat="46.12898" lon="6.57812">
        <ele>1891.485</ele>
        <time>2024-05-04T09:43:00Z</time>
      </trkpt>
      <trkpt lat="46.12897" lon="6.5781">
        <ele>1892.714</ele>
        <time>2024-05-04T09:43:05Z</time>
      </trkpt>
      <trkpt lat="46.12897" lon="6.57807">
        <ele>1892.745</ele>
        <time>2024-05-04T09:43:10Z</time>
      </trkpt>
      <trkpt lat="46.12897" lon="6.57804">
        <ele>1894.704</ele>
        <time>2024-05-04T09:43:15Z</time>
      </trkpt>
      <trkpt lat="46.12895" lon="6.57802">
        <ele>1895.582</ele>
        <time>2024-05-04T09:43:20Z</time>
      </trkpt>
      <trkpt lat="46.12894" lon="6.57799">
        <ele>1896.072</ele>
        <time>2024-05-04T09:43:25Z</time>
      </trkpt>
      <trkpt lat="46.12894" lon="6.57796">
        <ele>1896.477</ele>
        <time>2024-05-04T09:43:30Z</time>
      </trkpt>
      <trkpt lat="46.12894" lon="6.57792">
        <ele>1897.115</ele>
        <time>2024-05-04T09:43:35Z</time>
      </trkpt>
      <trkpt lat="46.12895" lon="6.57789">
        <ele>1898.168</ele>
        <time>2024-05-04T09:43:40Z</time>
      </trkpt>
      <trkpt lat="46.12894" lon="6.57787">
        <ele>1898.73</ele>
        <time>2024-05-04T09:43:45Z</time>
      </trkpt>
      <trkpt lat="46.12893" lon="6.57784">
        <ele>1899.364</ele>
        <time>2024-05-04T09:43:50Z</time>
      </trkpt>
      <trkpt lat="46.12894" lon="6.57779">
        <ele>1900.374</ele>
        <time>2024-05-04T09:43:55Z</time>
      </trkpt>
      <trkpt lat="46.12893" lon="6.57777">
        <ele>1900.9</ele>
        <time>2024-05-04T09:44:00Z</time>
      </trkpt>
      <trkpt lat="46.12893" lon="6.57773">
        <ele>1900.316</ele>
        <time>2024-05-04T09:44:05Z</time>
      </trkpt>
      <trkpt lat="46.12891" lon="6.5777">
        <ele>1901.3</ele>
        <time>2024-05-04T09:44:10Z</time>
      </trkpt>
      <trkpt lat="46.1289" lon="6.57767">
        <ele>1901.907</ele>
        <time>2024-05-04T09:44:15Z</time>
      </trkpt>
      <trkpt lat="46.12889" lon="6.57765">
        <ele>1903.873</ele>
        <time>2024-05-04T09:44:20Z</time>
      </trkpt>
      <trkpt lat="46.12887" lon="6.57763">
        <ele>1905.347</ele>
        <time>2024-05-04T09:44:25Z</time>
      </trkpt>
      <trkpt lat="46.12887" lon="6.57761">
        <ele>1905.167</ele>
        <time>2024-05-04T09:44:30Z</time>
      </trkpt>
      <trkpt lat="46.12888" lon="6.5776">
        <ele>1905.755</ele>
        <time>2024-05-04T09:44:35Z</time>
      </trkpt>
      <trkpt lat="46.12887" lon="6.57758">
        <ele>1907.938</ele>
        <time>2024-05-04T09:44:40Z</time>
      </trkpt>
      <trkpt lat="46.12885" lon="6.57755">
        <ele>1908.129</ele>
        <time>2024-05-04T09:44:45Z</time>
      </trkpt>
      <trkpt lat="46.12882" lon="6.5775">
        <ele>1909.274</ele>
        <time>2024-05-04T09:44:50Z</time>
      </trkpt>
      <trkpt lat="46.12882" lon="6.5775">
        <ele>1909.821</ele>
        <time>2024-05-04T09:44:55Z</time>
      </trkpt>
      <trkpt lat="46.12883" lon="6.57749">
        <ele>1911.517</ele>
        <time>2024-05-04T09:45:00Z</time>
      </trkpt>
      <trkpt lat="46.12884" lon="6.57747">
        <ele>1911.745</ele>
        <time>2024-05-04T09:45:05Z</time>
      </trkpt>
      <trkpt lat="46.12885" lon="6.57745">
        <ele>1912.773</ele>
        <time>2024-05-04T09:45:10Z</time>
      </trkpt>
      <trkpt lat="46.12886" lon="6.57743">
        <ele>1913.275</ele>
        <time>2024-05-04T09:45:15Z</time>
      </trkpt>
      <trkpt lat="46.12887" lon="6.57742">
        <ele>1914.95</ele>
        <time>2024-05-04T09:45:20Z</time>
      </trkpt>
      <trkpt lat="46.12888" lon="6.5774">
        <ele>1916.279</ele>
        <time>2024-05-04T09:45:25Z</time>
      </trkpt>
      <trkpt lat="46.12888" lon="6.57738">
        <ele>1916.231</ele>
        <time>2024-05-04T09:45:30Z</time>
      </trkpt>
      <trkpt lat="46.12888" lon="6.57738">
        <ele>1916.269</ele>
        <time>2024-05-04T09:45:35Z</time>
      </trkpt>
      <trkpt lat="46.12889" lon="6.57735">
        <ele>1916.391</ele>
        <time>2024-05-04T09:45:40Z</time>
      </trkpt>
      <trkpt lat="46.12891" lon="6.57733">
        <ele>1916.787</ele>
        <time>2024-05-04T09:45:45Z</time>
      </trkpt>
      <trkpt lat="46.12892" lon="6.57732">
        <ele>1918.808</ele>
        <time>2024-05-04T09:45:50Z</time>
      </trkpt>
      <trkpt lat="46.12894" lon="6.57728">
        <ele>1918.71</ele>
        <time>2024-05-04T09:45:55Z</time>
      </trkpt>
      <trkpt lat="46.12894" lon="6.57725">
        <ele>1920.111</ele>
        <time>2024-05-04T09:46:00Z</time>
      </trkpt>
      <trkpt lat="46.12894" lon="6.57722">
        <ele>1921.379</ele>
        <time>2024-05-04T09:46:05Z</time>
      </trkpt>
      <trkpt lat="46.12894" lon="6.5772">
        <ele>1921.641</ele>
        <time>2024-05-04T09:46:10Z</time>
      </trkpt>
      <trkpt lat="46.12893" lon="6.57717">
        <ele>1921.783</ele>
        <time>2024-05-04T09:46:15Z</time>
      </trkpt>
      <trkpt lat="46.12892" lon="6.57714">
        <ele>1922.166</ele>
        <time>2024-05-04T09:46:20Z</time>
      </trkpt>
      <trkpt lat="46.12892" lon="6.5771">
        <ele>1923.318</ele>
        <time>2024-05-04T09:46:25Z</time>
      </trkpt>
      <trkpt lat="46.12891" lon="6.57707">
        <ele>1924.201</ele>
        <time>2024-05-04T09:46:30Z</time>
      </trkpt>
      <trkpt lat="46.12891" lon="6.57706">
        <ele>1924.544</ele>
        <time>2024-05-04T09:46:35Z</time>
      </trkpt>
      <trkpt lat="46.12891" lon="6.57706">
        <ele>1923.819</ele>
        <time>2024-05-04T09:46:40Z</time>
      </trkpt>
      <trkpt lat="46.12891" lon="6.57706">
        <ele>1923.546</ele>
        <time>2024-05-04T09:46:45Z</time>
      </trkpt>
      <trkpt lat="46.12891" lon="6.57706">
        <ele>1923.665</ele>
        <time>2024-05-04T09:46:50Z</time>
      </trkpt>
      <trkpt lat="46.12891" lon="6.57706">
        <ele>1924.974</ele>
        <time>2024-05-04T09:46:55Z</time>
      </trkpt>
      <trkpt lat="46.12891" lon="6.57706">
        <ele>1926.032</ele>
        <time>2024-05-04T09:47:00Z</time>
      </trkpt>
      <trkpt lat="46.12891" lon="6.57706">
        <ele>1926.134</ele>
        <time>2024-05-04T09:47:05Z</time>
      </trkpt>
      <trkpt lat="46.12891" lon="6.57706">
        <ele>1925.045</ele>
        <time>2024-05-04T09:47:10Z</time>
      </trkpt>
      <trkpt lat="46.12891" lon="6.57706">
        <ele>1925.065</ele>
        <time>2024-05-04T09:47:15Z</time>
      </trkpt>
      <trkpt lat="46.12891" lon="6.57706">
        <ele>1925.508</ele>
        <time>2024-05-04T09:47:20Z</time>
      </trkpt>
      <trkpt lat="46.12891" lon="6.57706">
        <ele>1927.519</ele>
        <time>2024-05-04T09:47:25Z</time>
      </trkpt>
      <trkpt lat="46.12879" lon="6.57702">
        <ele>1929.45</ele>
        <time>2024-05-04T09:47:30Z</time>
      </trkpt>
      <trkpt lat="46.12879" lon="6.57699">
        <ele>1928.94</ele>
        <time>2024-05-04T09:47:35Z</time>
      </trkpt>
      <trkpt lat="46.1288" lon="6.57698">
        <ele>1928.055</ele>
        <time>2024-05-04T09:47:40Z</time>
      </trkpt>
      <trkpt lat="46.12878" lon="6.57697">
        <ele>1928.635</ele>
        <time>2024-05-04T09:47:45Z</time>
      </trkpt>
      <trkpt lat="46.12878" lon="6.57697">
        <ele>1928.645</ele>
        <time>2024-05-04T09:47:50Z</time>
      </trkpt>
      <trkpt lat="46.12878" lon="6.57697">
        <ele>1928.645</ele>
        <time>2024-05-04T09:47:55Z</time>
      </trkpt>
      <trkpt lat="46.12878" lon="6.57697">
        <ele>1928.795</ele>
        <time>2024-05-04T09:48:00Z</time>
      </trkpt>
      <trkpt lat="46.12878" lon="6.57697">
        <ele>1928.927</ele>
        <time>2024-05-04T09:48:05Z</time>
      </trkpt>
      <trkpt lat="46.12878" lon="6.57697">
        <ele>1929.204</ele>
        <time>2024-05-04T09:48:10Z</time>
      </trkpt>
      <trkpt lat="46.12878" lon="6.57697">
        <ele>1930.533</ele>
        <time>2024-05-04T09:48:15Z</time>
      </trkpt>
      <trkpt lat="46.12878" lon="6.57697">
        <ele>1931.727</ele>
        <time>2024-05-04T09:48:20Z</time>
      </trkpt>
      <trkpt lat="46.12878" lon="6.57697">
        <ele>1932.914</ele>
        <time>2024-05-04T09:48:25Z</time>
      </trkpt>
      <trkpt lat="46.12878" lon="6.57697">
        <ele>1931.569</ele>
        <time>2024-05-04T09:48:30Z</time>
      </trkpt>
      <trkpt lat="46.12878" lon="6.57697">
        <ele>1931.576</ele>
        <time>2024-05-04T09:48:35Z</time>
      </trkpt>
      <trkpt lat="46.12876" lon="6.57695">
        <ele>1932.661</ele>
        <time>2024-05-04T09:48:40Z</time>
      </trkpt>
      <trkpt lat="46.12876" lon="6.57693">
        <ele>1933.132</ele>
        <time>2024-05-04T09:48:45Z</time>
      </trkpt>
      <trkpt lat="46.12875" lon="6.57691">
        <ele>1932.991</ele>
        <time>2024-05-04T09:48:50Z</time>
      </trkpt>
      <trkpt lat="46.12874" lon="6.5769">
        <ele>1934.422</ele>
        <time>2024-05-04T09:48:55Z</time>
      </trkpt>
      <trkpt lat="46.12874" lon="6.57689">
        <ele>1934.14</ele>
        <time>2024-05-04T09:49:00Z</time>
      </trkpt>
      <trkpt lat="46.12874" lon="6.57687">
        <ele>1935.218</ele>
        <time>2024-05-04T09:49:05Z</time>
      </trkpt>
      <trkpt lat="46.12875" lon="6.57685">
        <ele>1937.01</ele>
        <time>2024-05-04T09:49:10Z</time>
      </trkpt>
      <trkpt lat="46.12875" lon="6.57683">
        <ele>1938.248</ele>
        <time>2024-05-04T09:49:15Z</time>
      </trkpt>
      <trkpt lat="46.12874" lon="6.57683">
        <ele>1938.335</ele>
        <time>2024-05-04T09:49:20Z</time>
      </trkpt>
      <trkpt lat="46.12873" lon="6.57683">
        <ele>1939.026</ele>
        <time>2024-05-04T09:49:25Z</time>
      </trkpt>
      <trkpt lat="46.12871" lon="6.57684">
        <ele>1938.023</ele>
        <time>2024-05-04T09:49:30Z</time>
      </trkpt>
      <trkpt lat="46.1287" lon="6.57684">
        <ele>1938.01</ele>
        <time>2024-05-04T09:49:35Z</time>
      </trkpt>
      <trkpt lat="46.12869" lon="6.57684">
        <ele>1938.512</ele>
        <time>2024-05-04T09:49:40Z</time>
      </trkpt>
      <trkpt lat="46.12869" lon="6.57683">
        <ele>1938.529</ele>
        <time>2024-05-04T09:49:45Z</time>
      </trkpt>
      <trkpt lat="46.12869" lon="6.57683">
        <ele>1938.532</ele>
        <time>2024-05-04T09:49:50Z</time>
      </trkpt>
      <trkpt lat="46.12868" lon="6.57683">
        <ele>1938.076</ele>
        <time>2024-05-04T09:49:55Z</time>
      </trkpt>
      <trkpt lat="46.12868" lon="6.57683">
        <ele>1938.071</ele>
        <time>2024-05-04T09:50:00Z</time>
      </trkpt>
      <trkpt lat="46.12868" lon="6.57683">
        <ele>1938.075</ele>
        <time>2024-05-04T09:50:05Z</time>
      </trkpt>
      <trkpt lat="46.12868" lon="6.57683">
        <ele>1938.078</ele>
        <time>2024-05-04T09:50:10Z</time>
      </trkpt>
      <trkpt lat="46.12868" lon="6.57682">
        <ele>1938.937</ele>
        <time>2024-05-04T09:50:15Z</time>
      </trkpt>
      <trkpt lat="46.12868" lon="6.57682">
        <ele>1939.1</ele>
        <time>2024-05-04T09:50:20Z</time>
      </trkpt>
      <trkpt lat="46.12868" lon="6.57682">
        <ele>1939.154</ele>
        <time>2024-05-04T09:50:25Z</time>
      </trkpt>
      <trkpt lat="46.12868" lon="6.57682">
        <ele>1940.234</ele>
        <time>2024-05-04T09:50:30Z</time>
      </trkpt>
      <trkpt lat="46.12868" lon="6.57682">
        <ele>1939.651</ele>
        <time>2024-05-04T09:50:35Z</time>
      </trkpt>
      <trkpt lat="46.12868" lon="6.57682">
        <ele>1939.779</ele>
        <time>2024-05-04T09:50:40Z</time>
      </trkpt>
      <trkpt lat="46.12868" lon="6.57682">
        <ele>1939.785</ele>
        <time>2024-05-04T09:50:45Z</time>
      </trkpt>
      <trkpt lat="46.12868" lon="6.57682">
        <ele>1940.13</ele>
        <time>2024-05-04T09:50:50Z</time>
      </trkpt>
      <trkpt lat="46.12868" lon="6.57682">
        <ele>1939.886</ele>
        <time>2024-05-04T09:50:55Z</time>
      </trkpt>
      <trkpt lat="46.12868" lon="6.57682">
        <ele>1941.064</ele>
        <time>2024-05-04T09:51:00Z</time>
      </trkpt>
      <trkpt lat="46.12868" lon="6.57682">
        <ele>1942.098</ele>
        <time>2024-05-04T09:51:05Z</time>
      </trkpt>
      <trkpt lat="46.12868" lon="6.57682">
        <ele>1942.919</ele>
        <time>2024-05-04T09:51:10Z</time>
      </trkpt>
      <trkpt lat="46.12868" lon="6.57682">
        <ele>1942.637</ele>
        <time>2024-05-04T09:51:15Z</time>
      </trkpt>
      <trkpt lat="46.12868" lon="6.57682">
        <ele>1943.42</ele>
        <time>2024-05-04T09:51:20Z</time>
      </trkpt>
      <trkpt lat="46.12868" lon="6.57682">
        <ele>1943.989</ele>
        <time>2024-05-04T09:51:25Z</time>
      </trkpt>
      <trkpt lat="46.12868" lon="6.57682">
        <ele>1944.691</ele>
        <time>2024-05-04T09:51:30Z</time>
      </trkpt>
      <trkpt lat="46.12868" lon="6.57682">
        <ele>1945.632</ele>
        <time>2024-05-04T09:51:35Z</time>
      </trkpt>
      <trkpt lat="46.12868" lon="6.57682">
        <ele>1945.585</ele>
        <time>2024-05-04T09:51:40Z</time>
      </trkpt>
      <trkpt lat="46.12868" lon="6.57682">
        <ele>1945.757</ele>
        <time>2024-05-04T09:51:45Z</time>
      </trkpt>
      <trkpt lat="46.12868" lon="6.57682">
        <ele>1945.769</ele>
        <time>2024-05-04T09:51:50Z</time>
      </trkpt>
      <trkpt lat="46.12868" lon="6.57682">
        <ele>1945.778</ele>
        <time>2024-05-04T09:51:55Z</time>
      </trkpt>
      <trkpt lat="46.12868" lon="6.57682">
        <ele>1946.837</ele>
        <time>2024-05-04T09:52:00Z</time>
      </trkpt>
      <trkpt lat="46.12868" lon="6.57682">
        <ele>1947.572</ele>
        <time>2024-05-04T09:52:05Z</time>
      </trkpt>
      <trkpt lat="46.12868" lon="6.57682">
        <ele>1947.422</ele>
        <time>2024-05-04T09:52:10Z</time>
      </trkpt>
      <trkpt lat="46.12862" lon="6.57666">
        <ele>1946.342</ele>
        <time>2024-05-04T09:52:15Z</time>
      </trkpt>
      <trkpt lat="46.12862" lon="6.57664">
        <ele>1948.132</ele>
        <time>2024-05-04T09:52:20Z</time>
      </trkpt>
      <trkpt lat="46.12862" lon="6.57663">
        <ele>1949.078</ele>
        <time>2024-05-04T09:52:25Z</time>
      </trkpt>
      <trkpt lat="46.12862" lon="6.57662">
        <ele>1949.735</ele>
        <time>2024-05-04T09:52:30Z</time>
      </trkpt>
      <trkpt lat="46.12862" lon="6.57661">
        <ele>1949.765</ele>
        <time>2024-05-04T09:52:35Z</time>
      </trkpt>
      <trkpt lat="46.12862" lon="6.57661">
        <ele>1949.776</ele>
        <time>2024-05-04T09:52:40Z</time>
      </trkpt>
      <trkpt lat="46.12861" lon="6.57661">
        <ele>1950.193</ele>
        <time>2024-05-04T09:52:45Z</time>
      </trkpt>
      <trkpt lat="46.12861" lon="6.5766">
        <ele>1950.42</ele>
        <time>2024-05-04T09:52:50Z</time>
      </trkpt>
      <trkpt lat="46.12861" lon="6.5766">
        <ele>1950.899</ele>
        <time>2024-05-04T09:52:55Z</time>
      </trkpt>
      <trkpt lat="46.12861" lon="6.5766">
        <ele>1950.905</ele>
        <time>2024-05-04T09:53:00Z</time>
      </trkpt>
      <trkpt lat="46.12861" lon="6.5766">
        <ele>1951.126</ele>
        <time>2024-05-04T09:53:05Z</time>
      </trkpt>
      <trkpt lat="46.12861" lon="6.5766">
        <ele>1950.682</ele>
        <time>2024-05-04T09:53:10Z</time>
      </trkpt>
      <trkpt lat="46.12861" lon="6.5766">
        <ele>1952.371</ele>
        <time>2024-05-04T09:53:15Z</time>
      </trkpt>
      <trkpt lat="46.12861" lon="6.5766">
        <ele>1951.963</ele>
        <time>2024-05-04T09:53:20Z</time>
      </trkpt>
      <trkpt lat="46.12861" lon="6.5766">
        <ele>1952.048</ele>
        <time>2024-05-04T09:53:25Z</time>
      </trkpt>
      <trkpt lat="46.12861" lon="6.5766">
        <ele>1952.413</ele>
        <time>2024-05-04T09:53:30Z</time>
      </trkpt>
      <trkpt lat="46.12861" lon="6.5766">
        <ele>1952.954</ele>
        <time>2024-05-04T09:53:35Z</time>
      </trkpt>
      <trkpt lat="46.12861" lon="6.5766">
        <ele>1953.041</ele>
        <time>2024-05-04T09:53:40Z</time>
      </trkpt>
      <trkpt lat="46.12861" lon="6.5766">
        <ele>1953.046</ele>
        <time>2024-05-04T09:53:45Z</time>
      </trkpt>
      <trkpt lat="46.12861" lon="6.5766">
        <ele>1953.047</ele>
        <time>2024-05-04T09:53:50Z</time>
      </trkpt>
      <trkpt lat="46.12861" lon="6.5766">
        <ele>1953.075</ele>
        <time>2024-05-04T09:53:55Z</time>
      </trkpt>
      <trkpt lat="46.12861" lon="6.5766">
        <ele>1952.66</ele>
        <time>2024-05-04T09:54:00Z</time>
      </trkpt>
      <trkpt lat="46.12861" lon="6.5766">
        <ele>1952.836</ele>
        <time>2024-05-04T09:54:05Z</time>
      </trkpt>
      <trkpt lat="46.12861" lon="6.5766">
        <ele>1952.841</ele>
        <time>2024-05-04T09:54:10Z</time>
      </trkpt>
      <trkpt lat="46.12861" lon="6.5766">
        <ele>1952.93</ele>
        <time>2024-05-04T09:54:15Z</time>
      </trkpt>
      <trkpt lat="46.12861" lon="6.5766">
        <ele>1952.904</ele>
        <time>2024-05-04T09:54:20Z</time>
      </trkpt>
      <trkpt lat="46.12861" lon="6.5766">
        <ele>1952.915</ele>
        <time>2024-05-04T09:54:25Z</time>
      </trkpt>
      <trkpt lat="46.12861" lon="6.5766">
        <ele>1952.918</ele>
        <time>2024-05-04T09:54:30Z</time>
      </trkpt>
      <trkpt lat="46.12861" lon="6.5766">
        <ele>1953.076</ele>
        <time>2024-05-04T09:54:35Z</time>
      </trkpt>
      <trkpt lat="46.12861" lon="6.5766">
        <ele>1953.089</ele>
        <time>2024-05-04T09:54:40Z</time>
      </trkpt>
      <trkpt lat="46.12861" lon="6.5766">
        <ele>1953.089</ele>
        <time>2024-05-04T09:54:45Z</time>
      </trkpt>
      <trkpt lat="46.12861" lon="6.5766">
        <ele>1953.086</ele>
        <time>2024-05-04T09:54:50Z</time>
      </trkpt>
      <trkpt lat="46.12861" lon="6.5766">
        <ele>1953.087</ele>
        <time>2024-05-04T09:54:55Z</time>
      </trkpt>
      <trkpt lat="46.12861" lon="6.5766">
        <ele>1953.079</ele>
        <time>2024-05-04T09:55:00Z</time>
      </trkpt>
      <trkpt lat="46.12861" lon="6.5766">
        <ele>1953.076</ele>
        <time>2024-05-04T09:55:05Z</time>
      </trkpt>
      <trkpt lat="46.12861" lon="6.5766">
        <ele>1953.071</ele>
        <time>2024-05-04T09:55:10Z</time>
      </trkpt>
      <trkpt lat="46.12861" lon="6.5766">
        <ele>1953.066</ele>
        <time>2024-05-04T09:55:15Z</time>
      </trkpt>
      <trkpt lat="46.12861" lon="6.5766">
        <ele>1953.066</ele>
        <time>2024-05-04T09:55:20Z</time>
      </trkpt>
      <trkpt lat="46.12861" lon="6.5766">
        <ele>1952.938</ele>
        <time>2024-05-04T09:55:25Z</time>
      </trkpt>
      <trkpt lat="46.12861" lon="6.5766">
        <ele>1952.934</ele>
        <time>2024-05-04T09:55:30Z</time>
      </trkpt>
      <trkpt lat="46.12861" lon="6.5766">
        <ele>1952.927</ele>
        <time>2024-05-04T09:55:35Z</time>
      </trkpt>
      <trkpt lat="46.12861" lon="6.5766">
        <ele>1952.921</ele>
        <time>2024-05-04T09:55:40Z</time>
      </trkpt>
      <trkpt lat="46.12861" lon="6.5766">
        <ele>1952.924</ele>
        <time>2024-05-04T09:55:45Z</time>
      </trkpt>
      <trkpt lat="46.12861" lon="6.5766">
        <ele>1952.977</ele>
        <time>2024-05-04T09:55:50Z</time>
      </trkpt>
      <trkpt lat="46.12861" lon="6.5766">
        <ele>1952.996</ele>
        <time>2024-05-04T09:55:55Z</time>
      </trkpt>
      <trkpt lat="46.12861" lon="6.5766">
        <ele>1953.036</ele>
        <time>2024-05-04T09:56:00Z</time>
      </trkpt>
      <trkpt lat="46.12861" lon="6.5766">
        <ele>1953.032</ele>
        <time>2024-05-04T09:56:05Z</time>
      </trkpt>
      <trkpt lat="46.12861" lon="6.5766">
        <ele>1953.029</ele>
        <time>2024-05-04T09:56:10Z</time>
      </trkpt>
      <trkpt lat="46.12861" lon="6.5766">
        <ele>1953.025</ele>
        <time>2024-05-04T09:56:15Z</time>
      </trkpt>
      <trkpt lat="46.12861" lon="6.5766">
        <ele>1953.024</ele>
        <time>2024-05-04T09:56:20Z</time>
      </trkpt>
      <trkpt lat="46.12861" lon="6.5766">
        <ele>1953.014</ele>
        <time>2024-05-04T09:56:25Z</time>
      </trkpt>
      <trkpt lat="46.12861" lon="6.5766">
        <ele>1953.009</ele>
        <time>2024-05-04T09:56:30Z</time>
      </trkpt>
      <trkpt lat="46.12861" lon="6.5766">
        <ele>1953</ele>
        <time>2024-05-04T09:56:35Z</time>
      </trkpt>
      <trkpt lat="46.12861" lon="6.5766">
        <ele>1952.995</ele>
        <time>2024-05-04T09:56:40Z</time>
      </trkpt>
      <trkpt lat="46.12861" lon="6.5766">
        <ele>1952.754</ele>
        <time>2024-05-04T09:56:45Z</time>
      </trkpt>
      <trkpt lat="46.12861" lon="6.5766">
        <ele>1952.032</ele>
        <time>2024-05-04T09:56:50Z</time>
      </trkpt>
      <trkpt lat="46.12861" lon="6.5766">
        <ele>1952.026</ele>
        <time>2024-05-04T09:56:55Z</time>
      </trkpt>
      <trkpt lat="46.12861" lon="6.5766">
        <ele>1952.02</ele>
        <time>2024-05-04T09:57:00Z</time>
      </trkpt>
      <trkpt lat="46.12861" lon="6.5766">
        <ele>1952.011</ele>
        <time>2024-05-04T09:57:05Z</time>
      </trkpt>
      <trkpt lat="46.12861" lon="6.5766">
        <ele>1952.016</ele>
        <time>2024-05-04T09:57:10Z</time>
      </trkpt>
      <trkpt lat="46.12861" lon="6.5766">
        <ele>1952.019</ele>
        <time>2024-05-04T09:57:15Z</time>
      </trkpt>
      <trkpt lat="46.12861" lon="6.5766">
        <ele>1952.021</ele>
        <time>2024-05-04T09:57:20Z</time>
      </trkpt>
      <trkpt lat="46.12861" lon="6.5766">
        <ele>1951.899</ele>
        <time>2024-05-04T09:57:25Z</time>
      </trkpt>
      <trkpt lat="46.12861" lon="6.5766">
        <ele>1951.909</ele>
        <time>2024-05-04T09:57:30Z</time>
      </trkpt>
      <trkpt lat="46.12861" lon="6.5766">
        <ele>1951.906</ele>
        <time>2024-05-04T09:57:35Z</time>
      </trkpt>
      <trkpt lat="46.12861" lon="6.5766">
        <ele>1951.899</ele>
        <time>2024-05-04T09:57:40Z</time>
      </trkpt>
      <trkpt lat="46.12861" lon="6.5766">
        <ele>1951.26</ele>
        <time>2024-05-04T09:57:45Z</time>
      </trkpt>
      <trkpt lat="46.12861" lon="6.5766">
        <ele>1950.892</ele>
        <time>2024-05-04T09:57:50Z</time>
      </trkpt>
      <trkpt lat="46.12861" lon="6.5766">
        <ele>1950.897</ele>
        <time>2024-05-04T09:57:55Z</time>
      </trkpt>
      <trkpt lat="46.12861" lon="6.5766">
        <ele>1950.9</ele>
        <time>2024-05-04T09:58:00Z</time>
      </trkpt>
      <trkpt lat="46.12861" lon="6.5766">
        <ele>1950.687</ele>
        <time>2024-05-04T09:58:05Z</time>
      </trkpt>
      <trkpt lat="46.12861" lon="6.5766">
        <ele>1951.496</ele>
        <time>2024-05-04T09:58:10Z</time>
      </trkpt>
      <trkpt lat="46.12861" lon="6.5766">
        <ele>1952.178</ele>
        <time>2024-05-04T09:58:15Z</time>
      </trkpt>
      <trkpt lat="46.12861" lon="6.5766">
        <ele>1954.356</ele>
        <time>2024-05-04T09:58:20Z</time>
      </trkpt>
      <trkpt lat="46.12861" lon="6.5766">
        <ele>1955.022</ele>
        <time>2024-05-04T09:58:25Z</time>
      </trkpt>
      <trkpt lat="46.12861" lon="6.5766">
        <ele>1955.548</ele>
        <time>2024-05-04T09:58:30Z</time>
      </trkpt>
      <trkpt lat="46.12861" lon="6.5766">
        <ele>1956.17</ele>
        <time>2024-05-04T09:58:35Z</time>
      </trkpt>
      <trkpt lat="46.12861" lon="6.5766">
        <ele>1956.811</ele>
        <time>2024-05-04T09:58:40Z</time>
      </trkpt>
      <trkpt lat="46.12861" lon="6.5766">
        <ele>1957.462</ele>
        <time>2024-05-04T09:58:45Z</time>
      </trkpt>
      <trkpt lat="46.12855" lon="6.57644">
        <ele>1957.463</ele>
        <time>2024-05-04T09:58:50Z</time>
      </trkpt>
      <trkpt lat="46.12855" lon="6.57644">
        <ele>1957.463</ele>
        <time>2024-05-04T09:58:55Z</time>
      </trkpt>
      <trkpt lat="46.12855" lon="6.57642">
        <ele>1957.615</ele>
        <time>2024-05-04T09:59:00Z</time>
      </trkpt>
      <trkpt lat="46.12855" lon="6.57639">
        <ele>1959.136</ele>
        <time>2024-05-04T09:59:05Z</time>
      </trkpt>
      <trkpt lat="46.12853" lon="6.57636">
        <ele>1959.436</ele>
        <time>2024-05-04T09:59:10Z</time>
      </trkpt>
      <trkpt lat="46.12852" lon="6.57635">
        <ele>1959.829</ele>
        <time>2024-05-04T09:59:15Z</time>
      </trkpt>
      <trkpt lat="46.12851" lon="6.57633">
        <ele>1959.817</ele>
        <time>2024-05-04T09:59:20Z</time>
      </trkpt>
      <trkpt lat="46.12851" lon="6.57632">
        <ele>1961.448</ele>
        <time>2024-05-04T09:59:25Z</time>
      </trkpt>
      <trkpt lat="46.12851" lon="6.57629">
        <ele>1961.902</ele>
        <time>2024-05-04T09:59:30Z</time>
      </trkpt>
      <trkpt lat="46.12851" lon="6.57629">
        <ele>1962.604</ele>
        <time>2024-05-04T09:59:35Z</time>
      </trkpt>
      <trkpt lat="46.12851" lon="6.57629">
        <ele>1962.233</ele>
        <time>2024-05-04T09:59:40Z</time>
      </trkpt>
      <trkpt lat="46.12851" lon="6.57629">
        <ele>1963.115</ele>
        <time>2024-05-04T09:59:45Z</time>
      </trkpt>
      <trkpt lat="46.12851" lon="6.57629">
        <ele>1964.163</ele>
        <time>2024-05-04T09:59:50Z</time>
      </trkpt>
      <trkpt lat="46.12851" lon="6.57629">
        <ele>1964.616</ele>
        <time>2024-05-04T09:59:55Z</time>
      </trkpt>
      <trkpt lat="46.12851" lon="6.57629">
        <ele>1966.518</ele>
        <time>2024-05-04T10:00:00Z</time>
      </trkpt>
      <trkpt lat="46.12851" lon="6.57629">
        <ele>1967.413</ele>
        <time>2024-05-04T10:00:05Z</time>
      </trkpt>
      <trkpt lat="46.12851" lon="6.57629">
        <ele>1968.599</ele>
        <time>2024-05-04T10:00:10Z</time>
      </trkpt>
      <trkpt lat="46.12851" lon="6.57629">
        <ele>1968.214</ele>
        <time>2024-05-04T10:00:15Z</time>
      </trkpt>
      <trkpt lat="46.12851" lon="6.57629">
        <ele>1969.76</ele>
        <time>2024-05-04T10:00:20Z</time>
      </trkpt>
      <trkpt lat="46.12851" lon="6.57629">
        <ele>1970.105</ele>
        <time>2024-05-04T10:00:25Z</time>
      </trkpt>
      <trkpt lat="46.12851" lon="6.57629">
        <ele>1970.842</ele>
        <time>2024-05-04T10:00:30Z</time>
      </trkpt>
      <trkpt lat="46.12851" lon="6.57629">
        <ele>1971.543</ele>
        <time>2024-05-04T10:00:35Z</time>
      </trkpt>
      <trkpt lat="46.12847" lon="6.57613">
        <ele>1972.006</ele>
        <time>2024-05-04T10:00:40Z</time>
      </trkpt>
      <trkpt lat="46.12848" lon="6.57612">
        <ele>1973.008</ele>
        <time>2024-05-04T10:00:45Z</time>
      </trkpt>
      <trkpt lat="46.12848" lon="6.5761">
        <ele>1974.263</ele>
        <time>2024-05-04T10:00:50Z</time>
      </trkpt>
      <trkpt lat="46.12847" lon="6.57609">
        <ele>1974.195</ele>
        <time>2024-05-04T10:00:55Z</time>
      </trkpt>
      <trkpt lat="46.12846" lon="6.57608">
        <ele>1975.495</ele>
        <time>2024-05-04T10:01:00Z</time>
      </trkpt>
      <trkpt lat="46.12846" lon="6.57608">
        <ele>1975.08</ele>
        <time>2024-05-04T10:01:05Z</time>
      </trkpt>
      <trkpt lat="46.12846" lon="6.57608">
        <ele>1975.761</ele>
        <time>2024-05-04T10:01:10Z</time>
      </trkpt>
      <trkpt lat="46.12846" lon="6.57608">
        <ele>1975.457</ele>
        <time>2024-05-04T10:01:15Z</time>
      </trkpt>
      <trkpt lat="46.12846" lon="6.57608">
        <ele>1975.937</ele>
        <time>2024-05-04T10:01:20Z</time>
      </trkpt>
      <trkpt lat="46.12846" lon="6.57608">
        <ele>1978.032</ele>
        <time>2024-05-04T10:01:25Z</time>
      </trkpt>
      <trkpt lat="46.12846" lon="6.57608">
        <ele>1978.566</ele>
        <time>2024-05-04T10:01:30Z</time>
      </trkpt>
      <trkpt lat="46.12846" lon="6.57608">
        <ele>1978.997</ele>
        <time>2024-05-04T10:01:35Z</time>
      </trkpt>
      <trkpt lat="46.12846" lon="6.57608">
        <ele>1979.32</ele>
        <time>2024-05-04T10:01:40Z</time>
      </trkpt>
      <trkpt lat="46.12846" lon="6.57608">
        <ele>1979.514</ele>
        <time>2024-05-04T10:01:45Z</time>
      </trkpt>
      <trkpt lat="46.12846" lon="6.57608">
        <ele>1980.388</ele>
        <time>2024-05-04T10:01:50Z</time>
      </trkpt>
      <trkpt lat="46.12846" lon="6.57608">
        <ele>1980.151</ele>
        <time>2024-05-04T10:01:55Z</time>
      </trkpt>
      <trkpt lat="46.12846" lon="6.57608">
        <ele>1981.489</ele>
        <time>2024-05-04T10:02:00Z</time>
      </trkpt>
      <trkpt lat="46.12846" lon="6.57608">
        <ele>1982.411</ele>
        <time>2024-05-04T10:02:05Z</time>
      </trkpt>
      <trkpt lat="46.12846" lon="6.57608">
        <ele>1982.596</ele>
        <time>2024-05-04T10:02:10Z</time>
      </trkpt>
      <trkpt lat="46.12846" lon="6.57608">
        <ele>1982.595</ele>
        <time>2024-05-04T10:02:15Z</time>
      </trkpt>
      <trkpt lat="46.12846" lon="6.57608">
        <ele>1983.607</ele>
        <time>2024-05-04T10:02:20Z</time>
      </trkpt>
      <trkpt lat="46.12846" lon="6.57608">
        <ele>1984.077</ele>
        <time>2024-05-04T10:02:25Z</time>
      </trkpt>
      <trkpt lat="46.12846" lon="6.57608">
        <ele>1984.628</ele>
        <time>2024-05-04T10:02:30Z</time>
      </trkpt>
      <trkpt lat="46.12846" lon="6.57608">
        <ele>1983.767</ele>
        <time>2024-05-04T10:02:35Z</time>
      </trkpt>
      <trkpt lat="46.12846" lon="6.57608">
        <ele>1984.881</ele>
        <time>2024-05-04T10:02:40Z</time>
      </trkpt>
      <trkpt lat="46.12846" lon="6.57608">
        <ele>1984.875</ele>
        <time>2024-05-04T10:02:45Z</time>
      </trkpt>
      <trkpt lat="46.12841" lon="6.57591">
        <ele>1985.981</ele>
        <time>2024-05-04T10:02:50Z</time>
      </trkpt>
      <trkpt lat="46.12841" lon="6.5759">
        <ele>1986.869</ele>
        <time>2024-05-04T10:02:55Z</time>
      </trkpt>
      <trkpt lat="46.12841" lon="6.57589">
        <ele>1987.799</ele>
        <time>2024-05-04T10:03:00Z</time>
      </trkpt>
      <trkpt lat="46.1284" lon="6.57588">
        <ele>1987.737</ele>
        <time>2024-05-04T10:03:05Z</time>
      </trkpt>
      <trkpt lat="46.12839" lon="6.57587">
        <ele>1987.933</ele>
        <time>2024-05-04T10:03:10Z</time>
      </trkpt>
      <trkpt lat="46.12839" lon="6.57587">
        <ele>1988.816</ele>
        <time>2024-05-04T10:03:15Z</time>
      </trkpt>
      <trkpt lat="46.12839" lon="6.57587">
        <ele>1988.998</ele>
        <time>2024-05-04T10:03:20Z</time>
      </trkpt>
      <trkpt lat="46.12839" lon="6.57587">
        <ele>1989.589</ele>
        <time>2024-05-04T10:03:25Z</time>
      </trkpt>
      <trkpt lat="46.12839" lon="6.57587">
        <ele>1990.494</ele>
        <time>2024-05-04T10:03:30Z</time>
      </trkpt>
      <trkpt lat="46.12839" lon="6.57587">
        <ele>1990.712</ele>
        <time>2024-05-04T10:03:35Z</time>
      </trkpt>
      <trkpt lat="46.12839" lon="6.57587">
        <ele>1991.323</ele>
        <time>2024-05-04T10:03:40Z</time>
      </trkpt>
      <trkpt lat="46.12839" lon="6.57587">
        <ele>1991.817</ele>
        <time>2024-05-04T10:03:45Z</time>
      </trkpt>
      <trkpt lat="46.12839" lon="6.57587">
        <ele>1991.441</ele>
        <time>2024-05-04T10:03:50Z</time>
      </trkpt>
      <trkpt lat="46.12839" lon="6.57587">
        <ele>1990.842</ele>
        <time>2024-05-04T10:03:55Z</time>
      </trkpt>
      <trkpt lat="46.12839" lon="6.57587">
        <ele>1991.144</ele>
        <time>2024-05-04T10:04:00Z</time>
      </trkpt>
      <trkpt lat="46.12837" lon="6.5758">
        <ele>1991.732</ele>
        <time>2024-05-04T10:04:05Z</time>
      </trkpt>
      <trkpt lat="46.12836" lon="6.57578">
        <ele>1992.646</ele>
        <time>2024-05-04T10:04:10Z</time>
      </trkpt>
      <trkpt lat="46.12835" lon="6.57576">
        <ele>1992.3</ele>
        <time>2024-05-04T10:04:15Z</time>
      </trkpt>
      <trkpt lat="46.12835" lon="6.57575">
        <ele>1991.481</ele>
        <time>2024-05-04T10:04:20Z</time>
      </trkpt>
      <trkpt lat="46.12834" lon="6.57573">
        <ele>1993.087</ele>
        <time>2024-05-04T10:04:25Z</time>
      </trkpt>
      <trkpt lat="46.12833" lon="6.5757">
        <ele>1995.041</ele>
        <time>2024-05-04T10:04:30Z</time>
      </trkpt>
      <trkpt lat="46.12833" lon="6.5757">
        <ele>1995.07</ele>
        <time>2024-05-04T10:04:35Z</time>
      </trkpt>
      <trkpt lat="46.12833" lon="6.5757">
        <ele>1994.66</ele>
        <time>2024-05-04T10:04:40Z</time>
      </trkpt>
      <trkpt lat="46.12833" lon="6.5757">
        <ele>1996.036</ele>
        <time>2024-05-04T10:04:45Z</time>
      </trkpt>
      <trkpt lat="46.12833" lon="6.5757">
        <ele>1996.204</ele>
        <time>2024-05-04T10:04:50Z</time>
      </trkpt>
      <trkpt lat="46.12833" lon="6.5757">
        <ele>1997.032</ele>
        <time>2024-05-04T10:04:55Z</time>
      </trkpt>
      <trkpt lat="46.12833" lon="6.5757">
        <ele>1998.853</ele>
        <time>2024-05-04T10:05:00Z</time>
      </trkpt>
      <trkpt lat="46.12833" lon="6.5757">
        <ele>2000.089</ele>
        <time>2024-05-04T10:05:05Z</time>
      </trkpt>
      <trkpt lat="46.12831" lon="6.5756">
        <ele>2000.137</ele>
        <time>2024-05-04T10:05:10Z</time>
      </trkpt>
      <trkpt lat="46.12831" lon="6.57558">
        <ele>2000.259</ele>
        <time>2024-05-04T10:05:15Z</time>
      </trkpt>
      <trkpt lat="46.12833" lon="6.57555">
        <ele>2001.035</ele>
        <time>2024-05-04T10:05:20Z</time>
      </trkpt>
      <trkpt lat="46.12832" lon="6.57552">
        <ele>2001.565</ele>
        <time>2024-05-04T10:05:25Z</time>
      </trkpt>
      <trkpt lat="46.12833" lon="6.57549">
        <ele>2002.167</ele>
        <time>2024-05-04T10:05:30Z</time>
      </trkpt>
      <trkpt lat="46.12834" lon="6.57545">
        <ele>2002.635</ele>
        <time>2024-05-04T10:05:35Z</time>
      </trkpt>
      <trkpt lat="46.12833" lon="6.57542">
        <ele>2004.326</ele>
        <time>2024-05-04T10:05:40Z</time>
      </trkpt>
      <trkpt lat="46.12833" lon="6.57542">
        <ele>2004.448</ele>
        <time>2024-05-04T10:05:45Z</time>
      </trkpt>
      <trkpt lat="46.12833" lon="6.57542">
        <ele>2004.448</ele>
        <time>2024-05-04T10:05:50Z</time>
      </trkpt>
      <trkpt lat="46.12833" lon="6.57542">
        <ele>2004.445</ele>
        <time>2024-05-04T10:05:55Z</time>
      </trkpt>
      <trkpt lat="46.12833" lon="6.57542">
        <ele>2004.436</ele>
        <time>2024-05-04T10:06:00Z</time>
      </trkpt>
      <trkpt lat="46.12833" lon="6.57542">
        <ele>2004.433</ele>
        <time>2024-05-04T10:06:05Z</time>
      </trkpt>
      <trkpt lat="46.12833" lon="6.57542">
        <ele>2004.428</ele>
        <time>2024-05-04T10:06:10Z</time>
      </trkpt>
      <trkpt lat="46.12833" lon="6.57542">
        <ele>2004.421</ele>
        <time>2024-05-04T10:06:15Z</time>
      </trkpt>
      <trkpt lat="46.12833" lon="6.57542">
        <ele>2004.375</ele>
        <time>2024-05-04T10:06:20Z</time>
      </trkpt>
      <trkpt lat="46.12833" lon="6.57542">
        <ele>2004.367</ele>
        <time>2024-05-04T10:06:25Z</time>
      </trkpt>
      <trkpt lat="46.12833" lon="6.57542">
        <ele>2004.36</ele>
        <time>2024-05-04T10:06:30Z</time>
      </trkpt>
      <trkpt lat="46.12833" lon="6.57542">
        <ele>2004.358</ele>
        <time>2024-05-04T10:06:35Z</time>
      </trkpt>
      <trkpt lat="46.12833" lon="6.57542">
        <ele>2004.351</ele>
        <time>2024-05-04T10:06:40Z</time>
      </trkpt>
      <trkpt lat="46.12833" lon="6.57542">
        <ele>2004.341</ele>
        <time>2024-05-04T10:06:45Z</time>
      </trkpt>
      <trkpt lat="46.12833" lon="6.57542">
        <ele>2004.336</ele>
        <time>2024-05-04T10:06:50Z</time>
      </trkpt>
      <trkpt lat="46.12833" lon="6.57542">
        <ele>2004.322</ele>
        <time>2024-05-04T10:06:55Z</time>
      </trkpt>
      <trkpt lat="46.12833" lon="6.57542">
        <ele>2004.315</ele>
        <time>2024-05-04T10:07:00Z</time>
      </trkpt>
      <trkpt lat="46.12833" lon="6.57542">
        <ele>2004.303</ele>
        <time>2024-05-04T10:07:05Z</time>
      </trkpt>
      <trkpt lat="46.12833" lon="6.57542">
        <ele>2004.292</ele>
        <time>2024-05-04T10:07:10Z</time>
      </trkpt>
      <trkpt lat="46.12833" lon="6.57542">
        <ele>2004.277</ele>
        <time>2024-05-04T10:07:15Z</time>
      </trkpt>
      <trkpt lat="46.12833" lon="6.57542">
        <ele>2004.264</ele>
        <time>2024-05-04T10:07:20Z</time>
      </trkpt>
      <trkpt lat="46.12833" lon="6.57542">
        <ele>2004.249</ele>
        <time>2024-05-04T10:07:25Z</time>
      </trkpt>
      <trkpt lat="46.12833" lon="6.57542">
        <ele>2004.239</ele>
        <time>2024-05-04T10:07:30Z</time>
      </trkpt>
      <trkpt lat="46.12833" lon="6.57542">
        <ele>2004.226</ele>
        <time>2024-05-04T10:07:35Z</time>
      </trkpt>
      <trkpt lat="46.12833" lon="6.57542">
        <ele>2004.215</ele>
        <time>2024-05-04T10:07:40Z</time>
      </trkpt>
      <trkpt lat="46.12833" lon="6.57542">
        <ele>2004.061</ele>
        <time>2024-05-04T10:07:45Z</time>
      </trkpt>
      <trkpt lat="46.12833" lon="6.57542">
        <ele>2004.049</ele>
        <time>2024-05-04T10:07:50Z</time>
      </trkpt>
      <trkpt lat="46.12833" lon="6.57542">
        <ele>2004.04</ele>
        <time>2024-05-04T10:07:55Z</time>
      </trkpt>
      <trkpt lat="46.12833" lon="6.57542">
        <ele>2004.032</ele>
        <time>2024-05-04T10:08:00Z</time>
      </trkpt>
      <trkpt lat="46.12833" lon="6.57542">
        <ele>2003.867</ele>
        <time>2024-05-04T10:08:05Z</time>
      </trkpt>
      <trkpt lat="46.12833" lon="6.57542">
        <ele>2003.6</ele>
        <time>2024-05-04T10:08:10Z</time>
      </trkpt>
      <trkpt lat="46.12833" lon="6.57542">
        <ele>2003.395</ele>
        <time>2024-05-04T10:08:15Z</time>
      </trkpt>
      <trkpt lat="46.12833" lon="6.57542">
        <ele>2003.387</ele>
        <time>2024-05-04T10:08:20Z</time>
      </trkpt>
      <trkpt lat="46.12833" lon="6.57542">
        <ele>2003.378</ele>
        <time>2024-05-04T10:08:25Z</time>
      </trkpt>
      <trkpt lat="46.12833" lon="6.57542">
        <ele>2003.374</ele>
        <time>2024-05-04T10:08:30Z</time>
      </trkpt>
      <trkpt lat="46.12833" lon="6.57542">
        <ele>2003.365</ele>
        <time>2024-05-04T10:08:35Z</time>
      </trkpt>
      <trkpt lat="46.12833" lon="6.57542">
        <ele>2003.358</ele>
        <time>2024-05-04T10:08:40Z</time>
      </trkpt>
      <trkpt lat="46.12833" lon="6.57542">
        <ele>2003.352</ele>
        <time>2024-05-04T10:08:45Z</time>
      </trkpt>
      <trkpt lat="46.12833" lon="6.57542">
        <ele>2003.347</ele>
        <time>2024-05-04T10:08:50Z</time>
      </trkpt>
      <trkpt lat="46.12833" lon="6.57542">
        <ele>2003.344</ele>
        <time>2024-05-04T10:08:55Z</time>
      </trkpt>
      <trkpt lat="46.12833" lon="6.57542">
        <ele>2003.337</ele>
        <time>2024-05-04T10:09:00Z</time>
      </trkpt>
      <trkpt lat="46.12833" lon="6.57542">
        <ele>2003.335</ele>
        <time>2024-05-04T10:09:05Z</time>
      </trkpt>
      <trkpt lat="46.12833" lon="6.57542">
        <ele>2003.328</ele>
        <time>2024-05-04T10:09:10Z</time>
      </trkpt>
      <trkpt lat="46.12833" lon="6.57542">
        <ele>2003.323</ele>
        <time>2024-05-04T10:09:15Z</time>
      </trkpt>
      <trkpt lat="46.12833" lon="6.57542">
        <ele>2003.319</ele>
        <time>2024-05-04T10:09:20Z</time>
      </trkpt>
      <trkpt lat="46.12833" lon="6.57542">
        <ele>2003.309</ele>
        <time>2024-05-04T10:09:25Z</time>
      </trkpt>
      <trkpt lat="46.12833" lon="6.57542">
        <ele>2003.305</ele>
        <time>2024-05-04T10:09:30Z</time>
      </trkpt>
      <trkpt lat="46.12833" lon="6.57542">
        <ele>2003.295</ele>
        <time>2024-05-04T10:09:35Z</time>
      </trkpt>
      <trkpt lat="46.12833" lon="6.57542">
        <ele>2003.293</ele>
        <time>2024-05-04T10:09:40Z</time>
      </trkpt>
      <trkpt lat="46.12833" lon="6.57542">
        <ele>2003.287</ele>
        <time>2024-05-04T10:09:45Z</time>
      </trkpt>
      <trkpt lat="46.12833" lon="6.57542">
        <ele>2003.279</ele>
        <time>2024-05-04T10:09:50Z</time>
      </trkpt>
      <trkpt lat="46.12833" lon="6.57542">
        <ele>2003.27</ele>
        <time>2024-05-04T10:09:55Z</time>
      </trkpt>
      <trkpt lat="46.12833" lon="6.57542">
        <ele>2003.264</ele>
        <time>2024-05-04T10:10:00Z</time>
      </trkpt>
      <trkpt lat="46.12833" lon="6.57542">
        <ele>2003.256</ele>
        <time>2024-05-04T10:10:05Z</time>
      </trkpt>
      <trkpt lat="46.12833" lon="6.57542">
        <ele>2003.25</ele>
        <time>2024-05-04T10:10:10Z</time>
      </trkpt>
      <trkpt lat="46.12833" lon="6.57542">
        <ele>2003.246</ele>
        <time>2024-05-04T10:10:15Z</time>
      </trkpt>
      <trkpt lat="46.12833" lon="6.57542">
        <ele>2003.239</ele>
        <time>2024-05-04T10:10:20Z</time>
      </trkpt>
      <trkpt lat="46.12833" lon="6.57542">
        <ele>2003.232</ele>
        <time>2024-05-04T10:10:25Z</time>
      </trkpt>
      <trkpt lat="46.12833" lon="6.57542">
        <ele>2003.23</ele>
        <time>2024-05-04T10:10:30Z</time>
      </trkpt>
      <trkpt lat="46.12833" lon="6.57542">
        <ele>2003.219</ele>
        <time>2024-05-04T10:10:35Z</time>
      </trkpt>
      <trkpt lat="46.12833" lon="6.57542">
        <ele>2003.212</ele>
        <time>2024-05-04T10:10:40Z</time>
      </trkpt>
      <trkpt lat="46.12833" lon="6.57542">
        <ele>2003.202</ele>
        <time>2024-05-04T10:10:45Z</time>
      </trkpt>
      <trkpt lat="46.12833" lon="6.57542">
        <ele>2003.198</ele>
        <time>2024-05-04T10:10:50Z</time>
      </trkpt>
      <trkpt lat="46.12833" lon="6.57542">
        <ele>2003.196</ele>
        <time>2024-05-04T10:10:55Z</time>
      </trkpt>
      <trkpt lat="46.12833" lon="6.57542">
        <ele>2003.189</ele>
        <time>2024-05-04T10:11:00Z</time>
      </trkpt>
      <trkpt lat="46.12833" lon="6.57542">
        <ele>2003.182</ele>
        <time>2024-05-04T10:11:05Z</time>
      </trkpt>
      <trkpt lat="46.12833" lon="6.57542">
        <ele>2003.069</ele>
        <time>2024-05-04T10:11:10Z</time>
      </trkpt>
      <trkpt lat="46.12833" lon="6.57542">
        <ele>2003.03</ele>
        <time>2024-05-04T10:11:15Z</time>
      </trkpt>
      <trkpt lat="46.12833" lon="6.57542">
        <ele>2003.026</ele>
        <time>2024-05-04T10:11:20Z</time>
      </trkpt>
      <trkpt lat="46.12833" lon="6.57542">
        <ele>2003.021</ele>
        <time>2024-05-04T10:11:25Z</time>
      </trkpt>
      <trkpt lat="46.12833" lon="6.57542">
        <ele>2003.016</ele>
        <time>2024-05-04T10:11:30Z</time>
      </trkpt>
      <trkpt lat="46.12833" lon="6.57542">
        <ele>2003.009</ele>
        <time>2024-05-04T10:11:35Z</time>
      </trkpt>
      <trkpt lat="46.12833" lon="6.57542">
        <ele>2003.003</ele>
        <time>2024-05-04T10:11:40Z</time>
      </trkpt>
      <trkpt lat="46.12833" lon="6.57542">
        <ele>2002.993</ele>
        <time>2024-05-04T10:11:45Z</time>
      </trkpt>
      <trkpt lat="46.12833" lon="6.57542">
        <ele>2002.983</ele>
        <time>2024-05-04T10:11:50Z</time>
      </trkpt>
      <trkpt lat="46.12833" lon="6.57542">
        <ele>2002.976</ele>
        <time>2024-05-04T10:11:55Z</time>
      </trkpt>
      <trkpt lat="46.12833" lon="6.57542">
        <ele>2002.971</ele>
        <time>2024-05-04T10:12:00Z</time>
      </trkpt>
      <trkpt lat="46.12833" lon="6.57542">
        <ele>2002.964</ele>
        <time>2024-05-04T10:12:05Z</time>
      </trkpt>
      <trkpt lat="46.12833" lon="6.57542">
        <ele>2002.96</ele>
        <time>2024-05-04T10:12:10Z</time>
      </trkpt>
      <trkpt lat="46.12833" lon="6.57542">
        <ele>2002.956</ele>
        <time>2024-05-04T10:12:15Z</time>
      </trkpt>
      <trkpt lat="46.12833" lon="6.57542">
        <ele>2002.95</ele>
        <time>2024-05-04T10:12:20Z</time>
      </trkpt>
      <trkpt lat="46.12833" lon="6.57542">
        <ele>2002.942</ele>
        <time>2024-05-04T10:12:25Z</time>
      </trkpt>
      <trkpt lat="46.12833" lon="6.57542">
        <ele>2002.94</ele>
        <time>2024-05-04T10:12:30Z</time>
      </trkpt>
      <trkpt lat="46.12833" lon="6.57542">
        <ele>2002.936</ele>
        <time>2024-05-04T10:12:35Z</time>
      </trkpt>
      <trkpt lat="46.12833" lon="6.57542">
        <ele>2002.575</ele>
        <time>2024-05-04T10:12:40Z</time>
      </trkpt>
      <trkpt lat="46.12833" lon="6.57542">
        <ele>2002.593</ele>
        <time>2024-05-04T10:12:45Z</time>
      </trkpt>
      <trkpt lat="46.12833" lon="6.57542">
        <ele>2002.589</ele>
        <time>2024-05-04T10:12:50Z</time>
      </trkpt>
      <trkpt lat="46.12833" lon="6.57542">
        <ele>2002.588</ele>
        <time>2024-05-04T10:12:55Z</time>
      </trkpt>
      <trkpt lat="46.12833" lon="6.57542">
        <ele>2002.587</ele>
        <time>2024-05-04T10:13:00Z</time>
      </trkpt>
      <trkpt lat="46.12833" lon="6.57542">
        <ele>2002.586</ele>
        <time>2024-05-04T10:13:05Z</time>
      </trkpt>
      <trkpt lat="46.12833" lon="6.57542">
        <ele>2002.588</ele>
        <time>2024-05-04T10:13:10Z</time>
      </trkpt>
      <trkpt lat="46.12833" lon="6.57542">
        <ele>2002.586</ele>
        <time>2024-05-04T10:13:15Z</time>
      </trkpt>
      <trkpt lat="46.12833" lon="6.57542">
        <ele>2002.584</ele>
        <time>2024-05-04T10:13:20Z</time>
      </trkpt>
      <trkpt lat="46.12833" lon="6.57542">
        <ele>2002.58</ele>
        <time>2024-05-04T10:13:25Z</time>
      </trkpt>
      <trkpt lat="46.12833" lon="6.57542">
        <ele>2002.58</ele>
        <time>2024-05-04T10:13:30Z</time>
      </trkpt>
      <trkpt lat="46.12833" lon="6.57542">
        <ele>2002.582</ele>
        <time>2024-05-04T10:13:35Z</time>
      </trkpt>
      <trkpt lat="46.12833" lon="6.57542">
        <ele>2002.581</ele>
        <time>2024-05-04T10:13:40Z</time>
      </trkpt>
      <trkpt lat="46.12833" lon="6.57542">
        <ele>2002.58</ele>
        <time>2024-05-04T10:13:45Z</time>
      </trkpt>
      <trkpt lat="46.12833" lon="6.57542">
        <ele>2002.579</ele>
        <time>2024-05-04T10:13:50Z</time>
      </trkpt>
      <trkpt lat="46.12833" lon="6.57542">
        <ele>2002.579</ele>
        <time>2024-05-04T10:13:55Z</time>
      </trkpt>
      <trkpt lat="46.12833" lon="6.57542">
        <ele>2002.579</ele>
        <time>2024-05-04T10:14:00Z</time>
      </trkpt>
      <trkpt lat="46.12833" lon="6.57542">
        <ele>2002.579</ele>
        <time>2024-05-04T10:14:05Z</time>
      </trkpt>
      <trkpt lat="46.12833" lon="6.57542">
        <ele>2002.578</ele>
        <time>2024-05-04T10:14:10Z</time>
      </trkpt>
      <trkpt lat="46.12833" lon="6.57542">
        <ele>2002.575</ele>
        <time>2024-05-04T10:14:15Z</time>
      </trkpt>
      <trkpt lat="46.12833" lon="6.57542">
        <ele>2002.577</ele>
        <time>2024-05-04T10:14:20Z</time>
      </trkpt>
      <trkpt lat="46.12833" lon="6.57542">
        <ele>2002.581</ele>
        <time>2024-05-04T10:14:25Z</time>
      </trkpt>
      <trkpt lat="46.12833" lon="6.57542">
        <ele>2002.58</ele>
        <time>2024-05-04T10:14:30Z</time>
      </trkpt>
      <trkpt lat="46.12833" lon="6.57542">
        <ele>2002.579</ele>
        <time>2024-05-04T10:14:35Z</time>
      </trkpt>
      <trkpt lat="46.12833" lon="6.57542">
        <ele>2002.579</ele>
        <time>2024-05-04T10:14:40Z</time>
      </trkpt>
      <trkpt lat="46.12833" lon="6.57542">
        <ele>2002.573</ele>
        <time>2024-05-04T10:14:45Z</time>
      </trkpt>
      <trkpt lat="46.12833" lon="6.57542">
        <ele>2002.569</ele>
        <time>2024-05-04T10:14:50Z</time>
      </trkpt>
      <trkpt lat="46.12833" lon="6.57542">
        <ele>2002.567</ele>
        <time>2024-05-04T10:14:55Z</time>
      </trkpt>
      <trkpt lat="46.12833" lon="6.57542">
        <ele>2002.564</ele>
        <time>2024-05-04T10:15:00Z</time>
      </trkpt>
      <trkpt lat="46.12833" lon="6.57542">
        <ele>2002.566</ele>
        <time>2024-05-04T10:15:05Z</time>
      </trkpt>
      <trkpt lat="46.12833" lon="6.57542">
        <ele>2002.562</ele>
        <time>2024-05-04T10:15:10Z</time>
      </trkpt>
      <trkpt lat="46.12833" lon="6.57542">
        <ele>2002.559</ele>
        <time>2024-05-04T10:15:15Z</time>
      </trkpt>
      <trkpt lat="46.12833" lon="6.57542">
        <ele>2002.557</ele>
        <time>2024-05-04T10:15:20Z</time>
      </trkpt>
      <trkpt lat="46.12833" lon="6.57542">
        <ele>2002.558</ele>
        <time>2024-05-04T10:15:25Z</time>
      </trkpt>
      <trkpt lat="46.12833" lon="6.57542">
        <ele>2002.552</ele>
        <time>2024-05-04T10:15:30Z</time>
      </trkpt>
      <trkpt lat="46.12833" lon="6.57542">
        <ele>2002.564</ele>
        <time>2024-05-04T10:15:35Z</time>
      </trkpt>
      <trkpt lat="46.12833" lon="6.57542">
        <ele>2002.544</ele>
        <time>2024-05-04T10:15:40Z</time>
      </trkpt>
      <trkpt lat="46.12833" lon="6.57542">
        <ele>2002.543</ele>
        <time>2024-05-04T10:15:45Z</time>
      </trkpt>
      <trkpt lat="46.12833" lon="6.57542">
        <ele>2002.543</ele>
        <time>2024-05-04T10:15:50Z</time>
      </trkpt>
      <trkpt lat="46.12833" lon="6.57542">
        <ele>2002.54</ele>
        <time>2024-05-04T10:15:55Z</time>
      </trkpt>
      <trkpt lat="46.12833" lon="6.57542">
        <ele>2002.542</ele>
        <time>2024-05-04T10:16:00Z</time>
      </trkpt>
      <trkpt lat="46.12833" lon="6.57542">
        <ele>2002.543</ele>
        <time>2024-05-04T10:16:05Z</time>
      </trkpt>
      <trkpt lat="46.12833" lon="6.57542">
        <ele>2002.502</ele>
        <time>2024-05-04T10:16:10Z</time>
      </trkpt>
      <trkpt lat="46.12833" lon="6.57542">
        <ele>2002.501</ele>
        <time>2024-05-04T10:16:15Z</time>
      </trkpt>
      <trkpt lat="46.12833" lon="6.57542">
        <ele>2002.498</ele>
        <time>2024-05-04T10:16:20Z</time>
      </trkpt>
      <trkpt lat="46.12833" lon="6.57542">
        <ele>2002.497</ele>
        <time>2024-05-04T10:16:25Z</time>
      </trkpt>
      <trkpt lat="46.12833" lon="6.57542">
        <ele>2002.496</ele>
        <time>2024-05-04T10:16:30Z</time>
      </trkpt>
      <trkpt lat="46.12833" lon="6.57542">
        <ele>2002.495</ele>
        <time>2024-05-04T10:16:35Z</time>
      </trkpt>
      <trkpt lat="46.12833" lon="6.57542">
        <ele>2002.496</ele>
        <time>2024-05-04T10:16:40Z</time>
      </trkpt>
      <trkpt lat="46.12833" lon="6.57542">
        <ele>2002.493</ele>
        <time>2024-05-04T10:16:45Z</time>
      </trkpt>
      <trkpt lat="46.12833" lon="6.57542">
        <ele>2002.495</ele>
        <time>2024-05-04T10:16:50Z</time>
      </trkpt>
      <trkpt lat="46.12833" lon="6.57542">
        <ele>2002.492</ele>
        <time>2024-05-04T10:16:55Z</time>
      </trkpt>
      <trkpt lat="46.12833" lon="6.57542">
        <ele>2002.493</ele>
        <time>2024-05-04T10:17:00Z</time>
      </trkpt>
      <trkpt lat="46.12833" lon="6.57542">
        <ele>2002.489</ele>
        <time>2024-05-04T10:17:05Z</time>
      </trkpt>
      <trkpt lat="46.12833" lon="6.57542">
        <ele>2002.487</ele>
        <time>2024-05-04T10:17:10Z</time>
      </trkpt>
      <trkpt lat="46.12833" lon="6.57542">
        <ele>2002.382</ele>
        <time>2024-05-04T10:17:15Z</time>
      </trkpt>
      <trkpt lat="46.12833" lon="6.57542">
        <ele>2002.321</ele>
        <time>2024-05-04T10:17:20Z</time>
      </trkpt>
      <trkpt lat="46.12833" lon="6.57542">
        <ele>2002.318</ele>
        <time>2024-05-04T10:17:25Z</time>
      </trkpt>
      <trkpt lat="46.12833" lon="6.57542">
        <ele>2002.311</ele>
        <time>2024-05-04T10:17:30Z</time>
      </trkpt>
      <trkpt lat="46.12833" lon="6.57542">
        <ele>2002.307</ele>
        <time>2024-05-04T10:17:35Z</time>
      </trkpt>
      <trkpt lat="46.12833" lon="6.57542">
        <ele>2002.306</ele>
        <time>2024-05-04T10:17:40Z</time>
      </trkpt>
      <trkpt lat="46.12833" lon="6.57542">
        <ele>2002.301</ele>
        <time>2024-05-04T10:17:45Z</time>
      </trkpt>
      <trkpt lat="46.12833" lon="6.57542">
        <ele>2002.291</ele>
        <time>2024-05-04T10:17:50Z</time>
      </trkpt>
      <trkpt lat="46.12833" lon="6.57542">
        <ele>2002.28</ele>
        <time>2024-05-04T10:17:55Z</time>
      </trkpt>
      <trkpt lat="46.12833" lon="6.57542">
        <ele>2002.271</ele>
        <time>2024-05-04T10:18:00Z</time>
      </trkpt>
      <trkpt lat="46.12833" lon="6.57542">
        <ele>2002.262</ele>
        <time>2024-05-04T10:18:05Z</time>
      </trkpt>
      <trkpt lat="46.12833" lon="6.57542">
        <ele>2002.256</ele>
        <time>2024-05-04T10:18:10Z</time>
      </trkpt>
      <trkpt lat="46.12833" lon="6.57542">
        <ele>2002.246</ele>
        <time>2024-05-04T10:18:15Z</time>
      </trkpt>
      <trkpt lat="46.12833" lon="6.57542">
        <ele>2002.235</ele>
        <time>2024-05-04T10:18:20Z</time>
      </trkpt>
      <trkpt lat="46.12833" lon="6.57542">
        <ele>2002.229</ele>
        <time>2024-05-04T10:18:25Z</time>
      </trkpt>
      <trkpt lat="46.12833" lon="6.57542">
        <ele>2002.222</ele>
        <time>2024-05-04T10:18:30Z</time>
      </trkpt>
      <trkpt lat="46.12833" lon="6.57542">
        <ele>2002.212</ele>
        <time>2024-05-04T10:18:35Z</time>
      </trkpt>
      <trkpt lat="46.12833" lon="6.57542">
        <ele>2002.198</ele>
        <time>2024-05-04T10:18:40Z</time>
      </trkpt>
      <trkpt lat="46.12833" lon="6.57542">
        <ele>2002.185</ele>
        <time>2024-05-04T10:18:45Z</time>
      </trkpt>
      <trkpt lat="46.12833" lon="6.57542">
        <ele>2002.179</ele>
        <time>2024-05-04T10:18:50Z</time>
      </trkpt>
      <trkpt lat="46.12833" lon="6.57542">
        <ele>2002.169</ele>
        <time>2024-05-04T10:18:55Z</time>
      </trkpt>
      <trkpt lat="46.12833" lon="6.57542">
        <ele>2002.157</ele>
        <time>2024-05-04T10:19:00Z</time>
      </trkpt>
      <trkpt lat="46.12833" lon="6.57542">
        <ele>2002.148</ele>
        <time>2024-05-04T10:19:05Z</time>
      </trkpt>
      <trkpt lat="46.12833" lon="6.57542">
        <ele>2002.141</ele>
        <time>2024-05-04T10:19:10Z</time>
      </trkpt>
      <trkpt lat="46.12833" lon="6.57542">
        <ele>2002.135</ele>
        <time>2024-05-04T10:19:15Z</time>
      </trkpt>
      <trkpt lat="46.12833" lon="6.57542">
        <ele>2002.128</ele>
        <time>2024-05-04T10:19:20Z</time>
      </trkpt>
      <trkpt lat="46.12833" lon="6.57542">
        <ele>2002.122</ele>
        <time>2024-05-04T10:19:25Z</time>
      </trkpt>
      <trkpt lat="46.12833" lon="6.57542">
        <ele>2002.116</ele>
        <time>2024-05-04T10:19:30Z</time>
      </trkpt>
      <trkpt lat="46.12833" lon="6.57542">
        <ele>2001.924</ele>
        <time>2024-05-04T10:19:35Z</time>
      </trkpt>
      <trkpt lat="46.12833" lon="6.57542">
        <ele>2001.29</ele>
        <time>2024-05-04T10:19:40Z</time>
      </trkpt>
      <trkpt lat="46.12833" lon="6.57542">
        <ele>2001.288</ele>
        <time>2024-05-04T10:19:45Z</time>
      </trkpt>
      <trkpt lat="46.12833" lon="6.57542">
        <ele>2001.671</ele>
        <time>2024-05-04T10:19:50Z</time>
      </trkpt>
      <trkpt lat="46.12833" lon="6.57542">
        <ele>2001.641</ele>
        <time>2024-05-04T10:19:55Z</time>
      </trkpt>
      <trkpt lat="46.12833" lon="6.57542">
        <ele>2001.642</ele>
        <time>2024-05-04T10:20:00Z</time>
      </trkpt>
      <trkpt lat="46.12833" lon="6.57542">
        <ele>2001.64</ele>
        <time>2024-05-04T10:20:05Z</time>
      </trkpt>
      <trkpt lat="46.12833" lon="6.57542">
        <ele>2001.64</ele>
        <time>2024-05-04T10:20:10Z</time>
      </trkpt>
      <trkpt lat="46.12833" lon="6.57542">
        <ele>2001.639</ele>
        <time>2024-05-04T10:20:15Z</time>
      </trkpt>
      <trkpt lat="46.12833" lon="6.57542">
        <ele>2001.635</ele>
        <time>2024-05-04T10:20:20Z</time>
      </trkpt>
      <trkpt lat="46.12833" lon="6.57542">
        <ele>2001.631</ele>
        <time>2024-05-04T10:20:25Z</time>
      </trkpt>
      <trkpt lat="46.12833" lon="6.57542">
        <ele>2001.627</ele>
        <time>2024-05-04T10:20:30Z</time>
      </trkpt>
      <trkpt lat="46.12833" lon="6.57542">
        <ele>2001.625</ele>
        <time>2024-05-04T10:20:35Z</time>
      </trkpt>
      <trkpt lat="46.12833" lon="6.57542">
        <ele>2001.623</ele>
        <time>2024-05-04T10:20:40Z</time>
      </trkpt>
      <trkpt lat="46.12833" lon="6.57542">
        <ele>2001.618</ele>
        <time>2024-05-04T10:20:45Z</time>
      </trkpt>
      <trkpt lat="46.12833" lon="6.57542">
        <ele>2001.615</ele>
        <time>2024-05-04T10:20:50Z</time>
      </trkpt>
      <trkpt lat="46.12833" lon="6.57542">
        <ele>2001.612</ele>
        <time>2024-05-04T10:20:55Z</time>
      </trkpt>
      <trkpt lat="46.12833" lon="6.57542">
        <ele>2001.611</ele>
        <time>2024-05-04T10:21:00Z</time>
      </trkpt>
      <trkpt lat="46.12833" lon="6.57542">
        <ele>2001.609</ele>
        <time>2024-05-04T10:21:05Z</time>
      </trkpt>
      <trkpt lat="46.12833" lon="6.57542">
        <ele>2001.61</ele>
        <time>2024-05-04T10:21:10Z</time>
      </trkpt>
      <trkpt lat="46.12833" lon="6.57542">
        <ele>2001.613</ele>
        <time>2024-05-04T10:21:15Z</time>
      </trkpt>
      <trkpt lat="46.12833" lon="6.57542">
        <ele>2001.609</ele>
        <time>2024-05-04T10:21:20Z</time>
      </trkpt>
      <trkpt lat="46.12833" lon="6.57542">
        <ele>2001.608</ele>
        <time>2024-05-04T10:21:25Z</time>
      </trkpt>
      <trkpt lat="46.12833" lon="6.57542">
        <ele>2001.609</ele>
        <time>2024-05-04T10:21:30Z</time>
      </trkpt>
      <trkpt lat="46.12833" lon="6.57542">
        <ele>2001.607</ele>
        <time>2024-05-04T10:21:35Z</time>
      </trkpt>
      <trkpt lat="46.12833" lon="6.57542">
        <ele>2001.607</ele>
        <time>2024-05-04T10:21:40Z</time>
      </trkpt>
      <trkpt lat="46.12833" lon="6.57542">
        <ele>2001.605</ele>
        <time>2024-05-04T10:21:45Z</time>
      </trkpt>
      <trkpt lat="46.12833" lon="6.57542">
        <ele>2001.606</ele>
        <time>2024-05-04T10:21:50Z</time>
      </trkpt>
      <trkpt lat="46.12833" lon="6.57542">
        <ele>2001.606</ele>
        <time>2024-05-04T10:21:55Z</time>
      </trkpt>
      <trkpt lat="46.12833" lon="6.57542">
        <ele>2001.603</ele>
        <time>2024-05-04T10:22:00Z</time>
      </trkpt>
      <trkpt lat="46.12833" lon="6.57542">
        <ele>2001.603</ele>
        <time>2024-05-04T10:22:05Z</time>
      </trkpt>
      <trkpt lat="46.12833" lon="6.57542">
        <ele>2001.602</ele>
        <time>2024-05-04T10:22:10Z</time>
      </trkpt>
      <trkpt lat="46.12833" lon="6.57542">
        <ele>2001.601</ele>
        <time>2024-05-04T10:22:15Z</time>
      </trkpt>
      <trkpt lat="46.12833" lon="6.57542">
        <ele>2001.602</ele>
        <time>2024-05-04T10:22:20Z</time>
      </trkpt>
      <trkpt lat="46.12833" lon="6.57542">
        <ele>2001.602</ele>
        <time>2024-05-04T10:22:25Z</time>
      </trkpt>
      <trkpt lat="46.12833" lon="6.57542">
        <ele>2001.601</ele>
        <time>2024-05-04T10:22:30Z</time>
      </trkpt>
      <trkpt lat="46.12833" lon="6.57542">
        <ele>2001.6</ele>
        <time>2024-05-04T10:22:35Z</time>
      </trkpt>
      <trkpt lat="46.12833" lon="6.57542">
        <ele>2001.599</ele>
        <time>2024-05-04T10:22:40Z</time>
      </trkpt>
      <trkpt lat="46.12833" lon="6.57542">
        <ele>2001.597</ele>
        <time>2024-05-04T10:22:45Z</time>
      </trkpt>
      <trkpt lat="46.12833" lon="6.57542">
        <ele>2001.599</ele>
        <time>2024-05-04T10:22:50Z</time>
      </trkpt>
      <trkpt lat="46.12833" lon="6.57542">
        <ele>2001.597</ele>
        <time>2024-05-04T10:22:55Z</time>
      </trkpt>
      <trkpt lat="46.12833" lon="6.57542">
        <ele>2001.598</ele>
        <time>2024-05-04T10:23:00Z</time>
      </trkpt>
      <trkpt lat="46.12833" lon="6.57542">
        <ele>2001.596</ele>
        <time>2024-05-04T10:23:05Z</time>
      </trkpt>
      <trkpt lat="46.12833" lon="6.57542">
        <ele>2001.597</ele>
        <time>2024-05-04T10:23:10Z</time>
      </trkpt>
      <trkpt lat="46.12833" lon="6.57542">
        <ele>2001.372</ele>
        <time>2024-05-04T10:23:15Z</time>
      </trkpt>
      <trkpt lat="46.12833" lon="6.57542">
        <ele>2001.375</ele>
        <time>2024-05-04T10:23:20Z</time>
      </trkpt>
      <trkpt lat="46.12833" lon="6.57542">
        <ele>2001.378</ele>
        <time>2024-05-04T10:23:25Z</time>
      </trkpt>
      <trkpt lat="46.12833" lon="6.57542">
        <ele>2001.38</ele>
        <time>2024-05-04T10:23:30Z</time>
      </trkpt>
      <trkpt lat="46.12833" lon="6.57542">
        <ele>2001.381</ele>
        <time>2024-05-04T10:23:35Z</time>
      </trkpt>
      <trkpt lat="46.12833" lon="6.57542">
        <ele>2001.382</ele>
        <time>2024-05-04T10:23:40Z</time>
      </trkpt>
      <trkpt lat="46.12833" lon="6.57542">
        <ele>2001.384</ele>
        <time>2024-05-04T10:23:45Z</time>
      </trkpt>
      <trkpt lat="46.12833" lon="6.57542">
        <ele>2001.384</ele>
        <time>2024-05-04T10:23:50Z</time>
      </trkpt>
      <trkpt lat="46.12833" lon="6.57542">
        <ele>2001.377</ele>
        <time>2024-05-04T10:23:55Z</time>
      </trkpt>
      <trkpt lat="46.12833" lon="6.57542">
        <ele>2001.376</ele>
        <time>2024-05-04T10:24:00Z</time>
      </trkpt>
      <trkpt lat="46.12833" lon="6.57542">
        <ele>2001.374</ele>
        <time>2024-05-04T10:24:05Z</time>
      </trkpt>
      <trkpt lat="46.12833" lon="6.57542">
        <ele>2001.37</ele>
        <time>2024-05-04T10:24:10Z</time>
      </trkpt>
      <trkpt lat="46.12833" lon="6.57542">
        <ele>2001.366</ele>
        <time>2024-05-04T10:24:15Z</time>
      </trkpt>
      <trkpt lat="46.12833" lon="6.57542">
        <ele>2001.361</ele>
        <time>2024-05-04T10:24:20Z</time>
      </trkpt>
      <trkpt lat="46.12833" lon="6.57542">
        <ele>2001.359</ele>
        <time>2024-05-04T10:24:25Z</time>
      </trkpt>
      <trkpt lat="46.12833" lon="6.57542">
        <ele>2001.354</ele>
        <time>2024-05-04T10:24:30Z</time>
      </trkpt>
      <trkpt lat="46.12833" lon="6.57542">
        <ele>2001.349</ele>
        <time>2024-05-04T10:24:35Z</time>
      </trkpt>
      <trkpt lat="46.12833" lon="6.57542">
        <ele>2001.345</ele>
        <time>2024-05-04T10:24:40Z</time>
      </trkpt>
      <trkpt lat="46.12833" lon="6.57542">
        <ele>2001.342</ele>
        <time>2024-05-04T10:24:45Z</time>
      </trkpt>
      <trkpt lat="46.12833" lon="6.57542">
        <ele>2001.342</ele>
        <time>2024-05-04T10:24:50Z</time>
      </trkpt>
      <trkpt lat="46.12833" lon="6.57542">
        <ele>2001.344</ele>
        <time>2024-05-04T10:24:55Z</time>
      </trkpt>
      <trkpt lat="46.12833" lon="6.57542">
        <ele>2001.343</ele>
        <time>2024-05-04T10:25:00Z</time>
      </trkpt>
      <trkpt lat="46.12833" lon="6.57542">
        <ele>2001.34</ele>
        <time>2024-05-04T10:25:05Z</time>
      </trkpt>
      <trkpt lat="46.12833" lon="6.57542">
        <ele>2001.34</ele>
        <time>2024-05-04T10:25:10Z</time>
      </trkpt>
      <trkpt lat="46.12833" lon="6.57542">
        <ele>2001.34</ele>
        <time>2024-05-04T10:25:15Z</time>
      </trkpt>
      <trkpt lat="46.12833" lon="6.57542">
        <ele>2001.338</ele>
        <time>2024-05-04T10:25:20Z</time>
      </trkpt>
      <trkpt lat="46.12833" lon="6.57542">
        <ele>2001.337</ele>
        <time>2024-05-04T10:25:25Z</time>
      </trkpt>
      <trkpt lat="46.12833" lon="6.57542">
        <ele>2001.335</ele>
        <time>2024-05-04T10:25:30Z</time>
      </trkpt>
      <trkpt lat="46.12833" lon="6.57542">
        <ele>2001.334</ele>
        <time>2024-05-04T10:25:35Z</time>
      </trkpt>
      <trkpt lat="46.12833" lon="6.57542">
        <ele>2001.332</ele>
        <time>2024-05-04T10:25:40Z</time>
      </trkpt>
      <trkpt lat="46.12833" lon="6.57542">
        <ele>2001.331</ele>
        <time>2024-05-04T10:25:45Z</time>
      </trkpt>
      <trkpt lat="46.12833" lon="6.57542">
        <ele>2001.331</ele>
        <time>2024-05-04T10:25:50Z</time>
      </trkpt>
      <trkpt lat="46.12833" lon="6.57542">
        <ele>2001.329</ele>
        <time>2024-05-04T10:25:55Z</time>
      </trkpt>
      <trkpt lat="46.12833" lon="6.57542">
        <ele>2001.327</ele>
        <time>2024-05-04T10:26:00Z</time>
      </trkpt>
      <trkpt lat="46.12833" lon="6.57542">
        <ele>2001.325</ele>
        <time>2024-05-04T10:26:05Z</time>
      </trkpt>
      <trkpt lat="46.12833" lon="6.57542">
        <ele>2001.324</ele>
        <time>2024-05-04T10:26:10Z</time>
      </trkpt>
      <trkpt lat="46.12833" lon="6.57542">
        <ele>2001.324</ele>
        <time>2024-05-04T10:26:15Z</time>
      </trkpt>
      <trkpt lat="46.12833" lon="6.57542">
        <ele>2001.322</ele>
        <time>2024-05-04T10:26:20Z</time>
      </trkpt>
      <trkpt lat="46.12833" lon="6.57542">
        <ele>2001.321</ele>
        <time>2024-05-04T10:26:25Z</time>
      </trkpt>
      <trkpt lat="46.12833" lon="6.57542">
        <ele>2001.324</ele>
        <time>2024-05-04T10:26:30Z</time>
      </trkpt>
      <trkpt lat="46.12833" lon="6.57542">
        <ele>2001.321</ele>
        <time>2024-05-04T10:26:35Z</time>
      </trkpt>
      <trkpt lat="46.12833" lon="6.57542">
        <ele>2001.319</ele>
        <time>2024-05-04T10:26:40Z</time>
      </trkpt>
      <trkpt lat="46.12833" lon="6.57542">
        <ele>2001.318</ele>
        <time>2024-05-04T10:26:45Z</time>
      </trkpt>
      <trkpt lat="46.12833" lon="6.57542">
        <ele>2001.314</ele>
        <time>2024-05-04T10:26:50Z</time>
      </trkpt>
      <trkpt lat="46.12833" lon="6.57542">
        <ele>2001.312</ele>
        <time>2024-05-04T10:26:55Z</time>
      </trkpt>
      <trkpt lat="46.12833" lon="6.57542">
        <ele>2001.31</ele>
        <time>2024-05-04T10:27:00Z</time>
      </trkpt>
      <trkpt lat="46.12833" lon="6.57542">
        <ele>2001.308</ele>
        <time>2024-05-04T10:27:05Z</time>
      </trkpt>
      <trkpt lat="46.12833" lon="6.57542">
        <ele>2001.309</ele>
        <time>2024-05-04T10:27:10Z</time>
      </trkpt>
      <trkpt lat="46.12833" lon="6.57542">
        <ele>2001.308</ele>
        <time>2024-05-04T10:27:15Z</time>
      </trkpt>
      <trkpt lat="46.12833" lon="6.57542">
        <ele>2001.307</ele>
        <time>2024-05-04T10:27:20Z</time>
      </trkpt>
      <trkpt lat="46.12833" lon="6.57542">
        <ele>2001.305</ele>
        <time>2024-05-04T10:27:25Z</time>
      </trkpt>
      <trkpt lat="46.12833" lon="6.57542">
        <ele>2001.305</ele>
        <time>2024-05-04T10:27:30Z</time>
      </trkpt>
      <trkpt lat="46.12833" lon="6.57542">
        <ele>2001.303</ele>
        <time>2024-05-04T10:27:35Z</time>
      </trkpt>
      <trkpt lat="46.12833" lon="6.57542">
        <ele>2001.302</ele>
        <time>2024-05-04T10:27:40Z</time>
      </trkpt>
      <trkpt lat="46.12833" lon="6.57542">
        <ele>2001.299</ele>
        <time>2024-05-04T10:27:45Z</time>
      </trkpt>
      <trkpt lat="46.12833" lon="6.57542">
        <ele>2001.297</ele>
        <time>2024-05-04T10:27:50Z</time>
      </trkpt>
      <trkpt lat="46.12833" lon="6.57542">
        <ele>2001.297</ele>
        <time>2024-05-04T10:27:55Z</time>
      </trkpt>
      <trkpt lat="46.12833" lon="6.57542">
        <ele>2001.295</ele>
        <time>2024-05-04T10:28:00Z</time>
      </trkpt>
      <trkpt lat="46.12833" lon="6.57542">
        <ele>2001.295</ele>
        <time>2024-05-04T10:28:05Z</time>
      </trkpt>
      <trkpt lat="46.12833" lon="6.57542">
        <ele>2001.297</ele>
        <time>2024-05-04T10:28:10Z</time>
      </trkpt>
      <trkpt lat="46.12833" lon="6.57542">
        <ele>2001.296</ele>
        <time>2024-05-04T10:28:15Z</time>
      </trkpt>
      <trkpt lat="46.12833" lon="6.57542">
        <ele>2001.297</ele>
        <time>2024-05-04T10:28:20Z</time>
      </trkpt>
      <trkpt lat="46.12833" lon="6.57542">
        <ele>2001.298</ele>
        <time>2024-05-04T10:28:25Z</time>
      </trkpt>
      <trkpt lat="46.12833" lon="6.57542">
        <ele>2001.746</ele>
        <time>2024-05-04T10:28:30Z</time>
      </trkpt>
      <trkpt lat="46.12833" lon="6.57542">
        <ele>2001.144</ele>
        <time>2024-05-04T10:28:35Z</time>
      </trkpt>
      <trkpt lat="46.12833" lon="6.57542">
        <ele>2001.138</ele>
        <time>2024-05-04T10:28:40Z</time>
      </trkpt>
      <trkpt lat="46.12833" lon="6.57542">
        <ele>2001.304</ele>
        <time>2024-05-04T10:28:45Z</time>
      </trkpt>
      <trkpt lat="46.12833" lon="6.57542">
        <ele>2001.3</ele>
        <time>2024-05-04T10:28:50Z</time>
      </trkpt>
      <trkpt lat="46.12833" lon="6.57542">
        <ele>2001.299</ele>
        <time>2024-05-04T10:28:55Z</time>
      </trkpt>
      <trkpt lat="46.12833" lon="6.57542">
        <ele>2001.293</ele>
        <time>2024-05-04T10:29:00Z</time>
      </trkpt>
      <trkpt lat="46.12833" lon="6.57542">
        <ele>2001.291</ele>
        <time>2024-05-04T10:29:05Z</time>
      </trkpt>
      <trkpt lat="46.12833" lon="6.57542">
        <ele>2001.289</ele>
        <time>2024-05-04T10:29:10Z</time>
      </trkpt>
      <trkpt lat="46.12833" lon="6.57542">
        <ele>2001.286</ele>
        <time>2024-05-04T10:29:15Z</time>
      </trkpt>
      <trkpt lat="46.12833" lon="6.57542">
        <ele>2001.483</ele>
        <time>2024-05-04T10:29:20Z</time>
      </trkpt>
      <trkpt lat="46.12833" lon="6.57542">
        <ele>2001.614</ele>
        <time>2024-05-04T10:29:25Z</time>
      </trkpt>
      <trkpt lat="46.12833" lon="6.57542">
        <ele>2002.013</ele>
        <time>2024-05-04T10:29:30Z</time>
      </trkpt>
      <trkpt lat="46.12833" lon="6.57542">
        <ele>2002.017</ele>
        <time>2024-05-04T10:29:35Z</time>
      </trkpt>
      <trkpt lat="46.12833" lon="6.57542">
        <ele>2002.025</ele>
        <time>2024-05-04T10:29:40Z</time>
      </trkpt>
      <trkpt lat="46.12833" lon="6.57542">
        <ele>2001.998</ele>
        <time>2024-05-04T10:29:45Z</time>
      </trkpt>
      <trkpt lat="46.12833" lon="6.57542">
        <ele>2002.205</ele>
        <time>2024-05-04T10:29:50Z</time>
      </trkpt>
      <trkpt lat="46.12833" lon="6.57542">
        <ele>2002.215</ele>
        <time>2024-05-04T10:29:55Z</time>
      </trkpt>
      <trkpt lat="46.12833" lon="6.57542">
        <ele>2002.221</ele>
        <time>2024-05-04T10:30:00Z</time>
      </trkpt>
      <trkpt lat="46.12833" lon="6.57542">
        <ele>2002.224</ele>
        <time>2024-05-04T10:30:05Z</time>
      </trkpt>
      <trkpt lat="46.12833" lon="6.57542">
        <ele>2001.544</ele>
        <time>2024-05-04T10:30:10Z</time>
      </trkpt>
      <trkpt lat="46.12833" lon="6.57542">
        <ele>2001.046</ele>
        <time>2024-05-04T10:30:15Z</time>
      </trkpt>
      <trkpt lat="46.12833" lon="6.57542">
        <ele>2000.966</ele>
        <time>2024-05-04T10:30:20Z</time>
      </trkpt>
      <trkpt lat="46.12833" lon="6.57542">
        <ele>2001.052</ele>
        <time>2024-05-04T10:30:25Z</time>
      </trkpt>
      <trkpt lat="46.12833" lon="6.57542">
        <ele>2001.054</ele>
        <time>2024-05-04T10:30:30Z</time>
      </trkpt>
      <trkpt lat="46.12833" lon="6.57542">
        <ele>2001.058</ele>
        <time>2024-05-04T10:30:35Z</time>
      </trkpt>
      <trkpt lat="46.12833" lon="6.57542">
        <ele>2001.204</ele>
        <time>2024-05-04T10:30:40Z</time>
      </trkpt>
      <trkpt lat="46.12833" lon="6.57542">
        <ele>2001.205</ele>
        <time>2024-05-04T10:30:45Z</time>
      </trkpt>
      <trkpt lat="46.12833" lon="6.57542">
        <ele>2001.207</ele>
        <time>2024-05-04T10:30:50Z</time>
      </trkpt>
      <trkpt lat="46.12833" lon="6.57542">
        <ele>2001.209</ele>
        <time>2024-05-04T10:30:55Z</time>
      </trkpt>
      <trkpt lat="46.12833" lon="6.57542">
        <ele>2001.309</ele>
        <time>2024-05-04T10:31:00Z</time>
      </trkpt>
      <trkpt lat="46.12833" lon="6.57542">
        <ele>2001.37</ele>
        <time>2024-05-04T10:31:05Z</time>
      </trkpt>
      <trkpt lat="46.12833" lon="6.57542">
        <ele>2001.377</ele>
        <time>2024-05-04T10:31:10Z</time>
      </trkpt>
      <trkpt lat="46.12833" lon="6.57542">
        <ele>2001.386</ele>
        <time>2024-05-04T10:31:15Z</time>
      </trkpt>
      <trkpt lat="46.12833" lon="6.57542">
        <ele>2001.392</ele>
        <time>2024-05-04T10:31:20Z</time>
      </trkpt>
      <trkpt lat="46.12833" lon="6.57542">
        <ele>2001.4</ele>
        <time>2024-05-04T10:31:25Z</time>
      </trkpt>
      <trkpt lat="46.12833" lon="6.57542">
        <ele>2001.406</ele>
        <time>2024-05-04T10:31:30Z</time>
      </trkpt>
      <trkpt lat="46.12833" lon="6.57542">
        <ele>2001.414</ele>
        <time>2024-05-04T10:31:35Z</time>
      </trkpt>
      <trkpt lat="46.12833" lon="6.57542">
        <ele>2001.417</ele>
        <time>2024-05-04T10:31:40Z</time>
      </trkpt>
      <trkpt lat="46.12833" lon="6.57542">
        <ele>2001.402</ele>
        <time>2024-05-04T10:31:45Z</time>
      </trkpt>
      <trkpt lat="46.12833" lon="6.57542">
        <ele>2001.398</ele>
        <time>2024-05-04T10:31:50Z</time>
      </trkpt>
      <trkpt lat="46.12833" lon="6.57542">
        <ele>2001.397</ele>
        <time>2024-05-04T10:31:55Z</time>
      </trkpt>
      <trkpt lat="46.12833" lon="6.57542">
        <ele>2001.4</ele>
        <time>2024-05-04T10:32:00Z</time>
      </trkpt>
      <trkpt lat="46.12833" lon="6.57542">
        <ele>2001.403</ele>
        <time>2024-05-04T10:32:05Z</time>
      </trkpt>
      <trkpt lat="46.12833" lon="6.57542">
        <ele>2001.403</ele>
        <time>2024-05-04T10:32:10Z</time>
      </trkpt>
      <trkpt lat="46.12833" lon="6.57542">
        <ele>2001.404</ele>
        <time>2024-05-04T10:32:15Z</time>
      </trkpt>
      <trkpt lat="46.12833" lon="6.57542">
        <ele>2001.528</ele>
        <time>2024-05-04T10:32:20Z</time>
      </trkpt>
      <trkpt lat="46.12833" lon="6.57542">
        <ele>2001.529</ele>
        <time>2024-05-04T10:32:25Z</time>
      </trkpt>
      <trkpt lat="46.12833" lon="6.57542">
        <ele>2001.528</ele>
        <time>2024-05-04T10:32:30Z</time>
      </trkpt>
      <trkpt lat="46.12833" lon="6.57542">
        <ele>2001.525</ele>
        <time>2024-05-04T10:32:35Z</time>
      </trkpt>
      <trkpt lat="46.12833" lon="6.57542">
        <ele>2001.526</ele>
        <time>2024-05-04T10:32:40Z</time>
      </trkpt>
      <trkpt lat="46.12833" lon="6.57542">
        <ele>2001.527</ele>
        <time>2024-05-04T10:32:45Z</time>
      </trkpt>
      <trkpt lat="46.12833" lon="6.57542">
        <ele>2001.525</ele>
        <time>2024-05-04T10:32:50Z</time>
      </trkpt>
      <trkpt lat="46.12833" lon="6.57542">
        <ele>2001.526</ele>
        <time>2024-05-04T10:32:55Z</time>
      </trkpt>
      <trkpt lat="46.12833" lon="6.57542">
        <ele>2001.528</ele>
        <time>2024-05-04T10:33:00Z</time>
      </trkpt>
      <trkpt lat="46.12833" lon="6.57542">
        <ele>2001.53</ele>
        <time>2024-05-04T10:33:05Z</time>
      </trkpt>
      <trkpt lat="46.12833" lon="6.57542">
        <ele>2001.53</ele>
        <time>2024-05-04T10:33:10Z</time>
      </trkpt>
      <trkpt lat="46.12833" lon="6.57542">
        <ele>2001.532</ele>
        <time>2024-05-04T10:33:15Z</time>
      </trkpt>
      <trkpt lat="46.12833" lon="6.57542">
        <ele>2001.393</ele>
        <time>2024-05-04T10:33:20Z</time>
      </trkpt>
      <trkpt lat="46.12833" lon="6.57542">
        <ele>2001.411</ele>
        <time>2024-05-04T10:33:25Z</time>
      </trkpt>
      <trkpt lat="46.12833" lon="6.57542">
        <ele>2001.427</ele>
        <time>2024-05-04T10:33:30Z</time>
      </trkpt>
      <trkpt lat="46.12833" lon="6.57542">
        <ele>2001.44</ele>
        <time>2024-05-04T10:33:35Z</time>
      </trkpt>
      <trkpt lat="46.12833" lon="6.57542">
        <ele>2001.453</ele>
        <time>2024-05-04T10:33:40Z</time>
      </trkpt>
      <trkpt lat="46.12833" lon="6.57542">
        <ele>2001.467</ele>
        <time>2024-05-04T10:33:45Z</time>
      </trkpt>
      <trkpt lat="46.12833" lon="6.57542">
        <ele>2001.477</ele>
        <time>2024-05-04T10:33:50Z</time>
      </trkpt>
      <trkpt lat="46.12833" lon="6.57542">
        <ele>2001.493</ele>
        <time>2024-05-04T10:33:55Z</time>
      </trkpt>
      <trkpt lat="46.12833" lon="6.57542">
        <ele>2001.506</ele>
        <time>2024-05-04T10:34:00Z</time>
      </trkpt>
      <trkpt lat="46.12833" lon="6.57542">
        <ele>2001.516</ele>
        <time>2024-05-04T10:34:05Z</time>
      </trkpt>
      <trkpt lat="46.12833" lon="6.57542">
        <ele>2001.099</ele>
        <time>2024-05-04T10:34:10Z</time>
      </trkpt>
      <trkpt lat="46.12833" lon="6.57542">
        <ele>2000.603</ele>
        <time>2024-05-04T10:34:15Z</time>
      </trkpt>
      <trkpt lat="46.12833" lon="6.57542">
        <ele>2000.678</ele>
        <time>2024-05-04T10:34:20Z</time>
      </trkpt>
      <trkpt lat="46.12833" lon="6.57542">
        <ele>2000.194</ele>
        <time>2024-05-04T10:34:25Z</time>
      </trkpt>
      <trkpt lat="46.12833" lon="6.57542">
        <ele>2000.375</ele>
        <time>2024-05-04T10:34:30Z</time>
      </trkpt>
      <trkpt lat="46.12833" lon="6.57542">
        <ele>2000.176</ele>
        <time>2024-05-04T10:34:35Z</time>
      </trkpt>
      <trkpt lat="46.12833" lon="6.57542">
        <ele>2000.191</ele>
        <time>2024-05-04T10:34:40Z</time>
      </trkpt>
      <trkpt lat="46.12833" lon="6.57542">
        <ele>2000.801</ele>
        <time>2024-05-04T10:34:45Z</time>
      </trkpt>
      <trkpt lat="46.12833" lon="6.57542">
        <ele>2000.296</ele>
        <time>2024-05-04T10:34:50Z</time>
      </trkpt>
      <trkpt lat="46.12833" lon="6.57542">
        <ele>2000.593</ele>
        <time>2024-05-04T10:34:55Z</time>
      </trkpt>
      <trkpt lat="46.12833" lon="6.57542">
        <ele>2000.752</ele>
        <time>2024-05-04T10:35:00Z</time>
      </trkpt>
      <trkpt lat="46.12833" lon="6.57542">
        <ele>2000.446</ele>
        <time>2024-05-04T10:35:05Z</time>
      </trkpt>
      <trkpt lat="46.12833" lon="6.57542">
        <ele>2001.218</ele>
        <time>2024-05-04T10:35:10Z</time>
      </trkpt>
      <trkpt lat="46.12833" lon="6.57542">
        <ele>2001.478</ele>
        <time>2024-05-04T10:35:15Z</time>
      </trkpt>
      <trkpt lat="46.12833" lon="6.57542">
        <ele>2001.889</ele>
        <time>2024-05-04T10:35:20Z</time>
      </trkpt>
      <trkpt lat="46.12833" lon="6.57542">
        <ele>2002.392</ele>
        <time>2024-05-04T10:35:25Z</time>
      </trkpt>
      <trkpt lat="46.12833" lon="6.57542">
        <ele>2002.44</ele>
        <time>2024-05-04T10:35:30Z</time>
      </trkpt>
      <trkpt lat="46.12833" lon="6.57542">
        <ele>2002.443</ele>
        <time>2024-05-04T10:35:35Z</time>
      </trkpt>
      <trkpt lat="46.12833" lon="6.57542">
        <ele>2002.471</ele>
        <time>2024-05-04T10:35:40Z</time>
      </trkpt>
      <trkpt lat="46.12833" lon="6.57542">
        <ele>2002.473</ele>
        <time>2024-05-04T10:35:45Z</time>
      </trkpt>
      <trkpt lat="46.12833" lon="6.57542">
        <ele>2002.472</ele>
        <time>2024-05-04T10:35:50Z</time>
      </trkpt>
      <trkpt lat="46.12833" lon="6.57542">
        <ele>2002.477</ele>
        <time>2024-05-04T10:35:55Z</time>
      </trkpt>
      <trkpt lat="46.12833" lon="6.57542">
        <ele>2002.476</ele>
        <time>2024-05-04T10:36:00Z</time>
      </trkpt>
      <trkpt lat="46.12833" lon="6.57542">
        <ele>2002.472</ele>
        <time>2024-05-04T10:36:05Z</time>
      </trkpt>
      <trkpt lat="46.12833" lon="6.57542">
        <ele>2002.471</ele>
        <time>2024-05-04T10:36:10Z</time>
      </trkpt>
      <trkpt lat="46.12833" lon="6.57542">
        <ele>2002.289</ele>
        <time>2024-05-04T10:36:15Z</time>
      </trkpt>
      <trkpt lat="46.12833" lon="6.57542">
        <ele>2002.296</ele>
        <time>2024-05-04T10:36:20Z</time>
      </trkpt>
      <trkpt lat="46.12833" lon="6.57542">
        <ele>2002.299</ele>
        <time>2024-05-04T10:36:25Z</time>
      </trkpt>
      <trkpt lat="46.12833" lon="6.57542">
        <ele>2002.3</ele>
        <time>2024-05-04T10:36:30Z</time>
      </trkpt>
      <trkpt lat="46.12833" lon="6.57542">
        <ele>2002.303</ele>
        <time>2024-05-04T10:36:35Z</time>
      </trkpt>
      <trkpt lat="46.12833" lon="6.57542">
        <ele>2002.301</ele>
        <time>2024-05-04T10:36:40Z</time>
      </trkpt>
      <trkpt lat="46.12833" lon="6.57542">
        <ele>2002.305</ele>
        <time>2024-05-04T10:36:45Z</time>
      </trkpt>
      <trkpt lat="46.12833" lon="6.57542">
        <ele>2002.307</ele>
        <time>2024-05-04T10:36:50Z</time>
      </trkpt>
      <trkpt lat="46.12833" lon="6.57542">
        <ele>2002.31</ele>
        <time>2024-05-04T10:36:55Z</time>
      </trkpt>
      <trkpt lat="46.12833" lon="6.57542">
        <ele>2002.313</ele>
        <time>2024-05-04T10:37:00Z</time>
      </trkpt>
      <trkpt lat="46.12833" lon="6.57542">
        <ele>2002.315</ele>
        <time>2024-05-04T10:37:05Z</time>
      </trkpt>
      <trkpt lat="46.12833" lon="6.57542">
        <ele>2002.313</ele>
        <time>2024-05-04T10:37:10Z</time>
      </trkpt>
      <trkpt lat="46.12833" lon="6.57542">
        <ele>2002.313</ele>
        <time>2024-05-04T10:37:15Z</time>
      </trkpt>
      <trkpt lat="46.12833" lon="6.57542">
        <ele>2002.316</ele>
        <time>2024-05-04T10:37:20Z</time>
      </trkpt>
      <trkpt lat="46.12833" lon="6.57542">
        <ele>2002.32</ele>
        <time>2024-05-04T10:37:25Z</time>
      </trkpt>
      <trkpt lat="46.12833" lon="6.57542">
        <ele>2002.321</ele>
        <time>2024-05-04T10:37:30Z</time>
      </trkpt>
      <trkpt lat="46.12833" lon="6.57542">
        <ele>2001.927</ele>
        <time>2024-05-04T10:37:35Z</time>
      </trkpt>
      <trkpt lat="46.12833" lon="6.57542">
        <ele>2001.976</ele>
        <time>2024-05-04T10:37:40Z</time>
      </trkpt>
      <trkpt lat="46.12833" lon="6.57542">
        <ele>2001.454</ele>
        <time>2024-05-04T10:37:45Z</time>
      </trkpt>
      <trkpt lat="46.12833" lon="6.57542">
        <ele>2001.018</ele>
        <time>2024-05-04T10:37:50Z</time>
      </trkpt>
      <trkpt lat="46.12833" lon="6.57542">
        <ele>2001.063</ele>
        <time>2024-05-04T10:37:55Z</time>
      </trkpt>
      <trkpt lat="46.12833" lon="6.57542">
        <ele>2001.047</ele>
        <time>2024-05-04T10:38:00Z</time>
      </trkpt>
      <trkpt lat="46.12833" lon="6.57542">
        <ele>2000.6</ele>
        <time>2024-05-04T10:38:05Z</time>
      </trkpt>
      <trkpt lat="46.12833" lon="6.57542">
        <ele>2000.501</ele>
        <time>2024-05-04T10:38:10Z</time>
      </trkpt>
      <trkpt lat="46.12833" lon="6.57542">
        <ele>2000.058</ele>
        <time>2024-05-04T10:38:15Z</time>
      </trkpt>
      <trkpt lat="46.12833" lon="6.57542">
        <ele>2000.057</ele>
        <time>2024-05-04T10:38:20Z</time>
      </trkpt>
      <trkpt lat="46.12833" lon="6.57542">
        <ele>2000.06</ele>
        <time>2024-05-04T10:38:25Z</time>
      </trkpt>
      <trkpt lat="46.12833" lon="6.57542">
        <ele>2000.065</ele>
        <time>2024-05-04T10:38:30Z</time>
      </trkpt>
      <trkpt lat="46.12833" lon="6.57542">
        <ele>2000.071</ele>
        <time>2024-05-04T10:38:35Z</time>
      </trkpt>
      <trkpt lat="46.12833" lon="6.57542">
        <ele>2000.137</ele>
        <time>2024-05-04T10:38:40Z</time>
      </trkpt>
      <trkpt lat="46.12833" lon="6.57542">
        <ele>2000.201</ele>
        <time>2024-05-04T10:38:45Z</time>
      </trkpt>
      <trkpt lat="46.12833" lon="6.57542">
        <ele>2000.205</ele>
        <time>2024-05-04T10:38:50Z</time>
      </trkpt>
      <trkpt lat="46.12833" lon="6.57542">
        <ele>2000.207</ele>
        <time>2024-05-04T10:38:55Z</time>
      </trkpt>
      <trkpt lat="46.12833" lon="6.57542">
        <ele>2000.212</ele>
        <time>2024-05-04T10:39:00Z</time>
      </trkpt>
      <trkpt lat="46.12833" lon="6.57542">
        <ele>2000.216</ele>
        <time>2024-05-04T10:39:05Z</time>
      </trkpt>
      <trkpt lat="46.12833" lon="6.57542">
        <ele>2001.239</ele>
        <time>2024-05-04T10:39:10Z</time>
      </trkpt>
      <trkpt lat="46.12833" lon="6.57542">
        <ele>2001.748</ele>
        <time>2024-05-04T10:39:15Z</time>
      </trkpt>
      <trkpt lat="46.12833" lon="6.57542">
        <ele>2001.681</ele>
        <time>2024-05-04T10:39:20Z</time>
      </trkpt>
      <trkpt lat="46.12833" lon="6.57542">
        <ele>2001.678</ele>
        <time>2024-05-04T10:39:25Z</time>
      </trkpt>
      <trkpt lat="46.12833" lon="6.57542">
        <ele>2001.946</ele>
        <time>2024-05-04T10:39:30Z</time>
      </trkpt>
      <trkpt lat="46.12833" lon="6.57542">
        <ele>2001.662</ele>
        <time>2024-05-04T10:39:35Z</time>
      </trkpt>
      <trkpt lat="46.12833" lon="6.57542">
        <ele>2001.659</ele>
        <time>2024-05-04T10:39:40Z</time>
      </trkpt>
      <trkpt lat="46.12833" lon="6.57542">
        <ele>2002.115</ele>
        <time>2024-05-04T10:39:45Z</time>
      </trkpt>
      <trkpt lat="46.12833" lon="6.57542">
        <ele>2002.153</ele>
        <time>2024-05-04T10:39:50Z</time>
      </trkpt>
      <trkpt lat="46.12833" lon="6.57542">
        <ele>2002.151</ele>
        <time>2024-05-04T10:39:55Z</time>
      </trkpt>
      <trkpt lat="46.12833" lon="6.57542">
        <ele>2001.521</ele>
        <time>2024-05-04T10:40:00Z</time>
      </trkpt>
      <trkpt lat="46.12833" lon="6.57542">
        <ele>2001.49</ele>
        <time>2024-05-04T10:40:05Z</time>
      </trkpt>
      <trkpt lat="46.12833" lon="6.57542">
        <ele>2001.509</ele>
        <time>2024-05-04T10:40:10Z</time>
      </trkpt>
      <trkpt lat="46.12833" lon="6.57542">
        <ele>2001.975</ele>
        <time>2024-05-04T10:40:15Z</time>
      </trkpt>
      <trkpt lat="46.12833" lon="6.57542">
        <ele>2002.14</ele>
        <time>2024-05-04T10:40:20Z</time>
      </trkpt>
      <trkpt lat="46.12833" lon="6.57542">
        <ele>2002.273</ele>
        <time>2024-05-04T10:40:25Z</time>
      </trkpt>
      <trkpt lat="46.12833" lon="6.57542">
        <ele>2002.274</ele>
        <time>2024-05-04T10:40:30Z</time>
      </trkpt>
      <trkpt lat="46.12833" lon="6.57542">
        <ele>2002.285</ele>
        <time>2024-05-04T10:40:35Z</time>
      </trkpt>
      <trkpt lat="46.12833" lon="6.57542">
        <ele>2002.53</ele>
        <time>2024-05-04T10:40:40Z</time>
      </trkpt>
      <trkpt lat="46.12833" lon="6.57542">
        <ele>2002.532</ele>
        <time>2024-05-04T10:40:45Z</time>
      </trkpt>
      <trkpt lat="46.12833" lon="6.57542">
        <ele>2002.533</ele>
        <time>2024-05-04T10:40:50Z</time>
      </trkpt>
      <trkpt lat="46.12833" lon="6.57542">
        <ele>2002.534</ele>
        <time>2024-05-04T10:40:55Z</time>
      </trkpt>
      <trkpt lat="46.12833" lon="6.57542">
        <ele>2002.535</ele>
        <time>2024-05-04T10:41:00Z</time>
      </trkpt>
      <trkpt lat="46.12833" lon="6.57542">
        <ele>2002.537</ele>
        <time>2024-05-04T10:41:05Z</time>
      </trkpt>
      <trkpt lat="46.12833" lon="6.57542">
        <ele>2002.535</ele>
        <time>2024-05-04T10:41:10Z</time>
      </trkpt>
      <trkpt lat="46.12833" lon="6.57542">
        <ele>2002.535</ele>
        <time>2024-05-04T10:41:15Z</time>
      </trkpt>
      <trkpt lat="46.12833" lon="6.57542">
        <ele>2002.528</ele>
        <time>2024-05-04T10:41:20Z</time>
      </trkpt>
      <trkpt lat="46.12833" lon="6.57542">
        <ele>2002.539</ele>
        <time>2024-05-04T10:41:25Z</time>
      </trkpt>
      <trkpt lat="46.12833" lon="6.57542">
        <ele>2002.365</ele>
        <time>2024-05-04T10:41:30Z</time>
      </trkpt>
      <trkpt lat="46.12833" lon="6.57542">
        <ele>2002.391</ele>
        <time>2024-05-04T10:41:35Z</time>
      </trkpt>
      <trkpt lat="46.12833" lon="6.57542">
        <ele>2002.396</ele>
        <time>2024-05-04T10:41:40Z</time>
      </trkpt>
      <trkpt lat="46.12833" lon="6.57542">
        <ele>2002.399</ele>
        <time>2024-05-04T10:41:45Z</time>
      </trkpt>
      <trkpt lat="46.12833" lon="6.57542">
        <ele>2002.4</ele>
        <time>2024-05-04T10:41:50Z</time>
      </trkpt>
      <trkpt lat="46.12833" lon="6.57542">
        <ele>2002.157</ele>
        <time>2024-05-04T10:41:55Z</time>
      </trkpt>
      <trkpt lat="46.12833" lon="6.57544">
        <ele>2001.773</ele>
        <time>2024-05-04T10:42:00Z</time>
      </trkpt>
      <trkpt lat="46.12832" lon="6.57546">
        <ele>2001.938</ele>
        <time>2024-05-04T10:42:05Z</time>
      </trkpt>
      <trkpt lat="46.12831" lon="6.57549">
        <ele>2001.413</ele>
        <time>2024-05-04T10:42:10Z</time>
      </trkpt>
      <trkpt lat="46.12832" lon="6.57553">
        <ele>2000.413</ele>
        <time>2024-05-04T10:42:15Z</time>
      </trkpt>
      <trkpt lat="46.12831" lon="6.57555">
        <ele>1999.502</ele>
        <time>2024-05-04T10:42:20Z</time>
      </trkpt>
      <trkpt lat="46.12831" lon="6.57559">
        <ele>1998.592</ele>
        <time>2024-05-04T10:42:25Z</time>
      </trkpt>
      <trkpt lat="46.12831" lon="6.57562">
        <ele>1997.32</ele>
        <time>2024-05-04T10:42:30Z</time>
      </trkpt>
      <trkpt lat="46.12832" lon="6.57565">
        <ele>1996.372</ele>
        <time>2024-05-04T10:42:35Z</time>
      </trkpt>
      <trkpt lat="46.12832" lon="6.57567">
        <ele>1995.45</ele>
        <time>2024-05-04T10:42:40Z</time>
      </trkpt>
      <trkpt lat="46.12833" lon="6.57571">
        <ele>1993.929</ele>
        <time>2024-05-04T10:42:45Z</time>
      </trkpt>
      <trkpt lat="46.12833" lon="6.57571">
        <ele>1993.764</ele>
        <time>2024-05-04T10:42:50Z</time>
      </trkpt>
      <trkpt lat="46.12833" lon="6.57571">
        <ele>1993.767</ele>
        <time>2024-05-04T10:42:55Z</time>
      </trkpt>
      <trkpt lat="46.12834" lon="6.57572">
        <ele>1992.78</ele>
        <time>2024-05-04T10:43:00Z</time>
      </trkpt>
      <trkpt lat="46.12835" lon="6.57574">
        <ele>1991.817</ele>
        <time>2024-05-04T10:43:05Z</time>
      </trkpt>
      <trkpt lat="46.12835" lon="6.57576">
        <ele>1991.85</ele>
        <time>2024-05-04T10:43:10Z</time>
      </trkpt>
      <trkpt lat="46.12835" lon="6.57576">
        <ele>1992.006</ele>
        <time>2024-05-04T10:43:15Z</time>
      </trkpt>
      <trkpt lat="46.12835" lon="6.57576">
        <ele>1990.776</ele>
        <time>2024-05-04T10:43:20Z</time>
      </trkpt>
      <trkpt lat="46.12835" lon="6.57576">
        <ele>1990.86</ele>
        <time>2024-05-04T10:43:25Z</time>
      </trkpt>
      <trkpt lat="46.12835" lon="6.57576">
        <ele>1990.245</ele>
        <time>2024-05-04T10:43:30Z</time>
      </trkpt>
      <trkpt lat="46.12835" lon="6.57576">
        <ele>1989.648</ele>
        <time>2024-05-04T10:43:35Z</time>
      </trkpt>
      <trkpt lat="46.12835" lon="6.57576">
        <ele>1989.416</ele>
        <time>2024-05-04T10:43:40Z</time>
      </trkpt>
      <trkpt lat="46.12835" lon="6.57576">
        <ele>1989.417</ele>
        <time>2024-05-04T10:43:45Z</time>
      </trkpt>
      <trkpt lat="46.12835" lon="6.57576">
        <ele>1989.415</ele>
        <time>2024-05-04T10:43:50Z</time>
      </trkpt>
      <trkpt lat="46.12835" lon="6.57576">
        <ele>1989.418</ele>
        <time>2024-05-04T10:43:55Z</time>
      </trkpt>
      <trkpt lat="46.12835" lon="6.57576">
        <ele>1989.421</ele>
        <time>2024-05-04T10:44:00Z</time>
      </trkpt>
      <trkpt lat="46.12835" lon="6.57576">
        <ele>1989.444</ele>
        <time>2024-05-04T10:44:05Z</time>
      </trkpt>
      <trkpt lat="46.12835" lon="6.57576">
        <ele>1989.513</ele>
        <time>2024-05-04T10:44:10Z</time>
      </trkpt>
      <trkpt lat="46.12835" lon="6.57576">
        <ele>1990.086</ele>
        <time>2024-05-04T10:44:15Z</time>
      </trkpt>
      <trkpt lat="46.12835" lon="6.57576">
        <ele>1989.41</ele>
        <time>2024-05-04T10:44:20Z</time>
      </trkpt>
      <trkpt lat="46.12835" lon="6.57576">
        <ele>1988.837</ele>
        <time>2024-05-04T10:44:25Z</time>
      </trkpt>
      <trkpt lat="46.12835" lon="6.57576">
        <ele>1988.706</ele>
        <time>2024-05-04T10:44:30Z</time>
      </trkpt>
      <trkpt lat="46.12835" lon="6.57576">
        <ele>1988.324</ele>
        <time>2024-05-04T10:44:35Z</time>
      </trkpt>
      <trkpt lat="46.12835" lon="6.57576">
        <ele>1988.323</ele>
        <time>2024-05-04T10:44:40Z</time>
      </trkpt>
      <trkpt lat="46.12835" lon="6.57576">
        <ele>1988.326</ele>
        <time>2024-05-04T10:44:45Z</time>
      </trkpt>
      <trkpt lat="46.12835" lon="6.57576">
        <ele>1988.547</ele>
        <time>2024-05-04T10:44:50Z</time>
      </trkpt>
      <trkpt lat="46.12835" lon="6.57576">
        <ele>1988.688</ele>
        <time>2024-05-04T10:44:55Z</time>
      </trkpt>
      <trkpt lat="46.12835" lon="6.57576">
        <ele>1988.029</ele>
        <time>2024-05-04T10:45:00Z</time>
      </trkpt>
      <trkpt lat="46.12835" lon="6.57576">
        <ele>1987.212</ele>
        <time>2024-05-04T10:45:05Z</time>
      </trkpt>
      <trkpt lat="46.12835" lon="6.57576">
        <ele>1987.947</ele>
        <time>2024-05-04T10:45:10Z</time>
      </trkpt>
      <trkpt lat="46.12835" lon="6.57576">
        <ele>1986.956</ele>
        <time>2024-05-04T10:45:15Z</time>
      </trkpt>
      <trkpt lat="46.12835" lon="6.57576">
        <ele>1985.909</ele>
        <time>2024-05-04T10:45:20Z</time>
      </trkpt>
      <trkpt lat="46.12835" lon="6.57576">
        <ele>1984.693</ele>
        <time>2024-05-04T10:45:25Z</time>
      </trkpt>
      <trkpt lat="46.12835" lon="6.57576">
        <ele>1983.893</ele>
        <time>2024-05-04T10:45:30Z</time>
      </trkpt>
      <trkpt lat="46.12835" lon="6.57576">
        <ele>1983.376</ele>
        <time>2024-05-04T10:45:35Z</time>
      </trkpt>
      <trkpt lat="46.12839" lon="6.5759">
        <ele>1982.961</ele>
        <time>2024-05-04T10:45:40Z</time>
      </trkpt>
      <trkpt lat="46.12839" lon="6.5759">
        <ele>1982.502</ele>
        <time>2024-05-04T10:45:45Z</time>
      </trkpt>
      <trkpt lat="46.12839" lon="6.5759">
        <ele>1982.225</ele>
        <time>2024-05-04T10:45:50Z</time>
      </trkpt>
      <trkpt lat="46.12839" lon="6.57591">
        <ele>1981.445</ele>
        <time>2024-05-04T10:45:55Z</time>
      </trkpt>
      <trkpt lat="46.1284" lon="6.57592">
        <ele>1981.485</ele>
        <time>2024-05-04T10:46:00Z</time>
      </trkpt>
      <trkpt lat="46.1284" lon="6.57592">
        <ele>1981.138</ele>
        <time>2024-05-04T10:46:05Z</time>
      </trkpt>
      <trkpt lat="46.12841" lon="6.57593">
        <ele>1980.092</ele>
        <time>2024-05-04T10:46:10Z</time>
      </trkpt>
      <trkpt lat="46.12841" lon="6.57593">
        <ele>1979.835</ele>
        <time>2024-05-04T10:46:15Z</time>
      </trkpt>
      <trkpt lat="46.12841" lon="6.57594">
        <ele>1979.454</ele>
        <time>2024-05-04T10:46:20Z</time>
      </trkpt>
      <trkpt lat="46.12841" lon="6.57594">
        <ele>1979.492</ele>
        <time>2024-05-04T10:46:25Z</time>
      </trkpt>
      <trkpt lat="46.12841" lon="6.57596">
        <ele>1979.266</ele>
        <time>2024-05-04T10:46:30Z</time>
      </trkpt>
      <trkpt lat="46.12841" lon="6.57596">
        <ele>1978.885</ele>
        <time>2024-05-04T10:46:35Z</time>
      </trkpt>
      <trkpt lat="46.12841" lon="6.57596">
        <ele>1979.061</ele>
        <time>2024-05-04T10:46:40Z</time>
      </trkpt>
      <trkpt lat="46.12841" lon="6.57596">
        <ele>1978.63</ele>
        <time>2024-05-04T10:46:45Z</time>
      </trkpt>
      <trkpt lat="46.12841" lon="6.57596">
        <ele>1978.306</ele>
        <time>2024-05-04T10:46:50Z</time>
      </trkpt>
      <trkpt lat="46.12841" lon="6.57596">
        <ele>1978.295</ele>
        <time>2024-05-04T10:46:55Z</time>
      </trkpt>
      <trkpt lat="46.12841" lon="6.57596">
        <ele>1977.699</ele>
        <time>2024-05-04T10:47:00Z</time>
      </trkpt>
      <trkpt lat="46.12841" lon="6.57596">
        <ele>1976.801</ele>
        <time>2024-05-04T10:47:05Z</time>
      </trkpt>
      <trkpt lat="46.12841" lon="6.57596">
        <ele>1976.648</ele>
        <time>2024-05-04T10:47:10Z</time>
      </trkpt>
      <trkpt lat="46.12841" lon="6.57596">
        <ele>1976.523</ele>
        <time>2024-05-04T10:47:15Z</time>
      </trkpt>
      <trkpt lat="46.12841" lon="6.57596">
        <ele>1975.694</ele>
        <time>2024-05-04T10:47:20Z</time>
      </trkpt>
      <trkpt lat="46.12841" lon="6.57596">
        <ele>1974.959</ele>
        <time>2024-05-04T10:47:25Z</time>
      </trkpt>
      <trkpt lat="46.12841" lon="6.57596">
        <ele>1974.591</ele>
        <time>2024-05-04T10:47:30Z</time>
      </trkpt>
      <trkpt lat="46.12841" lon="6.57596">
        <ele>1974.41</ele>
        <time>2024-05-04T10:47:35Z</time>
      </trkpt>
      <trkpt lat="46.12841" lon="6.57596">
        <ele>1973.384</ele>
        <time>2024-05-04T10:47:40Z</time>
      </trkpt>
      <trkpt lat="46.12841" lon="6.57596">
        <ele>1973.39</ele>
        <time>2024-05-04T10:47:45Z</time>
      </trkpt>
      <trkpt lat="46.12841" lon="6.57596">
        <ele>1973.506</ele>
        <time>2024-05-04T10:47:50Z</time>
      </trkpt>
      <trkpt lat="46.12841" lon="6.57596">
        <ele>1973.58</ele>
        <time>2024-05-04T10:47:55Z</time>
      </trkpt>
      <trkpt lat="46.12841" lon="6.57596">
        <ele>1973.404</ele>
        <time>2024-05-04T10:48:00Z</time>
      </trkpt>
      <trkpt lat="46.12841" lon="6.57596">
        <ele>1973.437</ele>
        <time>2024-05-04T10:48:05Z</time>
      </trkpt>
      <trkpt lat="46.12841" lon="6.57596">
        <ele>1973.378</ele>
        <time>2024-05-04T10:48:10Z</time>
      </trkpt>
      <trkpt lat="46.12841" lon="6.57596">
        <ele>1972.884</ele>
        <time>2024-05-04T10:48:15Z</time>
      </trkpt>
      <trkpt lat="46.12841" lon="6.57596">
        <ele>1972.356</ele>
        <time>2024-05-04T10:48:20Z</time>
      </trkpt>
      <trkpt lat="46.12841" lon="6.57596">
        <ele>1972.536</ele>
        <time>2024-05-04T10:48:25Z</time>
      </trkpt>
      <trkpt lat="46.12841" lon="6.57596">
        <ele>1971.863</ele>
        <time>2024-05-04T10:48:30Z</time>
      </trkpt>
      <trkpt lat="46.12841" lon="6.57596">
        <ele>1971.093</ele>
        <time>2024-05-04T10:48:35Z</time>
      </trkpt>
      <trkpt lat="46.12846" lon="6.57607">
        <ele>1969.6</ele>
        <time>2024-05-04T10:48:40Z</time>
      </trkpt>
      <trkpt lat="46.12845" lon="6.57607">
        <ele>1969.353</ele>
        <time>2024-05-04T10:48:45Z</time>
      </trkpt>
      <trkpt lat="46.12846" lon="6.57609">
        <ele>1969.043</ele>
        <time>2024-05-04T10:48:50Z</time>
      </trkpt>
      <trkpt lat="46.12846" lon="6.57609">
        <ele>1968.907</ele>
        <time>2024-05-04T10:48:55Z</time>
      </trkpt>
      <trkpt lat="46.12847" lon="6.57609">
        <ele>1968.106</ele>
        <time>2024-05-04T10:49:00Z</time>
      </trkpt>
      <trkpt lat="46.12847" lon="6.57611">
        <ele>1967.127</ele>
        <time>2024-05-04T10:49:05Z</time>
      </trkpt>
      <trkpt lat="46.12846" lon="6.57612">
        <ele>1966.267</ele>
        <time>2024-05-04T10:49:10Z</time>
      </trkpt>
      <trkpt lat="46.12846" lon="6.57613">
        <ele>1966.041</ele>
        <time>2024-05-04T10:49:15Z</time>
      </trkpt>
      <trkpt lat="46.12846" lon="6.57615">
        <ele>1964.65</ele>
        <time>2024-05-04T10:49:20Z</time>
      </trkpt>
      <trkpt lat="46.12847" lon="6.57616">
        <ele>1964.513</ele>
        <time>2024-05-04T10:49:25Z</time>
      </trkpt>
      <trkpt lat="46.12847" lon="6.57618">
        <ele>1964.445</ele>
        <time>2024-05-04T10:49:30Z</time>
      </trkpt>
      <trkpt lat="46.12847" lon="6.57619">
        <ele>1963.443</ele>
        <time>2024-05-04T10:49:35Z</time>
      </trkpt>
      <trkpt lat="46.12848" lon="6.57621">
        <ele>1963.073</ele>
        <time>2024-05-04T10:49:40Z</time>
      </trkpt>
      <trkpt lat="46.12848" lon="6.57622">
        <ele>1962.148</ele>
        <time>2024-05-04T10:49:45Z</time>
      </trkpt>
      <trkpt lat="46.12848" lon="6.57623">
        <ele>1961.932</ele>
        <time>2024-05-04T10:49:50Z</time>
      </trkpt>
      <trkpt lat="46.12848" lon="6.57623">
        <ele>1961.641</ele>
        <time>2024-05-04T10:49:55Z</time>
      </trkpt>
      <trkpt lat="46.12848" lon="6.57624">
        <ele>1961.3</ele>
        <time>2024-05-04T10:50:00Z</time>
      </trkpt>
      <trkpt lat="46.12848" lon="6.57624">
        <ele>1961.359</ele>
        <time>2024-05-04T10:50:05Z</time>
      </trkpt>
      <trkpt lat="46.12848" lon="6.57625">
        <ele>1960.556</ele>
        <time>2024-05-04T10:50:10Z</time>
      </trkpt>
      <trkpt lat="46.12848" lon="6.57627">
        <ele>1960.992</ele>
        <time>2024-05-04T10:50:15Z</time>
      </trkpt>
      <trkpt lat="46.12849" lon="6.57628">
        <ele>1960.229</ele>
        <time>2024-05-04T10:50:20Z</time>
      </trkpt>
      <trkpt lat="46.12849" lon="6.57628">
        <ele>1959.896</ele>
        <time>2024-05-04T10:50:25Z</time>
      </trkpt>
      <trkpt lat="46.12849" lon="6.57628">
        <ele>1959.908</ele>
        <time>2024-05-04T10:50:30Z</time>
      </trkpt>
      <trkpt lat="46.12849" lon="6.57628">
        <ele>1959.913</ele>
        <time>2024-05-04T10:50:35Z</time>
      </trkpt>
      <trkpt lat="46.12849" lon="6.57628">
        <ele>1959.934</ele>
        <time>2024-05-04T10:50:40Z</time>
      </trkpt>
      <trkpt lat="46.12849" lon="6.57628">
        <ele>1959.853</ele>
        <time>2024-05-04T10:50:45Z</time>
      </trkpt>
      <trkpt lat="46.12849" lon="6.57628">
        <ele>1959.363</ele>
        <time>2024-05-04T10:50:50Z</time>
      </trkpt>
      <trkpt lat="46.12849" lon="6.57628">
        <ele>1959.388</ele>
        <time>2024-05-04T10:50:55Z</time>
      </trkpt>
      <trkpt lat="46.12849" lon="6.57628">
        <ele>1959.572</ele>
        <time>2024-05-04T10:51:00Z</time>
      </trkpt>
      <trkpt lat="46.12849" lon="6.57628">
        <ele>1960.01</ele>
        <time>2024-05-04T10:51:05Z</time>
      </trkpt>
      <trkpt lat="46.12849" lon="6.57628">
        <ele>1959.913</ele>
        <time>2024-05-04T10:51:10Z</time>
      </trkpt>
      <trkpt lat="46.12849" lon="6.57628">
        <ele>1959.696</ele>
        <time>2024-05-04T10:51:15Z</time>
      </trkpt>
      <trkpt lat="46.12849" lon="6.57628">
        <ele>1959.078</ele>
        <time>2024-05-04T10:51:20Z</time>
      </trkpt>
      <trkpt lat="46.12849" lon="6.57628">
        <ele>1958.016</ele>
        <time>2024-05-04T10:51:25Z</time>
      </trkpt>
      <trkpt lat="46.12849" lon="6.57628">
        <ele>1957.11</ele>
        <time>2024-05-04T10:51:30Z</time>
      </trkpt>
      <trkpt lat="46.12849" lon="6.57628">
        <ele>1956.228</ele>
        <time>2024-05-04T10:51:35Z</time>
      </trkpt>
      <trkpt lat="46.12849" lon="6.57628">
        <ele>1954.637</ele>
        <time>2024-05-04T10:51:40Z</time>
      </trkpt>
      <trkpt lat="46.12849" lon="6.57628">
        <ele>1953.648</ele>
        <time>2024-05-04T10:51:45Z</time>
      </trkpt>
      <trkpt lat="46.12852" lon="6.5764">
        <ele>1953.656</ele>
        <time>2024-05-04T10:51:50Z</time>
      </trkpt>
      <trkpt lat="46.12853" lon="6.57642">
        <ele>1952.565</ele>
        <time>2024-05-04T10:51:55Z</time>
      </trkpt>
      <trkpt lat="46.12853" lon="6.57645">
        <ele>1952.116</ele>
        <time>2024-05-04T10:52:00Z</time>
      </trkpt>
      <trkpt lat="46.12854" lon="6.57647">
        <ele>1952.014</ele>
        <time>2024-05-04T10:52:05Z</time>
      </trkpt>
      <trkpt lat="46.12855" lon="6.57648">
        <ele>1951.041</ele>
        <time>2024-05-04T10:52:10Z</time>
      </trkpt>
      <trkpt lat="46.12855" lon="6.57649">
        <ele>1951.028</ele>
        <time>2024-05-04T10:52:15Z</time>
      </trkpt>
      <trkpt lat="46.12855" lon="6.5765">
        <ele>1950.898</ele>
        <time>2024-05-04T10:52:20Z</time>
      </trkpt>
      <trkpt lat="46.12856" lon="6.5765">
        <ele>1950.305</ele>
        <time>2024-05-04T10:52:25Z</time>
      </trkpt>
      <trkpt lat="46.12856" lon="6.57652">
        <ele>1949.216</ele>
        <time>2024-05-04T10:52:30Z</time>
      </trkpt>
      <trkpt lat="46.12857" lon="6.57652">
        <ele>1948.597</ele>
        <time>2024-05-04T10:52:35Z</time>
      </trkpt>
      <trkpt lat="46.12857" lon="6.57653">
        <ele>1947.841</ele>
        <time>2024-05-04T10:52:40Z</time>
      </trkpt>
      <trkpt lat="46.12857" lon="6.57654">
        <ele>1947.405</ele>
        <time>2024-05-04T10:52:45Z</time>
      </trkpt>
      <trkpt lat="46.12858" lon="6.57656">
        <ele>1946.225</ele>
        <time>2024-05-04T10:52:50Z</time>
      </trkpt>
      <trkpt lat="46.12858" lon="6.57656">
        <ele>1946.057</ele>
        <time>2024-05-04T10:52:55Z</time>
      </trkpt>
      <trkpt lat="46.12858" lon="6.57656">
        <ele>1946.032</ele>
        <time>2024-05-04T10:53:00Z</time>
      </trkpt>
      <trkpt lat="46.12858" lon="6.57656">
        <ele>1946.041</ele>
        <time>2024-05-04T10:53:05Z</time>
      </trkpt>
      <trkpt lat="46.12858" lon="6.57656">
        <ele>1946.153</ele>
        <time>2024-05-04T10:53:10Z</time>
      </trkpt>
      <trkpt lat="46.12858" lon="6.57656">
        <ele>1946.162</ele>
        <time>2024-05-04T10:53:15Z</time>
      </trkpt>
      <trkpt lat="46.12858" lon="6.57656">
        <ele>1946.452</ele>
        <time>2024-05-04T10:53:20Z</time>
      </trkpt>
      <trkpt lat="46.12858" lon="6.57656">
        <ele>1946.798</ele>
        <time>2024-05-04T10:53:25Z</time>
      </trkpt>
      <trkpt lat="46.12858" lon="6.57656">
        <ele>1946.728</ele>
        <time>2024-05-04T10:53:30Z</time>
      </trkpt>
      <trkpt lat="46.12858" lon="6.57656">
        <ele>1946.649</ele>
        <time>2024-05-04T10:53:35Z</time>
      </trkpt>
      <trkpt lat="46.12858" lon="6.57656">
        <ele>1946.757</ele>
        <time>2024-05-04T10:53:40Z</time>
      </trkpt>
      <trkpt lat="46.12858" lon="6.57656">
        <ele>1946.557</ele>
        <time>2024-05-04T10:53:45Z</time>
      </trkpt>
      <trkpt lat="46.12858" lon="6.57656">
        <ele>1946.563</ele>
        <time>2024-05-04T10:53:50Z</time>
      </trkpt>
      <trkpt lat="46.12858" lon="6.57656">
        <ele>1946.528</ele>
        <time>2024-05-04T10:53:55Z</time>
      </trkpt>
      <trkpt lat="46.12858" lon="6.57656">
        <ele>1946.502</ele>
        <time>2024-05-04T10:54:00Z</time>
      </trkpt>
      <trkpt lat="46.12858" lon="6.57656">
        <ele>1946.516</ele>
        <time>2024-05-04T10:54:05Z</time>
      </trkpt>
      <trkpt lat="46.12858" lon="6.57656">
        <ele>1946.533</ele>
        <time>2024-05-04T10:54:10Z</time>
      </trkpt>
      <trkpt lat="46.12858" lon="6.57656">
        <ele>1946.537</ele>
        <time>2024-05-04T10:54:15Z</time>
      </trkpt>
      <trkpt lat="46.12858" lon="6.57656">
        <ele>1946.554</ele>
        <time>2024-05-04T10:54:20Z</time>
      </trkpt>
      <trkpt lat="46.12858" lon="6.57656">
        <ele>1946.566</ele>
        <time>2024-05-04T10:54:25Z</time>
      </trkpt>
      <trkpt lat="46.12858" lon="6.57656">
        <ele>1946.583</ele>
        <time>2024-05-04T10:54:30Z</time>
      </trkpt>
      <trkpt lat="46.12858" lon="6.57656">
        <ele>1946.601</ele>
        <time>2024-05-04T10:54:35Z</time>
      </trkpt>
      <trkpt lat="46.12858" lon="6.57656">
        <ele>1946.609</ele>
        <time>2024-05-04T10:54:40Z</time>
      </trkpt>
      <trkpt lat="46.12858" lon="6.57656">
        <ele>1946.635</ele>
        <time>2024-05-04T10:54:45Z</time>
      </trkpt>
      <trkpt lat="46.12858" lon="6.57656">
        <ele>1946.646</ele>
        <time>2024-05-04T10:54:50Z</time>
      </trkpt>
      <trkpt lat="46.12858" lon="6.57656">
        <ele>1946.662</ele>
        <time>2024-05-04T10:54:55Z</time>
      </trkpt>
      <trkpt lat="46.12858" lon="6.57656">
        <ele>1946.67</ele>
        <time>2024-05-04T10:55:00Z</time>
      </trkpt>
      <trkpt lat="46.12858" lon="6.57656">
        <ele>1946.686</ele>
        <time>2024-05-04T10:55:05Z</time>
      </trkpt>
      <trkpt lat="46.12858" lon="6.57656">
        <ele>1946.692</ele>
        <time>2024-05-04T10:55:10Z</time>
      </trkpt>
      <trkpt lat="46.12858" lon="6.57656">
        <ele>1946.7</ele>
        <time>2024-05-04T10:55:15Z</time>
      </trkpt>
      <trkpt lat="46.12858" lon="6.57656">
        <ele>1946.702</ele>
        <time>2024-05-04T10:55:20Z</time>
      </trkpt>
      <trkpt lat="46.12858" lon="6.57656">
        <ele>1946.709</ele>
        <time>2024-05-04T10:55:25Z</time>
      </trkpt>
      <trkpt lat="46.12858" lon="6.57656">
        <ele>1946.715</ele>
        <time>2024-05-04T10:55:30Z</time>
      </trkpt>
      <trkpt lat="46.12858" lon="6.57656">
        <ele>1946.714</ele>
        <time>2024-05-04T10:55:35Z</time>
      </trkpt>
      <trkpt lat="46.12858" lon="6.57656">
        <ele>1946.721</ele>
        <time>2024-05-04T10:55:40Z</time>
      </trkpt>
      <trkpt lat="46.12858" lon="6.57656">
        <ele>1946.726</ele>
        <time>2024-05-04T10:55:45Z</time>
      </trkpt>
      <trkpt lat="46.12858" lon="6.57656">
        <ele>1946.73</ele>
        <time>2024-05-04T10:55:50Z</time>
      </trkpt>
      <trkpt lat="46.12858" lon="6.57656">
        <ele>1946.735</ele>
        <time>2024-05-04T10:55:55Z</time>
      </trkpt>
      <trkpt lat="46.12858" lon="6.57656">
        <ele>1946.736</ele>
        <time>2024-05-04T10:56:00Z</time>
      </trkpt>
      <trkpt lat="46.12858" lon="6.57656">
        <ele>1946.748</ele>
        <time>2024-05-04T10:56:05Z</time>
      </trkpt>
      <trkpt lat="46.12858" lon="6.57656">
        <ele>1946.752</ele>
        <time>2024-05-04T10:56:10Z</time>
      </trkpt>
      <trkpt lat="46.12858" lon="6.57656">
        <ele>1946.758</ele>
        <time>2024-05-04T10:56:15Z</time>
      </trkpt>
      <trkpt lat="46.12858" lon="6.57656">
        <ele>1946.762</ele>
        <time>2024-05-04T10:56:20Z</time>
      </trkpt>
      <trkpt lat="46.12858" lon="6.57656">
        <ele>1946.762</ele>
        <time>2024-05-04T10:56:25Z</time>
      </trkpt>
      <trkpt lat="46.12858" lon="6.57656">
        <ele>1946.765</ele>
        <time>2024-05-04T10:56:30Z</time>
      </trkpt>
      <trkpt lat="46.12858" lon="6.57656">
        <ele>1946.768</ele>
        <time>2024-05-04T10:56:35Z</time>
      </trkpt>
      <trkpt lat="46.12858" lon="6.57656">
        <ele>1946.776</ele>
        <time>2024-05-04T10:56:40Z</time>
      </trkpt>
      <trkpt lat="46.12858" lon="6.57656">
        <ele>1946.786</ele>
        <time>2024-05-04T10:56:45Z</time>
      </trkpt>
      <trkpt lat="46.12858" lon="6.57656">
        <ele>1946.794</ele>
        <time>2024-05-04T10:56:50Z</time>
      </trkpt>
      <trkpt lat="46.12858" lon="6.57656">
        <ele>1946.814</ele>
        <time>2024-05-04T10:56:55Z</time>
      </trkpt>
      <trkpt lat="46.12858" lon="6.57656">
        <ele>1946.818</ele>
        <time>2024-05-04T10:57:00Z</time>
      </trkpt>
      <trkpt lat="46.12858" lon="6.57656">
        <ele>1946.819</ele>
        <time>2024-05-04T10:57:05Z</time>
      </trkpt>
      <trkpt lat="46.12858" lon="6.57656">
        <ele>1946.829</ele>
        <time>2024-05-04T10:57:10Z</time>
      </trkpt>
      <trkpt lat="46.12858" lon="6.57656">
        <ele>1946.747</ele>
        <time>2024-05-04T10:57:15Z</time>
      </trkpt>
      <trkpt lat="46.12858" lon="6.57656">
        <ele>1946.758</ele>
        <time>2024-05-04T10:57:20Z</time>
      </trkpt>
      <trkpt lat="46.12858" lon="6.57656">
        <ele>1946.764</ele>
        <time>2024-05-04T10:57:25Z</time>
      </trkpt>
      <trkpt lat="46.12858" lon="6.57656">
        <ele>1946.765</ele>
        <time>2024-05-04T10:57:30Z</time>
      </trkpt>
      <trkpt lat="46.12858" lon="6.57656">
        <ele>1947.146</ele>
        <time>2024-05-04T10:57:35Z</time>
      </trkpt>
      <trkpt lat="46.12858" lon="6.57656">
        <ele>1947.15</ele>
        <time>2024-05-04T10:57:40Z</time>
      </trkpt>
      <trkpt lat="46.12858" lon="6.57656">
        <ele>1947.329</ele>
        <time>2024-05-04T10:57:45Z</time>
      </trkpt>
      <trkpt lat="46.12858" lon="6.57656">
        <ele>1947.327</ele>
        <time>2024-05-04T10:57:50Z</time>
      </trkpt>
      <trkpt lat="46.12858" lon="6.57656">
        <ele>1947.005</ele>
        <time>2024-05-04T10:57:55Z</time>
      </trkpt>
      <trkpt lat="46.12858" lon="6.57656">
        <ele>1947.61</ele>
        <time>2024-05-04T10:58:00Z</time>
      </trkpt>
      <trkpt lat="46.12858" lon="6.57656">
        <ele>1947.349</ele>
        <time>2024-05-04T10:58:05Z</time>
      </trkpt>
      <trkpt lat="46.12858" lon="6.57656">
        <ele>1947.635</ele>
        <time>2024-05-04T10:58:10Z</time>
      </trkpt>
      <trkpt lat="46.12858" lon="6.57656">
        <ele>1947.741</ele>
        <time>2024-05-04T10:58:15Z</time>
      </trkpt>
      <trkpt lat="46.12858" lon="6.57656">
        <ele>1947.758</ele>
        <time>2024-05-04T10:58:20Z</time>
      </trkpt>
      <trkpt lat="46.12858" lon="6.57656">
        <ele>1947.759</ele>
        <time>2024-05-04T10:58:25Z</time>
      </trkpt>
      <trkpt lat="46.12858" lon="6.57656">
        <ele>1947.764</ele>
        <time>2024-05-04T10:58:30Z</time>
      </trkpt>
      <trkpt lat="46.12858" lon="6.57656">
        <ele>1947.767</ele>
        <time>2024-05-04T10:58:35Z</time>
      </trkpt>
      <trkpt lat="46.12858" lon="6.57656">
        <ele>1947.766</ele>
        <time>2024-05-04T10:58:40Z</time>
      </trkpt>
      <trkpt lat="46.12858" lon="6.57656">
        <ele>1947.766</ele>
        <time>2024-05-04T10:58:45Z</time>
      </trkpt>
      <trkpt lat="46.12858" lon="6.57656">
        <ele>1948.055</ele>
        <time>2024-05-04T10:58:50Z</time>
      </trkpt>
      <trkpt lat="46.12858" lon="6.57656">
        <ele>1948.041</ele>
        <time>2024-05-04T10:58:55Z</time>
      </trkpt>
      <trkpt lat="46.12858" lon="6.57656">
        <ele>1948.046</ele>
        <time>2024-05-04T10:59:00Z</time>
      </trkpt>
      <trkpt lat="46.12858" lon="6.57656">
        <ele>1948.045</ele>
        <time>2024-05-04T10:59:05Z</time>
      </trkpt>
      <trkpt lat="46.12858" lon="6.57656">
        <ele>1948.047</ele>
        <time>2024-05-04T10:59:10Z</time>
      </trkpt>
      <trkpt lat="46.12858" lon="6.57656">
        <ele>1948.045</ele>
        <time>2024-05-04T10:59:15Z</time>
      </trkpt>
      <trkpt lat="46.12858" lon="6.57656">
        <ele>1948.047</ele>
        <time>2024-05-04T10:59:20Z</time>
      </trkpt>
      <trkpt lat="46.12858" lon="6.57656">
        <ele>1948.048</ele>
        <time>2024-05-04T10:59:25Z</time>
      </trkpt>
      <trkpt lat="46.12858" lon="6.57656">
        <ele>1948.049</ele>
        <time>2024-05-04T10:59:30Z</time>
      </trkpt>
      <trkpt lat="46.12858" lon="6.57656">
        <ele>1948.057</ele>
        <time>2024-05-04T10:59:35Z</time>
      </trkpt>
      <trkpt lat="46.12858" lon="6.57656">
        <ele>1948.056</ele>
        <time>2024-05-04T10:59:40Z</time>
      </trkpt>
      <trkpt lat="46.12861" lon="6.57655">
        <ele>1947.788</ele>
        <time>2024-05-04T10:59:45Z</time>
      </trkpt>
      <trkpt lat="46.12866" lon="6.57648">
        <ele>1944.821</ele>
        <time>2024-05-04T10:59:50Z</time>
      </trkpt>
      <trkpt lat="46.12874" lon="6.57644">
        <ele>1939.627</ele>
        <time>2024-05-04T10:59:55Z</time>
      </trkpt>
      <trkpt lat="46.12881" lon="6.57655">
        <ele>1932.752</ele>
        <time>2024-05-04T11:00:00Z</time>
      </trkpt>
      <trkpt lat="46.12881" lon="6.57655">
        <ele>1932.466</ele>
        <time>2024-05-04T11:00:05Z</time>
      </trkpt>
      <trkpt lat="46.12881" lon="6.57655">
        <ele>1932.467</ele>
        <time>2024-05-04T11:00:10Z</time>
      </trkpt>
      <trkpt lat="46.12881" lon="6.57655">
        <ele>1932.472</ele>
        <time>2024-05-04T11:00:15Z</time>
      </trkpt>
      <trkpt lat="46.12881" lon="6.57655">
        <ele>1930.631</ele>
        <time>2024-05-04T11:00:20Z</time>
      </trkpt>
      <trkpt lat="46.12881" lon="6.57655">
        <ele>1930.637</ele>
        <time>2024-05-04T11:00:25Z</time>
      </trkpt>
      <trkpt lat="46.12878" lon="6.57662">
        <ele>1930.643</ele>
        <time>2024-05-04T11:00:30Z</time>
      </trkpt>
      <trkpt lat="46.12878" lon="6.57662">
        <ele>1930.815</ele>
        <time>2024-05-04T11:00:35Z</time>
      </trkpt>
      <trkpt lat="46.12881" lon="6.57689">
        <ele>1924.72</ele>
        <time>2024-05-04T11:00:40Z</time>
      </trkpt>
      <trkpt lat="46.12883" lon="6.57706">
        <ele>1921.167</ele>
        <time>2024-05-04T11:00:45Z</time>
      </trkpt>
      <trkpt lat="46.12888" lon="6.57716">
        <ele>1915.318</ele>
        <time>2024-05-04T11:00:50Z</time>
      </trkpt>
      <trkpt lat="46.12887" lon="6.57731">
        <ele>1908.319</ele>
        <time>2024-05-04T11:00:55Z</time>
      </trkpt>
      <trkpt lat="46.12885" lon="6.57743">
        <ele>1901.118</ele>
        <time>2024-05-04T11:01:00Z</time>
      </trkpt>
      <trkpt lat="46.12884" lon="6.57745">
        <ele>1899.163</ele>
        <time>2024-05-04T11:01:05Z</time>
      </trkpt>
      <trkpt lat="46.12884" lon="6.57745">
        <ele>1897.83</ele>
        <time>2024-05-04T11:01:10Z</time>
      </trkpt>
      <trkpt lat="46.12884" lon="6.57746">
        <ele>1897.741</ele>
        <time>2024-05-04T11:01:15Z</time>
      </trkpt>
      <trkpt lat="46.12884" lon="6.57746">
        <ele>1897.773</ele>
        <time>2024-05-04T11:01:20Z</time>
      </trkpt>
      <trkpt lat="46.12884" lon="6.57746">
        <ele>1897.8</ele>
        <time>2024-05-04T11:01:25Z</time>
      </trkpt>
      <trkpt lat="46.12884" lon="6.57746">
        <ele>1897.832</ele>
        <time>2024-05-04T11:01:30Z</time>
      </trkpt>
      <trkpt lat="46.12884" lon="6.57746">
        <ele>1897.848</ele>
        <time>2024-05-04T11:01:35Z</time>
      </trkpt>
      <trkpt lat="46.12884" lon="6.57746">
        <ele>1897.862</ele>
        <time>2024-05-04T11:01:40Z</time>
      </trkpt>
      <trkpt lat="46.12884" lon="6.57746">
        <ele>1897.882</ele>
        <time>2024-05-04T11:01:45Z</time>
      </trkpt>
      <trkpt lat="46.12884" lon="6.57746">
        <ele>1897.909</ele>
        <time>2024-05-04T11:01:50Z</time>
      </trkpt>
      <trkpt lat="46.12884" lon="6.57746">
        <ele>1896.961</ele>
        <time>2024-05-04T11:01:55Z</time>
      </trkpt>
      <trkpt lat="46.12884" lon="6.57746">
        <ele>1897.178</ele>
        <time>2024-05-04T11:02:00Z</time>
      </trkpt>
      <trkpt lat="46.12884" lon="6.57746">
        <ele>1901.038</ele>
        <time>2024-05-04T11:02:05Z</time>
      </trkpt>
      <trkpt lat="46.12884" lon="6.57746">
        <ele>1901.92</ele>
        <time>2024-05-04T11:02:10Z</time>
      </trkpt>
      <trkpt lat="46.12884" lon="6.57746">
        <ele>1902.284</ele>
        <time>2024-05-04T11:02:15Z</time>
      </trkpt>
      <trkpt lat="46.12884" lon="6.57746">
        <ele>1902.309</ele>
        <time>2024-05-04T11:02:20Z</time>
      </trkpt>
      <trkpt lat="46.12884" lon="6.57746">
        <ele>1902.323</ele>
        <time>2024-05-04T11:02:25Z</time>
      </trkpt>
      <trkpt lat="46.12884" lon="6.57746">
        <ele>1901.475</ele>
        <time>2024-05-04T11:02:30Z</time>
      </trkpt>
      <trkpt lat="46.12884" lon="6.57746">
        <ele>1901.156</ele>
        <time>2024-05-04T11:02:35Z</time>
      </trkpt>
      <trkpt lat="46.12884" lon="6.57746">
        <ele>1900.964</ele>
        <time>2024-05-04T11:02:40Z</time>
      </trkpt>
      <trkpt lat="46.12884" lon="6.57746">
        <ele>1901.004</ele>
        <time>2024-05-04T11:02:45Z</time>
      </trkpt>
      <trkpt lat="46.12884" lon="6.57746">
        <ele>1900.354</ele>
        <time>2024-05-04T11:02:50Z</time>
      </trkpt>
      <trkpt lat="46.12884" lon="6.57746">
        <ele>1899.68</ele>
        <time>2024-05-04T11:02:55Z</time>
      </trkpt>
      <trkpt lat="46.12884" lon="6.57746">
        <ele>1899.737</ele>
        <time>2024-05-04T11:03:00Z</time>
      </trkpt>
      <trkpt lat="46.12884" lon="6.57746">
        <ele>1899.799</ele>
        <time>2024-05-04T11:03:05Z</time>
      </trkpt>
      <trkpt lat="46.12884" lon="6.57746">
        <ele>1900.938</ele>
        <time>2024-05-04T11:03:10Z</time>
      </trkpt>
      <trkpt lat="46.12884" lon="6.57746">
        <ele>1902.933</ele>
        <time>2024-05-04T11:03:15Z</time>
      </trkpt>
      <trkpt lat="46.12884" lon="6.57746">
        <ele>1904.454</ele>
        <time>2024-05-04T11:03:20Z</time>
      </trkpt>
      <trkpt lat="46.12884" lon="6.57746">
        <ele>1905.659</ele>
        <time>2024-05-04T11:03:25Z</time>
      </trkpt>
      <trkpt lat="46.12884" lon="6.57746">
        <ele>1905.938</ele>
        <time>2024-05-04T11:03:30Z</time>
      </trkpt>
      <trkpt lat="46.12884" lon="6.57746">
        <ele>1905.991</ele>
        <time>2024-05-04T11:03:35Z</time>
      </trkpt>
      <trkpt lat="46.12884" lon="6.57746">
        <ele>1906.037</ele>
        <time>2024-05-04T11:03:40Z</time>
      </trkpt>
      <trkpt lat="46.12884" lon="6.57746">
        <ele>1906.056</ele>
        <time>2024-05-04T11:03:45Z</time>
      </trkpt>
      <trkpt lat="46.12884" lon="6.57746">
        <ele>1906.075</ele>
        <time>2024-05-04T11:03:50Z</time>
      </trkpt>
      <trkpt lat="46.12884" lon="6.57746">
        <ele>1906.081</ele>
        <time>2024-05-04T11:03:55Z</time>
      </trkpt>
      <trkpt lat="46.12884" lon="6.57746">
        <ele>1906.099</ele>
        <time>2024-05-04T11:04:00Z</time>
      </trkpt>
      <trkpt lat="46.12884" lon="6.57746">
        <ele>1906.104</ele>
        <time>2024-05-04T11:04:05Z</time>
      </trkpt>
      <trkpt lat="46.12884" lon="6.57746">
        <ele>1906.117</ele>
        <time>2024-05-04T11:04:10Z</time>
      </trkpt>
      <trkpt lat="46.12884" lon="6.57746">
        <ele>1906.121</ele>
        <time>2024-05-04T11:04:15Z</time>
      </trkpt>
      <trkpt lat="46.12884" lon="6.57746">
        <ele>1906.125</ele>
        <time>2024-05-04T11:04:20Z</time>
      </trkpt>
      <trkpt lat="46.12884" lon="6.57749">
        <ele>1905.135</ele>
        <time>2024-05-04T11:04:25Z</time>
      </trkpt>
      <trkpt lat="46.12894" lon="6.57764">
        <ele>1896.858</ele>
        <time>2024-05-04T11:04:30Z</time>
      </trkpt>
      <trkpt lat="46.129" lon="6.57768">
        <ele>1892.574</ele>
        <time>2024-05-04T11:04:35Z</time>
      </trkpt>
      <trkpt lat="46.12905" lon="6.57781">
        <ele>1887.989</ele>
        <time>2024-05-04T11:04:40Z</time>
      </trkpt>
      <trkpt lat="46.12905" lon="6.57802">
        <ele>1885.04</ele>
        <time>2024-05-04T11:04:45Z</time>
      </trkpt>
      <trkpt lat="46.12916" lon="6.57809">
        <ele>1876.392</ele>
        <time>2024-05-04T11:04:50Z</time>
      </trkpt>
      <trkpt lat="46.12916" lon="6.57816">
        <ele>1875.983</ele>
        <time>2024-05-04T11:04:55Z</time>
      </trkpt>
      <trkpt lat="46.12916" lon="6.57816">
        <ele>1875.911</ele>
        <time>2024-05-04T11:05:00Z</time>
      </trkpt>
      <trkpt lat="46.12916" lon="6.57816">
        <ele>1875.681</ele>
        <time>2024-05-04T11:05:05Z</time>
      </trkpt>
      <trkpt lat="46.12918" lon="6.57823">
        <ele>1874.306</ele>
        <time>2024-05-04T11:05:10Z</time>
      </trkpt>
      <trkpt lat="46.12926" lon="6.57825">
        <ele>1870.812</ele>
        <time>2024-05-04T11:05:15Z</time>
      </trkpt>
      <trkpt lat="46.12928" lon="6.57834">
        <ele>1866.526</ele>
        <time>2024-05-04T11:05:20Z</time>
      </trkpt>
      <trkpt lat="46.12928" lon="6.57835">
        <ele>1866.146</ele>
        <time>2024-05-04T11:05:25Z</time>
      </trkpt>
      <trkpt lat="46.12928" lon="6.57835">
        <ele>1865.691</ele>
        <time>2024-05-04T11:05:30Z</time>
      </trkpt>
      <trkpt lat="46.12928" lon="6.57835">
        <ele>1865.668</ele>
        <time>2024-05-04T11:05:35Z</time>
      </trkpt>
      <trkpt lat="46.12928" lon="6.57835">
        <ele>1864.369</ele>
        <time>2024-05-04T11:05:40Z</time>
      </trkpt>
      <trkpt lat="46.12928" lon="6.57835">
        <ele>1858.744</ele>
        <time>2024-05-04T11:05:45Z</time>
      </trkpt>
      <trkpt lat="46.12928" lon="6.57835">
        <ele>1857.958</ele>
        <time>2024-05-04T11:05:50Z</time>
      </trkpt>
      <trkpt lat="46.12928" lon="6.57835">
        <ele>1858.636</ele>
        <time>2024-05-04T11:05:55Z</time>
      </trkpt>
      <trkpt lat="46.12928" lon="6.57835">
        <ele>1858.672</ele>
        <time>2024-05-04T11:06:00Z</time>
      </trkpt>
      <trkpt lat="46.12939" lon="6.57832">
        <ele>1858.666</ele>
        <time>2024-05-04T11:06:05Z</time>
      </trkpt>
      <trkpt lat="46.12939" lon="6.57832">
        <ele>1857.866</ele>
        <time>2024-05-04T11:06:10Z</time>
      </trkpt>
      <trkpt lat="46.12941" lon="6.57829">
        <ele>1856.916</ele>
        <time>2024-05-04T11:06:15Z</time>
      </trkpt>
      <trkpt lat="46.12954" lon="6.57842">
        <ele>1848.886</ele>
        <time>2024-05-04T11:06:20Z</time>
      </trkpt>
      <trkpt lat="46.12957" lon="6.57861">
        <ele>1843.267</ele>
        <time>2024-05-04T11:06:25Z</time>
      </trkpt>
      <trkpt lat="46.12958" lon="6.57865">
        <ele>1841.534</ele>
        <time>2024-05-04T11:06:30Z</time>
      </trkpt>
      <trkpt lat="46.12958" lon="6.57865">
        <ele>1841.591</ele>
        <time>2024-05-04T11:06:35Z</time>
      </trkpt>
      <trkpt lat="46.12958" lon="6.57865">
        <ele>1842.403</ele>
        <time>2024-05-04T11:06:40Z</time>
      </trkpt>
      <trkpt lat="46.12958" lon="6.57865">
        <ele>1842.413</ele>
        <time>2024-05-04T11:06:45Z</time>
      </trkpt>
      <trkpt lat="46.1296" lon="6.57869">
        <ele>1840.945</ele>
        <time>2024-05-04T11:06:50Z</time>
      </trkpt>
      <trkpt lat="46.1297" lon="6.57869">
        <ele>1833.812</ele>
        <time>2024-05-04T11:06:55Z</time>
      </trkpt>
      <trkpt lat="46.12986" lon="6.57871">
        <ele>1824.608</ele>
        <time>2024-05-04T11:07:00Z</time>
      </trkpt>
      <trkpt lat="46.12993" lon="6.57871">
        <ele>1816.564</ele>
        <time>2024-05-04T11:07:05Z</time>
      </trkpt>
      <trkpt lat="46.12993" lon="6.57873">
        <ele>1815.034</ele>
        <time>2024-05-04T11:07:10Z</time>
      </trkpt>
      <trkpt lat="46.12993" lon="6.57873">
        <ele>1815.713</ele>
        <time>2024-05-04T11:07:15Z</time>
      </trkpt>
      <trkpt lat="46.12996" lon="6.57877">
        <ele>1813.093</ele>
        <time>2024-05-04T11:07:20Z</time>
      </trkpt>
      <trkpt lat="46.13004" lon="6.57859">
        <ele>1809.593</ele>
        <time>2024-05-04T11:07:25Z</time>
      </trkpt>
      <trkpt lat="46.13015" lon="6.57851">
        <ele>1800.284</ele>
        <time>2024-05-04T11:07:30Z</time>
      </trkpt>
      <trkpt lat="46.13019" lon="6.57855">
        <ele>1795.455</ele>
        <time>2024-05-04T11:07:35Z</time>
      </trkpt>
      <trkpt lat="46.13019" lon="6.57855">
        <ele>1795.741</ele>
        <time>2024-05-04T11:07:40Z</time>
      </trkpt>
      <trkpt lat="46.13019" lon="6.57855">
        <ele>1796.413</ele>
        <time>2024-05-04T11:07:45Z</time>
      </trkpt>
      <trkpt lat="46.13019" lon="6.57855">
        <ele>1796.459</ele>
        <time>2024-05-04T11:07:50Z</time>
      </trkpt>
      <trkpt lat="46.13019" lon="6.57855">
        <ele>1789.724</ele>
        <time>2024-05-04T11:07:55Z</time>
      </trkpt>
      <trkpt lat="46.13019" lon="6.57855">
        <ele>1790.157</ele>
        <time>2024-05-04T11:08:00Z</time>
      </trkpt>
      <trkpt lat="46.13028" lon="6.57852">
        <ele>1790.295</ele>
        <time>2024-05-04T11:08:05Z</time>
      </trkpt>
      <trkpt lat="46.13029" lon="6.57851">
        <ele>1787.669</ele>
        <time>2024-05-04T11:08:10Z</time>
      </trkpt>
      <trkpt lat="46.13036" lon="6.57855">
        <ele>1782.208</ele>
        <time>2024-05-04T11:08:15Z</time>
      </trkpt>
      <trkpt lat="46.13037" lon="6.57831">
        <ele>1779.504</ele>
        <time>2024-05-04T11:08:20Z</time>
      </trkpt>
      <trkpt lat="46.13048" lon="6.5782">
        <ele>1772.894</ele>
        <time>2024-05-04T11:08:25Z</time>
      </trkpt>
      <trkpt lat="46.13056" lon="6.5783">
        <ele>1768.056</ele>
        <time>2024-05-04T11:08:30Z</time>
      </trkpt>
      <trkpt lat="46.13056" lon="6.5783">
        <ele>1766.846</ele>
        <time>2024-05-04T11:08:35Z</time>
      </trkpt>
      <trkpt lat="46.13056" lon="6.5783">
        <ele>1766.664</ele>
        <time>2024-05-04T11:08:40Z</time>
      </trkpt>
      <trkpt lat="46.13065" lon="6.57829">
        <ele>1761.875</ele>
        <time>2024-05-04T11:08:45Z</time>
      </trkpt>
      <trkpt lat="46.13094" lon="6.57813">
        <ele>1750.588</ele>
        <time>2024-05-04T11:08:50Z</time>
      </trkpt>
      <trkpt lat="46.1311" lon="6.57796">
        <ele>1746.845</ele>
        <time>2024-05-04T11:08:55Z</time>
      </trkpt>
      <trkpt lat="46.13111" lon="6.57794">
        <ele>1746.401</ele>
        <time>2024-05-04T11:09:00Z</time>
      </trkpt>
      <trkpt lat="46.13111" lon="6.57794">
        <ele>1744.906</ele>
        <time>2024-05-04T11:09:05Z</time>
      </trkpt>
      <trkpt lat="46.13122" lon="6.57802">
        <ele>1739.162</ele>
        <time>2024-05-04T11:09:10Z</time>
      </trkpt>
      <trkpt lat="46.1314" lon="6.57812">
        <ele>1730.041</ele>
        <time>2024-05-04T11:09:15Z</time>
      </trkpt>
      <trkpt lat="46.13163" lon="6.57792">
        <ele>1725.365</ele>
        <time>2024-05-04T11:09:20Z</time>
      </trkpt>
      <trkpt lat="46.13181" lon="6.57793">
        <ele>1720.413</ele>
        <time>2024-05-04T11:09:25Z</time>
      </trkpt>
      <trkpt lat="46.13186" lon="6.57786">
        <ele>1719.006</ele>
        <time>2024-05-04T11:09:30Z</time>
      </trkpt>
      <trkpt lat="46.13186" lon="6.57785">
        <ele>1717.798</ele>
        <time>2024-05-04T11:09:35Z</time>
      </trkpt>
      <trkpt lat="46.13186" lon="6.57785">
        <ele>1718.577</ele>
        <time>2024-05-04T11:09:40Z</time>
      </trkpt>
      <trkpt lat="46.13186" lon="6.57785">
        <ele>1718.565</ele>
        <time>2024-05-04T11:09:45Z</time>
      </trkpt>
      <trkpt lat="46.13186" lon="6.57785">
        <ele>1718.562</ele>
        <time>2024-05-04T11:09:50Z</time>
      </trkpt>
      <trkpt lat="46.13186" lon="6.57785">
        <ele>1718.575</ele>
        <time>2024-05-04T11:09:55Z</time>
      </trkpt>
      <trkpt lat="46.13186" lon="6.57785">
        <ele>1718.538</ele>
        <time>2024-05-04T11:10:00Z</time>
      </trkpt>
      <trkpt lat="46.13186" lon="6.57785">
        <ele>1717.887</ele>
        <time>2024-05-04T11:10:05Z</time>
      </trkpt>
      <trkpt lat="46.13186" lon="6.57785">
        <ele>1717.617</ele>
        <time>2024-05-04T11:10:10Z</time>
      </trkpt>
      <trkpt lat="46.13186" lon="6.57785">
        <ele>1716.976</ele>
        <time>2024-05-04T11:10:15Z</time>
      </trkpt>
      <trkpt lat="46.13186" lon="6.57785">
        <ele>1716.992</ele>
        <time>2024-05-04T11:10:20Z</time>
      </trkpt>
      <trkpt lat="46.13186" lon="6.57785">
        <ele>1716.98</ele>
        <time>2024-05-04T11:10:25Z</time>
      </trkpt>
      <trkpt lat="46.13186" lon="6.57785">
        <ele>1716.976</ele>
        <time>2024-05-04T11:10:30Z</time>
      </trkpt>
      <trkpt lat="46.13186" lon="6.57785">
        <ele>1716.417</ele>
        <time>2024-05-04T11:10:35Z</time>
      </trkpt>
      <trkpt lat="46.13186" lon="6.57785">
        <ele>1716.681</ele>
        <time>2024-05-04T11:10:40Z</time>
      </trkpt>
      <trkpt lat="46.13186" lon="6.57785">
        <ele>1716.424</ele>
        <time>2024-05-04T11:10:45Z</time>
      </trkpt>
      <trkpt lat="46.13186" lon="6.57785">
        <ele>1716.462</ele>
        <time>2024-05-04T11:10:50Z</time>
      </trkpt>
      <trkpt lat="46.13186" lon="6.57785">
        <ele>1716.471</ele>
        <time>2024-05-04T11:10:55Z</time>
      </trkpt>
      <trkpt lat="46.13186" lon="6.57785">
        <ele>1716.451</ele>
        <time>2024-05-04T11:11:00Z</time>
      </trkpt>
      <trkpt lat="46.13186" lon="6.57785">
        <ele>1716.453</ele>
        <time>2024-05-04T11:11:05Z</time>
      </trkpt>
      <trkpt lat="46.13186" lon="6.57785">
        <ele>1716.456</ele>
        <time>2024-05-04T11:11:10Z</time>
      </trkpt>
      <trkpt lat="46.13186" lon="6.57785">
        <ele>1716.446</ele>
        <time>2024-05-04T11:11:15Z</time>
      </trkpt>
      <trkpt lat="46.13186" lon="6.57785">
        <ele>1716.437</ele>
        <time>2024-05-04T11:11:20Z</time>
      </trkpt>
      <trkpt lat="46.13186" lon="6.57785">
        <ele>1716.433</ele>
        <time>2024-05-04T11:11:25Z</time>
      </trkpt>
      <trkpt lat="46.13186" lon="6.57785">
        <ele>1714.312</ele>
        <time>2024-05-04T11:11:30Z</time>
      </trkpt>
      <trkpt lat="46.13186" lon="6.57785">
        <ele>1713.52</ele>
        <time>2024-05-04T11:11:35Z</time>
      </trkpt>
      <trkpt lat="46.13186" lon="6.57785">
        <ele>1713.372</ele>
        <time>2024-05-04T11:11:40Z</time>
      </trkpt>
      <trkpt lat="46.13186" lon="6.57785">
        <ele>1713.363</ele>
        <time>2024-05-04T11:11:45Z</time>
      </trkpt>
      <trkpt lat="46.13187" lon="6.57783">
        <ele>1714.494</ele>
        <time>2024-05-04T11:11:50Z</time>
      </trkpt>
      <trkpt lat="46.13196" lon="6.57766">
        <ele>1710.405</ele>
        <time>2024-05-04T11:11:55Z</time>
      </trkpt>
      <trkpt lat="46.13212" lon="6.57767">
        <ele>1705.378</ele>
        <time>2024-05-04T11:12:00Z</time>
      </trkpt>
      <trkpt lat="46.13228" lon="6.57773">
        <ele>1694.788</ele>
        <time>2024-05-04T11:12:05Z</time>
      </trkpt>
      <trkpt lat="46.13246" lon="6.57782">
        <ele>1687.59</ele>
        <time>2024-05-04T11:12:10Z</time>
      </trkpt>
      <trkpt lat="46.13248" lon="6.5778">
        <ele>1687.527</ele>
        <time>2024-05-04T11:12:15Z</time>
      </trkpt>
      <trkpt lat="46.13253" lon="6.57777">
        <ele>1685.72</ele>
        <time>2024-05-04T11:12:20Z</time>
      </trkpt>
      <trkpt lat="46.13257" lon="6.57814">
        <ele>1679.046</ele>
        <time>2024-05-04T11:12:25Z</time>
      </trkpt>
      <trkpt lat="46.13274" lon="6.57811">
        <ele>1671.357</ele>
        <time>2024-05-04T11:12:30Z</time>
      </trkpt>
      <trkpt lat="46.13292" lon="6.57788">
        <ele>1663.401</ele>
        <time>2024-05-04T11:12:35Z</time>
      </trkpt>
      <trkpt lat="46.13314" lon="6.5779">
        <ele>1660.35</ele>
        <time>2024-05-04T11:12:40Z</time>
      </trkpt>
      <trkpt lat="46.13316" lon="6.57796">
        <ele>1661.465</ele>
        <time>2024-05-04T11:12:45Z</time>
      </trkpt>
      <trkpt lat="46.1332" lon="6.57793">
        <ele>1660.502</ele>
        <time>2024-05-04T11:12:50Z</time>
      </trkpt>
      <trkpt lat="46.13325" lon="6.57783">
        <ele>1659.24</ele>
        <time>2024-05-04T11:12:55Z</time>
      </trkpt>
      <trkpt lat="46.13339" lon="6.57755">
        <ele>1651.517</ele>
        <time>2024-05-04T11:13:00Z</time>
      </trkpt>
      <trkpt lat="46.13355" lon="6.57724">
        <ele>1646.867</ele>
        <time>2024-05-04T11:13:05Z</time>
      </trkpt>
      <trkpt lat="46.1337" lon="6.57737">
        <ele>1642.347</ele>
        <time>2024-05-04T11:13:10Z</time>
      </trkpt>
      <trkpt lat="46.1339" lon="6.57729">
        <ele>1636.228</ele>
        <time>2024-05-04T11:13:15Z</time>
      </trkpt>
      <trkpt lat="46.13393" lon="6.57754">
        <ele>1633.181</ele>
        <time>2024-05-04T11:13:20Z</time>
      </trkpt>
      <trkpt lat="46.13415" lon="6.57777">
        <ele>1627.322</ele>
        <time>2024-05-04T11:13:25Z</time>
      </trkpt>
      <trkpt lat="46.13438" lon="6.5779">
        <ele>1621.639</ele>
        <time>2024-05-04T11:13:30Z</time>
      </trkpt>
      <trkpt lat="46.13454" lon="6.57796">
        <ele>1618.205</ele>
        <time>2024-05-04T11:13:35Z</time>
      </trkpt>
      <trkpt lat="46.13467" lon="6.578">
        <ele>1615.677</ele>
        <time>2024-05-04T11:13:40Z</time>
      </trkpt>
      <trkpt lat="46.13475" lon="6.57805">
        <ele>1614.848</ele>
        <time>2024-05-04T11:13:45Z</time>
      </trkpt>
      <trkpt lat="46.13489" lon="6.57819">
        <ele>1610.536</ele>
        <time>2024-05-04T11:13:50Z</time>
      </trkpt>
      <trkpt lat="46.13505" lon="6.57842">
        <ele>1606.265</ele>
        <time>2024-05-04T11:13:55Z</time>
      </trkpt>
      <trkpt lat="46.13507" lon="6.57877">
        <ele>1598.874</ele>
        <time>2024-05-04T11:14:00Z</time>
      </trkpt>
      <trkpt lat="46.13504" lon="6.57912">
        <ele>1592.22</ele>
        <time>2024-05-04T11:14:05Z</time>
      </trkpt>
      <trkpt lat="46.13497" lon="6.57943">
        <ele>1587.688</ele>
        <time>2024-05-04T11:14:10Z</time>
      </trkpt>
      <trkpt lat="46.135" lon="6.57972">
        <ele>1581.557</ele>
        <time>2024-05-04T11:14:15Z</time>
      </trkpt>
      <trkpt lat="46.13497" lon="6.57992">
        <ele>1576.876</ele>
        <time>2024-05-04T11:14:20Z</time>
      </trkpt>
      <trkpt lat="46.13495" lon="6.58018">
        <ele>1572.565</ele>
        <time>2024-05-04T11:14:25Z</time>
      </trkpt>
      <trkpt lat="46.13497" lon="6.58034">
        <ele>1571.435</ele>
        <time>2024-05-04T11:14:30Z</time>
      </trkpt>
      <trkpt lat="46.13497" lon="6.58034">
        <ele>1570.827</ele>
        <time>2024-05-04T11:14:35Z</time>
      </trkpt>
      <trkpt lat="46.13497" lon="6.58034">
        <ele>1571.135</ele>
        <time>2024-05-04T11:14:40Z</time>
      </trkpt>
      <trkpt lat="46.13497" lon="6.58034">
        <ele>1570.247</ele>
        <time>2024-05-04T11:14:45Z</time>
      </trkpt>
      <trkpt lat="46.13497" lon="6.58034">
        <ele>1570.882</ele>
        <time>2024-05-04T11:14:50Z</time>
      </trkpt>
      <trkpt lat="46.13497" lon="6.58034">
        <ele>1570.764</ele>
        <time>2024-05-04T11:14:55Z</time>
      </trkpt>
      <trkpt lat="46.13497" lon="6.58034">
        <ele>1571.597</ele>
        <time>2024-05-04T11:15:00Z</time>
      </trkpt>
      <trkpt lat="46.13497" lon="6.58034">
        <ele>1571.438</ele>
        <time>2024-05-04T11:15:05Z</time>
      </trkpt>
      <trkpt lat="46.13497" lon="6.58034">
        <ele>1571.178</ele>
        <time>2024-05-04T11:15:10Z</time>
      </trkpt>
      <trkpt lat="46.13497" lon="6.58034">
        <ele>1571.282</ele>
        <time>2024-05-04T11:15:15Z</time>
      </trkpt>
      <trkpt lat="46.13497" lon="6.58034">
        <ele>1571.16</ele>
        <time>2024-05-04T11:15:20Z</time>
      </trkpt>
      <trkpt lat="46.13497" lon="6.58034">
        <ele>1571.184</ele>
        <time>2024-05-04T11:15:25Z</time>
      </trkpt>
      <trkpt lat="46.13497" lon="6.58034">
        <ele>1571.196</ele>
        <time>2024-05-04T11:15:30Z</time>
      </trkpt>
      <trkpt lat="46.13497" lon="6.58034">
        <ele>1571.145</ele>
        <time>2024-05-04T11:15:35Z</time>
      </trkpt>
      <trkpt lat="46.13497" lon="6.58034">
        <ele>1571.165</ele>
        <time>2024-05-04T11:15:40Z</time>
      </trkpt>
      <trkpt lat="46.13497" lon="6.58034">
        <ele>1571.169</ele>
        <time>2024-05-04T11:15:45Z</time>
      </trkpt>
      <trkpt lat="46.13497" lon="6.58034">
        <ele>1571.172</ele>
        <time>2024-05-04T11:15:50Z</time>
      </trkpt>
      <trkpt lat="46.13497" lon="6.58034">
        <ele>1571.178</ele>
        <time>2024-05-04T11:15:55Z</time>
      </trkpt>
      <trkpt lat="46.13497" lon="6.58034">
        <ele>1571.173</ele>
        <time>2024-05-04T11:16:00Z</time>
      </trkpt>
      <trkpt lat="46.13497" lon="6.58034">
        <ele>1571.173</ele>
        <time>2024-05-04T11:16:05Z</time>
      </trkpt>
      <trkpt lat="46.13497" lon="6.58034">
        <ele>1571.15</ele>
        <time>2024-05-04T11:16:10Z</time>
      </trkpt>
      <trkpt lat="46.13497" lon="6.58034">
        <ele>1571.126</ele>
        <time>2024-05-04T11:16:15Z</time>
      </trkpt>
      <trkpt lat="46.13497" lon="6.58034">
        <ele>1571.074</ele>
        <time>2024-05-04T11:16:20Z</time>
      </trkpt>
      <trkpt lat="46.13497" lon="6.58034">
        <ele>1570.366</ele>
        <time>2024-05-04T11:16:25Z</time>
      </trkpt>
      <trkpt lat="46.13497" lon="6.58034">
        <ele>1569.97</ele>
        <time>2024-05-04T11:16:30Z</time>
      </trkpt>
      <trkpt lat="46.13497" lon="6.58034">
        <ele>1569.999</ele>
        <time>2024-05-04T11:16:35Z</time>
      </trkpt>
      <trkpt lat="46.13497" lon="6.58034">
        <ele>1570.037</ele>
        <time>2024-05-04T11:16:40Z</time>
      </trkpt>
      <trkpt lat="46.13497" lon="6.58034">
        <ele>1570.146</ele>
        <time>2024-05-04T11:16:45Z</time>
      </trkpt>
      <trkpt lat="46.13497" lon="6.58034">
        <ele>1570.73</ele>
        <time>2024-05-04T11:16:50Z</time>
      </trkpt>
      <trkpt lat="46.13497" lon="6.58034">
        <ele>1570.607</ele>
        <time>2024-05-04T11:16:55Z</time>
      </trkpt>
      <trkpt lat="46.13497" lon="6.58034">
        <ele>1571.055</ele>
        <time>2024-05-04T11:17:00Z</time>
      </trkpt>
      <trkpt lat="46.13497" lon="6.58034">
        <ele>1571.115</ele>
        <time>2024-05-04T11:17:05Z</time>
      </trkpt>
      <trkpt lat="46.13497" lon="6.58034">
        <ele>1571.124</ele>
        <time>2024-05-04T11:17:10Z</time>
      </trkpt>
      <trkpt lat="46.13497" lon="6.58034">
        <ele>1571.123</ele>
        <time>2024-05-04T11:17:15Z</time>
      </trkpt>
      <trkpt lat="46.13497" lon="6.58034">
        <ele>1571.123</ele>
        <time>2024-05-04T11:17:20Z</time>
      </trkpt>
      <trkpt lat="46.13497" lon="6.58034">
        <ele>1571.123</ele>
        <time>2024-05-04T11:17:25Z</time>
      </trkpt>
      <trkpt lat="46.13497" lon="6.58034">
        <ele>1571.122</ele>
        <time>2024-05-04T11:17:30Z</time>
      </trkpt>
      <trkpt lat="46.13497" lon="6.58034">
        <ele>1571.123</ele>
        <time>2024-05-04T11:17:35Z</time>
      </trkpt>
      <trkpt lat="46.13497" lon="6.58034">
        <ele>1571.124</ele>
        <time>2024-05-04T11:17:40Z</time>
      </trkpt>
      <trkpt lat="46.13497" lon="6.58034">
        <ele>1571.114</ele>
        <time>2024-05-04T11:17:45Z</time>
      </trkpt>
      <trkpt lat="46.13497" lon="6.58034">
        <ele>1571.115</ele>
        <time>2024-05-04T11:17:50Z</time>
      </trkpt>
      <trkpt lat="46.13497" lon="6.58034">
        <ele>1571.116</ele>
        <time>2024-05-04T11:17:55Z</time>
      </trkpt>
      <trkpt lat="46.13497" lon="6.58034">
        <ele>1571.105</ele>
        <time>2024-05-04T11:18:00Z</time>
      </trkpt>
      <trkpt lat="46.13497" lon="6.58034">
        <ele>1571.1</ele>
        <time>2024-05-04T11:18:05Z</time>
      </trkpt>
      <trkpt lat="46.13497" lon="6.58034">
        <ele>1571.107</ele>
        <time>2024-05-04T11:18:10Z</time>
      </trkpt>
      <trkpt lat="46.13497" lon="6.58034">
        <ele>1571.118</ele>
        <time>2024-05-04T11:18:15Z</time>
      </trkpt>
      <trkpt lat="46.13497" lon="6.58034">
        <ele>1571.12</ele>
        <time>2024-05-04T11:18:20Z</time>
      </trkpt>
      <trkpt lat="46.13497" lon="6.58034">
        <ele>1571.122</ele>
        <time>2024-05-04T11:18:25Z</time>
      </trkpt>
      <trkpt lat="46.13497" lon="6.58034">
        <ele>1571.123</ele>
        <time>2024-05-04T11:18:30Z</time>
      </trkpt>
      <trkpt lat="46.13497" lon="6.58034">
        <ele>1571.123</ele>
        <time>2024-05-04T11:18:35Z</time>
      </trkpt>
      <trkpt lat="46.13497" lon="6.58034">
        <ele>1571.12</ele>
        <time>2024-05-04T11:18:40Z</time>
      </trkpt>
      <trkpt lat="46.13497" lon="6.58034">
        <ele>1571.115</ele>
        <time>2024-05-04T11:18:45Z</time>
      </trkpt>
      <trkpt lat="46.13497" lon="6.58034">
        <ele>1571.394</ele>
        <time>2024-05-04T11:18:50Z</time>
      </trkpt>
      <trkpt lat="46.13497" lon="6.58034">
        <ele>1571.322</ele>
        <time>2024-05-04T11:18:55Z</time>
      </trkpt>
      <trkpt lat="46.13497" lon="6.58034">
        <ele>1571.323</ele>
        <time>2024-05-04T11:19:00Z</time>
      </trkpt>
      <trkpt lat="46.13497" lon="6.58034">
        <ele>1571.319</ele>
        <time>2024-05-04T11:19:05Z</time>
      </trkpt>
      <trkpt lat="46.13497" lon="6.58034">
        <ele>1571.31</ele>
        <time>2024-05-04T11:19:10Z</time>
      </trkpt>
      <trkpt lat="46.13497" lon="6.58034">
        <ele>1571.319</ele>
        <time>2024-05-04T11:19:15Z</time>
      </trkpt>
      <trkpt lat="46.13497" lon="6.58034">
        <ele>1571.32</ele>
        <time>2024-05-04T11:19:20Z</time>
      </trkpt>
      <trkpt lat="46.13497" lon="6.58034">
        <ele>1571.645</ele>
        <time>2024-05-04T11:19:25Z</time>
      </trkpt>
      <trkpt lat="46.13497" lon="6.58034">
        <ele>1571.593</ele>
        <time>2024-05-04T11:19:30Z</time>
      </trkpt>
      <trkpt lat="46.13497" lon="6.58034">
        <ele>1571.526</ele>
        <time>2024-05-04T11:19:35Z</time>
      </trkpt>
      <trkpt lat="46.13497" lon="6.58034">
        <ele>1571.539</ele>
        <time>2024-05-04T11:19:40Z</time>
      </trkpt>
      <trkpt lat="46.13497" lon="6.58034">
        <ele>1571.543</ele>
        <time>2024-05-04T11:19:45Z</time>
      </trkpt>
      <trkpt lat="46.13497" lon="6.58034">
        <ele>1571.533</ele>
        <time>2024-05-04T11:19:50Z</time>
      </trkpt>
      <trkpt lat="46.13497" lon="6.58034">
        <ele>1571.5</ele>
        <time>2024-05-04T11:19:55Z</time>
      </trkpt>
      <trkpt lat="46.13497" lon="6.58034">
        <ele>1568.983</ele>
        <time>2024-05-04T11:20:00Z</time>
      </trkpt>
      <trkpt lat="46.13497" lon="6.58034">
        <ele>1569.21</ele>
        <time>2024-05-04T11:20:05Z</time>
      </trkpt>
      <trkpt lat="46.13497" lon="6.58034">
        <ele>1569.542</ele>
        <time>2024-05-04T11:20:10Z</time>
      </trkpt>
      <trkpt lat="46.13497" lon="6.58034">
        <ele>1569.979</ele>
        <time>2024-05-04T11:20:15Z</time>
      </trkpt>
      <trkpt lat="46.13497" lon="6.58034">
        <ele>1570.788</ele>
        <time>2024-05-04T11:20:20Z</time>
      </trkpt>
      <trkpt lat="46.13497" lon="6.58034">
        <ele>1570.85</ele>
        <time>2024-05-04T11:20:25Z</time>
      </trkpt>
      <trkpt lat="46.13503" lon="6.58038">
        <ele>1569.977</ele>
        <time>2024-05-04T11:20:30Z</time>
      </trkpt>
      <trkpt lat="46.13506" lon="6.58041">
        <ele>1569.501</ele>
        <time>2024-05-04T11:20:35Z</time>
      </trkpt>
      <trkpt lat="46.13509" lon="6.58043">
        <ele>1570.026</ele>
        <time>2024-05-04T11:20:40Z</time>
      </trkpt>
      <trkpt lat="46.13512" lon="6.58046">
        <ele>1569.96</ele>
        <time>2024-05-04T11:20:45Z</time>
      </trkpt>
      <trkpt lat="46.13515" lon="6.58049">
        <ele>1570.101</ele>
        <time>2024-05-04T11:20:50Z</time>
      </trkpt>
      <trkpt lat="46.13518" lon="6.58053">
        <ele>1569.704</ele>
        <time>2024-05-04T11:20:55Z</time>
      </trkpt>
      <trkpt lat="46.13522" lon="6.58057">
        <ele>1569.203</ele>
        <time>2024-05-04T11:21:00Z</time>
      </trkpt>
      <trkpt lat="46.13525" lon="6.58061">
        <ele>1568.947</ele>
        <time>2024-05-04T11:21:05Z</time>
      </trkpt>
      <trkpt lat="46.13529" lon="6.58063">
        <ele>1569.785</ele>
        <time>2024-05-04T11:21:10Z</time>
      </trkpt>
      <trkpt lat="46.13533" lon="6.58064">
        <ele>1570.343</ele>
        <time>2024-05-04T11:21:15Z</time>
      </trkpt>
      <trkpt lat="46.13535" lon="6.58068">
        <ele>1570.977</ele>
        <time>2024-05-04T11:21:20Z</time>
      </trkpt>
      <trkpt lat="46.13538" lon="6.58073">
        <ele>1571.494</ele>
        <time>2024-05-04T11:21:25Z</time>
      </trkpt>
      <trkpt lat="46.13541" lon="6.58077">
        <ele>1571.945</ele>
        <time>2024-05-04T11:21:30Z</time>
      </trkpt>
      <trkpt lat="46.13544" lon="6.58081">
        <ele>1572.372</ele>
        <time>2024-05-04T11:21:35Z</time>
      </trkpt>
      <trkpt lat="46.13546" lon="6.58086">
        <ele>1572.502</ele>
        <time>2024-05-04T11:21:40Z</time>
      </trkpt>
      <trkpt lat="46.13548" lon="6.58089">
        <ele>1572.727</ele>
        <time>2024-05-04T11:21:45Z</time>
      </trkpt>
      <trkpt lat="46.13547" lon="6.58094">
        <ele>1571.472</ele>
        <time>2024-05-04T11:21:50Z</time>
      </trkpt>
      <trkpt lat="46.13547" lon="6.58095">
        <ele>1571.805</ele>
        <time>2024-05-04T11:21:55Z</time>
      </trkpt>
      <trkpt lat="46.13548" lon="6.58096">
        <ele>1572.207</ele>
        <time>2024-05-04T11:22:00Z</time>
      </trkpt>
      <trkpt lat="46.13548" lon="6.58097">
        <ele>1572.024</ele>
        <time>2024-05-04T11:22:05Z</time>
      </trkpt>
      <trkpt lat="46.13548" lon="6.58106">
        <ele>1571.837</ele>
        <time>2024-05-04T11:22:10Z</time>
      </trkpt>
      <trkpt lat="46.13554" lon="6.58123">
        <ele>1570.484</ele>
        <time>2024-05-04T11:22:15Z</time>
      </trkpt>
      <trkpt lat="46.13556" lon="6.58154">
        <ele>1565.744</ele>
        <time>2024-05-04T11:22:20Z</time>
      </trkpt>
      <trkpt lat="46.13546" lon="6.58194">
        <ele>1558.969</ele>
        <time>2024-05-04T11:22:25Z</time>
      </trkpt>
      <trkpt lat="46.1354" lon="6.5823">
        <ele>1555.23</ele>
        <time>2024-05-04T11:22:30Z</time>
      </trkpt>
      <trkpt lat="46.13538" lon="6.58257">
        <ele>1553.941</ele>
        <time>2024-05-04T11:22:35Z</time>
      </trkpt>
      <trkpt lat="46.13539" lon="6.58275">
        <ele>1552.137</ele>
        <time>2024-05-04T11:22:40Z</time>
      </trkpt>
      <trkpt lat="46.1354" lon="6.58296">
        <ele>1550.335</ele>
        <time>2024-05-04T11:22:45Z</time>
      </trkpt>
      <trkpt lat="46.13539" lon="6.58311">
        <ele>1550.366</ele>
        <time>2024-05-04T11:22:50Z</time>
      </trkpt>
      <trkpt lat="46.13537" lon="6.58324">
        <ele>1549.835</ele>
        <time>2024-05-04T11:22:55Z</time>
      </trkpt>
      <trkpt lat="46.13536" lon="6.58341">
        <ele>1548.791</ele>
        <time>2024-05-04T11:23:00Z</time>
      </trkpt>
      <trkpt lat="46.1354" lon="6.5836">
        <ele>1547.303</ele>
        <time>2024-05-04T11:23:05Z</time>
      </trkpt>
      <trkpt lat="46.13544" lon="6.58376">
        <ele>1546.837</ele>
        <time>2024-05-04T11:23:10Z</time>
      </trkpt>
      <trkpt lat="46.13548" lon="6.58391">
        <ele>1545.305</ele>
        <time>2024-05-04T11:23:15Z</time>
      </trkpt>
      <trkpt lat="46.13553" lon="6.58404">
        <ele>1544.349</ele>
        <time>2024-05-04T11:23:20Z</time>
      </trkpt>
      <trkpt lat="46.13558" lon="6.58415">
        <ele>1543.865</ele>
        <time>2024-05-04T11:23:25Z</time>
      </trkpt>
      <trkpt lat="46.1356" lon="6.58419">
        <ele>1543.222</ele>
        <time>2024-05-04T11:23:30Z</time>
      </trkpt>
      <trkpt lat="46.1356" lon="6.58419">
        <ele>1543.45</ele>
        <time>2024-05-04T11:23:35Z</time>
      </trkpt>
      <trkpt lat="46.1356" lon="6.58419">
        <ele>1543.656</ele>
        <time>2024-05-04T11:23:40Z</time>
      </trkpt>
      <trkpt lat="46.1356" lon="6.58419">
        <ele>1543.679</ele>
        <time>2024-05-04T11:23:45Z</time>
      </trkpt>
      <trkpt lat="46.1356" lon="6.58419">
        <ele>1543.68</ele>
        <time>2024-05-04T11:23:50Z</time>
      </trkpt>
      <trkpt lat="46.1356" lon="6.58419">
        <ele>1543.694</ele>
        <time>2024-05-04T11:23:55Z</time>
      </trkpt>
      <trkpt lat="46.1356" lon="6.58419">
        <ele>1543.693</ele>
        <time>2024-05-04T11:24:00Z</time>
      </trkpt>
      <trkpt lat="46.13564" lon="6.58423">
        <ele>1542.875</ele>
        <time>2024-05-04T11:24:05Z</time>
      </trkpt>
      <trkpt lat="46.13569" lon="6.58428">
        <ele>1542.012</ele>
        <time>2024-05-04T11:24:10Z</time>
      </trkpt>
      <trkpt lat="46.13574" lon="6.58432">
        <ele>1542.451</ele>
        <time>2024-05-04T11:24:15Z</time>
      </trkpt>
      <trkpt lat="46.13577" lon="6.58437">
        <ele>1542.61</ele>
        <time>2024-05-04T11:24:20Z</time>
      </trkpt>
      <trkpt lat="46.13581" lon="6.58442">
        <ele>1542.406</ele>
        <time>2024-05-04T11:24:25Z</time>
      </trkpt>
      <trkpt lat="46.13585" lon="6.58447">
        <ele>1541.75</ele>
        <time>2024-05-04T11:24:30Z</time>
      </trkpt>
      <trkpt lat="46.13588" lon="6.58452">
        <ele>1542.649</ele>
        <time>2024-05-04T11:24:35Z</time>
      </trkpt>
      <trkpt lat="46.13591" lon="6.58456">
        <ele>1542.953</ele>
        <time>2024-05-04T11:24:40Z</time>
      </trkpt>
      <trkpt lat="46.13594" lon="6.58459">
        <ele>1542.937</ele>
        <time>2024-05-04T11:24:45Z</time>
      </trkpt>
      <trkpt lat="46.13597" lon="6.58461">
        <ele>1542.467</ele>
        <time>2024-05-04T11:24:50Z</time>
      </trkpt>
      <trkpt lat="46.13598" lon="6.58462">
        <ele>1542.245</ele>
        <time>2024-05-04T11:24:55Z</time>
      </trkpt>
      <trkpt lat="46.13598" lon="6.58462">
        <ele>1542.221</ele>
        <time>2024-05-04T11:25:00Z</time>
      </trkpt>
      <trkpt lat="46.13599" lon="6.58462">
        <ele>1541.826</ele>
        <time>2024-05-04T11:25:05Z</time>
      </trkpt>
      <trkpt lat="46.13603" lon="6.58464">
        <ele>1541.704</ele>
        <time>2024-05-04T11:25:10Z</time>
      </trkpt>
      <trkpt lat="46.13607" lon="6.58468">
        <ele>1541.136</ele>
        <time>2024-05-04T11:25:15Z</time>
      </trkpt>
      <trkpt lat="46.13611" lon="6.5847">
        <ele>1541.681</ele>
        <time>2024-05-04T11:25:20Z</time>
      </trkpt>
      <trkpt lat="46.13615" lon="6.58473">
        <ele>1541</ele>
        <time>2024-05-04T11:25:25Z</time>
      </trkpt>
      <trkpt lat="46.13621" lon="6.58476">
        <ele>1540.993</ele>
        <time>2024-05-04T11:25:30Z</time>
      </trkpt>
      <trkpt lat="46.13625" lon="6.58479">
        <ele>1540.952</ele>
        <time>2024-05-04T11:25:35Z</time>
      </trkpt>
      <trkpt lat="46.13629" lon="6.58482">
        <ele>1540.161</ele>
        <time>2024-05-04T11:25:40Z</time>
      </trkpt>
      <trkpt lat="46.13633" lon="6.58485">
        <ele>1540.383</ele>
        <time>2024-05-04T11:25:45Z</time>
      </trkpt>
      <trkpt lat="46.13637" lon="6.58489">
        <ele>1540.357</ele>
        <time>2024-05-04T11:25:50Z</time>
      </trkpt>
      <trkpt lat="46.13642" lon="6.58493">
        <ele>1540.878</ele>
        <time>2024-05-04T11:25:55Z</time>
      </trkpt>
      <trkpt lat="46.13647" lon="6.58495">
        <ele>1541.003</ele>
        <time>2024-05-04T11:26:00Z</time>
      </trkpt>
      <trkpt lat="46.13652" lon="6.58498">
        <ele>1541.387</ele>
        <time>2024-05-04T11:26:05Z</time>
      </trkpt>
      <trkpt lat="46.13657" lon="6.585">
        <ele>1541.326</ele>
        <time>2024-05-04T11:26:10Z</time>
      </trkpt>
      <trkpt lat="46.13663" lon="6.58502">
        <ele>1540.465</ele>
        <time>2024-05-04T11:26:15Z</time>
      </trkpt>
      <trkpt lat="46.13669" lon="6.58502">
        <ele>1541.228</ele>
        <time>2024-05-04T11:26:20Z</time>
      </trkpt>
      <trkpt lat="46.13674" lon="6.58505">
        <ele>1541.723</ele>
        <time>2024-05-04T11:26:25Z</time>
      </trkpt>
      <trkpt lat="46.13681" lon="6.58506">
        <ele>1540.759</ele>
        <time>2024-05-04T11:26:30Z</time>
      </trkpt>
      <trkpt lat="46.13687" lon="6.58509">
        <ele>1540.711</ele>
        <time>2024-05-04T11:26:35Z</time>
      </trkpt>
      <trkpt lat="46.13691" lon="6.58512">
        <ele>1541.054</ele>
        <time>2024-05-04T11:26:40Z</time>
      </trkpt>
      <trkpt lat="46.13696" lon="6.58516">
        <ele>1540.654</ele>
        <time>2024-05-04T11:26:45Z</time>
      </trkpt>
      <trkpt lat="46.13701" lon="6.58519">
        <ele>1540.473</ele>
        <time>2024-05-04T11:26:50Z</time>
      </trkpt>
      <trkpt lat="46.13705" lon="6.58519">
        <ele>1540.514</ele>
        <time>2024-05-04T11:26:55Z</time>
      </trkpt>
      <trkpt lat="46.1371" lon="6.58521">
        <ele>1540.233</ele>
        <time>2024-05-04T11:27:00Z</time>
      </trkpt>
      <trkpt lat="46.13715" lon="6.58522">
        <ele>1538.783</ele>
        <time>2024-05-04T11:27:05Z</time>
      </trkpt>
      <trkpt lat="46.13716" lon="6.5853">
        <ele>1538.645</ele>
        <time>2024-05-04T11:27:10Z</time>
      </trkpt>
      <trkpt lat="46.13716" lon="6.58539">
        <ele>1537.991</ele>
        <time>2024-05-04T11:27:15Z</time>
      </trkpt>
      <trkpt lat="46.13713" lon="6.58545">
        <ele>1537.208</ele>
        <time>2024-05-04T11:27:20Z</time>
      </trkpt>
      <trkpt lat="46.13716" lon="6.58551">
        <ele>1537.216</ele>
        <time>2024-05-04T11:27:26Z</time>
      </trkpt>
      <trkpt lat="46.13726" lon="6.58551">
        <ele>1536.42</ele>
        <time>2024-05-04T11:27:31Z</time>
      </trkpt>
      <trkpt lat="46.1373" lon="6.5855">
        <ele>1536.495</ele>
        <time>2024-05-04T11:27:36Z</time>
      </trkpt>
      <trkpt lat="46.13734" lon="6.58545">
        <ele>1535.729</ele>
        <time>2024-05-04T11:27:41Z</time>
      </trkpt>
      <trkpt lat="46.13739" lon="6.58543">
        <ele>1534.838</ele>
        <time>2024-05-04T11:27:46Z</time>
      </trkpt>
      <trkpt lat="46.13744" lon="6.5854">
        <ele>1534.832</ele>
        <time>2024-05-04T11:27:51Z</time>
      </trkpt>
      <trkpt lat="46.13749" lon="6.58543">
        <ele>1535.103</ele>
        <time>2024-05-04T11:27:56Z</time>
      </trkpt>
      <trkpt lat="46.13754" lon="6.58542">
        <ele>1533.914</ele>
        <time>2024-05-04T11:28:01Z</time>
      </trkpt>
      <trkpt lat="46.13759" lon="6.58541">
        <ele>1533.808</ele>
        <time>2024-05-04T11:28:06Z</time>
      </trkpt>
      <trkpt lat="46.13763" lon="6.58538">
        <ele>1533.735</ele>
        <time>2024-05-04T11:28:11Z</time>
      </trkpt>
      <trkpt lat="46.13764" lon="6.58536">
        <ele>1533.712</ele>
        <time>2024-05-04T11:28:16Z</time>
      </trkpt>
      <trkpt lat="46.13764" lon="6.58536">
        <ele>1533.637</ele>
        <time>2024-05-04T11:28:21Z</time>
      </trkpt>
      <trkpt lat="46.13764" lon="6.58536">
        <ele>1533.639</ele>
        <time>2024-05-04T11:28:26Z</time>
      </trkpt>
      <trkpt lat="46.13764" lon="6.58536">
        <ele>1533.641</ele>
        <time>2024-05-04T11:28:31Z</time>
      </trkpt>
      <trkpt lat="46.13764" lon="6.58536">
        <ele>1533.643</ele>
        <time>2024-05-04T11:28:36Z</time>
      </trkpt>
      <trkpt lat="46.13764" lon="6.58536">
        <ele>1533.641</ele>
        <time>2024-05-04T11:28:41Z</time>
      </trkpt>
      <trkpt lat="46.13764" lon="6.58536">
        <ele>1533.639</ele>
        <time>2024-05-04T11:28:46Z</time>
      </trkpt>
      <trkpt lat="46.13764" lon="6.58536">
        <ele>1533.637</ele>
        <time>2024-05-04T11:28:51Z</time>
      </trkpt>
      <trkpt lat="46.13764" lon="6.58536">
        <ele>1533.634</ele>
        <time>2024-05-04T11:28:56Z</time>
      </trkpt>
      <trkpt lat="46.13764" lon="6.58536">
        <ele>1533.632</ele>
        <time>2024-05-04T11:29:01Z</time>
      </trkpt>
      <trkpt lat="46.13764" lon="6.58536">
        <ele>1533.631</ele>
        <time>2024-05-04T11:29:06Z</time>
      </trkpt>
      <trkpt lat="46.13764" lon="6.58536">
        <ele>1533.627</ele>
        <time>2024-05-04T11:29:11Z</time>
      </trkpt>
      <trkpt lat="46.13764" lon="6.58536">
        <ele>1533.626</ele>
        <time>2024-05-04T11:29:16Z</time>
      </trkpt>
      <trkpt lat="46.13764" lon="6.58536">
        <ele>1533.626</ele>
        <time>2024-05-04T11:29:21Z</time>
      </trkpt>
      <trkpt lat="46.13764" lon="6.58536">
        <ele>1533.622</ele>
        <time>2024-05-04T11:29:26Z</time>
      </trkpt>
      <trkpt lat="46.13766" lon="6.58537">
        <ele>1533.776</ele>
        <time>2024-05-04T11:29:31Z</time>
      </trkpt>
      <trkpt lat="46.1377" lon="6.58538">
        <ele>1532.852</ele>
        <time>2024-05-04T11:29:36Z</time>
      </trkpt>
      <trkpt lat="46.13775" lon="6.58537">
        <ele>1532.354</ele>
        <time>2024-05-04T11:29:41Z</time>
      </trkpt>
      <trkpt lat="46.13778" lon="6.58536">
        <ele>1531.657</ele>
        <time>2024-05-04T11:29:46Z</time>
      </trkpt>
      <trkpt lat="46.13782" lon="6.58533">
        <ele>1531.057</ele>
        <time>2024-05-04T11:29:51Z</time>
      </trkpt>
      <trkpt lat="46.13785" lon="6.58531">
        <ele>1530.4</ele>
        <time>2024-05-04T11:29:56Z</time>
      </trkpt>
      <trkpt lat="46.13789" lon="6.58529">
        <ele>1529.408</ele>
        <time>2024-05-04T11:30:01Z</time>
      </trkpt>
      <trkpt lat="46.13793" lon="6.58526">
        <ele>1529.35</ele>
        <time>2024-05-04T11:30:06Z</time>
      </trkpt>
      <trkpt lat="46.13797" lon="6.58524">
        <ele>1529.062</ele>
        <time>2024-05-04T11:30:11Z</time>
      </trkpt>
      <trkpt lat="46.13801" lon="6.58521">
        <ele>1528.755</ele>
        <time>2024-05-04T11:30:16Z</time>
      </trkpt>
      <trkpt lat="46.13806" lon="6.58518">
        <ele>1528.474</ele>
        <time>2024-05-04T11:30:21Z</time>
      </trkpt>
      <trkpt lat="46.13809" lon="6.58515">
        <ele>1527.647</ele>
        <time>2024-05-04T11:30:26Z</time>
      </trkpt>
      <trkpt lat="46.13812" lon="6.58513">
        <ele>1526.04</ele>
        <time>2024-05-04T11:30:31Z</time>
      </trkpt>
      <trkpt lat="46.13816" lon="6.5851">
        <ele>1525.858</ele>
        <time>2024-05-04T11:30:36Z</time>
      </trkpt>
      <trkpt lat="46.1382" lon="6.58507">
        <ele>1526.209</ele>
        <time>2024-05-04T11:30:41Z</time>
      </trkpt>
      <trkpt lat="46.13823" lon="6.58505">
        <ele>1526.019</ele>
        <time>2024-05-04T11:30:46Z</time>
      </trkpt>
      <trkpt lat="46.13827" lon="6.58502">
        <ele>1525.71</ele>
        <time>2024-05-04T11:30:51Z</time>
      </trkpt>
      <trkpt lat="46.13832" lon="6.585">
        <ele>1525.868</ele>
        <time>2024-05-04T11:30:56Z</time>
      </trkpt>
      <trkpt lat="46.13836" lon="6.58499">
        <ele>1525.337</ele>
        <time>2024-05-04T11:31:01Z</time>
      </trkpt>
      <trkpt lat="46.13841" lon="6.58499">
        <ele>1525.215</ele>
        <time>2024-05-04T11:31:06Z</time>
      </trkpt>
      <trkpt lat="46.13845" lon="6.58502">
        <ele>1525.271</ele>
        <time>2024-05-04T11:31:11Z</time>
      </trkpt>
      <trkpt lat="46.1385" lon="6.58503">
        <ele>1525.322</ele>
        <time>2024-05-04T11:31:16Z</time>
      </trkpt>
      <trkpt lat="46.13855" lon="6.58504">
        <ele>1524.936</ele>
        <time>2024-05-04T11:31:21Z</time>
      </trkpt>
      <trkpt lat="46.1386" lon="6.58506">
        <ele>1525.252</ele>
        <time>2024-05-04T11:31:26Z</time>
      </trkpt>
      <trkpt lat="46.13864" lon="6.58507">
        <ele>1524.245</ele>
        <time>2024-05-04T11:31:31Z</time>
      </trkpt>
      <trkpt lat="46.13869" lon="6.58508">
        <ele>1523.417</ele>
        <time>2024-05-04T11:31:36Z</time>
      </trkpt>
      <trkpt lat="46.13874" lon="6.58508">
        <ele>1522.844</ele>
        <time>2024-05-04T11:31:41Z</time>
      </trkpt>
      <trkpt lat="46.13879" lon="6.58508">
        <ele>1521.242</ele>
        <time>2024-05-04T11:31:46Z</time>
      </trkpt>
      <trkpt lat="46.13884" lon="6.5851">
        <ele>1521.547</ele>
        <time>2024-05-04T11:31:51Z</time>
      </trkpt>
      <trkpt lat="46.13888" lon="6.58512">
        <ele>1521.842</ele>
        <time>2024-05-04T11:31:56Z</time>
      </trkpt>
      <trkpt lat="46.13893" lon="6.58513">
        <ele>1521.823</ele>
        <time>2024-05-04T11:32:01Z</time>
      </trkpt>
      <trkpt lat="46.13898" lon="6.58513">
        <ele>1521.309</ele>
        <time>2024-05-04T11:32:06Z</time>
      </trkpt>
      <trkpt lat="46.13903" lon="6.58512">
        <ele>1520.108</ele>
        <time>2024-05-04T11:32:11Z</time>
      </trkpt>
      <trkpt lat="46.13909" lon="6.58512">
        <ele>1519.687</ele>
        <time>2024-05-04T11:32:16Z</time>
      </trkpt>
      <trkpt lat="46.13914" lon="6.58513">
        <ele>1518.673</ele>
        <time>2024-05-04T11:32:21Z</time>
      </trkpt>
      <trkpt lat="46.13919" lon="6.58513">
        <ele>1517.181</ele>
        <time>2024-05-04T11:32:26Z</time>
      </trkpt>
      <trkpt lat="46.13924" lon="6.58513">
        <ele>1515.907</ele>
        <time>2024-05-04T11:32:31Z</time>
      </trkpt>
      <trkpt lat="46.13928" lon="6.58511">
        <ele>1514.627</ele>
        <time>2024-05-04T11:32:36Z</time>
      </trkpt>
      <trkpt lat="46.13932" lon="6.58512">
        <ele>1514.188</ele>
        <time>2024-05-04T11:32:41Z</time>
      </trkpt>
      <trkpt lat="46.13937" lon="6.58514">
        <ele>1514.514</ele>
        <time>2024-05-04T11:32:46Z</time>
      </trkpt>
      <trkpt lat="46.13941" lon="6.58516">
        <ele>1514.625</ele>
        <time>2024-05-04T11:32:51Z</time>
      </trkpt>
      <trkpt lat="46.13946" lon="6.58518">
        <ele>1513.11</ele>
        <time>2024-05-04T11:32:56Z</time>
      </trkpt>
      <trkpt lat="46.13952" lon="6.5852">
        <ele>1513.244</ele>
        <time>2024-05-04T11:33:01Z</time>
      </trkpt>
      <trkpt lat="46.13958" lon="6.58521">
        <ele>1513.049</ele>
        <time>2024-05-04T11:33:06Z</time>
      </trkpt>
      <trkpt lat="46.13963" lon="6.58522">
        <ele>1511.845</ele>
        <time>2024-05-04T11:33:11Z</time>
      </trkpt>
      <trkpt lat="46.13969" lon="6.58523">
        <ele>1509.956</ele>
        <time>2024-05-04T11:33:16Z</time>
      </trkpt>
      <trkpt lat="46.13975" lon="6.58523">
        <ele>1509.221</ele>
        <time>2024-05-04T11:33:21Z</time>
      </trkpt>
      <trkpt lat="46.1398" lon="6.58523">
        <ele>1508.071</ele>
        <time>2024-05-04T11:33:26Z</time>
      </trkpt>
      <trkpt lat="46.13986" lon="6.58519">
        <ele>1507.81</ele>
        <time>2024-05-04T11:33:31Z</time>
      </trkpt>
      <trkpt lat="46.13986" lon="6.58517">
        <ele>1507.91</ele>
        <time>2024-05-04T11:33:36Z</time>
      </trkpt>
      <trkpt lat="46.13986" lon="6.58517">
        <ele>1507.975</ele>
        <time>2024-05-04T11:33:41Z</time>
      </trkpt>
      <trkpt lat="46.13986" lon="6.58517">
        <ele>1507.979</ele>
        <time>2024-05-04T11:33:46Z</time>
      </trkpt>
      <trkpt lat="46.13986" lon="6.58517">
        <ele>1508.201</ele>
        <time>2024-05-04T11:33:51Z</time>
      </trkpt>
      <trkpt lat="46.13986" lon="6.58517">
        <ele>1508.287</ele>
        <time>2024-05-04T11:33:56Z</time>
      </trkpt>
      <trkpt lat="46.13986" lon="6.58517">
        <ele>1508.281</ele>
        <time>2024-05-04T11:34:01Z</time>
      </trkpt>
      <trkpt lat="46.13986" lon="6.58517">
        <ele>1508.281</ele>
        <time>2024-05-04T11:34:06Z</time>
      </trkpt>
      <trkpt lat="46.13986" lon="6.58517">
        <ele>1508.278</ele>
        <time>2024-05-04T11:34:11Z</time>
      </trkpt>
      <trkpt lat="46.13986" lon="6.58517">
        <ele>1508.275</ele>
        <time>2024-05-04T11:34:16Z</time>
      </trkpt>
      <trkpt lat="46.13986" lon="6.58517">
        <ele>1508.281</ele>
        <time>2024-05-04T11:34:21Z</time>
      </trkpt>
      <trkpt lat="46.13986" lon="6.58517">
        <ele>1508.279</ele>
        <time>2024-05-04T11:34:26Z</time>
      </trkpt>
      <trkpt lat="46.13986" lon="6.58517">
        <ele>1508.283</ele>
        <time>2024-05-04T11:34:31Z</time>
      </trkpt>
      <trkpt lat="46.13986" lon="6.58517">
        <ele>1508.3</ele>
        <time>2024-05-04T11:34:36Z</time>
      </trkpt>
      <trkpt lat="46.13986" lon="6.58517">
        <ele>1508.133</ele>
        <time>2024-05-04T11:34:41Z</time>
      </trkpt>
      <trkpt lat="46.13986" lon="6.58517">
        <ele>1508.128</ele>
        <time>2024-05-04T11:34:46Z</time>
      </trkpt>
      <trkpt lat="46.13986" lon="6.58517">
        <ele>1508.128</ele>
        <time>2024-05-04T11:34:51Z</time>
      </trkpt>
      <trkpt lat="46.13986" lon="6.58517">
        <ele>1508.125</ele>
        <time>2024-05-04T11:34:56Z</time>
      </trkpt>
      <trkpt lat="46.13986" lon="6.58517">
        <ele>1508.121</ele>
        <time>2024-05-04T11:35:01Z</time>
      </trkpt>
      <trkpt lat="46.13986" lon="6.58517">
        <ele>1508.116</ele>
        <time>2024-05-04T11:35:06Z</time>
      </trkpt>
      <trkpt lat="46.13986" lon="6.58517">
        <ele>1508.11</ele>
        <time>2024-05-04T11:35:11Z</time>
      </trkpt>
      <trkpt lat="46.13986" lon="6.58517">
        <ele>1508.107</ele>
        <time>2024-05-04T11:35:16Z</time>
      </trkpt>
      <trkpt lat="46.13986" lon="6.58517">
        <ele>1508.106</ele>
        <time>2024-05-04T11:35:21Z</time>
      </trkpt>
      <trkpt lat="46.13986" lon="6.58517">
        <ele>1508.343</ele>
        <time>2024-05-04T11:35:26Z</time>
      </trkpt>
      <trkpt lat="46.13986" lon="6.58517">
        <ele>1508.346</ele>
        <time>2024-05-04T11:35:31Z</time>
      </trkpt>
      <trkpt lat="46.13986" lon="6.58517">
        <ele>1508.132</ele>
        <time>2024-05-04T11:35:36Z</time>
      </trkpt>
      <trkpt lat="46.13986" lon="6.58517">
        <ele>1508.122</ele>
        <time>2024-05-04T11:35:41Z</time>
      </trkpt>
      <trkpt lat="46.13986" lon="6.58517">
        <ele>1508.118</ele>
        <time>2024-05-04T11:35:46Z</time>
      </trkpt>
      <trkpt lat="46.13986" lon="6.58517">
        <ele>1508.116</ele>
        <time>2024-05-04T11:35:51Z</time>
      </trkpt>
      <trkpt lat="46.13986" lon="6.58517">
        <ele>1507.602</ele>
        <time>2024-05-04T11:35:56Z</time>
      </trkpt>
      <trkpt lat="46.13986" lon="6.58517">
        <ele>1507.048</ele>
        <time>2024-05-04T11:36:01Z</time>
      </trkpt>
      <trkpt lat="46.13986" lon="6.58517">
        <ele>1507.952</ele>
        <time>2024-05-04T11:36:06Z</time>
      </trkpt>
      <trkpt lat="46.13986" lon="6.58517">
        <ele>1507.749</ele>
        <time>2024-05-04T11:36:11Z</time>
      </trkpt>
      <trkpt lat="46.13986" lon="6.58517">
        <ele>1507.947</ele>
        <time>2024-05-04T11:36:16Z</time>
      </trkpt>
      <trkpt lat="46.13986" lon="6.58517">
        <ele>1506.907</ele>
        <time>2024-05-04T11:36:21Z</time>
      </trkpt>
      <trkpt lat="46.13986" lon="6.58517">
        <ele>1506.945</ele>
        <time>2024-05-04T11:36:26Z</time>
      </trkpt>
      <trkpt lat="46.13986" lon="6.58517">
        <ele>1506.962</ele>
        <time>2024-05-04T11:36:31Z</time>
      </trkpt>
      <trkpt lat="46.13986" lon="6.58517">
        <ele>1506.645</ele>
        <time>2024-05-04T11:36:36Z</time>
      </trkpt>
      <trkpt lat="46.13986" lon="6.58517">
        <ele>1506.642</ele>
        <time>2024-05-04T11:36:41Z</time>
      </trkpt>
      <trkpt lat="46.13986" lon="6.58517">
        <ele>1506.641</ele>
        <time>2024-05-04T11:36:46Z</time>
      </trkpt>
      <trkpt lat="46.13986" lon="6.58517">
        <ele>1506.635</ele>
        <time>2024-05-04T11:36:51Z</time>
      </trkpt>
      <trkpt lat="46.13986" lon="6.58517">
        <ele>1506.691</ele>
        <time>2024-05-04T11:36:56Z</time>
      </trkpt>
      <trkpt lat="46.13986" lon="6.58517">
        <ele>1506.643</ele>
        <time>2024-05-04T11:37:01Z</time>
      </trkpt>
      <trkpt lat="46.13986" lon="6.58517">
        <ele>1506.159</ele>
        <time>2024-05-04T11:37:06Z</time>
      </trkpt>
      <trkpt lat="46.13986" lon="6.58517">
        <ele>1506.266</ele>
        <time>2024-05-04T11:37:11Z</time>
      </trkpt>
      <trkpt lat="46.13986" lon="6.58517">
        <ele>1506.285</ele>
        <time>2024-05-04T11:37:16Z</time>
      </trkpt>
      <trkpt lat="46.13986" lon="6.58517">
        <ele>1505.99</ele>
        <time>2024-05-04T11:37:21Z</time>
      </trkpt>
      <trkpt lat="46.13986" lon="6.58517">
        <ele>1506.196</ele>
        <time>2024-05-04T11:37:26Z</time>
      </trkpt>
      <trkpt lat="46.13986" lon="6.58517">
        <ele>1505.733</ele>
        <time>2024-05-04T11:37:31Z</time>
      </trkpt>
      <trkpt lat="46.13986" lon="6.58517">
        <ele>1506.061</ele>
        <time>2024-05-04T11:37:36Z</time>
      </trkpt>
      <trkpt lat="46.13986" lon="6.58517">
        <ele>1506.081</ele>
        <time>2024-05-04T11:37:41Z</time>
      </trkpt>
      <trkpt lat="46.13986" lon="6.58517">
        <ele>1506.121</ele>
        <time>2024-05-04T11:37:46Z</time>
      </trkpt>
      <trkpt lat="46.13986" lon="6.58517">
        <ele>1505.675</ele>
        <time>2024-05-04T11:37:51Z</time>
      </trkpt>
      <trkpt lat="46.13986" lon="6.58517">
        <ele>1505.412</ele>
        <time>2024-05-04T11:37:56Z</time>
      </trkpt>
      <trkpt lat="46.13986" lon="6.5852">
        <ele>1505.426</ele>
        <time>2024-05-04T11:38:01Z</time>
      </trkpt>
      <trkpt lat="46.13986" lon="6.5852">
        <ele>1505.431</ele>
        <time>2024-05-04T11:38:06Z</time>
      </trkpt>
      <trkpt lat="46.13985" lon="6.5852">
        <ele>1505.443</ele>
        <time>2024-05-04T11:38:11Z</time>
      </trkpt>
    </trkseg>
  </trk>
</gpx>